<?xml version='1.0' encoding='UTF-8'?><gpx version="1.1" creator="JPX - https://github.com/jenetics/jpx" xmlns="http://www.topografix.com/GPX/1/1"><trk><trkseg><trkpt lat="44.0635927" lon="8.2128173"><ele>4.0</ele><time>2026-04-14T15:23:06.994Z</time></trkpt><trkpt lat="44.0634166" lon="8.2126877"><ele>4.0</ele><time>2026-04-14T15:23:07.994Z</time></trkpt><trkpt lat="44.0632178" lon="8.2125855"><ele>4.0</ele><time>2026-04-14T15:23:08.994Z</time></trkpt><trkpt lat="44.0628261" lon="8.2124176"><ele>3.6666666666666665</ele><time>2026-04-14T15:23:10.994Z</time></trkpt><trkpt lat="44.0626373" lon="8.2123419"><ele>3.333333333333333</ele><time>2026-04-14T15:23:11.995Z</time></trkpt><trkpt lat="44.062451" lon="8.2122685"><ele>3.0</ele><time>2026-04-14T15:23:12.995Z</time></trkpt><trkpt lat="44.0622609" lon="8.2121924"><ele>3.0</ele><time>2026-04-14T15:23:13.995Z</time></trkpt><trkpt lat="44.0620704" lon="8.2121193"><ele>3.0</ele><time>2026-04-14T15:23:14.995Z</time></trkpt><trkpt lat="44.061889" lon="8.2120449"><ele>3.0</ele><time>2026-04-14T15:23:15.995Z</time></trkpt><trkpt lat="44.0617188" lon="8.2119707"><ele>3.333333333333333</ele><time>2026-04-14T15:23:16.995Z</time></trkpt><trkpt lat="44.0615587" lon="8.2119028"><ele>3.6666666666666665</ele><time>2026-04-14T15:23:17.994Z</time></trkpt><trkpt lat="44.0614067" lon="8.2118396"><ele>4.0</ele><time>2026-04-14T15:23:18.995Z</time></trkpt><trkpt lat="44.0612622" lon="8.2117803"><ele>4.0</ele><time>2026-04-14T15:23:19.994Z</time></trkpt><trkpt lat="44.0611168" lon="8.2117253"><ele>4.0</ele><time>2026-04-14T15:23:20.994Z</time></trkpt><trkpt lat="44.060971" lon="8.2116736"><ele>4.0</ele><time>2026-04-14T15:23:21.995Z</time></trkpt><trkpt lat="44.0608258" lon="8.2116227"><ele>3.6666666666666665</ele><time>2026-04-14T15:23:22.994Z</time></trkpt><trkpt lat="44.0606794" lon="8.2115731"><ele>3.333333333333333</ele><time>2026-04-14T15:23:23.994Z</time></trkpt><trkpt lat="44.0605285" lon="8.2115294"><ele>3.0</ele><time>2026-04-14T15:23:24.994Z</time></trkpt><trkpt lat="44.0603792" lon="8.2114873"><ele>3.0</ele><time>2026-04-14T15:23:25.994Z</time></trkpt><trkpt lat="44.0602343" lon="8.211443"><ele>3.0</ele><time>2026-04-14T15:23:26.994Z</time></trkpt><trkpt lat="44.0600963" lon="8.2114003"><ele>3.0</ele><time>2026-04-14T15:23:27.994Z</time></trkpt><trkpt lat="44.0599602" lon="8.2113619"><ele>3.0</ele><time>2026-04-14T15:23:28.995Z</time></trkpt><trkpt lat="44.0598284" lon="8.2113255"><ele>3.25</ele><time>2026-04-14T15:23:29.995Z</time></trkpt><trkpt lat="44.0597042" lon="8.2112864"><ele>3.5</ele><time>2026-04-14T15:23:30.994Z</time></trkpt><trkpt lat="44.0595828" lon="8.2112477"><ele>3.75</ele><time>2026-04-14T15:23:31.995Z</time></trkpt><trkpt lat="44.0594602" lon="8.2112117"><ele>4.0</ele><time>2026-04-14T15:23:32.994Z</time></trkpt><trkpt lat="44.0593283" lon="8.2111803"><ele>4.0</ele><time>2026-04-14T15:23:33.994Z</time></trkpt><trkpt lat="44.0591829" lon="8.2111489"><ele>4.0</ele><time>2026-04-14T15:23:34.995Z</time></trkpt><trkpt lat="44.0590213" lon="8.2111105"><ele>4.0</ele><time>2026-04-14T15:23:35.995Z</time></trkpt><trkpt lat="44.0588311" lon="8.2110626"><ele>3.6666666666666665</ele><time>2026-04-14T15:23:36.994Z</time></trkpt><trkpt lat="44.0586449" lon="8.2109953"><ele>3.333333333333333</ele><time>2026-04-14T15:23:37.994Z</time></trkpt><trkpt lat="44.0584679" lon="8.2109349"><ele>3.0</ele><time>2026-04-14T15:23:38.994Z</time></trkpt><trkpt lat="44.058308" lon="8.2108845"><ele>3.25</ele><time>2026-04-14T15:23:39.995Z</time></trkpt><trkpt lat="44.0581715" lon="8.2108406"><ele>3.5</ele><time>2026-04-14T15:23:40.994Z</time></trkpt><trkpt lat="44.0580525" lon="8.2108023"><ele>3.75</ele><time>2026-04-14T15:23:41.994Z</time></trkpt><trkpt lat="44.0579532" lon="8.2107476"><ele>4.0</ele><time>2026-04-14T15:23:42.995Z</time></trkpt><trkpt lat="44.0578632" lon="8.21068"><ele>4.166666666666666</ele><time>2026-04-14T15:23:43.995Z</time></trkpt><trkpt lat="44.0577944" lon="8.2106007"><ele>4.333333333333333</ele><time>2026-04-14T15:23:44.994Z</time></trkpt><trkpt lat="44.0577586" lon="8.2105047"><ele>4.5</ele><time>2026-04-14T15:23:45.994Z</time></trkpt><trkpt lat="44.0577374" lon="8.2104082"><ele>4.666666666666667</ele><time>2026-04-14T15:23:46.995Z</time></trkpt><trkpt lat="44.0577303" lon="8.210313"><ele>4.833333333333334</ele><time>2026-04-14T15:23:47.995Z</time></trkpt><trkpt lat="44.0577567" lon="8.2101501"><ele>5.0</ele><time>2026-04-14T15:23:49.994Z</time></trkpt><trkpt lat="44.0577841" lon="8.2100619"><ele>5.0</ele><time>2026-04-14T15:23:50.995Z</time></trkpt><trkpt lat="44.0578156" lon="8.2099577"><ele>5.0</ele><time>2026-04-14T15:23:51.995Z</time></trkpt><trkpt lat="44.0578571" lon="8.2098018"><ele>5.0</ele><time>2026-04-14T15:23:52.995Z</time></trkpt><trkpt lat="44.0579071" lon="8.2095945"><ele>5.0</ele><time>2026-04-14T15:23:53.995Z</time></trkpt><trkpt lat="44.0579656" lon="8.209348"><ele>5.0</ele><time>2026-04-14T15:23:54.995Z</time></trkpt><trkpt lat="44.0580305" lon="8.2090737"><ele>5.0</ele><time>2026-04-14T15:23:55.994Z</time></trkpt><trkpt lat="44.0580879" lon="8.2087999"><ele>5.0</ele><time>2026-04-14T15:23:56.995Z</time></trkpt><trkpt lat="44.0581352" lon="8.2085346"><ele>5.0</ele><time>2026-04-14T15:23:57.994Z</time></trkpt><trkpt lat="44.0581714" lon="8.2082779"><ele>5.0</ele><time>2026-04-14T15:23:58.995Z</time></trkpt><trkpt lat="44.0582032" lon="8.2080257"><ele>5.0</ele><time>2026-04-14T15:23:59.994Z</time></trkpt><trkpt lat="44.0582398" lon="8.207777"><ele>5.0</ele><time>2026-04-14T15:24:00.994Z</time></trkpt><trkpt lat="44.0582856" lon="8.207527"><ele>5.0</ele><time>2026-04-14T15:24:01.994Z</time></trkpt><trkpt lat="44.0583479" lon="8.2072789"><ele>5.0</ele><time>2026-04-14T15:24:02.994Z</time></trkpt><trkpt lat="44.0584218" lon="8.2070343"><ele>5.0</ele><time>2026-04-14T15:24:03.994Z</time></trkpt><trkpt lat="44.0584975" lon="8.2067913"><ele>5.0</ele><time>2026-04-14T15:24:04.994Z</time></trkpt><trkpt lat="44.0585765" lon="8.2065561"><ele>5.0</ele><time>2026-04-14T15:24:05.995Z</time></trkpt><trkpt lat="44.0586573" lon="8.2063313"><ele>5.0</ele><time>2026-04-14T15:24:06.994Z</time></trkpt><trkpt lat="44.0587335" lon="8.206117"><ele>5.0</ele><time>2026-04-14T15:24:07.995Z</time></trkpt><trkpt lat="44.0588083" lon="8.205906"><ele>5.0</ele><time>2026-04-14T15:24:08.994Z</time></trkpt><trkpt lat="44.0588935" lon="8.2056809"><ele>5.0</ele><time>2026-04-14T15:24:09.994Z</time></trkpt><trkpt lat="44.0589777" lon="8.2054536"><ele>5.0</ele><time>2026-04-14T15:24:10.995Z</time></trkpt><trkpt lat="44.0590625" lon="8.2052181"><ele>5.0</ele><time>2026-04-14T15:24:11.995Z</time></trkpt><trkpt lat="44.0591385" lon="8.2049704"><ele>5.0</ele><time>2026-04-14T15:24:12.995Z</time></trkpt><trkpt lat="44.0592066" lon="8.2047251"><ele>5.0</ele><time>2026-04-14T15:24:13.994Z</time></trkpt><trkpt lat="44.0592636" lon="8.204482"><ele>5.0</ele><time>2026-04-14T15:24:14.995Z</time></trkpt><trkpt lat="44.0593152" lon="8.2042414"><ele>5.0</ele><time>2026-04-14T15:24:15.994Z</time></trkpt><trkpt lat="44.0593742" lon="8.203991"><ele>5.0</ele><time>2026-04-14T15:24:16.995Z</time></trkpt><trkpt lat="44.0594154" lon="8.2037316"><ele>5.0</ele><time>2026-04-14T15:24:17.995Z</time></trkpt><trkpt lat="44.0594464" lon="8.2034611"><ele>5.0</ele><time>2026-04-14T15:24:18.994Z</time></trkpt><trkpt lat="44.0594667" lon="8.2031752"><ele>5.0</ele><time>2026-04-14T15:24:19.994Z</time></trkpt><trkpt lat="44.0594923" lon="8.2028757"><ele>5.0</ele><time>2026-04-14T15:24:20.994Z</time></trkpt><trkpt lat="44.0595274" lon="8.20258"><ele>5.333333333333334</ele><time>2026-04-14T15:24:21.995Z</time></trkpt><trkpt lat="44.0595692" lon="8.2022823"><ele>5.666666666666667</ele><time>2026-04-14T15:24:22.994Z</time></trkpt><trkpt lat="44.0596142" lon="8.2019763"><ele>6.0</ele><time>2026-04-14T15:24:23.995Z</time></trkpt><trkpt lat="44.0596511" lon="8.2016826"><ele>6.666666666666666</ele><time>2026-04-14T15:24:24.994Z</time></trkpt><trkpt lat="44.0596776" lon="8.2014038"><ele>7.333333333333333</ele><time>2026-04-14T15:24:25.994Z</time></trkpt><trkpt lat="44.0596832" lon="8.2011265"><ele>8.0</ele><time>2026-04-14T15:24:26.995Z</time></trkpt><trkpt lat="44.0596719" lon="8.20085"><ele>7.333333333333333</ele><time>2026-04-14T15:24:27.995Z</time></trkpt><trkpt lat="44.0596671" lon="8.2005857"><ele>6.666666666666666</ele><time>2026-04-14T15:24:28.994Z</time></trkpt><trkpt lat="44.0596799" lon="8.2003106"><ele>6.0</ele><time>2026-04-14T15:24:29.994Z</time></trkpt><trkpt lat="44.0597186" lon="8.2000342"><ele>5.333333333333333</ele><time>2026-04-14T15:24:30.994Z</time></trkpt><trkpt lat="44.0597601" lon="8.1997623"><ele>4.666666666666666</ele><time>2026-04-14T15:24:31.995Z</time></trkpt><trkpt lat="44.0597906" lon="8.1995121"><ele>4.0</ele><time>2026-04-14T15:24:32.995Z</time></trkpt><trkpt lat="44.0598212" lon="8.1993"><ele>4.0</ele><time>2026-04-14T15:24:33.994Z</time></trkpt><trkpt lat="44.0598518" lon="8.1991151"><ele>4.0</ele><time>2026-04-14T15:24:34.994Z</time></trkpt><trkpt lat="44.0598721" lon="8.1989558"><ele>4.0</ele><time>2026-04-14T15:24:35.995Z</time></trkpt><trkpt lat="44.0598991" lon="8.1988088"><ele>4.0</ele><time>2026-04-14T15:24:36.995Z</time></trkpt><trkpt lat="44.0599426" lon="8.1986569"><ele>4.333333333333333</ele><time>2026-04-14T15:24:37.994Z</time></trkpt><trkpt lat="44.0600015" lon="8.1984682"><ele>4.666666666666667</ele><time>2026-04-14T15:24:38.994Z</time></trkpt><trkpt lat="44.0600644" lon="8.1982545"><ele>5.0</ele><time>2026-04-14T15:24:39.995Z</time></trkpt><trkpt lat="44.060122" lon="8.198031"><ele>5.333333333333334</ele><time>2026-04-14T15:24:40.994Z</time></trkpt><trkpt lat="44.0601667" lon="8.1977996"><ele>5.666666666666667</ele><time>2026-04-14T15:24:41.994Z</time></trkpt><trkpt lat="44.0602024" lon="8.1975272"><ele>6.0</ele><time>2026-04-14T15:24:42.995Z</time></trkpt><trkpt lat="44.0602371" lon="8.1972414"><ele>6.0</ele><time>2026-04-14T15:24:43.995Z</time></trkpt><trkpt lat="44.0602738" lon="8.1969475"><ele>6.0</ele><time>2026-04-14T15:24:44.995Z</time></trkpt><trkpt lat="44.0603088" lon="8.1966715"><ele>6.0</ele><time>2026-04-14T15:24:45.994Z</time></trkpt><trkpt lat="44.0603434" lon="8.1964131"><ele>6.0</ele><time>2026-04-14T15:24:46.995Z</time></trkpt><trkpt lat="44.0603696" lon="8.1961729"><ele>6.0</ele><time>2026-04-14T15:24:47.994Z</time></trkpt><trkpt lat="44.0604134" lon="8.1959612"><ele>6.0</ele><time>2026-04-14T15:24:48.994Z</time></trkpt><trkpt lat="44.0604768" lon="8.1957618"><ele>6.0</ele><time>2026-04-14T15:24:49.995Z</time></trkpt><trkpt lat="44.0605647" lon="8.195569"><ele>6.0</ele><time>2026-04-14T15:24:50.995Z</time></trkpt><trkpt lat="44.0606657" lon="8.1953624"><ele>6.0</ele><time>2026-04-14T15:24:51.995Z</time></trkpt><trkpt lat="44.0607741" lon="8.1951336"><ele>6.0</ele><time>2026-04-14T15:24:52.994Z</time></trkpt><trkpt lat="44.0608663" lon="8.1948693"><ele>6.0</ele><time>2026-04-14T15:24:53.995Z</time></trkpt><trkpt lat="44.0609496" lon="8.19458"><ele>6.0</ele><time>2026-04-14T15:24:54.994Z</time></trkpt><trkpt lat="44.061027" lon="8.1942834"><ele>6.0</ele><time>2026-04-14T15:24:55.994Z</time></trkpt><trkpt lat="44.0610901" lon="8.1939814"><ele>6.0</ele><time>2026-04-14T15:24:56.994Z</time></trkpt><trkpt lat="44.0611376" lon="8.1936791"><ele>6.0</ele><time>2026-04-14T15:24:57.995Z</time></trkpt><trkpt lat="44.061172" lon="8.1933827"><ele>6.333333333333334</ele><time>2026-04-14T15:24:58.995Z</time></trkpt><trkpt lat="44.0612124" lon="8.1930802"><ele>6.666666666666667</ele><time>2026-04-14T15:24:59.994Z</time></trkpt><trkpt lat="44.0612567" lon="8.1927703"><ele>7.0</ele><time>2026-04-14T15:25:00.994Z</time></trkpt><trkpt lat="44.0612976" lon="8.1924459"><ele>7.0</ele><time>2026-04-14T15:25:01.994Z</time></trkpt><trkpt lat="44.0613322" lon="8.1921173"><ele>7.0</ele><time>2026-04-14T15:25:02.994Z</time></trkpt><trkpt lat="44.0613603" lon="8.1917841"><ele>7.0</ele><time>2026-04-14T15:25:03.994Z</time></trkpt><trkpt lat="44.0613834" lon="8.1914538"><ele>7.0</ele><time>2026-04-14T15:25:04.995Z</time></trkpt><trkpt lat="44.061406" lon="8.1911409"><ele>7.0</ele><time>2026-04-14T15:25:05.994Z</time></trkpt><trkpt lat="44.0614302" lon="8.1908498"><ele>7.0</ele><time>2026-04-14T15:25:06.994Z</time></trkpt><trkpt lat="44.0614563" lon="8.190583"><ele>7.0</ele><time>2026-04-14T15:25:07.995Z</time></trkpt><trkpt lat="44.061486" lon="8.1903549"><ele>7.166666666666667</ele><time>2026-04-14T15:25:08.995Z</time></trkpt><trkpt lat="44.061518" lon="8.1901982"><ele>7.333333333333334</ele><time>2026-04-14T15:25:09.995Z</time></trkpt><trkpt lat="44.0615479" lon="8.1900769"><ele>7.5</ele><time>2026-04-14T15:25:10.995Z</time></trkpt><trkpt lat="44.0615753" lon="8.1899969"><ele>7.666666666666666</ele><time>2026-04-14T15:25:11.994Z</time></trkpt><trkpt lat="44.0616222" lon="8.1898857"><ele>7.833333333333333</ele><time>2026-04-14T15:25:13.994Z</time></trkpt><trkpt lat="44.0616492" lon="8.1897955"><ele>8.0</ele><time>2026-04-14T15:25:14.994Z</time></trkpt><trkpt lat="44.0616681" lon="8.1896535"><ele>8.5</ele><time>2026-04-14T15:25:15.995Z</time></trkpt><trkpt lat="44.0616858" lon="8.1894815"><ele>9.0</ele><time>2026-04-14T15:25:16.994Z</time></trkpt><trkpt lat="44.0617011" lon="8.189282"><ele>9.5</ele><time>2026-04-14T15:25:17.995Z</time></trkpt><trkpt lat="44.0617183" lon="8.1890708"><ele>10.0</ele><time>2026-04-14T15:25:18.994Z</time></trkpt><trkpt lat="44.0617378" lon="8.1888706"><ele>10.0</ele><time>2026-04-14T15:25:19.995Z</time></trkpt><trkpt lat="44.0617616" lon="8.1886845"><ele>10.0</ele><time>2026-04-14T15:25:20.994Z</time></trkpt><trkpt lat="44.0617791" lon="8.1885171"><ele>10.0</ele><time>2026-04-14T15:25:21.995Z</time></trkpt><trkpt lat="44.0617923" lon="8.1883655"><ele>10.0</ele><time>2026-04-14T15:25:22.994Z</time></trkpt><trkpt lat="44.0618022" lon="8.1882402"><ele>10.0</ele><time>2026-04-14T15:25:23.995Z</time></trkpt><trkpt lat="44.0618038" lon="8.1881472"><ele>10.0</ele><time>2026-04-14T15:25:24.994Z</time></trkpt><trkpt lat="44.0617926" lon="8.1880163"><ele>10.0</ele><time>2026-04-14T15:25:26.995Z</time></trkpt><trkpt lat="44.0617754" lon="8.1881206"><ele>10.0</ele><time>2026-04-14T15:25:28.995Z</time></trkpt><trkpt lat="44.0617689" lon="8.1882302"><ele>10.0</ele><time>2026-04-14T15:25:29.994Z</time></trkpt><trkpt lat="44.0617663" lon="8.1883919"><ele>10.0</ele><time>2026-04-14T15:25:30.995Z</time></trkpt><trkpt lat="44.0617563" lon="8.1885787"><ele>10.0</ele><time>2026-04-14T15:25:31.994Z</time></trkpt><trkpt lat="44.0617345" lon="8.1887791"><ele>10.0</ele><time>2026-04-14T15:25:32.994Z</time></trkpt><trkpt lat="44.0617033" lon="8.1889983"><ele>10.0</ele><time>2026-04-14T15:25:33.994Z</time></trkpt><trkpt lat="44.0616758" lon="8.1892154"><ele>10.5</ele><time>2026-04-14T15:25:34.995Z</time></trkpt><trkpt lat="44.061651" lon="8.1894218"><ele>11.0</ele><time>2026-04-14T15:25:35.995Z</time></trkpt><trkpt lat="44.0616358" lon="8.1896098"><ele>11.5</ele><time>2026-04-14T15:25:36.995Z</time></trkpt><trkpt lat="44.0616249" lon="8.189772"><ele>12.0</ele><time>2026-04-14T15:25:37.995Z</time></trkpt><trkpt lat="44.06162" lon="8.1898885"><ele>11.2</ele><time>2026-04-14T15:25:38.995Z</time></trkpt><trkpt lat="44.0616078" lon="8.1899909"><ele>10.399999999999999</ele><time>2026-04-14T15:25:40.995Z</time></trkpt><trkpt lat="44.0615338" lon="8.1899569"><ele>9.600000000000001</ele><time>2026-04-14T15:25:42.995Z</time></trkpt><trkpt lat="44.0614433" lon="8.1899324"><ele>8.8</ele><time>2026-04-14T15:25:43.995Z</time></trkpt><trkpt lat="44.0613219" lon="8.1898991"><ele>8.0</ele><time>2026-04-14T15:25:44.994Z</time></trkpt><trkpt lat="44.061188" lon="8.1898574"><ele>8.0</ele><time>2026-04-14T15:25:45.994Z</time></trkpt><trkpt lat="44.0610508" lon="8.1897962"><ele>8.0</ele><time>2026-04-14T15:25:46.994Z</time></trkpt><trkpt lat="44.0609226" lon="8.1897071"><ele>8.0</ele><time>2026-04-14T15:25:47.994Z</time></trkpt><trkpt lat="44.0608196" lon="8.1895856"><ele>8.0</ele><time>2026-04-14T15:25:48.995Z</time></trkpt><trkpt lat="44.0607408" lon="8.1894208"><ele>8.0</ele><time>2026-04-14T15:25:49.994Z</time></trkpt><trkpt lat="44.0606748" lon="8.1892327"><ele>8.0</ele><time>2026-04-14T15:25:50.994Z</time></trkpt><trkpt lat="44.0606026" lon="8.1890402"><ele>8.0</ele><time>2026-04-14T15:25:51.994Z</time></trkpt><trkpt lat="44.0605125" lon="8.1888448"><ele>8.0</ele><time>2026-04-14T15:25:52.994Z</time></trkpt><trkpt lat="44.0604123" lon="8.1886577"><ele>8.0</ele><time>2026-04-14T15:25:53.995Z</time></trkpt><trkpt lat="44.0603087" lon="8.1884692"><ele>8.0</ele><time>2026-04-14T15:25:54.995Z</time></trkpt><trkpt lat="44.0602055" lon="8.1882901"><ele>8.25</ele><time>2026-04-14T15:25:55.995Z</time></trkpt><trkpt lat="44.0601021" lon="8.1881353"><ele>8.5</ele><time>2026-04-14T15:25:56.994Z</time></trkpt><trkpt lat="44.0600045" lon="8.1879928"><ele>8.75</ele><time>2026-04-14T15:25:57.994Z</time></trkpt><trkpt lat="44.0599189" lon="8.1878569"><ele>9.0</ele><time>2026-04-14T15:25:58.994Z</time></trkpt><trkpt lat="44.059837" lon="8.1877338"><ele>9.25</ele><time>2026-04-14T15:25:59.995Z</time></trkpt><trkpt lat="44.0597536" lon="8.1876102"><ele>9.5</ele><time>2026-04-14T15:26:00.994Z</time></trkpt><trkpt lat="44.0596644" lon="8.1874814"><ele>9.75</ele><time>2026-04-14T15:26:01.994Z</time></trkpt><trkpt lat="44.0595792" lon="8.1873423"><ele>10.0</ele><time>2026-04-14T15:26:02.995Z</time></trkpt><trkpt lat="44.0594953" lon="8.187187"><ele>10.25</ele><time>2026-04-14T15:26:03.994Z</time></trkpt><trkpt lat="44.0594258" lon="8.1870163"><ele>10.5</ele><time>2026-04-14T15:26:04.994Z</time></trkpt><trkpt lat="44.0593701" lon="8.1868523"><ele>10.75</ele><time>2026-04-14T15:26:05.994Z</time></trkpt><trkpt lat="44.0593201" lon="8.1866953"><ele>11.0</ele><time>2026-04-14T15:26:06.995Z</time></trkpt><trkpt lat="44.0592648" lon="8.1865451"><ele>11.200000000000001</ele><time>2026-04-14T15:26:07.994Z</time></trkpt><trkpt lat="44.0592109" lon="8.1864155"><ele>11.4</ele><time>2026-04-14T15:26:08.994Z</time></trkpt><trkpt lat="44.0591433" lon="8.1862936"><ele>11.6</ele><time>2026-04-14T15:26:09.994Z</time></trkpt><trkpt lat="44.0590646" lon="8.1861926"><ele>11.8</ele><time>2026-04-14T15:26:10.994Z</time></trkpt><trkpt lat="44.0589811" lon="8.1861123"><ele>12.0</ele><time>2026-04-14T15:26:11.995Z</time></trkpt><trkpt lat="44.0589015" lon="8.1860639"><ele>12.0</ele><time>2026-04-14T15:26:12.995Z</time></trkpt><trkpt lat="44.0588304" lon="8.186029"><ele>12.0</ele><time>2026-04-14T15:26:13.994Z</time></trkpt><trkpt lat="44.0587607" lon="8.1859743"><ele>12.0</ele><time>2026-04-14T15:26:15.995Z</time></trkpt><trkpt lat="44.0587748" lon="8.1858256"><ele>12.0</ele><time>2026-04-14T15:26:18.994Z</time></trkpt><trkpt lat="44.0588118" lon="8.185735"><ele>12.0</ele><time>2026-04-14T15:26:19.995Z</time></trkpt><trkpt lat="44.0588807" lon="8.1856192"><ele>12.0</ele><time>2026-04-14T15:26:20.994Z</time></trkpt><trkpt lat="44.0590103" lon="8.1854723"><ele>12.0</ele><time>2026-04-14T15:26:21.995Z</time></trkpt><trkpt lat="44.0591602" lon="8.1853313"><ele>12.0</ele><time>2026-04-14T15:26:22.995Z</time></trkpt><trkpt lat="44.059288" lon="8.1852047"><ele>12.0</ele><time>2026-04-14T15:26:23.995Z</time></trkpt><trkpt lat="44.0593927" lon="8.1850785"><ele>12.0</ele><time>2026-04-14T15:26:24.994Z</time></trkpt><trkpt lat="44.0594815" lon="8.1849605"><ele>12.0</ele><time>2026-04-14T15:26:25.994Z</time></trkpt><trkpt lat="44.0595701" lon="8.1848462"><ele>12.0</ele><time>2026-04-14T15:26:26.994Z</time></trkpt><trkpt lat="44.0596715" lon="8.1847188"><ele>12.0</ele><time>2026-04-14T15:26:27.994Z</time></trkpt><trkpt lat="44.0597723" lon="8.1845804"><ele>12.0</ele><time>2026-04-14T15:26:28.994Z</time></trkpt><trkpt lat="44.0598803" lon="8.1844321"><ele>12.0</ele><time>2026-04-14T15:26:29.994Z</time></trkpt><trkpt lat="44.0599865" lon="8.1842835"><ele>12.0</ele><time>2026-04-14T15:26:30.994Z</time></trkpt><trkpt lat="44.0601022" lon="8.1841338"><ele>12.25</ele><time>2026-04-14T15:26:31.995Z</time></trkpt><trkpt lat="44.0602205" lon="8.1840012"><ele>12.5</ele><time>2026-04-14T15:26:32.995Z</time></trkpt><trkpt lat="44.0603331" lon="8.1838762"><ele>12.75</ele><time>2026-04-14T15:26:33.994Z</time></trkpt><trkpt lat="44.0604304" lon="8.1837512"><ele>13.0</ele><time>2026-04-14T15:26:34.994Z</time></trkpt><trkpt lat="44.0605279" lon="8.1836285"><ele>13.0</ele><time>2026-04-14T15:26:35.994Z</time></trkpt><trkpt lat="44.060629" lon="8.1835058"><ele>13.0</ele><time>2026-04-14T15:26:36.995Z</time></trkpt><trkpt lat="44.0607362" lon="8.1833757"><ele>13.0</ele><time>2026-04-14T15:26:37.994Z</time></trkpt><trkpt lat="44.0608427" lon="8.1832324"><ele>13.0</ele><time>2026-04-14T15:26:38.994Z</time></trkpt><trkpt lat="44.0609535" lon="8.1830944"><ele>13.333333333333332</ele><time>2026-04-14T15:26:39.995Z</time></trkpt><trkpt lat="44.0610702" lon="8.1829644"><ele>13.666666666666668</ele><time>2026-04-14T15:26:40.994Z</time></trkpt><trkpt lat="44.0611863" lon="8.1828306"><ele>14.0</ele><time>2026-04-14T15:26:41.994Z</time></trkpt><trkpt lat="44.0613045" lon="8.1826873"><ele>14.0</ele><time>2026-04-14T15:26:42.995Z</time></trkpt><trkpt lat="44.0614188" lon="8.1825419"><ele>14.0</ele><time>2026-04-14T15:26:43.995Z</time></trkpt><trkpt lat="44.0615287" lon="8.1824115"><ele>14.0</ele><time>2026-04-14T15:26:44.995Z</time></trkpt><trkpt lat="44.0616308" lon="8.1822936"><ele>14.0</ele><time>2026-04-14T15:26:45.994Z</time></trkpt><trkpt lat="44.0617204" lon="8.182183"><ele>14.399999999999999</ele><time>2026-04-14T15:26:46.994Z</time></trkpt><trkpt lat="44.0617929" lon="8.1820683"><ele>14.799999999999999</ele><time>2026-04-14T15:26:47.995Z</time></trkpt><trkpt lat="44.0618627" lon="8.1819707"><ele>15.200000000000001</ele><time>2026-04-14T15:26:48.994Z</time></trkpt><trkpt lat="44.0619329" lon="8.181896"><ele>15.600000000000001</ele><time>2026-04-14T15:26:49.994Z</time></trkpt><trkpt lat="44.0619955" lon="8.1818374"><ele>16.0</ele><time>2026-04-14T15:26:50.995Z</time></trkpt><trkpt lat="44.0620848" lon="8.1817298"><ele>16.0</ele><time>2026-04-14T15:26:52.995Z</time></trkpt><trkpt lat="44.0621164" lon="8.1816247"><ele>16.0</ele><time>2026-04-14T15:26:53.994Z</time></trkpt><trkpt lat="44.0621454" lon="8.1814706"><ele>16.0</ele><time>2026-04-14T15:26:54.995Z</time></trkpt><trkpt lat="44.0621793" lon="8.1812775"><ele>16.0</ele><time>2026-04-14T15:26:55.994Z</time></trkpt><trkpt lat="44.0622162" lon="8.1810737"><ele>16.0</ele><time>2026-04-14T15:26:56.994Z</time></trkpt><trkpt lat="44.0622654" lon="8.1808758"><ele>16.0</ele><time>2026-04-14T15:26:57.994Z</time></trkpt><trkpt lat="44.0623132" lon="8.1806812"><ele>16.0</ele><time>2026-04-14T15:26:58.995Z</time></trkpt><trkpt lat="44.062373" lon="8.1804899"><ele>16.0</ele><time>2026-04-14T15:26:59.995Z</time></trkpt><trkpt lat="44.0624301" lon="8.1803063"><ele>16.0</ele><time>2026-04-14T15:27:00.994Z</time></trkpt><trkpt lat="44.0624884" lon="8.1801455"><ele>16.0</ele><time>2026-04-14T15:27:01.995Z</time></trkpt><trkpt lat="44.0625453" lon="8.1799989"><ele>16.0</ele><time>2026-04-14T15:27:02.995Z</time></trkpt><trkpt lat="44.0625906" lon="8.1799246"><ele>16.0</ele><time>2026-04-14T15:27:03.994Z</time></trkpt><trkpt lat="44.0626753" lon="8.1798109"><ele>16.0</ele><time>2026-04-14T15:27:05.994Z</time></trkpt><trkpt lat="44.0627483" lon="8.1797297"><ele>16.0</ele><time>2026-04-14T15:27:06.994Z</time></trkpt><trkpt lat="44.0628412" lon="8.1796377"><ele>16.0</ele><time>2026-04-14T15:27:07.994Z</time></trkpt><trkpt lat="44.0629753" lon="8.1795414"><ele>16.0</ele><time>2026-04-14T15:27:08.995Z</time></trkpt><trkpt lat="44.0631145" lon="8.1794209"><ele>16.0</ele><time>2026-04-14T15:27:09.994Z</time></trkpt><trkpt lat="44.0632482" lon="8.179276"><ele>16.0</ele><time>2026-04-14T15:27:10.995Z</time></trkpt><trkpt lat="44.0633681" lon="8.1791357"><ele>16.0</ele><time>2026-04-14T15:27:11.995Z</time></trkpt><trkpt lat="44.0634726" lon="8.1790089"><ele>16.0</ele><time>2026-04-14T15:27:12.994Z</time></trkpt><trkpt lat="44.063556" lon="8.1789077"><ele>16.0</ele><time>2026-04-14T15:27:13.994Z</time></trkpt><trkpt lat="44.0636247" lon="8.1788344"><ele>16.0</ele><time>2026-04-14T15:27:14.995Z</time></trkpt><trkpt lat="44.0636723" lon="8.1787756"><ele>16.0</ele><time>2026-04-14T15:27:15.995Z</time></trkpt><trkpt lat="44.063766" lon="8.1786518"><ele>16.0</ele><time>2026-04-14T15:27:17.995Z</time></trkpt><trkpt lat="44.0638274" lon="8.1785601"><ele>16.0</ele><time>2026-04-14T15:27:18.994Z</time></trkpt><trkpt lat="44.0639022" lon="8.178457"><ele>16.0</ele><time>2026-04-14T15:27:19.994Z</time></trkpt><trkpt lat="44.063986" lon="8.1783503"><ele>16.0</ele><time>2026-04-14T15:27:20.995Z</time></trkpt><trkpt lat="44.0640717" lon="8.1782356"><ele>16.0</ele><time>2026-04-14T15:27:21.994Z</time></trkpt><trkpt lat="44.0641655" lon="8.1781175"><ele>16.0</ele><time>2026-04-14T15:27:22.994Z</time></trkpt><trkpt lat="44.0642686" lon="8.1779789"><ele>16.0</ele><time>2026-04-14T15:27:23.995Z</time></trkpt><trkpt lat="44.0643704" lon="8.1778462"><ele>16.25</ele><time>2026-04-14T15:27:24.995Z</time></trkpt><trkpt lat="44.0644573" lon="8.177721"><ele>16.5</ele><time>2026-04-14T15:27:25.995Z</time></trkpt><trkpt lat="44.064547" lon="8.1775921"><ele>16.75</ele><time>2026-04-14T15:27:26.995Z</time></trkpt><trkpt lat="44.0646476" lon="8.1774656"><ele>17.0</ele><time>2026-04-14T15:27:27.994Z</time></trkpt><trkpt lat="44.0647644" lon="8.1773193"><ele>17.333333333333336</ele><time>2026-04-14T15:27:28.994Z</time></trkpt><trkpt lat="44.064899" lon="8.1771637"><ele>17.666666666666668</ele><time>2026-04-14T15:27:29.994Z</time></trkpt><trkpt lat="44.0650384" lon="8.1770075"><ele>18.0</ele><time>2026-04-14T15:27:30.995Z</time></trkpt><trkpt lat="44.0651706" lon="8.1768634"><ele>18.0</ele><time>2026-04-14T15:27:31.994Z</time></trkpt><trkpt lat="44.0652921" lon="8.1767231"><ele>18.0</ele><time>2026-04-14T15:27:32.994Z</time></trkpt><trkpt lat="44.0654033" lon="8.1766007"><ele>18.0</ele><time>2026-04-14T15:27:33.995Z</time></trkpt><trkpt lat="44.0655068" lon="8.1764929"><ele>18.0</ele><time>2026-04-14T15:27:34.995Z</time></trkpt><trkpt lat="44.0656017" lon="8.1764006"><ele>18.0</ele><time>2026-04-14T15:27:35.994Z</time></trkpt><trkpt lat="44.0656791" lon="8.1763183"><ele>18.0</ele><time>2026-04-14T15:27:36.994Z</time></trkpt><trkpt lat="44.0657376" lon="8.1762354"><ele>18.0</ele><time>2026-04-14T15:27:37.994Z</time></trkpt><trkpt lat="44.0657896" lon="8.1761633"><ele>18.0</ele><time>2026-04-14T15:27:38.994Z</time></trkpt><trkpt lat="44.0658409" lon="8.1760825"><ele>18.0</ele><time>2026-04-14T15:27:39.995Z</time></trkpt><trkpt lat="44.0658912" lon="8.1760004"><ele>18.0</ele><time>2026-04-14T15:27:40.994Z</time></trkpt><trkpt lat="44.065939" lon="8.1759139"><ele>18.5</ele><time>2026-04-14T15:27:41.995Z</time></trkpt><trkpt lat="44.0659766" lon="8.1758173"><ele>19.0</ele><time>2026-04-14T15:27:42.995Z</time></trkpt><trkpt lat="44.0660123" lon="8.1757086"><ele>19.5</ele><time>2026-04-14T15:27:43.994Z</time></trkpt><trkpt lat="44.0660429" lon="8.1755903"><ele>20.0</ele><time>2026-04-14T15:27:44.995Z</time></trkpt><trkpt lat="44.0660748" lon="8.1754692"><ele>20.5</ele><time>2026-04-14T15:27:45.995Z</time></trkpt><trkpt lat="44.0661124" lon="8.1753394"><ele>21.0</ele><time>2026-04-14T15:27:46.994Z</time></trkpt><trkpt lat="44.0661554" lon="8.1752333"><ele>21.4</ele><time>2026-04-14T15:27:47.994Z</time></trkpt><trkpt lat="44.0661889" lon="8.1751343"><ele>21.8</ele><time>2026-04-14T15:27:48.994Z</time></trkpt><trkpt lat="44.0662134" lon="8.1750043"><ele>22.2</ele><time>2026-04-14T15:27:49.994Z</time></trkpt><trkpt lat="44.0662267" lon="8.17489"><ele>22.599999999999998</ele><time>2026-04-14T15:27:50.994Z</time></trkpt><trkpt lat="44.06626" lon="8.1747588"><ele>23.0</ele><time>2026-04-14T15:27:51.994Z</time></trkpt><trkpt lat="44.0663171" lon="8.1746222"><ele>23.0</ele><time>2026-04-14T15:27:52.995Z</time></trkpt><trkpt lat="44.0663832" lon="8.1744826"><ele>23.0</ele><time>2026-04-14T15:27:53.994Z</time></trkpt><trkpt lat="44.0664512" lon="8.1743536"><ele>23.0</ele><time>2026-04-14T15:27:54.995Z</time></trkpt><trkpt lat="44.0665205" lon="8.1742275"><ele>23.0</ele><time>2026-04-14T15:27:55.995Z</time></trkpt><trkpt lat="44.0665885" lon="8.1741037"><ele>21.799999999999997</ele><time>2026-04-14T15:27:56.995Z</time></trkpt><trkpt lat="44.0666581" lon="8.1739818"><ele>20.599999999999998</ele><time>2026-04-14T15:27:57.995Z</time></trkpt><trkpt lat="44.066728" lon="8.1738628"><ele>19.4</ele><time>2026-04-14T15:27:58.995Z</time></trkpt><trkpt lat="44.0667918" lon="8.1737434"><ele>18.2</ele><time>2026-04-14T15:27:59.994Z</time></trkpt><trkpt lat="44.0668528" lon="8.1736151"><ele>17.0</ele><time>2026-04-14T15:28:00.993Z</time></trkpt><trkpt lat="44.0669109" lon="8.1734784"><ele>17.0</ele><time>2026-04-14T15:28:01.994Z</time></trkpt><trkpt lat="44.0669718" lon="8.1733515"><ele>17.0</ele><time>2026-04-14T15:28:02.993Z</time></trkpt><trkpt lat="44.0670347" lon="8.1732261"><ele>17.0</ele><time>2026-04-14T15:28:03.993Z</time></trkpt><trkpt lat="44.0670945" lon="8.1731012"><ele>17.0</ele><time>2026-04-14T15:28:04.994Z</time></trkpt><trkpt lat="44.0671593" lon="8.1729848"><ele>17.0</ele><time>2026-04-14T15:28:05.993Z</time></trkpt><trkpt lat="44.0672253" lon="8.1728687"><ele>17.4</ele><time>2026-04-14T15:28:06.993Z</time></trkpt><trkpt lat="44.0672892" lon="8.1727632"><ele>17.799999999999997</ele><time>2026-04-14T15:28:07.993Z</time></trkpt><trkpt lat="44.0673516" lon="8.1726452"><ele>18.2</ele><time>2026-04-14T15:28:08.993Z</time></trkpt><trkpt lat="44.0674136" lon="8.1725334"><ele>18.599999999999998</ele><time>2026-04-14T15:28:09.994Z</time></trkpt><trkpt lat="44.0674805" lon="8.1724267"><ele>19.0</ele><time>2026-04-14T15:28:10.994Z</time></trkpt><trkpt lat="44.0675462" lon="8.1723079"><ele>19.0</ele><time>2026-04-14T15:28:11.993Z</time></trkpt><trkpt lat="44.0676092" lon="8.1721877"><ele>19.0</ele><time>2026-04-14T15:28:12.993Z</time></trkpt><trkpt lat="44.0676734" lon="8.1720709"><ele>19.0</ele><time>2026-04-14T15:28:13.993Z</time></trkpt><trkpt lat="44.0677301" lon="8.1719607"><ele>19.0</ele><time>2026-04-14T15:28:14.994Z</time></trkpt><trkpt lat="44.0677785" lon="8.1718532"><ele>19.0</ele><time>2026-04-14T15:28:15.993Z</time></trkpt><trkpt lat="44.0678312" lon="8.1717456"><ele>19.0</ele><time>2026-04-14T15:28:16.993Z</time></trkpt><trkpt lat="44.0678944" lon="8.1716321"><ele>19.0</ele><time>2026-04-14T15:28:17.993Z</time></trkpt><trkpt lat="44.0679583" lon="8.1715184"><ele>19.0</ele><time>2026-04-14T15:28:18.994Z</time></trkpt><trkpt lat="44.0680109" lon="8.1714082"><ele>19.0</ele><time>2026-04-14T15:28:19.993Z</time></trkpt><trkpt lat="44.0680633" lon="8.1713057"><ele>19.0</ele><time>2026-04-14T15:28:20.994Z</time></trkpt><trkpt lat="44.0681097" lon="8.171199"><ele>19.0</ele><time>2026-04-14T15:28:21.993Z</time></trkpt><trkpt lat="44.0681595" lon="8.1711013"><ele>19.0</ele><time>2026-04-14T15:28:22.993Z</time></trkpt><trkpt lat="44.068208" lon="8.1710021"><ele>19.0</ele><time>2026-04-14T15:28:23.994Z</time></trkpt><trkpt lat="44.0682595" lon="8.1709153"><ele>19.0</ele><time>2026-04-14T15:28:24.993Z</time></trkpt><trkpt lat="44.0683069" lon="8.1708422"><ele>19.0</ele><time>2026-04-14T15:28:25.994Z</time></trkpt><trkpt lat="44.0684006" lon="8.1707254"><ele>19.285714285714285</ele><time>2026-04-14T15:28:27.993Z</time></trkpt><trkpt lat="44.0684659" lon="8.1706735"><ele>19.571428571428573</ele><time>2026-04-14T15:28:28.993Z</time></trkpt><trkpt lat="44.0685369" lon="8.1706289"><ele>19.857142857142858</ele><time>2026-04-14T15:28:29.994Z</time></trkpt><trkpt lat="44.0685954" lon="8.1705677"><ele>20.142857142857142</ele><time>2026-04-14T15:28:30.993Z</time></trkpt><trkpt lat="44.0686389" lon="8.1704867"><ele>20.42857142857143</ele><time>2026-04-14T15:28:31.993Z</time></trkpt><trkpt lat="44.0686625" lon="8.1703983"><ele>20.714285714285715</ele><time>2026-04-14T15:28:32.994Z</time></trkpt><trkpt lat="44.0686382" lon="8.1703002"><ele>21.0</ele><time>2026-04-14T15:28:33.993Z</time></trkpt><trkpt lat="44.0685751" lon="8.1702129"><ele>21.0</ele><time>2026-04-14T15:28:34.994Z</time></trkpt><trkpt lat="44.0684881" lon="8.1701478"><ele>21.0</ele><time>2026-04-14T15:28:35.993Z</time></trkpt><trkpt lat="44.0683851" lon="8.1700862"><ele>21.0</ele><time>2026-04-14T15:28:36.994Z</time></trkpt><trkpt lat="44.0682749" lon="8.1699921"><ele>21.0</ele><time>2026-04-14T15:28:37.993Z</time></trkpt><trkpt lat="44.0681686" lon="8.1698744"><ele>21.0</ele><time>2026-04-14T15:28:38.993Z</time></trkpt><trkpt lat="44.0680698" lon="8.1697299"><ele>21.0</ele><time>2026-04-14T15:28:39.994Z</time></trkpt><trkpt lat="44.0679861" lon="8.1695502"><ele>21.0</ele><time>2026-04-14T15:28:40.993Z</time></trkpt><trkpt lat="44.0679071" lon="8.1693598"><ele>21.0</ele><time>2026-04-14T15:28:41.993Z</time></trkpt><trkpt lat="44.0678293" lon="8.1691475"><ele>21.0</ele><time>2026-04-14T15:28:42.993Z</time></trkpt><trkpt lat="44.0677417" lon="8.1689167"><ele>21.0</ele><time>2026-04-14T15:28:43.994Z</time></trkpt><trkpt lat="44.0676428" lon="8.1686757"><ele>21.0</ele><time>2026-04-14T15:28:44.993Z</time></trkpt><trkpt lat="44.0675459" lon="8.1684365"><ele>21.0</ele><time>2026-04-14T15:28:45.993Z</time></trkpt><trkpt lat="44.0674449" lon="8.1681974"><ele>21.0</ele><time>2026-04-14T15:28:46.994Z</time></trkpt><trkpt lat="44.0673395" lon="8.1679677"><ele>21.0</ele><time>2026-04-14T15:28:47.994Z</time></trkpt><trkpt lat="44.0672331" lon="8.1677313"><ele>21.0</ele><time>2026-04-14T15:28:48.993Z</time></trkpt><trkpt lat="44.0671276" lon="8.1674938"><ele>21.0</ele><time>2026-04-14T15:28:49.993Z</time></trkpt><trkpt lat="44.0670274" lon="8.16726"><ele>22.0</ele><time>2026-04-14T15:28:50.994Z</time></trkpt><trkpt lat="44.066928" lon="8.1670249"><ele>23.0</ele><time>2026-04-14T15:28:51.993Z</time></trkpt><trkpt lat="44.0668298" lon="8.1667953"><ele>24.0</ele><time>2026-04-14T15:28:52.993Z</time></trkpt><trkpt lat="44.0667316" lon="8.1665735"><ele>23.666666666666668</ele><time>2026-04-14T15:28:53.993Z</time></trkpt><trkpt lat="44.0666307" lon="8.1663537"><ele>23.333333333333336</ele><time>2026-04-14T15:28:54.993Z</time></trkpt><trkpt lat="44.0665353" lon="8.1661329"><ele>23.0</ele><time>2026-04-14T15:28:55.994Z</time></trkpt><trkpt lat="44.0664413" lon="8.1659032"><ele>24.666666666666668</ele><time>2026-04-14T15:28:56.993Z</time></trkpt><trkpt lat="44.0663477" lon="8.1656808"><ele>26.333333333333336</ele><time>2026-04-14T15:28:57.994Z</time></trkpt><trkpt lat="44.0662438" lon="8.1654698"><ele>28.0</ele><time>2026-04-14T15:28:58.994Z</time></trkpt><trkpt lat="44.0661327" lon="8.1652601"><ele>28.0</ele><time>2026-04-14T15:28:59.993Z</time></trkpt><trkpt lat="44.0660082" lon="8.1650608"><ele>28.0</ele><time>2026-04-14T15:29:00.993Z</time></trkpt><trkpt lat="44.0658723" lon="8.1648694"><ele>28.0</ele><time>2026-04-14T15:29:01.993Z</time></trkpt><trkpt lat="44.0657284" lon="8.1646858"><ele>37.333333333333336</ele><time>2026-04-14T15:29:02.993Z</time></trkpt><trkpt lat="44.0655737" lon="8.1645168"><ele>46.66666666666667</ele><time>2026-04-14T15:29:03.993Z</time></trkpt><trkpt lat="44.0654085" lon="8.1643601"><ele>56.0</ele><time>2026-04-14T15:29:04.993Z</time></trkpt><trkpt lat="44.0652415" lon="8.1642078"><ele>56.0</ele><time>2026-04-14T15:29:05.993Z</time></trkpt><trkpt lat="44.0650742" lon="8.1640516"><ele>56.0</ele><time>2026-04-14T15:29:06.993Z</time></trkpt><trkpt lat="44.0649019" lon="8.1638905"><ele>56.0</ele><time>2026-04-14T15:29:07.994Z</time></trkpt><trkpt lat="44.0647281" lon="8.1637178"><ele>44.0</ele><time>2026-04-14T15:29:08.994Z</time></trkpt><trkpt lat="44.0604783" lon="8.16341"><ele>44.0</ele><time>2026-04-14T15:29:29.989Z</time></trkpt><trkpt lat="44.0602761" lon="8.1633285"><ele>44.0</ele><time>2026-04-14T15:29:30.989Z</time></trkpt><trkpt lat="44.0600687" lon="8.1632883"><ele>44.0</ele><time>2026-04-14T15:29:31.989Z</time></trkpt><trkpt lat="44.0598629" lon="8.1632547"><ele>49.0</ele><time>2026-04-14T15:29:32.989Z</time></trkpt><trkpt lat="44.0596539" lon="8.1632215"><ele>54.0</ele><time>2026-04-14T15:29:33.988Z</time></trkpt><trkpt lat="44.059444" lon="8.1631895"><ele>59.0</ele><time>2026-04-14T15:29:34.988Z</time></trkpt><trkpt lat="44.059234" lon="8.1631578"><ele>53.0</ele><time>2026-04-14T15:29:35.989Z</time></trkpt><trkpt lat="44.0590254" lon="8.1631251"><ele>47.0</ele><time>2026-04-14T15:29:36.988Z</time></trkpt><trkpt lat="44.056795" lon="8.1626817"><ele>37.33333333333333</ele><time>2026-04-14T15:29:49.989Z</time></trkpt><trkpt lat="44.0565981" lon="8.1627062"><ele>27.666666666666664</ele><time>2026-04-14T15:29:50.988Z</time></trkpt><trkpt lat="44.0564564" lon="8.1627078"><ele>18.0</ele><time>2026-04-14T15:29:51.988Z</time></trkpt><trkpt lat="44.0563465" lon="8.1626878"><ele>18.0</ele><time>2026-04-14T15:29:52.988Z</time></trkpt><trkpt lat="44.0562544" lon="8.1626399"><ele>18.0</ele><time>2026-04-14T15:29:53.989Z</time></trkpt><trkpt lat="44.0561762" lon="8.16257"><ele>18.0</ele><time>2026-04-14T15:29:54.989Z</time></trkpt><trkpt lat="44.0561173" lon="8.1624745"><ele>18.0</ele><time>2026-04-14T15:29:55.988Z</time></trkpt><trkpt lat="44.0560887" lon="8.1623571"><ele>18.0</ele><time>2026-04-14T15:29:56.988Z</time></trkpt><trkpt lat="44.0560949" lon="8.1622347"><ele>18.0</ele><time>2026-04-14T15:29:57.988Z</time></trkpt><trkpt lat="44.0561198" lon="8.1621169"><ele>18.0</ele><time>2026-04-14T15:29:58.988Z</time></trkpt><trkpt lat="44.0561633" lon="8.1620107"><ele>18.0</ele><time>2026-04-14T15:29:59.988Z</time></trkpt><trkpt lat="44.0562275" lon="8.1619382"><ele>18.0</ele><time>2026-04-14T15:30:00.989Z</time></trkpt><trkpt lat="44.0563025" lon="8.1619008"><ele>18.0</ele><time>2026-04-14T15:30:01.989Z</time></trkpt><trkpt lat="44.0563762" lon="8.161881"><ele>18.0</ele><time>2026-04-14T15:30:02.989Z</time></trkpt><trkpt lat="44.0564541" lon="8.1618865"><ele>18.0</ele><time>2026-04-14T15:30:03.989Z</time></trkpt><trkpt lat="44.0565273" lon="8.1619222"><ele>18.0</ele><time>2026-04-14T15:30:04.988Z</time></trkpt><trkpt lat="44.056591" lon="8.1619946"><ele>18.0</ele><time>2026-04-14T15:30:05.988Z</time></trkpt><trkpt lat="44.0566554" lon="8.1620943"><ele>18.0</ele><time>2026-04-14T15:30:06.989Z</time></trkpt><trkpt lat="44.056704" lon="8.1622155"><ele>18.0</ele><time>2026-04-14T15:30:07.988Z</time></trkpt><trkpt lat="44.0567429" lon="8.1623694"><ele>20.333333333333336</ele><time>2026-04-14T15:30:08.988Z</time></trkpt><trkpt lat="44.0567637" lon="8.1625676"><ele>22.666666666666668</ele><time>2026-04-14T15:30:09.988Z</time></trkpt><trkpt lat="44.0567836" lon="8.1627836"><ele>25.0</ele><time>2026-04-14T15:30:10.989Z</time></trkpt><trkpt lat="44.0568031" lon="8.1630505"><ele>23.666666666666668</ele><time>2026-04-14T15:30:11.988Z</time></trkpt><trkpt lat="44.05683" lon="8.1633468"><ele>22.333333333333336</ele><time>2026-04-14T15:30:12.988Z</time></trkpt><trkpt lat="44.0568909" lon="8.1636317"><ele>21.0</ele><time>2026-04-14T15:30:13.989Z</time></trkpt><trkpt lat="44.0569651" lon="8.1638683"><ele>20.0</ele><time>2026-04-14T15:30:14.989Z</time></trkpt><trkpt lat="44.0570459" lon="8.1640741"><ele>19.0</ele><time>2026-04-14T15:30:15.988Z</time></trkpt><trkpt lat="44.0571311" lon="8.1642524"><ele>18.0</ele><time>2026-04-14T15:30:16.989Z</time></trkpt><trkpt lat="44.0571944" lon="8.1644067"><ele>18.0</ele><time>2026-04-14T15:30:17.989Z</time></trkpt><trkpt lat="44.0572492" lon="8.1645581"><ele>18.0</ele><time>2026-04-14T15:30:18.988Z</time></trkpt><trkpt lat="44.0572952" lon="8.1646962"><ele>18.0</ele><time>2026-04-14T15:30:19.988Z</time></trkpt><trkpt lat="44.0573449" lon="8.1648257"><ele>18.0</ele><time>2026-04-14T15:30:20.988Z</time></trkpt><trkpt lat="44.0573873" lon="8.1649621"><ele>18.0</ele><time>2026-04-14T15:30:21.988Z</time></trkpt><trkpt lat="44.057428" lon="8.1651"><ele>19.25</ele><time>2026-04-14T15:30:22.988Z</time></trkpt><trkpt lat="44.0574684" lon="8.1652472"><ele>20.5</ele><time>2026-04-14T15:30:23.989Z</time></trkpt><trkpt lat="44.0574948" lon="8.1654013"><ele>21.75</ele><time>2026-04-14T15:30:24.989Z</time></trkpt><trkpt lat="44.0575118" lon="8.1655584"><ele>23.0</ele><time>2026-04-14T15:30:25.988Z</time></trkpt><trkpt lat="44.0575189" lon="8.1657099"><ele>23.0</ele><time>2026-04-14T15:30:26.988Z</time></trkpt><trkpt lat="44.0575222" lon="8.1658627"><ele>23.0</ele><time>2026-04-14T15:30:27.989Z</time></trkpt><trkpt lat="44.0575137" lon="8.1660207"><ele>23.0</ele><time>2026-04-14T15:30:28.988Z</time></trkpt><trkpt lat="44.0574919" lon="8.1661837"><ele>23.0</ele><time>2026-04-14T15:30:29.989Z</time></trkpt><trkpt lat="44.0574645" lon="8.1663372"><ele>23.0</ele><time>2026-04-14T15:30:30.988Z</time></trkpt><trkpt lat="44.0574324" lon="8.1664672"><ele>23.0</ele><time>2026-04-14T15:30:31.988Z</time></trkpt><trkpt lat="44.0574069" lon="8.16656"><ele>23.0</ele><time>2026-04-14T15:30:32.989Z</time></trkpt><trkpt lat="44.0573711" lon="8.166687"><ele>23.0</ele><time>2026-04-14T15:30:34.988Z</time></trkpt><trkpt lat="44.0574381" lon="8.1666666"><ele>23.0</ele><time>2026-04-14T15:30:41.989Z</time></trkpt><trkpt lat="44.0574843" lon="8.1665765"><ele>23.0</ele><time>2026-04-14T15:30:43.989Z</time></trkpt><trkpt lat="44.0575108" lon="8.1664932"><ele>23.0</ele><time>2026-04-14T15:30:44.988Z</time></trkpt><trkpt lat="44.0575376" lon="8.1663693"><ele>23.0</ele><time>2026-04-14T15:30:45.989Z</time></trkpt><trkpt lat="44.0575464" lon="8.1660872"><ele>23.0</ele><time>2026-04-14T15:30:46.989Z</time></trkpt><trkpt lat="44.0575464" lon="8.1658194"><ele>23.333333333333336</ele><time>2026-04-14T15:30:47.989Z</time></trkpt><trkpt lat="44.0575389" lon="8.1655558"><ele>23.666666666666668</ele><time>2026-04-14T15:30:48.988Z</time></trkpt><trkpt lat="44.0575039" lon="8.1652675"><ele>24.0</ele><time>2026-04-14T15:30:49.988Z</time></trkpt><trkpt lat="44.0574389" lon="8.1650278"><ele>22.0</ele><time>2026-04-14T15:30:50.988Z</time></trkpt><trkpt lat="44.0573714" lon="8.1648006"><ele>20.0</ele><time>2026-04-14T15:30:51.988Z</time></trkpt><trkpt lat="44.057302" lon="8.1646058"><ele>18.0</ele><time>2026-04-14T15:30:52.989Z</time></trkpt><trkpt lat="44.0572292" lon="8.1644352"><ele>18.0</ele><time>2026-04-14T15:30:53.988Z</time></trkpt><trkpt lat="44.0571698" lon="8.1642912"><ele>18.0</ele><time>2026-04-14T15:30:54.989Z</time></trkpt><trkpt lat="44.0571319" lon="8.1641737"><ele>18.0</ele><time>2026-04-14T15:30:55.988Z</time></trkpt><trkpt lat="44.0571464" lon="8.1640582"><ele>18.0</ele><time>2026-04-14T15:30:57.988Z</time></trkpt><trkpt lat="44.0572938" lon="8.164019"><ele>18.0</ele><time>2026-04-14T15:30:59.988Z</time></trkpt><trkpt lat="44.0574074" lon="8.163987"><ele>23.0</ele><time>2026-04-14T15:31:00.989Z</time></trkpt><trkpt lat="44.0575302" lon="8.1639385"><ele>28.0</ele><time>2026-04-14T15:31:01.989Z</time></trkpt><trkpt lat="44.0576414" lon="8.1638563"><ele>33.0</ele><time>2026-04-14T15:31:02.988Z</time></trkpt><trkpt lat="44.0577423" lon="8.1637456"><ele>38.0</ele><time>2026-04-14T15:31:03.989Z</time></trkpt><trkpt lat="44.0578332" lon="8.1635997"><ele>38.0</ele><time>2026-04-14T15:31:04.988Z</time></trkpt><trkpt lat="44.0579044" lon="8.1634384"><ele>38.0</ele><time>2026-04-14T15:31:05.989Z</time></trkpt><trkpt lat="44.0579689" lon="8.1632915"><ele>38.0</ele><time>2026-04-14T15:31:06.988Z</time></trkpt><trkpt lat="44.0580384" lon="8.1631462"><ele>38.0</ele><time>2026-04-14T15:31:07.989Z</time></trkpt><trkpt lat="44.0581193" lon="8.1629871"><ele>40.0</ele><time>2026-04-14T15:31:08.988Z</time></trkpt><trkpt lat="44.0581957" lon="8.1628042"><ele>42.0</ele><time>2026-04-14T15:31:09.989Z</time></trkpt><trkpt lat="44.0582722" lon="8.1626032"><ele>44.0</ele><time>2026-04-14T15:31:10.989Z</time></trkpt><trkpt lat="44.0583368" lon="8.1624027"><ele>46.666666666666664</ele><time>2026-04-14T15:31:11.988Z</time></trkpt><trkpt lat="44.058401" lon="8.162207"><ele>49.33333333333333</ele><time>2026-04-14T15:31:12.988Z</time></trkpt><trkpt lat="44.0584656" lon="8.1620159"><ele>52.0</ele><time>2026-04-14T15:31:13.989Z</time></trkpt><trkpt lat="44.0585363" lon="8.1618359"><ele>52.0</ele><time>2026-04-14T15:31:14.988Z</time></trkpt><trkpt lat="44.0586031" lon="8.1616656"><ele>52.0</ele><time>2026-04-14T15:31:15.989Z</time></trkpt><trkpt lat="44.0586647" lon="8.161493"><ele>52.0</ele><time>2026-04-14T15:31:16.988Z</time></trkpt><trkpt lat="44.0587229" lon="8.1613256"><ele>52.0</ele><time>2026-04-14T15:31:17.989Z</time></trkpt><trkpt lat="44.058784" lon="8.1611773"><ele>54.8</ele><time>2026-04-14T15:31:18.988Z</time></trkpt><trkpt lat="44.0588629" lon="8.161055"><ele>57.6</ele><time>2026-04-14T15:31:19.988Z</time></trkpt><trkpt lat="44.0589467" lon="8.1609544"><ele>60.39999999999999</ele><time>2026-04-14T15:31:20.989Z</time></trkpt><trkpt lat="44.0590149" lon="8.1608834"><ele>63.199999999999996</ele><time>2026-04-14T15:31:21.989Z</time></trkpt><trkpt lat="44.0590854" lon="8.1608493"><ele>66.0</ele><time>2026-04-14T15:31:22.988Z</time></trkpt><trkpt lat="44.0591517" lon="8.1609515"><ele>66.0</ele><time>2026-04-14T15:31:24.989Z</time></trkpt><trkpt lat="44.0591255" lon="8.1610571"><ele>66.0</ele><time>2026-04-14T15:31:25.989Z</time></trkpt><trkpt lat="44.0590839" lon="8.1611865"><ele>66.0</ele><time>2026-04-14T15:31:26.989Z</time></trkpt><trkpt lat="44.059043" lon="8.1613553"><ele>66.0</ele><time>2026-04-14T15:31:27.989Z</time></trkpt><trkpt lat="44.0590109" lon="8.1615605"><ele>61.33333333333333</ele><time>2026-04-14T15:31:28.988Z</time></trkpt><trkpt lat="44.0590007" lon="8.1617864"><ele>56.666666666666664</ele><time>2026-04-14T15:31:29.988Z</time></trkpt><trkpt lat="44.0590133" lon="8.162003"><ele>52.0</ele><time>2026-04-14T15:31:30.989Z</time></trkpt><trkpt lat="44.0590331" lon="8.1622143"><ele>50.75</ele><time>2026-04-14T15:31:31.989Z</time></trkpt><trkpt lat="44.0590476" lon="8.1624283"><ele>49.5</ele><time>2026-04-14T15:31:32.988Z</time></trkpt><trkpt lat="44.0590512" lon="8.1626313"><ele>48.25</ele><time>2026-04-14T15:31:33.989Z</time></trkpt><trkpt lat="44.0590594" lon="8.1628211"><ele>47.0</ele><time>2026-04-14T15:31:34.989Z</time></trkpt><trkpt lat="44.0590797" lon="8.162971"><ele>49.0</ele><time>2026-04-14T15:31:35.988Z</time></trkpt><trkpt lat="44.0591175" lon="8.1631007"><ele>51.0</ele><time>2026-04-14T15:31:36.989Z</time></trkpt><trkpt lat="44.0591721" lon="8.1631981"><ele>53.0</ele><time>2026-04-14T15:31:37.989Z</time></trkpt><trkpt lat="44.0592374" lon="8.163256"><ele>55.0</ele><time>2026-04-14T15:31:38.988Z</time></trkpt><trkpt lat="44.0592994" lon="8.1632366"><ele>57.00000000000001</ele><time>2026-04-14T15:31:39.988Z</time></trkpt><trkpt lat="44.0593859" lon="8.1631403"><ele>59.0</ele><time>2026-04-14T15:31:41.989Z</time></trkpt><trkpt lat="44.0594037" lon="8.1630365"><ele>59.0</ele><time>2026-04-14T15:31:42.988Z</time></trkpt><trkpt lat="44.0594173" lon="8.1629078"><ele>59.00000000000001</ele><time>2026-04-14T15:31:43.989Z</time></trkpt><trkpt lat="44.0594246" lon="8.1627765"><ele>59.00000000000001</ele><time>2026-04-14T15:31:44.988Z</time></trkpt><trkpt lat="44.0594358" lon="8.162656"><ele>59.0</ele><time>2026-04-14T15:31:45.989Z</time></trkpt><trkpt lat="44.0594453" lon="8.1625318"><ele>59.0</ele><time>2026-04-14T15:31:46.988Z</time></trkpt><trkpt lat="44.0594553" lon="8.1624121"><ele>59.400000000000006</ele><time>2026-04-14T15:31:47.988Z</time></trkpt><trkpt lat="44.0594705" lon="8.1622975"><ele>59.800000000000004</ele><time>2026-04-14T15:31:48.989Z</time></trkpt><trkpt lat="44.059509" lon="8.1621882"><ele>60.199999999999996</ele><time>2026-04-14T15:31:49.989Z</time></trkpt><trkpt lat="44.0595793" lon="8.1620699"><ele>60.599999999999994</ele><time>2026-04-14T15:31:50.989Z</time></trkpt><trkpt lat="44.0596582" lon="8.161933"><ele>61.0</ele><time>2026-04-14T15:31:51.988Z</time></trkpt><trkpt lat="44.0597314" lon="8.1617782"><ele>61.0</ele><time>2026-04-14T15:31:52.989Z</time></trkpt><trkpt lat="44.0597992" lon="8.161608"><ele>61.0</ele><time>2026-04-14T15:31:53.989Z</time></trkpt><trkpt lat="44.059855" lon="8.1614313"><ele>61.0</ele><time>2026-04-14T15:31:54.988Z</time></trkpt><trkpt lat="44.0599049" lon="8.1612437"><ele>61.0</ele><time>2026-04-14T15:31:55.989Z</time></trkpt><trkpt lat="44.0599499" lon="8.161044"><ele>63.75</ele><time>2026-04-14T15:31:56.988Z</time></trkpt><trkpt lat="44.0599867" lon="8.1608449"><ele>66.5</ele><time>2026-04-14T15:31:57.989Z</time></trkpt><trkpt lat="44.0600142" lon="8.1606561"><ele>69.25</ele><time>2026-04-14T15:31:58.989Z</time></trkpt><trkpt lat="44.0600306" lon="8.1604924"><ele>72.0</ele><time>2026-04-14T15:31:59.988Z</time></trkpt><trkpt lat="44.060033" lon="8.1603418"><ele>73.5</ele><time>2026-04-14T15:32:00.988Z</time></trkpt><trkpt lat="44.0600144" lon="8.1601932"><ele>75.0</ele><time>2026-04-14T15:32:01.988Z</time></trkpt><trkpt lat="44.059975" lon="8.1600478"><ele>76.5</ele><time>2026-04-14T15:32:02.988Z</time></trkpt><trkpt lat="44.0599188" lon="8.1598851"><ele>78.0</ele><time>2026-04-14T15:32:03.988Z</time></trkpt><trkpt lat="44.0598573" lon="8.1597196"><ele>80.0</ele><time>2026-04-14T15:32:04.989Z</time></trkpt><trkpt lat="44.0598061" lon="8.1595585"><ele>82.0</ele><time>2026-04-14T15:32:05.989Z</time></trkpt><trkpt lat="44.0597675" lon="8.1594198"><ele>84.0</ele><time>2026-04-14T15:32:06.988Z</time></trkpt><trkpt lat="44.0597578" lon="8.1592955"><ele>86.0</ele><time>2026-04-14T15:32:07.988Z</time></trkpt><trkpt lat="44.0597892" lon="8.1591917"><ele>88.0</ele><time>2026-04-14T15:32:08.989Z</time></trkpt><trkpt lat="44.0598412" lon="8.1590743"><ele>87.33333333333333</ele><time>2026-04-14T15:32:09.988Z</time></trkpt><trkpt lat="44.0598921" lon="8.1589716"><ele>86.66666666666666</ele><time>2026-04-14T15:32:10.988Z</time></trkpt><trkpt lat="44.0599252" lon="8.1588709"><ele>86.0</ele><time>2026-04-14T15:32:11.989Z</time></trkpt><trkpt lat="44.0599306" lon="8.1587813"><ele>85.33333333333333</ele><time>2026-04-14T15:32:12.989Z</time></trkpt><trkpt lat="44.0598955" lon="8.1587032"><ele>84.66666666666667</ele><time>2026-04-14T15:32:13.988Z</time></trkpt><trkpt lat="44.0598418" lon="8.1586156"><ele>84.0</ele><time>2026-04-14T15:32:14.989Z</time></trkpt><trkpt lat="44.0597944" lon="8.1585129"><ele>84.0</ele><time>2026-04-14T15:32:15.989Z</time></trkpt><trkpt lat="44.0597796" lon="8.1584082"><ele>84.0</ele><time>2026-04-14T15:32:16.989Z</time></trkpt><trkpt lat="44.0597976" lon="8.1582977"><ele>84.0</ele><time>2026-04-14T15:32:17.988Z</time></trkpt><trkpt lat="44.0598538" lon="8.1581826"><ele>84.0</ele><time>2026-04-14T15:32:18.989Z</time></trkpt><trkpt lat="44.0599203" lon="8.1580523"><ele>84.0</ele><time>2026-04-14T15:32:19.988Z</time></trkpt><trkpt lat="44.0599817" lon="8.1579319"><ele>83.66666666666667</ele><time>2026-04-14T15:32:20.988Z</time></trkpt><trkpt lat="44.0600259" lon="8.1578157"><ele>83.33333333333333</ele><time>2026-04-14T15:32:21.988Z</time></trkpt><trkpt lat="44.0600531" lon="8.1577056"><ele>83.0</ele><time>2026-04-14T15:32:22.989Z</time></trkpt><trkpt lat="44.0600603" lon="8.1575996"><ele>82.66666666666666</ele><time>2026-04-14T15:32:23.988Z</time></trkpt><trkpt lat="44.0600534" lon="8.1574961"><ele>82.33333333333333</ele><time>2026-04-14T15:32:24.988Z</time></trkpt><trkpt lat="44.0600111" lon="8.1573965"><ele>82.0</ele><time>2026-04-14T15:32:25.988Z</time></trkpt><trkpt lat="44.0599521" lon="8.1572982"><ele>81.8</ele><time>2026-04-14T15:32:26.988Z</time></trkpt><trkpt lat="44.0598998" lon="8.1571966"><ele>81.6</ele><time>2026-04-14T15:32:27.988Z</time></trkpt><trkpt lat="44.0598716" lon="8.157084"><ele>81.39999999999999</ele><time>2026-04-14T15:32:28.989Z</time></trkpt><trkpt lat="44.0598823" lon="8.1569555"><ele>81.19999999999999</ele><time>2026-04-14T15:32:29.988Z</time></trkpt><trkpt lat="44.0599165" lon="8.1568241"><ele>81.0</ele><time>2026-04-14T15:32:30.988Z</time></trkpt><trkpt lat="44.0599684" lon="8.1566778"><ele>78.25</ele><time>2026-04-14T15:32:31.988Z</time></trkpt><trkpt lat="44.0600479" lon="8.1565307"><ele>75.5</ele><time>2026-04-14T15:32:32.989Z</time></trkpt><trkpt lat="44.0601463" lon="8.1563837"><ele>72.75</ele><time>2026-04-14T15:32:33.989Z</time></trkpt><trkpt lat="44.0602542" lon="8.1562442"><ele>70.0</ele><time>2026-04-14T15:32:34.989Z</time></trkpt><trkpt lat="44.0603572" lon="8.1561177"><ele>70.0</ele><time>2026-04-14T15:32:35.989Z</time></trkpt><trkpt lat="44.0604559" lon="8.156014"><ele>70.0</ele><time>2026-04-14T15:32:36.988Z</time></trkpt><trkpt lat="44.0605474" lon="8.1558797"><ele>70.0</ele><time>2026-04-14T15:32:37.988Z</time></trkpt><trkpt lat="44.0606236" lon="8.1557334"><ele>70.0</ele><time>2026-04-14T15:32:38.989Z</time></trkpt><trkpt lat="44.0606911" lon="8.1555785"><ele>69.5</ele><time>2026-04-14T15:32:39.989Z</time></trkpt><trkpt lat="44.0607429" lon="8.1554233"><ele>69.0</ele><time>2026-04-14T15:32:40.988Z</time></trkpt><trkpt lat="44.0607674" lon="8.1552579"><ele>68.5</ele><time>2026-04-14T15:32:41.989Z</time></trkpt><trkpt lat="44.0607759" lon="8.1550992"><ele>68.0</ele><time>2026-04-14T15:32:42.988Z</time></trkpt><trkpt lat="44.0607768" lon="8.1549368"><ele>72.6</ele><time>2026-04-14T15:32:43.988Z</time></trkpt><trkpt lat="44.060796" lon="8.1547916"><ele>77.19999999999999</ele><time>2026-04-14T15:32:44.988Z</time></trkpt><trkpt lat="44.0608326" lon="8.1546566"><ele>81.8</ele><time>2026-04-14T15:32:45.989Z</time></trkpt><trkpt lat="44.0608772" lon="8.1545266"><ele>86.39999999999999</ele><time>2026-04-14T15:32:46.989Z</time></trkpt><trkpt lat="44.0609281" lon="8.1543971"><ele>91.0</ele><time>2026-04-14T15:32:47.988Z</time></trkpt><trkpt lat="44.0609847" lon="8.1542956"><ele>91.0</ele><time>2026-04-14T15:32:48.989Z</time></trkpt><trkpt lat="44.0610621" lon="8.1542107"><ele>91.0</ele><time>2026-04-14T15:32:49.988Z</time></trkpt><trkpt lat="44.0611608" lon="8.1541316"><ele>91.0</ele><time>2026-04-14T15:32:50.989Z</time></trkpt><trkpt lat="44.0612793" lon="8.154039"><ele>91.0</ele><time>2026-04-14T15:32:51.988Z</time></trkpt><trkpt lat="44.0613938" lon="8.1539383"><ele>88.75</ele><time>2026-04-14T15:32:52.988Z</time></trkpt><trkpt lat="44.0614911" lon="8.1538248"><ele>86.5</ele><time>2026-04-14T15:32:53.988Z</time></trkpt><trkpt lat="44.0615825" lon="8.1537124"><ele>84.25</ele><time>2026-04-14T15:32:54.989Z</time></trkpt><trkpt lat="44.0616507" lon="8.1535865"><ele>82.0</ele><time>2026-04-14T15:32:55.989Z</time></trkpt><trkpt lat="44.0617188" lon="8.1534658"><ele>83.6</ele><time>2026-04-14T15:32:56.988Z</time></trkpt><trkpt lat="44.0617778" lon="8.1533672"><ele>85.19999999999999</ele><time>2026-04-14T15:32:57.989Z</time></trkpt><trkpt lat="44.0618385" lon="8.1532844"><ele>86.8</ele><time>2026-04-14T15:32:58.988Z</time></trkpt><trkpt lat="44.0619171" lon="8.1532106"><ele>88.4</ele><time>2026-04-14T15:32:59.989Z</time></trkpt><trkpt lat="44.062016" lon="8.1531263"><ele>90.0</ele><time>2026-04-14T15:33:00.989Z</time></trkpt><trkpt lat="44.0621363" lon="8.153051"><ele>90.0</ele><time>2026-04-14T15:33:01.989Z</time></trkpt><trkpt lat="44.0622722" lon="8.1529817"><ele>90.0</ele><time>2026-04-14T15:33:02.989Z</time></trkpt><trkpt lat="44.0623984" lon="8.1529138"><ele>90.0</ele><time>2026-04-14T15:33:03.988Z</time></trkpt><trkpt lat="44.0625012" lon="8.1528441"><ele>90.0</ele><time>2026-04-14T15:33:04.989Z</time></trkpt><trkpt lat="44.0625899" lon="8.1527702"><ele>90.0</ele><time>2026-04-14T15:33:05.989Z</time></trkpt><trkpt lat="44.0626614" lon="8.1526702"><ele>90.0</ele><time>2026-04-14T15:33:06.989Z</time></trkpt><trkpt lat="44.062739" lon="8.152535"><ele>90.0</ele><time>2026-04-14T15:33:07.988Z</time></trkpt><trkpt lat="44.0628191" lon="8.152375"><ele>90.0</ele><time>2026-04-14T15:33:08.989Z</time></trkpt><trkpt lat="44.0628871" lon="8.1522106"><ele>90.0</ele><time>2026-04-14T15:33:09.989Z</time></trkpt><trkpt lat="44.062945" lon="8.152055"><ele>90.0</ele><time>2026-04-14T15:33:10.988Z</time></trkpt><trkpt lat="44.0629921" lon="8.1519089"><ele>90.0</ele><time>2026-04-14T15:33:11.988Z</time></trkpt><trkpt lat="44.0630291" lon="8.1517832"><ele>90.0</ele><time>2026-04-14T15:33:12.988Z</time></trkpt><trkpt lat="44.0630567" lon="8.151686"><ele>90.0</ele><time>2026-04-14T15:33:13.988Z</time></trkpt><trkpt lat="44.0631017" lon="8.1516156"><ele>89.2</ele><time>2026-04-14T15:33:14.988Z</time></trkpt><trkpt lat="44.0631683" lon="8.1514845"><ele>88.4</ele><time>2026-04-14T15:33:16.989Z</time></trkpt><trkpt lat="44.0631563" lon="8.1513354"><ele>87.6</ele><time>2026-04-14T15:33:18.989Z</time></trkpt><trkpt lat="44.0631161" lon="8.1512445"><ele>86.8</ele><time>2026-04-14T15:33:19.989Z</time></trkpt><trkpt lat="44.0630729" lon="8.1511327"><ele>86.0</ele><time>2026-04-14T15:33:20.988Z</time></trkpt><trkpt lat="44.063037" lon="8.1509924"><ele>86.0</ele><time>2026-04-14T15:33:21.988Z</time></trkpt><trkpt lat="44.063018" lon="8.1508523"><ele>86.0</ele><time>2026-04-14T15:33:22.988Z</time></trkpt><trkpt lat="44.0630047" lon="8.1506993"><ele>86.0</ele><time>2026-04-14T15:33:23.989Z</time></trkpt><trkpt lat="44.0629879" lon="8.1505599"><ele>86.0</ele><time>2026-04-14T15:33:24.988Z</time></trkpt><trkpt lat="44.0629639" lon="8.1504301"><ele>86.0</ele><time>2026-04-14T15:33:25.988Z</time></trkpt><trkpt lat="44.0629278" lon="8.1503346"><ele>86.00000000000001</ele><time>2026-04-14T15:33:26.989Z</time></trkpt><trkpt lat="44.0628818" lon="8.1502611"><ele>86.0</ele><time>2026-04-14T15:33:27.989Z</time></trkpt><trkpt lat="44.0628389" lon="8.1501852"><ele>86.0</ele><time>2026-04-14T15:33:28.988Z</time></trkpt><trkpt lat="44.0627984" lon="8.1501018"><ele>86.0</ele><time>2026-04-14T15:33:29.989Z</time></trkpt><trkpt lat="44.0627844" lon="8.1500095"><ele>86.0</ele><time>2026-04-14T15:33:30.989Z</time></trkpt><trkpt lat="44.0627944" lon="8.1499121"><ele>86.00000000000001</ele><time>2026-04-14T15:33:31.989Z</time></trkpt><trkpt lat="44.0628324" lon="8.1498174"><ele>86.0</ele><time>2026-04-14T15:33:32.988Z</time></trkpt><trkpt lat="44.0628947" lon="8.1497259"><ele>86.0</ele><time>2026-04-14T15:33:33.989Z</time></trkpt><trkpt lat="44.0629678" lon="8.1496206"><ele>86.0</ele><time>2026-04-14T15:33:34.989Z</time></trkpt><trkpt lat="44.0630327" lon="8.1495063"><ele>86.0</ele><time>2026-04-14T15:33:35.989Z</time></trkpt><trkpt lat="44.0630846" lon="8.1493871"><ele>86.0</ele><time>2026-04-14T15:33:36.988Z</time></trkpt><trkpt lat="44.063134" lon="8.1492499"><ele>86.0</ele><time>2026-04-14T15:33:37.988Z</time></trkpt><trkpt lat="44.0631916" lon="8.149115"><ele>84.5</ele><time>2026-04-14T15:33:38.989Z</time></trkpt><trkpt lat="44.0632568" lon="8.1489771"><ele>83.0</ele><time>2026-04-14T15:33:39.989Z</time></trkpt><trkpt lat="44.0633164" lon="8.1488221"><ele>81.5</ele><time>2026-04-14T15:33:40.989Z</time></trkpt><trkpt lat="44.0633544" lon="8.1486545"><ele>80.0</ele><time>2026-04-14T15:33:41.988Z</time></trkpt><trkpt lat="44.0633719" lon="8.1484755"><ele>83.5</ele><time>2026-04-14T15:33:42.988Z</time></trkpt><trkpt lat="44.06337" lon="8.1482807"><ele>87.0</ele><time>2026-04-14T15:33:43.989Z</time></trkpt><trkpt lat="44.0633576" lon="8.1480904"><ele>90.5</ele><time>2026-04-14T15:33:44.988Z</time></trkpt><trkpt lat="44.0633339" lon="8.1479003"><ele>94.0</ele><time>2026-04-14T15:33:45.988Z</time></trkpt><trkpt lat="44.0633008" lon="8.1477046"><ele>94.75</ele><time>2026-04-14T15:33:46.989Z</time></trkpt><trkpt lat="44.0632757" lon="8.1475135"><ele>95.5</ele><time>2026-04-14T15:33:47.988Z</time></trkpt><trkpt lat="44.0632354" lon="8.1473248"><ele>96.25</ele><time>2026-04-14T15:33:48.988Z</time></trkpt><trkpt lat="44.0631861" lon="8.147142"><ele>97.0</ele><time>2026-04-14T15:33:49.988Z</time></trkpt><trkpt lat="44.063143" lon="8.1469722"><ele>97.0</ele><time>2026-04-14T15:33:50.988Z</time></trkpt><trkpt lat="44.0630914" lon="8.1468146"><ele>97.0</ele><time>2026-04-14T15:33:51.988Z</time></trkpt><trkpt lat="44.0630505" lon="8.1466513"><ele>97.0</ele><time>2026-04-14T15:33:52.989Z</time></trkpt><trkpt lat="44.0630121" lon="8.1464897"><ele>97.0</ele><time>2026-04-14T15:33:53.988Z</time></trkpt><trkpt lat="44.0629774" lon="8.1463182"><ele>99.25</ele><time>2026-04-14T15:33:54.989Z</time></trkpt><trkpt lat="44.0629598" lon="8.1461411"><ele>101.5</ele><time>2026-04-14T15:33:55.988Z</time></trkpt><trkpt lat="44.0629565" lon="8.1459675"><ele>103.75</ele><time>2026-04-14T15:33:56.988Z</time></trkpt><trkpt lat="44.0629678" lon="8.1458008"><ele>106.0</ele><time>2026-04-14T15:33:57.989Z</time></trkpt><trkpt lat="44.0629822" lon="8.1456297"><ele>106.0</ele><time>2026-04-14T15:33:58.989Z</time></trkpt><trkpt lat="44.0630011" lon="8.1454562"><ele>106.0</ele><time>2026-04-14T15:33:59.988Z</time></trkpt><trkpt lat="44.0630253" lon="8.145287"><ele>106.0</ele><time>2026-04-14T15:34:00.988Z</time></trkpt><trkpt lat="44.0630558" lon="8.1451259"><ele>106.0</ele><time>2026-04-14T15:34:01.988Z</time></trkpt><trkpt lat="44.0630891" lon="8.1449673"><ele>103.25</ele><time>2026-04-14T15:34:02.988Z</time></trkpt><trkpt lat="44.0631224" lon="8.1448136"><ele>100.5</ele><time>2026-04-14T15:34:03.989Z</time></trkpt><trkpt lat="44.0631638" lon="8.1446753"><ele>97.75</ele><time>2026-04-14T15:34:04.988Z</time></trkpt><trkpt lat="44.0632203" lon="8.1445436"><ele>95.0</ele><time>2026-04-14T15:34:05.989Z</time></trkpt><trkpt lat="44.0632904" lon="8.1444114"><ele>97.4</ele><time>2026-04-14T15:34:06.989Z</time></trkpt><trkpt lat="44.0633583" lon="8.1442784"><ele>99.8</ele><time>2026-04-14T15:34:07.989Z</time></trkpt><trkpt lat="44.0634229" lon="8.144162"><ele>102.19999999999999</ele><time>2026-04-14T15:34:08.989Z</time></trkpt><trkpt lat="44.0634723" lon="8.1440475"><ele>104.6</ele><time>2026-04-14T15:34:09.988Z</time></trkpt><trkpt lat="44.0635226" lon="8.1439495"><ele>107.0</ele><time>2026-04-14T15:34:10.988Z</time></trkpt><trkpt lat="44.0635677" lon="8.1438535"><ele>106.99999999999999</ele><time>2026-04-14T15:34:11.989Z</time></trkpt><trkpt lat="44.06362" lon="8.1437773"><ele>107.0</ele><time>2026-04-14T15:34:12.988Z</time></trkpt><trkpt lat="44.0636762" lon="8.1437059"><ele>107.0</ele><time>2026-04-14T15:34:13.989Z</time></trkpt><trkpt lat="44.0637418" lon="8.1436413"><ele>107.0</ele><time>2026-04-14T15:34:14.989Z</time></trkpt><trkpt lat="44.0638286" lon="8.1435793"><ele>106.99999999999999</ele><time>2026-04-14T15:34:15.988Z</time></trkpt><trkpt lat="44.0639101" lon="8.1434997"><ele>107.0</ele><time>2026-04-14T15:34:16.988Z</time></trkpt><trkpt lat="44.0639785" lon="8.1433988"><ele>107.0</ele><time>2026-04-14T15:34:17.989Z</time></trkpt><trkpt lat="44.064026" lon="8.1432838"><ele>106.99999999999999</ele><time>2026-04-14T15:34:18.989Z</time></trkpt><trkpt lat="44.0640657" lon="8.1431566"><ele>106.99999999999999</ele><time>2026-04-14T15:34:19.988Z</time></trkpt><trkpt lat="44.064105" lon="8.1430274"><ele>107.0</ele><time>2026-04-14T15:34:20.988Z</time></trkpt><trkpt lat="44.0641565" lon="8.1429275"><ele>107.0</ele><time>2026-04-14T15:34:21.989Z</time></trkpt><trkpt lat="44.064212" lon="8.1428532"><ele>110.0</ele><time>2026-04-14T15:34:22.988Z</time></trkpt><trkpt lat="44.0642825" lon="8.1428012"><ele>112.99999999999999</ele><time>2026-04-14T15:34:23.988Z</time></trkpt><trkpt lat="44.0643701" lon="8.1427633"><ele>115.99999999999999</ele><time>2026-04-14T15:34:24.989Z</time></trkpt><trkpt lat="44.0644768" lon="8.142743"><ele>119.0</ele><time>2026-04-14T15:34:25.988Z</time></trkpt><trkpt lat="44.0645908" lon="8.1427166"><ele>122.0</ele><time>2026-04-14T15:34:26.988Z</time></trkpt><trkpt lat="44.0646982" lon="8.1426879"><ele>122.0</ele><time>2026-04-14T15:34:27.988Z</time></trkpt><trkpt lat="44.0648046" lon="8.1426432"><ele>121.99999999999999</ele><time>2026-04-14T15:34:28.988Z</time></trkpt><trkpt lat="44.0649089" lon="8.1425852"><ele>121.99999999999999</ele><time>2026-04-14T15:34:29.988Z</time></trkpt><trkpt lat="44.0649991" lon="8.1425205"><ele>122.0</ele><time>2026-04-14T15:34:30.989Z</time></trkpt><trkpt lat="44.0650764" lon="8.1424366"><ele>122.0</ele><time>2026-04-14T15:34:31.988Z</time></trkpt><trkpt lat="44.0651514" lon="8.1423326"><ele>121.5</ele><time>2026-04-14T15:34:32.988Z</time></trkpt><trkpt lat="44.0652222" lon="8.1422139"><ele>121.0</ele><time>2026-04-14T15:34:33.989Z</time></trkpt><trkpt lat="44.0652827" lon="8.1420781"><ele>120.5</ele><time>2026-04-14T15:34:34.989Z</time></trkpt><trkpt lat="44.0653327" lon="8.1419207"><ele>120.0</ele><time>2026-04-14T15:34:35.989Z</time></trkpt><trkpt lat="44.0653678" lon="8.1417383"><ele>120.25</ele><time>2026-04-14T15:34:36.989Z</time></trkpt><trkpt lat="44.0653917" lon="8.1415411"><ele>120.5</ele><time>2026-04-14T15:34:37.988Z</time></trkpt><trkpt lat="44.0654182" lon="8.1413296"><ele>120.75</ele><time>2026-04-14T15:34:38.988Z</time></trkpt><trkpt lat="44.0654416" lon="8.1411258"><ele>121.0</ele><time>2026-04-14T15:34:39.989Z</time></trkpt><trkpt lat="44.0654616" lon="8.1409343"><ele>121.0</ele><time>2026-04-14T15:34:40.988Z</time></trkpt><trkpt lat="44.06549" lon="8.140757"><ele>121.0</ele><time>2026-04-14T15:34:41.988Z</time></trkpt><trkpt lat="44.0655195" lon="8.14059"><ele>121.0</ele><time>2026-04-14T15:34:42.988Z</time></trkpt><trkpt lat="44.0655516" lon="8.1404384"><ele>121.0</ele><time>2026-04-14T15:34:43.988Z</time></trkpt><trkpt lat="44.0655866" lon="8.1403179"><ele>120.8</ele><time>2026-04-14T15:34:44.989Z</time></trkpt><trkpt lat="44.065628" lon="8.1402146"><ele>120.6</ele><time>2026-04-14T15:34:45.988Z</time></trkpt><trkpt lat="44.065688" lon="8.1401228"><ele>120.4</ele><time>2026-04-14T15:34:46.988Z</time></trkpt><trkpt lat="44.0657575" lon="8.1400308"><ele>120.2</ele><time>2026-04-14T15:34:47.988Z</time></trkpt><trkpt lat="44.0658283" lon="8.1399208"><ele>120.0</ele><time>2026-04-14T15:34:48.988Z</time></trkpt><trkpt lat="44.0659194" lon="8.1398377"><ele>120.0</ele><time>2026-04-14T15:34:49.989Z</time></trkpt><trkpt lat="44.0659981" lon="8.1397276"><ele>120.0</ele><time>2026-04-14T15:34:50.988Z</time></trkpt><trkpt lat="44.0660697" lon="8.1395883"><ele>120.0</ele><time>2026-04-14T15:34:51.988Z</time></trkpt><trkpt lat="44.0661315" lon="8.1394391"><ele>120.0</ele><time>2026-04-14T15:34:52.989Z</time></trkpt><trkpt lat="44.0661828" lon="8.1392911"><ele>120.0</ele><time>2026-04-14T15:34:53.989Z</time></trkpt><trkpt lat="44.0662251" lon="8.1391212"><ele>120.0</ele><time>2026-04-14T15:34:54.988Z</time></trkpt><trkpt lat="44.066263" lon="8.1389278"><ele>120.0</ele><time>2026-04-14T15:34:55.988Z</time></trkpt><trkpt lat="44.0663102" lon="8.1387405"><ele>120.0</ele><time>2026-04-14T15:34:56.989Z</time></trkpt><trkpt lat="44.0663509" lon="8.1385561"><ele>120.2</ele><time>2026-04-14T15:34:57.989Z</time></trkpt><trkpt lat="44.0663892" lon="8.1383838"><ele>120.4</ele><time>2026-04-14T15:34:58.988Z</time></trkpt><trkpt lat="44.0664104" lon="8.1382389"><ele>120.6</ele><time>2026-04-14T15:34:59.988Z</time></trkpt><trkpt lat="44.0664209" lon="8.1380991"><ele>120.8</ele><time>2026-04-14T15:35:00.989Z</time></trkpt><trkpt lat="44.0664345" lon="8.1379505"><ele>121.0</ele><time>2026-04-14T15:35:01.988Z</time></trkpt><trkpt lat="44.0664681" lon="8.1378072"><ele>119.75</ele><time>2026-04-14T15:35:02.988Z</time></trkpt><trkpt lat="44.0665181" lon="8.1376518"><ele>118.5</ele><time>2026-04-14T15:35:03.989Z</time></trkpt><trkpt lat="44.0665726" lon="8.1374778"><ele>117.25</ele><time>2026-04-14T15:35:04.988Z</time></trkpt><trkpt lat="44.0666318" lon="8.1372997"><ele>116.0</ele><time>2026-04-14T15:35:05.988Z</time></trkpt><trkpt lat="44.0666921" lon="8.1371473"><ele>120.25</ele><time>2026-04-14T15:35:06.988Z</time></trkpt><trkpt lat="44.0667558" lon="8.1370217"><ele>124.5</ele><time>2026-04-14T15:35:07.989Z</time></trkpt><trkpt lat="44.0668376" lon="8.1369171"><ele>128.75</ele><time>2026-04-14T15:35:08.989Z</time></trkpt><trkpt lat="44.066933" lon="8.1367965"><ele>133.0</ele><time>2026-04-14T15:35:09.988Z</time></trkpt><trkpt lat="44.0670388" lon="8.1366439"><ele>127.33333333333334</ele><time>2026-04-14T15:35:10.988Z</time></trkpt><trkpt lat="44.0671496" lon="8.1364776"><ele>121.66666666666666</ele><time>2026-04-14T15:35:11.988Z</time></trkpt><trkpt lat="44.0672564" lon="8.136324"><ele>116.0</ele><time>2026-04-14T15:35:12.988Z</time></trkpt><trkpt lat="44.0673605" lon="8.1361737"><ele>120.75</ele><time>2026-04-14T15:35:13.989Z</time></trkpt><trkpt lat="44.0674623" lon="8.1360376"><ele>125.5</ele><time>2026-04-14T15:35:14.989Z</time></trkpt><trkpt lat="44.0675488" lon="8.1359057"><ele>130.25</ele><time>2026-04-14T15:35:15.988Z</time></trkpt><trkpt lat="44.0676243" lon="8.1357774"><ele>135.0</ele><time>2026-04-14T15:35:16.988Z</time></trkpt><trkpt lat="44.0676838" lon="8.1356453"><ele>135.0</ele><time>2026-04-14T15:35:17.988Z</time></trkpt><trkpt lat="44.0677485" lon="8.1355097"><ele>135.0</ele><time>2026-04-14T15:35:18.989Z</time></trkpt><trkpt lat="44.0678086" lon="8.1353746"><ele>135.0</ele><time>2026-04-14T15:35:19.989Z</time></trkpt><trkpt lat="44.0678583" lon="8.1352347"><ele>135.0</ele><time>2026-04-14T15:35:20.988Z</time></trkpt><trkpt lat="44.0678944" lon="8.1350806"><ele>135.0</ele><time>2026-04-14T15:35:21.988Z</time></trkpt><trkpt lat="44.0679247" lon="8.1349284"><ele>135.0</ele><time>2026-04-14T15:35:22.989Z</time></trkpt><trkpt lat="44.0679483" lon="8.1347832"><ele>135.0</ele><time>2026-04-14T15:35:23.988Z</time></trkpt><trkpt lat="44.0679717" lon="8.1346319"><ele>135.0</ele><time>2026-04-14T15:35:24.988Z</time></trkpt><trkpt lat="44.0679904" lon="8.1344887"><ele>135.0</ele><time>2026-04-14T15:35:25.989Z</time></trkpt><trkpt lat="44.0680069" lon="8.1343695"><ele>135.6</ele><time>2026-04-14T15:35:26.989Z</time></trkpt><trkpt lat="44.068023" lon="8.1342447"><ele>136.2</ele><time>2026-04-14T15:35:27.988Z</time></trkpt><trkpt lat="44.068034" lon="8.134107"><ele>136.8</ele><time>2026-04-14T15:35:28.989Z</time></trkpt><trkpt lat="44.0680504" lon="8.133965"><ele>137.4</ele><time>2026-04-14T15:35:29.988Z</time></trkpt><trkpt lat="44.0680769" lon="8.1338217"><ele>138.0</ele><time>2026-04-14T15:35:30.989Z</time></trkpt><trkpt lat="44.0681325" lon="8.1336584"><ele>142.0</ele><time>2026-04-14T15:35:31.989Z</time></trkpt><trkpt lat="44.0681977" lon="8.133487"><ele>146.0</ele><time>2026-04-14T15:35:32.989Z</time></trkpt><trkpt lat="44.0682478" lon="8.133327"><ele>150.0</ele><time>2026-04-14T15:35:33.988Z</time></trkpt><trkpt lat="44.0682837" lon="8.1331585"><ele>154.0</ele><time>2026-04-14T15:35:34.989Z</time></trkpt><trkpt lat="44.0683127" lon="8.1329896"><ele>153.4</ele><time>2026-04-14T15:35:35.988Z</time></trkpt><trkpt lat="44.0683411" lon="8.1328305"><ele>152.8</ele><time>2026-04-14T15:35:36.989Z</time></trkpt><trkpt lat="44.0683786" lon="8.1326818"><ele>152.2</ele><time>2026-04-14T15:35:37.988Z</time></trkpt><trkpt lat="44.0684426" lon="8.1325601"><ele>151.6</ele><time>2026-04-14T15:35:38.988Z</time></trkpt><trkpt lat="44.0685241" lon="8.1324671"><ele>151.0</ele><time>2026-04-14T15:35:39.988Z</time></trkpt><trkpt lat="44.0686149" lon="8.1323744"><ele>151.0</ele><time>2026-04-14T15:35:40.989Z</time></trkpt><trkpt lat="44.0686974" lon="8.1322787"><ele>151.0</ele><time>2026-04-14T15:35:41.988Z</time></trkpt><trkpt lat="44.0687756" lon="8.1321762"><ele>151.0</ele><time>2026-04-14T15:35:42.989Z</time></trkpt><trkpt lat="44.0688552" lon="8.132057"><ele>151.0</ele><time>2026-04-14T15:35:43.988Z</time></trkpt><trkpt lat="44.0689369" lon="8.1319518"><ele>151.0</ele><time>2026-04-14T15:35:44.988Z</time></trkpt><trkpt lat="44.0690215" lon="8.1318581"><ele>151.0</ele><time>2026-04-14T15:35:45.989Z</time></trkpt><trkpt lat="44.0691255" lon="8.1317611"><ele>151.0</ele><time>2026-04-14T15:35:46.989Z</time></trkpt><trkpt lat="44.0692273" lon="8.13165"><ele>151.0</ele><time>2026-04-14T15:35:47.989Z</time></trkpt><trkpt lat="44.0693144" lon="8.1315237"><ele>151.0</ele><time>2026-04-14T15:35:48.989Z</time></trkpt><trkpt lat="44.0693898" lon="8.1313748"><ele>151.0</ele><time>2026-04-14T15:35:49.989Z</time></trkpt><trkpt lat="44.0694595" lon="8.1312102"><ele>151.0</ele><time>2026-04-14T15:35:50.989Z</time></trkpt><trkpt lat="44.0695111" lon="8.1310362"><ele>151.0</ele><time>2026-04-14T15:35:51.988Z</time></trkpt><trkpt lat="44.0695594" lon="8.1308591"><ele>151.0</ele><time>2026-04-14T15:35:52.989Z</time></trkpt><trkpt lat="44.0696012" lon="8.1306842"><ele>150.8</ele><time>2026-04-14T15:35:53.989Z</time></trkpt><trkpt lat="44.0696367" lon="8.1305196"><ele>150.6</ele><time>2026-04-14T15:35:54.989Z</time></trkpt><trkpt lat="44.0696583" lon="8.1303688"><ele>150.4</ele><time>2026-04-14T15:35:55.988Z</time></trkpt><trkpt lat="44.0696805" lon="8.130225"><ele>150.2</ele><time>2026-04-14T15:35:56.988Z</time></trkpt><trkpt lat="44.0697164" lon="8.1300934"><ele>150.0</ele><time>2026-04-14T15:35:57.988Z</time></trkpt><trkpt lat="44.0697678" lon="8.1299851"><ele>150.0</ele><time>2026-04-14T15:35:58.989Z</time></trkpt><trkpt lat="44.0698311" lon="8.129895"><ele>150.0</ele><time>2026-04-14T15:35:59.988Z</time></trkpt><trkpt lat="44.0698941" lon="8.1298158"><ele>150.0</ele><time>2026-04-14T15:36:00.989Z</time></trkpt><trkpt lat="44.0699421" lon="8.1297405"><ele>150.0</ele><time>2026-04-14T15:36:01.988Z</time></trkpt><trkpt lat="44.0699645" lon="8.1296466"><ele>150.0</ele><time>2026-04-14T15:36:02.989Z</time></trkpt><trkpt lat="44.0699392" lon="8.1294976"><ele>150.0</ele><time>2026-04-14T15:36:03.989Z</time></trkpt><trkpt lat="44.0698934" lon="8.12931"><ele>154.33333333333334</ele><time>2026-04-14T15:36:04.988Z</time></trkpt><trkpt lat="44.06984" lon="8.1291048"><ele>158.66666666666669</ele><time>2026-04-14T15:36:05.988Z</time></trkpt><trkpt lat="44.0697896" lon="8.128908"><ele>163.0</ele><time>2026-04-14T15:36:06.988Z</time></trkpt><trkpt lat="44.0697393" lon="8.1287174"><ele>165.4</ele><time>2026-04-14T15:36:07.989Z</time></trkpt><trkpt lat="44.0696964" lon="8.1285409"><ele>167.8</ele><time>2026-04-14T15:36:08.988Z</time></trkpt><trkpt lat="44.0696652" lon="8.1284084"><ele>170.2</ele><time>2026-04-14T15:36:09.988Z</time></trkpt><trkpt lat="44.0696407" lon="8.1283223"><ele>172.6</ele><time>2026-04-14T15:36:10.988Z</time></trkpt><trkpt lat="44.0695561" lon="8.1282934"><ele>175.0</ele><time>2026-04-14T15:36:12.988Z</time></trkpt><trkpt lat="44.0694851" lon="8.1283232"><ele>175.0</ele><time>2026-04-14T15:36:13.989Z</time></trkpt><trkpt lat="44.0693911" lon="8.1283562"><ele>175.0</ele><time>2026-04-14T15:36:14.989Z</time></trkpt><trkpt lat="44.0692804" lon="8.1283818"><ele>175.0</ele><time>2026-04-14T15:36:15.988Z</time></trkpt><trkpt lat="44.0691707" lon="8.1283799"><ele>175.0</ele><time>2026-04-14T15:36:16.988Z</time></trkpt><trkpt lat="44.0690651" lon="8.1283691"><ele>175.0</ele><time>2026-04-14T15:36:17.989Z</time></trkpt><trkpt lat="44.0689678" lon="8.1283656"><ele>170.4</ele><time>2026-04-14T15:36:18.988Z</time></trkpt><trkpt lat="44.068886" lon="8.1283754"><ele>165.8</ele><time>2026-04-14T15:36:19.988Z</time></trkpt><trkpt lat="44.0688211" lon="8.1283853"><ele>161.2</ele><time>2026-04-14T15:36:20.988Z</time></trkpt><trkpt lat="44.0687248" lon="8.1283348"><ele>156.6</ele><time>2026-04-14T15:36:22.988Z</time></trkpt><trkpt lat="44.0687065" lon="8.1281455"><ele>152.0</ele><time>2026-04-14T15:36:24.988Z</time></trkpt><trkpt lat="44.0687017" lon="8.1280075"><ele>151.6</ele><time>2026-04-14T15:36:25.989Z</time></trkpt><trkpt lat="44.0687002" lon="8.1278565"><ele>151.2</ele><time>2026-04-14T15:36:26.989Z</time></trkpt><trkpt lat="44.0687127" lon="8.1276955"><ele>150.8</ele><time>2026-04-14T15:36:27.988Z</time></trkpt><trkpt lat="44.0687235" lon="8.1275475"><ele>150.4</ele><time>2026-04-14T15:36:28.988Z</time></trkpt><trkpt lat="44.0687326" lon="8.1274239"><ele>150.0</ele><time>2026-04-14T15:36:29.988Z</time></trkpt><trkpt lat="44.0687385" lon="8.1273199"><ele>152.0</ele><time>2026-04-14T15:36:30.989Z</time></trkpt><trkpt lat="44.0687383" lon="8.127219"><ele>154.0</ele><time>2026-04-14T15:36:31.989Z</time></trkpt><trkpt lat="44.0687355" lon="8.1271047"><ele>156.0</ele><time>2026-04-14T15:36:32.989Z</time></trkpt><trkpt lat="44.0687339" lon="8.1269635"><ele>158.0</ele><time>2026-04-14T15:36:33.988Z</time></trkpt><trkpt lat="44.068723" lon="8.1267947"><ele>160.0</ele><time>2026-04-14T15:36:34.989Z</time></trkpt><trkpt lat="44.0686995" lon="8.1266397"><ele>162.0</ele><time>2026-04-14T15:36:35.989Z</time></trkpt><trkpt lat="44.0686655" lon="8.1265128"><ele>164.0</ele><time>2026-04-14T15:36:36.988Z</time></trkpt><trkpt lat="44.0686294" lon="8.1264057"><ele>166.0</ele><time>2026-04-14T15:36:37.989Z</time></trkpt><trkpt lat="44.0686066" lon="8.1263107"><ele>168.0</ele><time>2026-04-14T15:36:38.989Z</time></trkpt><trkpt lat="44.0685737" lon="8.1261838"><ele>170.0</ele><time>2026-04-14T15:36:40.988Z</time></trkpt><trkpt lat="44.0685181" lon="8.1261327"><ele>172.0</ele><time>2026-04-14T15:36:42.988Z</time></trkpt><trkpt lat="44.0684489" lon="8.1261716"><ele>172.0</ele><time>2026-04-14T15:36:43.989Z</time></trkpt><trkpt lat="44.068366" lon="8.1262271"><ele>172.0</ele><time>2026-04-14T15:36:44.988Z</time></trkpt><trkpt lat="44.0682741" lon="8.1262578"><ele>172.0</ele><time>2026-04-14T15:36:45.989Z</time></trkpt><trkpt lat="44.0681867" lon="8.1262673"><ele>172.0</ele><time>2026-04-14T15:36:46.989Z</time></trkpt><trkpt lat="44.068114" lon="8.1262405"><ele>172.0</ele><time>2026-04-14T15:36:47.988Z</time></trkpt><trkpt lat="44.0680593" lon="8.1261889"><ele>172.0</ele><time>2026-04-14T15:36:48.988Z</time></trkpt><trkpt lat="44.0680166" lon="8.1261151"><ele>168.0</ele><time>2026-04-14T15:36:49.988Z</time></trkpt><trkpt lat="44.0680148" lon="8.1260087"><ele>164.0</ele><time>2026-04-14T15:36:50.989Z</time></trkpt><trkpt lat="44.0680243" lon="8.1258859"><ele>160.0</ele><time>2026-04-14T15:36:51.988Z</time></trkpt><trkpt lat="44.0680421" lon="8.1257453"><ele>156.0</ele><time>2026-04-14T15:36:52.988Z</time></trkpt><trkpt lat="44.0680663" lon="8.1255931"><ele>152.0</ele><time>2026-04-14T15:36:53.988Z</time></trkpt><trkpt lat="44.0680986" lon="8.1254325"><ele>152.0</ele><time>2026-04-14T15:36:54.989Z</time></trkpt><trkpt lat="44.0681372" lon="8.1252645"><ele>152.0</ele><time>2026-04-14T15:36:55.988Z</time></trkpt><trkpt lat="44.0681805" lon="8.1250946"><ele>152.0</ele><time>2026-04-14T15:36:56.988Z</time></trkpt><trkpt lat="44.0682222" lon="8.1249408"><ele>152.0</ele><time>2026-04-14T15:36:57.989Z</time></trkpt><trkpt lat="44.0682696" lon="8.1248025"><ele>156.2</ele><time>2026-04-14T15:36:58.988Z</time></trkpt><trkpt lat="44.0683163" lon="8.1246772"><ele>160.39999999999998</ele><time>2026-04-14T15:36:59.988Z</time></trkpt><trkpt lat="44.0683622" lon="8.1245592"><ele>164.60000000000002</ele><time>2026-04-14T15:37:00.989Z</time></trkpt><trkpt lat="44.0684063" lon="8.1244464"><ele>168.8</ele><time>2026-04-14T15:37:01.989Z</time></trkpt><trkpt lat="44.0684477" lon="8.1243325"><ele>173.0</ele><time>2026-04-14T15:37:02.988Z</time></trkpt><trkpt lat="44.0684923" lon="8.1242086"><ele>173.0</ele><time>2026-04-14T15:37:03.988Z</time></trkpt><trkpt lat="44.0685362" lon="8.1240757"><ele>173.0</ele><time>2026-04-14T15:37:04.989Z</time></trkpt><trkpt lat="44.0685896" lon="8.1239365"><ele>173.0</ele><time>2026-04-14T15:37:05.988Z</time></trkpt><trkpt lat="44.0686461" lon="8.1238009"><ele>173.0</ele><time>2026-04-14T15:37:06.989Z</time></trkpt><trkpt lat="44.068702" lon="8.1236631"><ele>173.0</ele><time>2026-04-14T15:37:07.989Z</time></trkpt><trkpt lat="44.0687495" lon="8.1235269"><ele>173.66666666666666</ele><time>2026-04-14T15:37:08.988Z</time></trkpt><trkpt lat="44.0687931" lon="8.1233933"><ele>174.33333333333331</ele><time>2026-04-14T15:37:09.989Z</time></trkpt><trkpt lat="44.0688307" lon="8.1232761"><ele>175.0</ele><time>2026-04-14T15:37:10.988Z</time></trkpt><trkpt lat="44.068864" lon="8.1231746"><ele>175.66666666666666</ele><time>2026-04-14T15:37:11.989Z</time></trkpt><trkpt lat="44.0688989" lon="8.1230828"><ele>176.33333333333334</ele><time>2026-04-14T15:37:12.988Z</time></trkpt><trkpt lat="44.0689426" lon="8.1230021"><ele>177.0</ele><time>2026-04-14T15:37:13.988Z</time></trkpt><trkpt lat="44.0689915" lon="8.1229246"><ele>177.0</ele><time>2026-04-14T15:37:14.988Z</time></trkpt><trkpt lat="44.0690727" lon="8.1228096"><ele>177.0</ele><time>2026-04-14T15:37:16.989Z</time></trkpt><trkpt lat="44.0691328" lon="8.1227407"><ele>177.0</ele><time>2026-04-14T15:37:18.989Z</time></trkpt><trkpt lat="44.0692041" lon="8.1226395"><ele>177.0</ele><time>2026-04-14T15:37:20.989Z</time></trkpt><trkpt lat="44.0692379" lon="8.122542"><ele>177.0</ele><time>2026-04-14T15:37:21.988Z</time></trkpt><trkpt lat="44.0692644" lon="8.1224191"><ele>175.8</ele><time>2026-04-14T15:37:22.988Z</time></trkpt><trkpt lat="44.0692877" lon="8.1223103"><ele>174.6</ele><time>2026-04-14T15:37:23.988Z</time></trkpt><trkpt lat="44.0693054" lon="8.1222199"><ele>173.4</ele><time>2026-04-14T15:37:24.988Z</time></trkpt><trkpt lat="44.069315" lon="8.1220725"><ele>172.20000000000002</ele><time>2026-04-14T15:37:26.989Z</time></trkpt><trkpt lat="44.0693206" lon="8.1219181"><ele>171.0</ele><time>2026-04-14T15:37:28.988Z</time></trkpt><trkpt lat="44.069371" lon="8.1217524"><ele>171.0</ele><time>2026-04-14T15:37:30.988Z</time></trkpt><trkpt lat="44.0694055" lon="8.1216726"><ele>171.0</ele><time>2026-04-14T15:37:31.989Z</time></trkpt><trkpt lat="44.0694507" lon="8.1215365"><ele>171.0</ele><time>2026-04-14T15:37:33.988Z</time></trkpt><trkpt lat="44.0693965" lon="8.1213889"><ele>171.0</ele><time>2026-04-14T15:37:35.988Z</time></trkpt><trkpt lat="44.0693256" lon="8.1212643"><ele>171.0</ele><time>2026-04-14T15:37:36.988Z</time></trkpt><trkpt lat="44.0692548" lon="8.1211444"><ele>168.20000000000002</ele><time>2026-04-14T15:37:37.988Z</time></trkpt><trkpt lat="44.0692029" lon="8.1210461"><ele>165.4</ele><time>2026-04-14T15:37:38.988Z</time></trkpt><trkpt lat="44.0692693" lon="8.1211009"><ele>162.6</ele><time>2026-04-14T15:37:44.989Z</time></trkpt><trkpt lat="44.0693569" lon="8.1211619"><ele>159.8</ele><time>2026-04-14T15:37:46.988Z</time></trkpt><trkpt lat="44.0694532" lon="8.1210855"><ele>157.0</ele><time>2026-04-14T15:37:48.989Z</time></trkpt><trkpt lat="44.0695153" lon="8.1209902"><ele>157.0</ele><time>2026-04-14T15:37:49.988Z</time></trkpt><trkpt lat="44.0695725" lon="8.1208963"><ele>157.0</ele><time>2026-04-14T15:37:50.988Z</time></trkpt><trkpt lat="44.0696247" lon="8.1208115"><ele>157.0</ele><time>2026-04-14T15:37:51.988Z</time></trkpt><trkpt lat="44.0696743" lon="8.1207322"><ele>157.0</ele><time>2026-04-14T15:37:52.989Z</time></trkpt><trkpt lat="44.0697255" lon="8.1206236"><ele>157.0</ele><time>2026-04-14T15:37:53.989Z</time></trkpt><trkpt lat="44.0697694" lon="8.1204955"><ele>157.0</ele><time>2026-04-14T15:37:54.988Z</time></trkpt><trkpt lat="44.0697999" lon="8.1203639"><ele>156.0</ele><time>2026-04-14T15:37:55.989Z</time></trkpt><trkpt lat="44.0698232" lon="8.12024"><ele>155.0</ele><time>2026-04-14T15:37:56.989Z</time></trkpt><trkpt lat="44.0698495" lon="8.1201344"><ele>154.0</ele><time>2026-04-14T15:37:57.988Z</time></trkpt><trkpt lat="44.0698789" lon="8.1200364"><ele>153.0</ele><time>2026-04-14T15:37:58.989Z</time></trkpt><trkpt lat="44.0699939" lon="8.1199425"><ele>152.0</ele><time>2026-04-14T15:38:00.989Z</time></trkpt><trkpt lat="44.070065" lon="8.1199149"><ele>152.0</ele><time>2026-04-14T15:38:01.989Z</time></trkpt><trkpt lat="44.0701736" lon="8.1199032"><ele>152.0</ele><time>2026-04-14T15:38:03.988Z</time></trkpt><trkpt lat="44.0702755" lon="8.1199175"><ele>152.0</ele><time>2026-04-14T15:38:05.989Z</time></trkpt><trkpt lat="44.0703389" lon="8.1198853"><ele>152.0</ele><time>2026-04-14T15:38:07.989Z</time></trkpt><trkpt lat="44.0703109" lon="8.1198052"><ele>152.0</ele><time>2026-04-14T15:38:09.988Z</time></trkpt><trkpt lat="44.0702504" lon="8.119724"><ele>152.0</ele><time>2026-04-14T15:38:12.988Z</time></trkpt><trkpt lat="44.070238" lon="8.1196249"><ele>149.0</ele><time>2026-04-14T15:38:15.989Z</time></trkpt><trkpt lat="44.0702319" lon="8.1195262"><ele>146.0</ele><time>2026-04-14T15:38:18.989Z</time></trkpt><trkpt lat="44.0702197" lon="8.1194209"><ele>143.0</ele><time>2026-04-14T15:38:21.989Z</time></trkpt><trkpt lat="44.0701996" lon="8.1193266"><ele>140.0</ele><time>2026-04-14T15:38:24.988Z</time></trkpt><trkpt lat="44.0702498" lon="8.119262"><ele>137.0</ele><time>2026-04-14T15:38:27.988Z</time></trkpt><trkpt lat="44.0703132" lon="8.1191579"><ele>134.0</ele><time>2026-04-14T15:38:30.988Z</time></trkpt><trkpt lat="44.0703245" lon="8.1190278"><ele>133.83333333333331</ele><time>2026-04-14T15:38:32.988Z</time></trkpt><trkpt lat="44.0703085" lon="8.1189378"><ele>133.66666666666666</ele><time>2026-04-14T15:38:33.988Z</time></trkpt><trkpt lat="44.0702722" lon="8.1188416"><ele>133.5</ele><time>2026-04-14T15:38:34.989Z</time></trkpt><trkpt lat="44.0702209" lon="8.1187529"><ele>133.33333333333334</ele><time>2026-04-14T15:38:35.989Z</time></trkpt><trkpt lat="44.0701495" lon="8.1186778"><ele>133.16666666666669</ele><time>2026-04-14T15:38:36.989Z</time></trkpt><trkpt lat="44.0700548" lon="8.1186028"><ele>133.0</ele><time>2026-04-14T15:38:37.987Z</time></trkpt><trkpt lat="44.0699623" lon="8.1185281"><ele>130.20000000000002</ele><time>2026-04-14T15:38:38.987Z</time></trkpt><trkpt lat="44.0698731" lon="8.1184263"><ele>127.4</ele><time>2026-04-14T15:38:39.987Z</time></trkpt><trkpt lat="44.069789" lon="8.1183194"><ele>124.60000000000001</ele><time>2026-04-14T15:38:40.987Z</time></trkpt><trkpt lat="44.0697153" lon="8.1182236"><ele>121.80000000000001</ele><time>2026-04-14T15:38:41.987Z</time></trkpt><trkpt lat="44.069652" lon="8.1181337"><ele>119.0</ele><time>2026-04-14T15:38:42.987Z</time></trkpt><trkpt lat="44.06959" lon="8.1180601"><ele>118.99999999999999</ele><time>2026-04-14T15:38:43.987Z</time></trkpt><trkpt lat="44.0695197" lon="8.117991"><ele>119.0</ele><time>2026-04-14T15:38:44.988Z</time></trkpt><trkpt lat="44.0694508" lon="8.1179215"><ele>119.0</ele><time>2026-04-14T15:38:45.988Z</time></trkpt><trkpt lat="44.0693798" lon="8.1178786"><ele>119.0</ele><time>2026-04-14T15:38:46.988Z</time></trkpt><trkpt lat="44.0693115" lon="8.1177678"><ele>118.99999999999999</ele><time>2026-04-14T15:38:48.987Z</time></trkpt><trkpt lat="44.0693091" lon="8.1176601"><ele>119.0</ele><time>2026-04-14T15:38:49.988Z</time></trkpt><trkpt lat="44.0693255" lon="8.1175218"><ele>117.80000000000001</ele><time>2026-04-14T15:38:50.988Z</time></trkpt><trkpt lat="44.0693774" lon="8.1173645"><ele>116.60000000000001</ele><time>2026-04-14T15:38:51.987Z</time></trkpt><trkpt lat="44.0694387" lon="8.1172237"><ele>115.4</ele><time>2026-04-14T15:38:52.987Z</time></trkpt><trkpt lat="44.0694892" lon="8.1171031"><ele>114.2</ele><time>2026-04-14T15:38:53.988Z</time></trkpt><trkpt lat="44.0695215" lon="8.1169923"><ele>113.0</ele><time>2026-04-14T15:38:54.987Z</time></trkpt><trkpt lat="44.0695489" lon="8.1168784"><ele>112.99999999999999</ele><time>2026-04-14T15:38:55.988Z</time></trkpt><trkpt lat="44.0695731" lon="8.1167655"><ele>113.0</ele><time>2026-04-14T15:38:56.988Z</time></trkpt><trkpt lat="44.0695984" lon="8.1166472"><ele>113.0</ele><time>2026-04-14T15:38:57.988Z</time></trkpt><trkpt lat="44.0696153" lon="8.1165333"><ele>113.0</ele><time>2026-04-14T15:38:58.988Z</time></trkpt><trkpt lat="44.0696102" lon="8.1164443"><ele>112.99999999999999</ele><time>2026-04-14T15:38:59.987Z</time></trkpt><trkpt lat="44.0695456" lon="8.1163858"><ele>113.0</ele><time>2026-04-14T15:39:01.988Z</time></trkpt><trkpt lat="44.069431" lon="8.1163929"><ele>111.99999999999999</ele><time>2026-04-14T15:39:03.987Z</time></trkpt><trkpt lat="44.069356" lon="8.1163653"><ele>111.0</ele><time>2026-04-14T15:39:04.988Z</time></trkpt><trkpt lat="44.0692805" lon="8.1163268"><ele>110.0</ele><time>2026-04-14T15:39:05.987Z</time></trkpt><trkpt lat="44.0692127" lon="8.1162743"><ele>109.0</ele><time>2026-04-14T15:39:06.987Z</time></trkpt><trkpt lat="44.0691416" lon="8.1162119"><ele>107.99999999999999</ele><time>2026-04-14T15:39:07.987Z</time></trkpt><trkpt lat="44.0690533" lon="8.1161449"><ele>107.0</ele><time>2026-04-14T15:39:08.987Z</time></trkpt><trkpt lat="44.0689625" lon="8.116077"><ele>106.49999999999999</ele><time>2026-04-14T15:39:09.987Z</time></trkpt><trkpt lat="44.0688771" lon="8.1160011"><ele>106.0</ele><time>2026-04-14T15:39:10.987Z</time></trkpt><trkpt lat="44.0688029" lon="8.1159363"><ele>105.5</ele><time>2026-04-14T15:39:11.988Z</time></trkpt><trkpt lat="44.0687453" lon="8.1158948"><ele>105.0</ele><time>2026-04-14T15:39:12.988Z</time></trkpt><trkpt lat="44.0686786" lon="8.1158932"><ele>104.49999999999999</ele><time>2026-04-14T15:39:14.988Z</time></trkpt><trkpt lat="44.0686626" lon="8.1160045"><ele>104.0</ele><time>2026-04-14T15:39:16.988Z</time></trkpt><trkpt lat="44.0686499" lon="8.1161065"><ele>104.0</ele><time>2026-04-14T15:39:17.988Z</time></trkpt><trkpt lat="44.0686226" lon="8.1162381"><ele>104.0</ele><time>2026-04-14T15:39:18.987Z</time></trkpt><trkpt lat="44.0685817" lon="8.1163846"><ele>104.0</ele><time>2026-04-14T15:39:19.987Z</time></trkpt><trkpt lat="44.0685442" lon="8.1165074"><ele>104.0</ele><time>2026-04-14T15:39:20.987Z</time></trkpt><trkpt lat="44.0684501" lon="8.1165579"><ele>104.0</ele><time>2026-04-14T15:39:22.987Z</time></trkpt><trkpt lat="44.0683719" lon="8.1165443"><ele>105.80000000000001</ele><time>2026-04-14T15:39:23.988Z</time></trkpt><trkpt lat="44.0682737" lon="8.1164859"><ele>107.60000000000001</ele><time>2026-04-14T15:39:24.987Z</time></trkpt><trkpt lat="44.0681818" lon="8.1164171"><ele>109.4</ele><time>2026-04-14T15:39:25.988Z</time></trkpt><trkpt lat="44.0680965" lon="8.1163577"><ele>111.2</ele><time>2026-04-14T15:39:26.988Z</time></trkpt><trkpt lat="44.0680161" lon="8.1163227"><ele>113.0</ele><time>2026-04-14T15:39:27.988Z</time></trkpt><trkpt lat="44.0679349" lon="8.11631"><ele>113.0</ele><time>2026-04-14T15:39:28.987Z</time></trkpt><trkpt lat="44.067867" lon="8.1163237"><ele>113.00000000000001</ele><time>2026-04-14T15:39:29.988Z</time></trkpt><trkpt lat="44.0677651" lon="8.1164459"><ele>113.00000000000001</ele><time>2026-04-14T15:39:31.987Z</time></trkpt><trkpt lat="44.067717" lon="8.11653"><ele>113.0</ele><time>2026-04-14T15:39:32.987Z</time></trkpt><trkpt lat="44.067665" lon="8.1166027"><ele>113.0</ele><time>2026-04-14T15:39:33.988Z</time></trkpt><trkpt lat="44.0675628" lon="8.1166719"><ele>111.33333333333333</ele><time>2026-04-14T15:39:35.987Z</time></trkpt><trkpt lat="44.0674487" lon="8.1166075"><ele>109.66666666666666</ele><time>2026-04-14T15:39:37.987Z</time></trkpt><trkpt lat="44.0674005" lon="8.1165408"><ele>108.0</ele><time>2026-04-14T15:39:38.988Z</time></trkpt><trkpt lat="44.0673645" lon="8.1164483"><ele>106.33333333333334</ele><time>2026-04-14T15:39:39.987Z</time></trkpt><trkpt lat="44.0673304" lon="8.1163332"><ele>104.66666666666667</ele><time>2026-04-14T15:39:40.988Z</time></trkpt><trkpt lat="44.0672968" lon="8.1162168"><ele>103.0</ele><time>2026-04-14T15:39:41.987Z</time></trkpt><trkpt lat="44.0672745" lon="8.1161052"><ele>112.0</ele><time>2026-04-14T15:39:42.988Z</time></trkpt><trkpt lat="44.0672575" lon="8.1160132"><ele>121.0</ele><time>2026-04-14T15:39:43.988Z</time></trkpt><trkpt lat="44.0672644" lon="8.1158619"><ele>130.0</ele><time>2026-04-14T15:39:45.987Z</time></trkpt><trkpt lat="44.0673093" lon="8.1156827"><ele>139.0</ele><time>2026-04-14T15:39:47.988Z</time></trkpt><trkpt lat="44.0673499" lon="8.1155583"><ele>148.0</ele><time>2026-04-14T15:39:48.987Z</time></trkpt><trkpt lat="44.0673861" lon="8.1154238"><ele>148.66666666666669</ele><time>2026-04-14T15:39:49.987Z</time></trkpt><trkpt lat="44.0674284" lon="8.1152951"><ele>149.33333333333334</ele><time>2026-04-14T15:39:50.988Z</time></trkpt><trkpt lat="44.0674663" lon="8.1151869"><ele>150.0</ele><time>2026-04-14T15:39:51.987Z</time></trkpt><trkpt lat="44.0675055" lon="8.1150911"><ele>150.66666666666666</ele><time>2026-04-14T15:39:52.987Z</time></trkpt><trkpt lat="44.0675565" lon="8.1149948"><ele>151.33333333333331</ele><time>2026-04-14T15:39:53.988Z</time></trkpt><trkpt lat="44.0676042" lon="8.1149067"><ele>152.0</ele><time>2026-04-14T15:39:54.987Z</time></trkpt><trkpt lat="44.0676609" lon="8.1148321"><ele>152.0</ele><time>2026-04-14T15:39:55.988Z</time></trkpt><trkpt lat="44.0677188" lon="8.1147605"><ele>152.0</ele><time>2026-04-14T15:39:56.988Z</time></trkpt><trkpt lat="44.06777" lon="8.1146867"><ele>152.0</ele><time>2026-04-14T15:39:57.987Z</time></trkpt><trkpt lat="44.0678266" lon="8.1146069"><ele>152.0</ele><time>2026-04-14T15:39:58.987Z</time></trkpt><trkpt lat="44.0678822" lon="8.1145217"><ele>152.0</ele><time>2026-04-14T15:39:59.987Z</time></trkpt><trkpt lat="44.0679333" lon="8.1144415"><ele>152.0</ele><time>2026-04-14T15:40:00.988Z</time></trkpt><trkpt lat="44.0679707" lon="8.1143545"><ele>152.0</ele><time>2026-04-14T15:40:01.987Z</time></trkpt><trkpt lat="44.0680092" lon="8.1142712"><ele>152.0</ele><time>2026-04-14T15:40:02.987Z</time></trkpt><trkpt lat="44.0680411" lon="8.1141865"><ele>152.0</ele><time>2026-04-14T15:40:03.987Z</time></trkpt><trkpt lat="44.0680747" lon="8.1140973"><ele>152.0</ele><time>2026-04-14T15:40:04.987Z</time></trkpt><trkpt lat="44.0681137" lon="8.1139997"><ele>152.0</ele><time>2026-04-14T15:40:05.987Z</time></trkpt><trkpt lat="44.0681496" lon="8.1138945"><ele>152.0</ele><time>2026-04-14T15:40:06.987Z</time></trkpt><trkpt lat="44.0681888" lon="8.1137909"><ele>152.2</ele><time>2026-04-14T15:40:07.987Z</time></trkpt><trkpt lat="44.0682318" lon="8.1136935"><ele>152.39999999999998</ele><time>2026-04-14T15:40:08.988Z</time></trkpt><trkpt lat="44.0682719" lon="8.1136055"><ele>152.60000000000002</ele><time>2026-04-14T15:40:09.987Z</time></trkpt><trkpt lat="44.0683108" lon="8.1134531"><ele>152.8</ele><time>2026-04-14T15:40:11.987Z</time></trkpt><trkpt lat="44.0683577" lon="8.1133008"><ele>153.0</ele><time>2026-04-14T15:40:13.988Z</time></trkpt><trkpt lat="44.0683891" lon="8.1132191"><ele>153.0</ele><time>2026-04-14T15:40:14.987Z</time></trkpt><trkpt lat="44.0684372" lon="8.1131348"><ele>153.0</ele><time>2026-04-14T15:40:15.988Z</time></trkpt><trkpt lat="44.0684918" lon="8.1130497"><ele>153.0</ele><time>2026-04-14T15:40:16.988Z</time></trkpt><trkpt lat="44.0685578" lon="8.1129665"><ele>153.0</ele><time>2026-04-14T15:40:17.987Z</time></trkpt><trkpt lat="44.0686227" lon="8.112883"><ele>153.0</ele><time>2026-04-14T15:40:18.988Z</time></trkpt><trkpt lat="44.0686858" lon="8.1128006"><ele>153.0</ele><time>2026-04-14T15:40:19.988Z</time></trkpt><trkpt lat="44.0687431" lon="8.1127158"><ele>153.0</ele><time>2026-04-14T15:40:20.987Z</time></trkpt><trkpt lat="44.0687853" lon="8.1126249"><ele>153.0</ele><time>2026-04-14T15:40:21.988Z</time></trkpt><trkpt lat="44.0688208" lon="8.1125235"><ele>153.0</ele><time>2026-04-14T15:40:22.988Z</time></trkpt><trkpt lat="44.0688593" lon="8.112418"><ele>153.0</ele><time>2026-04-14T15:40:23.987Z</time></trkpt><trkpt lat="44.0688931" lon="8.1123227"><ele>153.0</ele><time>2026-04-14T15:40:24.987Z</time></trkpt><trkpt lat="44.0689282" lon="8.1122313"><ele>153.0</ele><time>2026-04-14T15:40:25.988Z</time></trkpt><trkpt lat="44.0689586" lon="8.1121475"><ele>153.33333333333334</ele><time>2026-04-14T15:40:26.988Z</time></trkpt><trkpt lat="44.0690297" lon="8.1120141"><ele>153.66666666666666</ele><time>2026-04-14T15:40:28.988Z</time></trkpt><trkpt lat="44.0690744" lon="8.1119487"><ele>154.0</ele><time>2026-04-14T15:40:29.988Z</time></trkpt><trkpt lat="44.0691188" lon="8.1118693"><ele>154.33333333333331</ele><time>2026-04-14T15:40:30.988Z</time></trkpt><trkpt lat="44.0691692" lon="8.1117813"><ele>154.66666666666666</ele><time>2026-04-14T15:40:31.987Z</time></trkpt><trkpt lat="44.0692325" lon="8.1116718"><ele>155.0</ele><time>2026-04-14T15:40:32.987Z</time></trkpt><trkpt lat="44.0692941" lon="8.1115535"><ele>155.0</ele><time>2026-04-14T15:40:33.988Z</time></trkpt><trkpt lat="44.0693555" lon="8.1114349"><ele>155.0</ele><time>2026-04-14T15:40:34.987Z</time></trkpt><trkpt lat="44.0694078" lon="8.1113175"><ele>155.0</ele><time>2026-04-14T15:40:35.988Z</time></trkpt><trkpt lat="44.0694532" lon="8.1112196"><ele>155.0</ele><time>2026-04-14T15:40:36.987Z</time></trkpt><trkpt lat="44.0694999" lon="8.1111143"><ele>155.0</ele><time>2026-04-14T15:40:37.988Z</time></trkpt><trkpt lat="44.0695416" lon="8.1110093"><ele>155.0</ele><time>2026-04-14T15:40:38.988Z</time></trkpt><trkpt lat="44.0695896" lon="8.1109008"><ele>155.0</ele><time>2026-04-14T15:40:39.987Z</time></trkpt><trkpt lat="44.0696297" lon="8.1107912"><ele>155.0</ele><time>2026-04-14T15:40:40.988Z</time></trkpt><trkpt lat="44.069658" lon="8.110681"><ele>155.0</ele><time>2026-04-14T15:40:41.988Z</time></trkpt><trkpt lat="44.0696585" lon="8.1105715"><ele>155.0</ele><time>2026-04-14T15:40:42.988Z</time></trkpt><trkpt lat="44.0696461" lon="8.1104641"><ele>155.0</ele><time>2026-04-14T15:40:43.988Z</time></trkpt><trkpt lat="44.0696361" lon="8.1103675"><ele>157.0</ele><time>2026-04-14T15:40:44.987Z</time></trkpt><trkpt lat="44.0696367" lon="8.1102729"><ele>159.0</ele><time>2026-04-14T15:40:45.988Z</time></trkpt><trkpt lat="44.0696295" lon="8.1101261"><ele>161.0</ele><time>2026-04-14T15:40:47.988Z</time></trkpt><trkpt lat="44.0696062" lon="8.1100444"><ele>163.0</ele><time>2026-04-14T15:40:48.987Z</time></trkpt><trkpt lat="44.0695786" lon="8.1099581"><ele>165.0</ele><time>2026-04-14T15:40:49.987Z</time></trkpt><trkpt lat="44.069554" lon="8.1098771"><ele>167.0</ele><time>2026-04-14T15:40:50.987Z</time></trkpt><trkpt lat="44.0695122" lon="8.1097394"><ele>167.0</ele><time>2026-04-14T15:40:52.987Z</time></trkpt><trkpt lat="44.0695488" lon="8.1096299"><ele>167.0</ele><time>2026-04-14T15:44:15.988Z</time></trkpt><trkpt lat="44.0695439" lon="8.1097376"><ele>167.0</ele><time>2026-04-14T15:48:28.987Z</time></trkpt><trkpt lat="44.0695313" lon="8.1098799"><ele>167.0</ele><time>2026-04-14T15:48:30.987Z</time></trkpt><trkpt lat="44.0695453" lon="8.1099707"><ele>167.0</ele><time>2026-04-14T15:48:31.988Z</time></trkpt><trkpt lat="44.0695879" lon="8.11007"><ele>167.0</ele><time>2026-04-14T15:48:32.988Z</time></trkpt><trkpt lat="44.0696112" lon="8.1101727"><ele>167.0</ele><time>2026-04-14T15:48:33.987Z</time></trkpt><trkpt lat="44.0696119" lon="8.1102862"><ele>167.0</ele><time>2026-04-14T15:48:34.988Z</time></trkpt><trkpt lat="44.0696079" lon="8.1104014"><ele>167.0</ele><time>2026-04-14T15:48:35.987Z</time></trkpt><trkpt lat="44.0696134" lon="8.1105208"><ele>167.0</ele><time>2026-04-14T15:48:36.987Z</time></trkpt><trkpt lat="44.0696251" lon="8.1106247"><ele>167.0</ele><time>2026-04-14T15:48:37.988Z</time></trkpt><trkpt lat="44.0696295" lon="8.1107321"><ele>167.0</ele><time>2026-04-14T15:48:38.988Z</time></trkpt><trkpt lat="44.0696192" lon="8.1108395"><ele>164.6</ele><time>2026-04-14T15:48:39.988Z</time></trkpt><trkpt lat="44.0695976" lon="8.1109514"><ele>162.2</ele><time>2026-04-14T15:48:40.987Z</time></trkpt><trkpt lat="44.0695457" lon="8.1110743"><ele>159.8</ele><time>2026-04-14T15:48:41.987Z</time></trkpt><trkpt lat="44.0694883" lon="8.1111859"><ele>157.4</ele><time>2026-04-14T15:48:42.987Z</time></trkpt><trkpt lat="44.069429" lon="8.1112921"><ele>155.0</ele><time>2026-04-14T15:48:43.987Z</time></trkpt><trkpt lat="44.0693852" lon="8.1114057"><ele>155.0</ele><time>2026-04-14T15:48:44.988Z</time></trkpt><trkpt lat="44.0693354" lon="8.1115283"><ele>155.0</ele><time>2026-04-14T15:48:45.987Z</time></trkpt><trkpt lat="44.0692702" lon="8.1116428"><ele>155.0</ele><time>2026-04-14T15:48:46.987Z</time></trkpt><trkpt lat="44.0692029" lon="8.1117531"><ele>155.0</ele><time>2026-04-14T15:48:47.987Z</time></trkpt><trkpt lat="44.0691353" lon="8.1118527"><ele>155.0</ele><time>2026-04-14T15:48:48.987Z</time></trkpt><trkpt lat="44.0690744" lon="8.1119372"><ele>154.66666666666666</ele><time>2026-04-14T15:48:49.987Z</time></trkpt><trkpt lat="44.0690199" lon="8.1120086"><ele>154.33333333333331</ele><time>2026-04-14T15:48:50.988Z</time></trkpt><trkpt lat="44.0689635" lon="8.1120689"><ele>154.0</ele><time>2026-04-14T15:48:51.987Z</time></trkpt><trkpt lat="44.0689158" lon="8.112142"><ele>153.66666666666666</ele><time>2026-04-14T15:48:52.987Z</time></trkpt><trkpt lat="44.0688809" lon="8.112241"><ele>153.33333333333334</ele><time>2026-04-14T15:48:53.988Z</time></trkpt><trkpt lat="44.068844" lon="8.1123375"><ele>153.0</ele><time>2026-04-14T15:48:54.987Z</time></trkpt><trkpt lat="44.0688069" lon="8.1124349"><ele>153.0</ele><time>2026-04-14T15:48:55.988Z</time></trkpt><trkpt lat="44.0687673" lon="8.1125394"><ele>153.0</ele><time>2026-04-14T15:48:56.987Z</time></trkpt><trkpt lat="44.0687336" lon="8.1126376"><ele>153.0</ele><time>2026-04-14T15:48:57.987Z</time></trkpt><trkpt lat="44.0686841" lon="8.1127607"><ele>153.0</ele><time>2026-04-14T15:48:59.987Z</time></trkpt><trkpt lat="44.068633" lon="8.112849"><ele>153.0</ele><time>2026-04-14T15:49:01.987Z</time></trkpt><trkpt lat="44.0685339" lon="8.1129884"><ele>153.0</ele><time>2026-04-14T15:49:03.987Z</time></trkpt><trkpt lat="44.0684788" lon="8.1130863"><ele>153.0</ele><time>2026-04-14T15:49:04.988Z</time></trkpt><trkpt lat="44.0684142" lon="8.1132018"><ele>153.0</ele><time>2026-04-14T15:49:05.988Z</time></trkpt><trkpt lat="44.0683474" lon="8.1133362"><ele>153.0</ele><time>2026-04-14T15:49:06.987Z</time></trkpt><trkpt lat="44.0682979" lon="8.1134853"><ele>153.0</ele><time>2026-04-14T15:49:07.988Z</time></trkpt><trkpt lat="44.0682573" lon="8.1136367"><ele>152.75</ele><time>2026-04-14T15:49:08.987Z</time></trkpt><trkpt lat="44.0682074" lon="8.1137821"><ele>152.5</ele><time>2026-04-14T15:49:09.987Z</time></trkpt><trkpt lat="44.0681462" lon="8.1139297"><ele>152.25</ele><time>2026-04-14T15:49:10.988Z</time></trkpt><trkpt lat="44.0680906" lon="8.1140713"><ele>152.0</ele><time>2026-04-14T15:49:11.987Z</time></trkpt><trkpt lat="44.0680344" lon="8.1142198"><ele>152.0</ele><time>2026-04-14T15:49:12.987Z</time></trkpt><trkpt lat="44.0679776" lon="8.1143678"><ele>152.0</ele><time>2026-04-14T15:49:13.987Z</time></trkpt><trkpt lat="44.0679134" lon="8.1145112"><ele>152.0</ele><time>2026-04-14T15:49:14.987Z</time></trkpt><trkpt lat="44.0678572" lon="8.1146376"><ele>152.0</ele><time>2026-04-14T15:49:15.987Z</time></trkpt><trkpt lat="44.0677967" lon="8.1147419"><ele>152.0</ele><time>2026-04-14T15:49:16.987Z</time></trkpt><trkpt lat="44.0677286" lon="8.1148438"><ele>147.0</ele><time>2026-04-14T15:49:17.988Z</time></trkpt><trkpt lat="44.0676608" lon="8.1149456"><ele>142.0</ele><time>2026-04-14T15:49:18.987Z</time></trkpt><trkpt lat="44.0675952" lon="8.1150555"><ele>137.0</ele><time>2026-04-14T15:49:19.987Z</time></trkpt><trkpt lat="44.0675416" lon="8.1151772"><ele>132.0</ele><time>2026-04-14T15:49:20.987Z</time></trkpt><trkpt lat="44.0675017" lon="8.1153122"><ele>127.0</ele><time>2026-04-14T15:49:21.987Z</time></trkpt><trkpt lat="44.0674717" lon="8.1154574"><ele>131.2</ele><time>2026-04-14T15:49:22.987Z</time></trkpt><trkpt lat="44.0674365" lon="8.1156101"><ele>135.39999999999998</ele><time>2026-04-14T15:49:23.988Z</time></trkpt><trkpt lat="44.067389" lon="8.1157561"><ele>139.60000000000002</ele><time>2026-04-14T15:49:24.987Z</time></trkpt><trkpt lat="44.0673589" lon="8.1158896"><ele>143.8</ele><time>2026-04-14T15:49:25.988Z</time></trkpt><trkpt lat="44.0673096" lon="8.1159789"><ele>148.0</ele><time>2026-04-14T15:49:26.987Z</time></trkpt><trkpt lat="44.0673158" lon="8.1161361"><ele>148.0</ele><time>2026-04-14T15:49:28.987Z</time></trkpt><trkpt lat="44.0673742" lon="8.1162824"><ele>148.0</ele><time>2026-04-14T15:49:30.988Z</time></trkpt><trkpt lat="44.0674562" lon="8.1163771"><ele>148.0</ele><time>2026-04-14T15:49:32.987Z</time></trkpt><trkpt lat="44.0675105" lon="8.1164291"><ele>148.0</ele><time>2026-04-14T15:49:35.987Z</time></trkpt><trkpt lat="44.0675945" lon="8.1164105"><ele>148.0</ele><time>2026-04-14T15:49:38.988Z</time></trkpt><trkpt lat="44.0675957" lon="8.1163163"><ele>148.0</ele><time>2026-04-14T15:49:41.987Z</time></trkpt><trkpt lat="44.0675496" lon="8.1162516"><ele>148.0</ele><time>2026-04-14T15:49:43.988Z</time></trkpt><trkpt lat="44.0674878" lon="8.1162194"><ele>148.0</ele><time>2026-04-14T15:49:46.987Z</time></trkpt><trkpt lat="44.0674343" lon="8.116272"><ele>148.0</ele><time>2026-04-14T15:49:48.988Z</time></trkpt><trkpt lat="44.0673538" lon="8.1162213"><ele>148.0</ele><time>2026-04-14T15:49:51.987Z</time></trkpt><trkpt lat="44.0673102" lon="8.1160998"><ele>148.0</ele><time>2026-04-14T15:49:53.988Z</time></trkpt><trkpt lat="44.0672833" lon="8.1159858"><ele>148.0</ele><time>2026-04-14T15:49:55.987Z</time></trkpt><trkpt lat="44.0672843" lon="8.1158757"><ele>148.0</ele><time>2026-04-14T15:49:57.987Z</time></trkpt><trkpt lat="44.0672714" lon="8.115762"><ele>148.0</ele><time>2026-04-14T15:49:59.987Z</time></trkpt><trkpt lat="44.0672405" lon="8.1156429"><ele>148.0</ele><time>2026-04-14T15:50:01.988Z</time></trkpt><trkpt lat="44.0672251" lon="8.1155188"><ele>148.0</ele><time>2026-04-14T15:50:03.988Z</time></trkpt><trkpt lat="44.0672645" lon="8.1154056"><ele>148.0</ele><time>2026-04-14T15:50:05.987Z</time></trkpt><trkpt lat="44.0672728" lon="8.1152786"><ele>148.0</ele><time>2026-04-14T15:50:07.988Z</time></trkpt><trkpt lat="44.0672767" lon="8.1151565"><ele>148.8</ele><time>2026-04-14T15:50:09.986Z</time></trkpt><trkpt lat="44.067297" lon="8.1150017"><ele>149.60000000000002</ele><time>2026-04-14T15:50:11.987Z</time></trkpt><trkpt lat="44.0673247" lon="8.1148612"><ele>150.39999999999998</ele><time>2026-04-14T15:50:13.987Z</time></trkpt><trkpt lat="44.0673448" lon="8.1147474"><ele>151.2</ele><time>2026-04-14T15:50:15.987Z</time></trkpt><trkpt lat="44.0673802" lon="8.1146366"><ele>152.0</ele><time>2026-04-14T15:50:17.987Z</time></trkpt><trkpt lat="44.0674281" lon="8.1145143"><ele>152.0</ele><time>2026-04-14T15:50:19.987Z</time></trkpt><trkpt lat="44.0675008" lon="8.1143964"><ele>152.0</ele><time>2026-04-14T15:50:21.987Z</time></trkpt><trkpt lat="44.0675793" lon="8.1142933"><ele>152.0</ele><time>2026-04-14T15:50:23.986Z</time></trkpt><trkpt lat="44.0676335" lon="8.1141956"><ele>152.0</ele><time>2026-04-14T15:50:25.986Z</time></trkpt><trkpt lat="44.0676847" lon="8.1140688"><ele>152.0</ele><time>2026-04-14T15:50:27.986Z</time></trkpt><trkpt lat="44.0677397" lon="8.1139721"><ele>152.0</ele><time>2026-04-14T15:50:29.986Z</time></trkpt><trkpt lat="44.0677895" lon="8.1139174"><ele>152.0</ele><time>2026-04-14T15:50:32.986Z</time></trkpt><trkpt lat="44.0677056" lon="8.1139369"><ele>152.0</ele><time>2026-04-14T15:50:45.986Z</time></trkpt><trkpt lat="44.067641" lon="8.1139696"><ele>152.0</ele><time>2026-04-14T15:50:47.986Z</time></trkpt><trkpt lat="44.0675608" lon="8.1140215"><ele>152.0</ele><time>2026-04-14T15:50:49.986Z</time></trkpt><trkpt lat="44.0675006" lon="8.1140733"><ele>152.0</ele><time>2026-04-14T15:50:51.986Z</time></trkpt><trkpt lat="44.0674249" lon="8.1140924"><ele>152.0</ele><time>2026-04-14T15:50:54.986Z</time></trkpt><trkpt lat="44.0673593" lon="8.1141128"><ele>152.0</ele><time>2026-04-14T15:50:58.987Z</time></trkpt><trkpt lat="44.067302" lon="8.1141528"><ele>152.0</ele><time>2026-04-14T15:51:03.986Z</time></trkpt><trkpt lat="44.0672397" lon="8.1141761"><ele>152.0</ele><time>2026-04-14T15:51:07.987Z</time></trkpt><trkpt lat="44.0671788" lon="8.1142477"><ele>152.0</ele><time>2026-04-14T15:51:25.987Z</time></trkpt><trkpt lat="44.067108" lon="8.1142898"><ele>152.0</ele><time>2026-04-14T15:51:27.986Z</time></trkpt><trkpt lat="44.0670613" lon="8.1142227"><ele>152.0</ele><time>2026-04-14T15:51:32.987Z</time></trkpt><trkpt lat="44.0670671" lon="8.1141242"><ele>152.33333333333331</ele><time>2026-04-14T15:51:35.986Z</time></trkpt><trkpt lat="44.0670984" lon="8.1140195"><ele>152.66666666666666</ele><time>2026-04-14T15:51:38.986Z</time></trkpt><trkpt lat="44.0671187" lon="8.1139306"><ele>153.0</ele><time>2026-04-14T15:51:40.987Z</time></trkpt><trkpt lat="44.0671422" lon="8.1138328"><ele>153.33333333333334</ele><time>2026-04-14T15:51:42.986Z</time></trkpt><trkpt lat="44.06718" lon="8.1137327"><ele>153.66666666666669</ele><time>2026-04-14T15:51:44.986Z</time></trkpt><trkpt lat="44.0672273" lon="8.1136319"><ele>154.0</ele><time>2026-04-14T15:51:46.986Z</time></trkpt><trkpt lat="44.0672694" lon="8.1135131"><ele>154.0</ele><time>2026-04-14T15:51:48.986Z</time></trkpt><trkpt lat="44.0672937" lon="8.1134075"><ele>154.0</ele><time>2026-04-14T15:51:50.986Z</time></trkpt><trkpt lat="44.0673222" lon="8.1132713"><ele>154.0</ele><time>2026-04-14T15:51:52.987Z</time></trkpt><trkpt lat="44.0673735" lon="8.1131211"><ele>154.0</ele><time>2026-04-14T15:51:54.986Z</time></trkpt><trkpt lat="44.0674213" lon="8.1129807"><ele>154.0</ele><time>2026-04-14T15:51:56.987Z</time></trkpt><trkpt lat="44.0674697" lon="8.11283"><ele>157.66666666666669</ele><time>2026-04-14T15:51:58.986Z</time></trkpt><trkpt lat="44.0674953" lon="8.1127487"><ele>161.33333333333334</ele><time>2026-04-14T15:51:59.987Z</time></trkpt><trkpt lat="44.0675154" lon="8.1125955"><ele>165.0</ele><time>2026-04-14T15:52:01.986Z</time></trkpt><trkpt lat="44.0675252" lon="8.1124578"><ele>168.66666666666666</ele><time>2026-04-14T15:52:03.986Z</time></trkpt><trkpt lat="44.0675327" lon="8.1123399"><ele>172.33333333333331</ele><time>2026-04-14T15:52:05.986Z</time></trkpt><trkpt lat="44.067556" lon="8.1122554"><ele>176.0</ele><time>2026-04-14T15:52:07.986Z</time></trkpt><trkpt lat="44.0675983" lon="8.1121361"><ele>177.5</ele><time>2026-04-14T15:52:10.987Z</time></trkpt><trkpt lat="44.0676273" lon="8.1120451"><ele>179.0</ele><time>2026-04-14T15:52:12.987Z</time></trkpt><trkpt lat="44.0676538" lon="8.1119305"><ele>180.5</ele><time>2026-04-14T15:52:15.986Z</time></trkpt><trkpt lat="44.0676633" lon="8.111795"><ele>182.0</ele><time>2026-04-14T15:52:18.987Z</time></trkpt><trkpt lat="44.067675" lon="8.1116767"><ele>183.5</ele><time>2026-04-14T15:52:20.986Z</time></trkpt><trkpt lat="44.0677017" lon="8.1115583"><ele>185.0</ele><time>2026-04-14T15:52:22.986Z</time></trkpt><trkpt lat="44.067735" lon="8.1114533"><ele>186.33333333333331</ele><time>2026-04-14T15:52:24.987Z</time></trkpt><trkpt lat="44.067725" lon="8.1113383"><ele>187.66666666666666</ele><time>2026-04-14T15:52:26.987Z</time></trkpt><trkpt lat="44.0677683" lon="8.111215"><ele>189.0</ele><time>2026-04-14T15:52:28.986Z</time></trkpt><trkpt lat="44.0678183" lon="8.1110917"><ele>190.33333333333331</ele><time>2026-04-14T15:52:30.987Z</time></trkpt><trkpt lat="44.0678567" lon="8.1109867"><ele>191.66666666666666</ele><time>2026-04-14T15:52:32.986Z</time></trkpt><trkpt lat="44.06786" lon="8.11088"><ele>193.0</ele><time>2026-04-14T15:52:34.986Z</time></trkpt><trkpt lat="44.0678567" lon="8.1107733"><ele>194.33333333333331</ele><time>2026-04-14T15:52:37.987Z</time></trkpt><trkpt lat="44.0678933" lon="8.1106933"><ele>195.66666666666666</ele><time>2026-04-14T15:52:39.986Z</time></trkpt><trkpt lat="44.067905" lon="8.1105817"><ele>197.0</ele><time>2026-04-14T15:52:42.986Z</time></trkpt><trkpt lat="44.0679283" lon="8.1104733"><ele>198.33333333333331</ele><time>2026-04-14T15:52:44.986Z</time></trkpt><trkpt lat="44.06795" lon="8.1103583"><ele>199.66666666666666</ele><time>2026-04-14T15:52:46.986Z</time></trkpt><trkpt lat="44.0679683" lon="8.1102683"><ele>201.0</ele><time>2026-04-14T15:52:48.986Z</time></trkpt><trkpt lat="44.0680017" lon="8.11017"><ele>201.0</ele><time>2026-04-14T15:52:50.987Z</time></trkpt><trkpt lat="44.0680267" lon="8.1100767"><ele>201.0</ele><time>2026-04-14T15:52:52.986Z</time></trkpt><trkpt lat="44.0680733" lon="8.1099667"><ele>201.0</ele><time>2026-04-14T15:52:55.987Z</time></trkpt><trkpt lat="44.06808" lon="8.1098767"><ele>201.0</ele><time>2026-04-14T15:52:57.987Z</time></trkpt><trkpt lat="44.068095" lon="8.1097683"><ele>201.0</ele><time>2026-04-14T15:52:59.987Z</time></trkpt><trkpt lat="44.0680983" lon="8.10963"><ele>201.0</ele><time>2026-04-14T15:53:01.986Z</time></trkpt><trkpt lat="44.0681133" lon="8.109495"><ele>202.60000000000002</ele><time>2026-04-14T15:53:03.986Z</time></trkpt><trkpt lat="44.0681417" lon="8.1093617"><ele>204.2</ele><time>2026-04-14T15:53:05.987Z</time></trkpt><trkpt lat="44.0681883" lon="8.10922"><ele>205.8</ele><time>2026-04-14T15:53:07.987Z</time></trkpt><trkpt lat="44.068195" lon="8.1091033"><ele>207.39999999999998</ele><time>2026-04-14T15:53:09.986Z</time></trkpt><trkpt lat="44.0681533" lon="8.108965"><ele>209.0</ele><time>2026-04-14T15:53:11.986Z</time></trkpt><trkpt lat="44.0681217" lon="8.1088167"><ele>211.50000000000003</ele><time>2026-04-14T15:53:13.986Z</time></trkpt><trkpt lat="44.068135" lon="8.1086783"><ele>214.0</ele><time>2026-04-14T15:53:15.987Z</time></trkpt><trkpt lat="44.0681433" lon="8.1085717"><ele>216.5</ele><time>2026-04-14T15:53:17.986Z</time></trkpt><trkpt lat="44.0681717" lon="8.1084633"><ele>219.0</ele><time>2026-04-14T15:53:19.986Z</time></trkpt><trkpt lat="44.06818" lon="8.10834"><ele>221.50000000000003</ele><time>2026-04-14T15:53:21.986Z</time></trkpt><trkpt lat="44.0682083" lon="8.1082533"><ele>224.0</ele><time>2026-04-14T15:53:23.986Z</time></trkpt><trkpt lat="44.0682267" lon="8.1081617"><ele>227.6</ele><time>2026-04-14T15:53:25.987Z</time></trkpt><trkpt lat="44.06823" lon="8.108035"><ele>231.2</ele><time>2026-04-14T15:53:28.986Z</time></trkpt><trkpt lat="44.0682083" lon="8.1079083"><ele>234.79999999999998</ele><time>2026-04-14T15:53:31.986Z</time></trkpt><trkpt lat="44.068205" lon="8.1077817"><ele>238.39999999999998</ele><time>2026-04-14T15:53:34.987Z</time></trkpt><trkpt lat="44.068205" lon="8.10766"><ele>242.0</ele><time>2026-04-14T15:53:37.987Z</time></trkpt><trkpt lat="44.068195" lon="8.107535"><ele>242.00000000000003</ele><time>2026-04-14T15:53:40.986Z</time></trkpt><trkpt lat="44.0681817" lon="8.107435"><ele>242.0</ele><time>2026-04-14T15:53:42.986Z</time></trkpt><trkpt lat="44.068165" lon="8.1073167"><ele>242.0</ele><time>2026-04-14T15:53:45.987Z</time></trkpt><trkpt lat="44.0681467" lon="8.1072183"><ele>242.0</ele><time>2026-04-14T15:53:47.986Z</time></trkpt><trkpt lat="44.0681067" lon="8.107125"><ele>242.00000000000003</ele><time>2026-04-14T15:53:49.986Z</time></trkpt><trkpt lat="44.0680833" lon="8.1070367"><ele>242.0</ele><time>2026-04-14T15:53:52.986Z</time></trkpt><trkpt lat="44.06805" lon="8.1069417"><ele>242.16666666666669</ele><time>2026-04-14T15:53:54.986Z</time></trkpt><trkpt lat="44.0680183" lon="8.1068633"><ele>242.33333333333334</ele><time>2026-04-14T15:53:56.987Z</time></trkpt><trkpt lat="44.0679583" lon="8.1067983"><ele>242.5</ele><time>2026-04-14T15:55:13.987Z</time></trkpt><trkpt lat="44.0679433" lon="8.1066767"><ele>242.66666666666669</ele><time>2026-04-14T15:55:16.987Z</time></trkpt><trkpt lat="44.0679683" lon="8.1065583"><ele>242.83333333333334</ele><time>2026-04-14T15:55:19.986Z</time></trkpt><trkpt lat="44.0679733" lon="8.1064367"><ele>243.0</ele><time>2026-04-14T15:55:22.987Z</time></trkpt><trkpt lat="44.067995" lon="8.1063117"><ele>239.4</ele><time>2026-04-14T15:55:24.986Z</time></trkpt><trkpt lat="44.0680117" lon="8.10619"><ele>235.8</ele><time>2026-04-14T15:55:26.986Z</time></trkpt><trkpt lat="44.0680333" lon="8.1060483"><ele>232.2</ele><time>2026-04-14T15:55:28.986Z</time></trkpt><trkpt lat="44.0680567" lon="8.1058717"><ele>228.6</ele><time>2026-04-14T15:55:30.986Z</time></trkpt><trkpt lat="44.0680767" lon="8.1057717"><ele>225.0</ele><time>2026-04-14T15:55:31.987Z</time></trkpt><trkpt lat="44.0681017" lon="8.105675"><ele>223.8</ele><time>2026-04-14T15:55:32.987Z</time></trkpt><trkpt lat="44.0681183" lon="8.1055767"><ele>222.6</ele><time>2026-04-14T15:55:33.986Z</time></trkpt><trkpt lat="44.0681683" lon="8.1054233"><ele>221.39999999999998</ele><time>2026-04-14T15:55:35.986Z</time></trkpt><trkpt lat="44.0682067" lon="8.1052767"><ele>220.2</ele><time>2026-04-14T15:55:37.986Z</time></trkpt><trkpt lat="44.06824" lon="8.1051683"><ele>219.0</ele><time>2026-04-14T15:55:39.986Z</time></trkpt><trkpt lat="44.0682483" lon="8.105045"><ele>219.0</ele><time>2026-04-14T15:55:41.987Z</time></trkpt><trkpt lat="44.0682317" lon="8.1049167"><ele>219.0</ele><time>2026-04-14T15:55:43.986Z</time></trkpt><trkpt lat="44.0682483" lon="8.1048017"><ele>219.0</ele><time>2026-04-14T15:55:45.986Z</time></trkpt><trkpt lat="44.0682567" lon="8.1047033"><ele>219.0</ele><time>2026-04-14T15:55:47.986Z</time></trkpt><trkpt lat="44.0682983" lon="8.104585"><ele>219.0</ele><time>2026-04-14T15:55:49.986Z</time></trkpt><trkpt lat="44.0683717" lon="8.1045133"><ele>219.0</ele><time>2026-04-14T15:55:51.987Z</time></trkpt><trkpt lat="44.0684383" lon="8.10448"><ele>221.5</ele><time>2026-04-14T15:55:53.986Z</time></trkpt><trkpt lat="44.0684883" lon="8.1044083"><ele>224.0</ele><time>2026-04-14T15:55:55.986Z</time></trkpt><trkpt lat="44.0685533" lon="8.104355"><ele>226.5</ele><time>2026-04-14T15:55:57.987Z</time></trkpt><trkpt lat="44.06863" lon="8.10426"><ele>229.0</ele><time>2026-04-14T15:55:59.987Z</time></trkpt><trkpt lat="44.068705" lon="8.1041783"><ele>231.5</ele><time>2026-04-14T15:56:01.987Z</time></trkpt><trkpt lat="44.0687767" lon="8.1041217"><ele>234.0</ele><time>2026-04-14T15:56:03.987Z</time></trkpt><trkpt lat="44.0688617" lon="8.10403"><ele>234.0</ele><time>2026-04-14T15:56:05.986Z</time></trkpt><trkpt lat="44.0689283" lon="8.1039733"><ele>233.99999999999997</ele><time>2026-04-14T15:56:07.987Z</time></trkpt><trkpt lat="44.06903" lon="8.1039233"><ele>233.99999999999997</ele><time>2026-04-14T15:56:09.987Z</time></trkpt><trkpt lat="44.06911" lon="8.103815"><ele>234.0</ele><time>2026-04-14T15:56:11.986Z</time></trkpt><trkpt lat="44.0691233" lon="8.1036867"><ele>234.0</ele><time>2026-04-14T15:56:13.986Z</time></trkpt><trkpt lat="44.06911" lon="8.1035567"><ele>239.0</ele><time>2026-04-14T15:56:15.986Z</time></trkpt><trkpt lat="44.069115" lon="8.1034267"><ele>243.99999999999997</ele><time>2026-04-14T15:56:17.987Z</time></trkpt><trkpt lat="44.0691767" lon="8.1032667"><ele>248.99999999999997</ele><time>2026-04-14T15:56:19.987Z</time></trkpt><trkpt lat="44.06921" lon="8.1031867"><ele>254.0</ele><time>2026-04-14T15:56:20.986Z</time></trkpt><trkpt lat="44.0692467" lon="8.1030383"><ele>259.0</ele><time>2026-04-14T15:56:22.987Z</time></trkpt><trkpt lat="44.0692533" lon="8.1029083"><ele>259.0</ele><time>2026-04-14T15:56:24.987Z</time></trkpt><trkpt lat="44.0692917" lon="8.1027933"><ele>259.0</ele><time>2026-04-14T15:56:26.987Z</time></trkpt><trkpt lat="44.06936" lon="8.102645"><ele>259.0</ele><time>2026-04-14T15:56:28.986Z</time></trkpt><trkpt lat="44.0694067" lon="8.1024833"><ele>259.0</ele><time>2026-04-14T15:56:30.986Z</time></trkpt><trkpt lat="44.0694433" lon="8.1024017"><ele>259.0</ele><time>2026-04-14T15:56:31.986Z</time></trkpt><trkpt lat="44.06948" lon="8.1022583"><ele>259.8</ele><time>2026-04-14T15:56:33.987Z</time></trkpt><trkpt lat="44.069475" lon="8.102095"><ele>260.59999999999997</ele><time>2026-04-14T15:56:35.987Z</time></trkpt><trkpt lat="44.0694583" lon="8.1019483"><ele>261.4</ele><time>2026-04-14T15:56:37.987Z</time></trkpt><trkpt lat="44.0694333" lon="8.10181"><ele>262.2</ele><time>2026-04-14T15:56:39.987Z</time></trkpt><trkpt lat="44.0694133" lon="8.10172"><ele>263.0</ele><time>2026-04-14T15:56:40.987Z</time></trkpt><trkpt lat="44.0693783" lon="8.1015817"><ele>260.6666666666667</ele><time>2026-04-14T15:56:42.987Z</time></trkpt><trkpt lat="44.06934" lon="8.1014767"><ele>258.33333333333337</ele><time>2026-04-14T15:56:44.986Z</time></trkpt><trkpt lat="44.0692867" lon="8.1014067"><ele>256.0</ele><time>2026-04-14T15:56:46.986Z</time></trkpt><trkpt lat="44.0692083" lon="8.1013483"><ele>253.66666666666669</ele><time>2026-04-14T15:56:48.986Z</time></trkpt><trkpt lat="44.0691317" lon="8.1013217"><ele>251.33333333333334</ele><time>2026-04-14T15:56:50.987Z</time></trkpt><trkpt lat="44.0690583" lon="8.101345"><ele>249.0</ele><time>2026-04-14T15:56:56.986Z</time></trkpt><trkpt lat="44.06894" lon="8.1013433"><ele>244.39999999999998</ele><time>2026-04-14T15:57:05.986Z</time></trkpt><trkpt lat="44.068845" lon="8.10134"><ele>239.79999999999998</ele><time>2026-04-14T15:57:07.986Z</time></trkpt><trkpt lat="44.06873" lon="8.1013767"><ele>235.20000000000002</ele><time>2026-04-14T15:57:09.986Z</time></trkpt><trkpt lat="44.0686267" lon="8.10143"><ele>230.60000000000002</ele><time>2026-04-14T15:57:11.986Z</time></trkpt><trkpt lat="44.0685717" lon="8.10138"><ele>226.0</ele><time>2026-04-14T15:57:14.987Z</time></trkpt><trkpt lat="44.06862" lon="8.1012717"><ele>226.0</ele><time>2026-04-14T15:57:16.986Z</time></trkpt><trkpt lat="44.06868" lon="8.1012067"><ele>226.00000000000003</ele><time>2026-04-14T15:57:17.986Z</time></trkpt><trkpt lat="44.0687717" lon="8.1011433"><ele>226.00000000000003</ele><time>2026-04-14T15:57:18.986Z</time></trkpt><trkpt lat="44.0688783" lon="8.1010733"><ele>226.0</ele><time>2026-04-14T15:57:19.986Z</time></trkpt><trkpt lat="44.0689833" lon="8.1010167"><ele>226.0</ele><time>2026-04-14T15:57:20.986Z</time></trkpt><trkpt lat="44.06909" lon="8.1009783"><ele>230.60000000000002</ele><time>2026-04-14T15:57:21.986Z</time></trkpt><trkpt lat="44.0691833" lon="8.1009467"><ele>235.20000000000002</ele><time>2026-04-14T15:57:22.986Z</time></trkpt><trkpt lat="44.06927" lon="8.1009283"><ele>239.79999999999998</ele><time>2026-04-14T15:57:23.986Z</time></trkpt><trkpt lat="44.0693633" lon="8.100915"><ele>244.39999999999998</ele><time>2026-04-14T15:57:24.987Z</time></trkpt><trkpt lat="44.069465" lon="8.1009117"><ele>249.0</ele><time>2026-04-14T15:57:25.986Z</time></trkpt><trkpt lat="44.06956" lon="8.1009033"><ele>249.0</ele><time>2026-04-14T15:57:26.987Z</time></trkpt><trkpt lat="44.0696567" lon="8.1008983"><ele>248.99999999999997</ele><time>2026-04-14T15:57:27.987Z</time></trkpt><trkpt lat="44.0697583" lon="8.1009"><ele>248.99999999999997</ele><time>2026-04-14T15:57:28.987Z</time></trkpt><trkpt lat="44.06985" lon="8.1008833"><ele>249.0</ele><time>2026-04-14T15:57:29.987Z</time></trkpt><trkpt lat="44.06995" lon="8.1008683"><ele>249.0</ele><time>2026-04-14T15:57:30.986Z</time></trkpt><trkpt lat="44.0700433" lon="8.1008517"><ele>249.39999999999998</ele><time>2026-04-14T15:57:31.987Z</time></trkpt><trkpt lat="44.0701433" lon="8.100825"><ele>249.79999999999998</ele><time>2026-04-14T15:57:32.986Z</time></trkpt><trkpt lat="44.0702467" lon="8.1008067"><ele>250.20000000000002</ele><time>2026-04-14T15:57:33.986Z</time></trkpt><trkpt lat="44.0703517" lon="8.1007833"><ele>250.60000000000002</ele><time>2026-04-14T15:57:34.987Z</time></trkpt><trkpt lat="44.07045" lon="8.10077"><ele>251.0</ele><time>2026-04-14T15:57:35.987Z</time></trkpt><trkpt lat="44.0705233" lon="8.1007483"><ele>251.00000000000003</ele><time>2026-04-14T15:57:36.986Z</time></trkpt><trkpt lat="44.0706333" lon="8.1007733"><ele>251.0</ele><time>2026-04-14T15:57:38.987Z</time></trkpt><trkpt lat="44.07071" lon="8.10087"><ele>251.0</ele><time>2026-04-14T15:57:40.986Z</time></trkpt><trkpt lat="44.07075" lon="8.10094"><ele>251.0</ele><time>2026-04-14T15:57:41.987Z</time></trkpt><trkpt lat="44.0707833" lon="8.1010167"><ele>251.00000000000003</ele><time>2026-04-14T15:57:42.986Z</time></trkpt><trkpt lat="44.0708133" lon="8.1011117"><ele>251.0</ele><time>2026-04-14T15:57:43.986Z</time></trkpt><trkpt lat="44.0708533" lon="8.1012083"><ele>248.66666666666669</ele><time>2026-04-14T15:57:44.986Z</time></trkpt><trkpt lat="44.0708933" lon="8.1012967"><ele>246.33333333333334</ele><time>2026-04-14T15:57:45.987Z</time></trkpt><trkpt lat="44.0709483" lon="8.1013917"><ele>244.0</ele><time>2026-04-14T15:57:46.986Z</time></trkpt><trkpt lat="44.0709817" lon="8.1014733"><ele>241.66666666666669</ele><time>2026-04-14T15:57:47.987Z</time></trkpt><trkpt lat="44.0710383" lon="8.1016017"><ele>239.33333333333334</ele><time>2026-04-14T15:57:49.986Z</time></trkpt><trkpt lat="44.07107" lon="8.10168"><ele>237.0</ele><time>2026-04-14T15:57:51.986Z</time></trkpt><trkpt lat="44.0710667" lon="8.1017733"><ele>236.2</ele><time>2026-04-14T15:57:53.987Z</time></trkpt><trkpt lat="44.0709833" lon="8.10186"><ele>235.39999999999998</ele><time>2026-04-14T15:57:55.986Z</time></trkpt><trkpt lat="44.0708983" lon="8.1019367"><ele>234.60000000000002</ele><time>2026-04-14T15:57:57.986Z</time></trkpt><trkpt lat="44.0708383" lon="8.1020517"><ele>233.8</ele><time>2026-04-14T15:57:59.986Z</time></trkpt><trkpt lat="44.0708117" lon="8.1021833"><ele>233.0</ele><time>2026-04-14T15:58:01.987Z</time></trkpt><trkpt lat="44.0707533" lon="8.1023267"><ele>230.66666666666669</ele><time>2026-04-14T15:58:03.986Z</time></trkpt><trkpt lat="44.0707333" lon="8.1024167"><ele>228.33333333333334</ele><time>2026-04-14T15:58:04.986Z</time></trkpt><trkpt lat="44.0707217" lon="8.1025267"><ele>226.0</ele><time>2026-04-14T15:58:05.986Z</time></trkpt><trkpt lat="44.07075" lon="8.1026717"><ele>223.66666666666669</ele><time>2026-04-14T15:58:07.986Z</time></trkpt><trkpt lat="44.07082" lon="8.1026417"><ele>221.33333333333334</ele><time>2026-04-14T15:58:11.986Z</time></trkpt><trkpt lat="44.0708717" lon="8.10256"><ele>219.0</ele><time>2026-04-14T15:58:12.986Z</time></trkpt><trkpt lat="44.0709767" lon="8.1024567"><ele>219.0</ele><time>2026-04-14T15:58:14.986Z</time></trkpt><trkpt lat="44.0710683" lon="8.1024267"><ele>219.0</ele><time>2026-04-14T15:58:15.986Z</time></trkpt><trkpt lat="44.0711683" lon="8.102395"><ele>219.0</ele><time>2026-04-14T15:58:16.987Z</time></trkpt><trkpt lat="44.07125" lon="8.1023617"><ele>219.0</ele><time>2026-04-14T15:58:17.986Z</time></trkpt><trkpt lat="44.0713217" lon="8.1023133"><ele>219.0</ele><time>2026-04-14T15:58:18.987Z</time></trkpt><trkpt lat="44.071375" lon="8.1022633"><ele>219.0</ele><time>2026-04-14T15:58:19.987Z</time></trkpt><trkpt lat="44.071425" lon="8.1021767"><ele>221.33333333333334</ele><time>2026-04-14T15:58:20.986Z</time></trkpt><trkpt lat="44.071475" lon="8.102085"><ele>223.66666666666669</ele><time>2026-04-14T15:58:21.985Z</time></trkpt><trkpt lat="44.0715167" lon="8.10198"><ele>226.0</ele><time>2026-04-14T15:58:22.986Z</time></trkpt><trkpt lat="44.0715383" lon="8.101855"><ele>228.33333333333334</ele><time>2026-04-14T15:58:23.987Z</time></trkpt><trkpt lat="44.07152" lon="8.1017333"><ele>230.66666666666669</ele><time>2026-04-14T15:58:24.986Z</time></trkpt><trkpt lat="44.0714917" lon="8.10162"><ele>233.0</ele><time>2026-04-14T15:58:25.986Z</time></trkpt><trkpt lat="44.0714333" lon="8.1014967"><ele>233.8</ele><time>2026-04-14T15:58:26.986Z</time></trkpt><trkpt lat="44.07137" lon="8.1013983"><ele>234.60000000000002</ele><time>2026-04-14T15:58:27.987Z</time></trkpt><trkpt lat="44.0712867" lon="8.1013"><ele>235.39999999999998</ele><time>2026-04-14T15:58:28.987Z</time></trkpt><trkpt lat="44.07124" lon="8.101175"><ele>236.2</ele><time>2026-04-14T15:58:29.987Z</time></trkpt><trkpt lat="44.07121" lon="8.1010683"><ele>237.0</ele><time>2026-04-14T15:58:30.987Z</time></trkpt><trkpt lat="44.07118" lon="8.1009517"><ele>237.0</ele><time>2026-04-14T15:58:31.987Z</time></trkpt><trkpt lat="44.0711683" lon="8.1008367"><ele>237.0</ele><time>2026-04-14T15:58:32.986Z</time></trkpt><trkpt lat="44.0711567" lon="8.1007267"><ele>237.0</ele><time>2026-04-14T15:58:33.987Z</time></trkpt><trkpt lat="44.0711217" lon="8.1006133"><ele>237.0</ele><time>2026-04-14T15:58:34.986Z</time></trkpt><trkpt lat="44.071095" lon="8.1005083"><ele>237.0</ele><time>2026-04-14T15:58:35.987Z</time></trkpt><trkpt lat="44.0710667" lon="8.1004033"><ele>237.0</ele><time>2026-04-14T15:58:36.986Z</time></trkpt><trkpt lat="44.07104" lon="8.1003117"><ele>234.8</ele><time>2026-04-14T15:58:37.987Z</time></trkpt><trkpt lat="44.0709867" lon="8.1001767"><ele>232.6</ele><time>2026-04-14T15:58:39.986Z</time></trkpt><trkpt lat="44.070965" lon="8.10004"><ele>230.40000000000003</ele><time>2026-04-14T15:58:41.987Z</time></trkpt><trkpt lat="44.0709717" lon="8.0999517"><ele>228.20000000000002</ele><time>2026-04-14T15:58:43.986Z</time></trkpt><trkpt lat="44.0710767" lon="8.1000117"><ele>226.0</ele><time>2026-04-14T15:59:03.986Z</time></trkpt><trkpt lat="44.07114" lon="8.1000483"><ele>226.0</ele><time>2026-04-14T15:59:04.987Z</time></trkpt><trkpt lat="44.0712233" lon="8.1000783"><ele>226.00000000000003</ele><time>2026-04-14T15:59:05.986Z</time></trkpt><trkpt lat="44.0713033" lon="8.1001"><ele>226.00000000000003</ele><time>2026-04-14T15:59:06.986Z</time></trkpt><trkpt lat="44.071385" lon="8.1001167"><ele>226.0</ele><time>2026-04-14T15:59:07.987Z</time></trkpt><trkpt lat="44.0714883" lon="8.1001117"><ele>226.0</ele><time>2026-04-14T15:59:08.987Z</time></trkpt><trkpt lat="44.071605" lon="8.1001133"><ele>225.0</ele><time>2026-04-14T15:59:09.987Z</time></trkpt><trkpt lat="44.0716983" lon="8.100125"><ele>224.00000000000003</ele><time>2026-04-14T15:59:10.987Z</time></trkpt><trkpt lat="44.071805" lon="8.100115"><ele>223.00000000000003</ele><time>2026-04-14T15:59:11.987Z</time></trkpt><trkpt lat="44.0719083" lon="8.1001017"><ele>222.0</ele><time>2026-04-14T15:59:12.987Z</time></trkpt><trkpt lat="44.0720117" lon="8.1000817"><ele>221.0</ele><time>2026-04-14T15:59:13.987Z</time></trkpt><trkpt lat="44.0720933" lon="8.100045"><ele>221.00000000000003</ele><time>2026-04-14T15:59:14.987Z</time></trkpt><trkpt lat="44.0721617" lon="8.099995"><ele>221.0</ele><time>2026-04-14T15:59:15.986Z</time></trkpt><trkpt lat="44.0722333" lon="8.0999233"><ele>221.0</ele><time>2026-04-14T15:59:16.987Z</time></trkpt><trkpt lat="44.072285" lon="8.0998233"><ele>221.0</ele><time>2026-04-14T15:59:17.986Z</time></trkpt><trkpt lat="44.0723217" lon="8.0997217"><ele>221.00000000000003</ele><time>2026-04-14T15:59:18.986Z</time></trkpt><trkpt lat="44.0723283" lon="8.09962"><ele>221.0</ele><time>2026-04-14T15:59:19.986Z</time></trkpt><trkpt lat="44.0723167" lon="8.0995067"><ele>219.83333333333334</ele><time>2026-04-14T15:59:20.986Z</time></trkpt><trkpt lat="44.0723233" lon="8.0993983"><ele>218.66666666666669</ele><time>2026-04-14T15:59:21.986Z</time></trkpt><trkpt lat="44.0723383" lon="8.099305"><ele>217.5</ele><time>2026-04-14T15:59:22.987Z</time></trkpt><trkpt lat="44.0723967" lon="8.09918"><ele>216.33333333333331</ele><time>2026-04-14T15:59:24.987Z</time></trkpt><trkpt lat="44.0724583" lon="8.0991483"><ele>215.16666666666666</ele><time>2026-04-14T15:59:25.986Z</time></trkpt><trkpt lat="44.0725433" lon="8.099135"><ele>214.0</ele><time>2026-04-14T15:59:26.986Z</time></trkpt><trkpt lat="44.0726217" lon="8.0991183"><ele>215.57142857142858</ele><time>2026-04-14T15:59:27.987Z</time></trkpt><trkpt lat="44.072685" lon="8.0990767"><ele>217.14285714285717</ele><time>2026-04-14T15:59:28.986Z</time></trkpt><trkpt lat="44.0727433" lon="8.0990133"><ele>218.71428571428572</ele><time>2026-04-14T15:59:29.986Z</time></trkpt><trkpt lat="44.0727817" lon="8.0989317"><ele>220.2857142857143</ele><time>2026-04-14T15:59:30.986Z</time></trkpt><trkpt lat="44.07283" lon="8.0988467"><ele>221.85714285714286</ele><time>2026-04-14T15:59:31.987Z</time></trkpt><trkpt lat="44.0728833" lon="8.0987717"><ele>223.42857142857147</ele><time>2026-04-14T15:59:32.986Z</time></trkpt><trkpt lat="44.07294" lon="8.0987133"><ele>225.00000000000003</ele><time>2026-04-14T15:59:33.986Z</time></trkpt><trkpt lat="44.0730417" lon="8.0986817"><ele>225.0</ele><time>2026-04-14T15:59:34.986Z</time></trkpt><trkpt lat="44.0731183" lon="8.0986467"><ele>225.0</ele><time>2026-04-14T15:59:35.987Z</time></trkpt><trkpt lat="44.0731833" lon="8.09858"><ele>225.0</ele><time>2026-04-14T15:59:36.986Z</time></trkpt><trkpt lat="44.0732333" lon="8.098505"><ele>225.0</ele><time>2026-04-14T15:59:37.987Z</time></trkpt><trkpt lat="44.0732667" lon="8.0984033"><ele>225.0</ele><time>2026-04-14T15:59:38.987Z</time></trkpt><trkpt lat="44.0733083" lon="8.0983017"><ele>225.0</ele><time>2026-04-14T15:59:39.986Z</time></trkpt><trkpt lat="44.0733533" lon="8.098205"><ele>224.8</ele><time>2026-04-14T15:59:40.987Z</time></trkpt><trkpt lat="44.0734233" lon="8.0981133"><ele>224.6</ele><time>2026-04-14T15:59:41.986Z</time></trkpt><trkpt lat="44.0734833" lon="8.0980017"><ele>224.39999999999998</ele><time>2026-04-14T15:59:42.986Z</time></trkpt><trkpt lat="44.0735483" lon="8.0978867"><ele>224.2</ele><time>2026-04-14T15:59:43.987Z</time></trkpt><trkpt lat="44.0736133" lon="8.0977767"><ele>224.0</ele><time>2026-04-14T15:59:44.987Z</time></trkpt><trkpt lat="44.0736817" lon="8.0976817"><ele>224.00000000000003</ele><time>2026-04-14T15:59:45.986Z</time></trkpt><trkpt lat="44.0737233" lon="8.097615"><ele>224.0</ele><time>2026-04-14T15:59:46.986Z</time></trkpt><trkpt lat="44.0737783" lon="8.0975667"><ele>224.0</ele><time>2026-04-14T15:59:48.986Z</time></trkpt><trkpt lat="44.0738067" lon="8.097715"><ele>224.0</ele><time>2026-04-14T16:01:15.986Z</time></trkpt><trkpt lat="44.0738817" lon="8.0976767"><ele>224.00000000000003</ele><time>2026-04-14T16:02:02.986Z</time></trkpt><trkpt lat="44.073945" lon="8.0976567"><ele>224.0</ele><time>2026-04-14T16:02:03.986Z</time></trkpt><trkpt lat="44.0740283" lon="8.0976417"><ele>225.39999999999998</ele><time>2026-04-14T16:02:04.986Z</time></trkpt><trkpt lat="44.0741233" lon="8.0976317"><ele>226.79999999999998</ele><time>2026-04-14T16:02:05.986Z</time></trkpt><trkpt lat="44.0742233" lon="8.0975967"><ele>228.20000000000002</ele><time>2026-04-14T16:02:06.987Z</time></trkpt><trkpt lat="44.0742917" lon="8.097535"><ele>229.60000000000002</ele><time>2026-04-14T16:02:07.986Z</time></trkpt><trkpt lat="44.0743633" lon="8.0974667"><ele>231.0</ele><time>2026-04-14T16:02:08.986Z</time></trkpt><trkpt lat="44.0744217" lon="8.0973717"><ele>231.0</ele><time>2026-04-14T16:02:09.986Z</time></trkpt><trkpt lat="44.0744767" lon="8.097255"><ele>231.00000000000003</ele><time>2026-04-14T16:02:10.986Z</time></trkpt><trkpt lat="44.074515" lon="8.097135"><ele>231.00000000000003</ele><time>2026-04-14T16:02:11.987Z</time></trkpt><trkpt lat="44.07454" lon="8.0970133"><ele>231.0</ele><time>2026-04-14T16:02:12.986Z</time></trkpt><trkpt lat="44.074565" lon="8.0968867"><ele>231.0</ele><time>2026-04-14T16:02:13.987Z</time></trkpt><trkpt lat="44.0745817" lon="8.0967717"><ele>231.0</ele><time>2026-04-14T16:02:14.987Z</time></trkpt><trkpt lat="44.0745883" lon="8.0966633"><ele>231.0</ele><time>2026-04-14T16:02:15.986Z</time></trkpt><trkpt lat="44.074585" lon="8.0965733"><ele>231.0</ele><time>2026-04-14T16:02:16.986Z</time></trkpt><trkpt lat="44.0745933" lon="8.096485"><ele>231.0</ele><time>2026-04-14T16:02:17.987Z</time></trkpt><trkpt lat="44.074625" lon="8.0963967"><ele>231.0</ele><time>2026-04-14T16:02:19.987Z</time></trkpt><trkpt lat="44.0747167" lon="8.09646"><ele>231.0</ele><time>2026-04-14T16:02:22.987Z</time></trkpt><trkpt lat="44.0747967" lon="8.0965817"><ele>231.0</ele><time>2026-04-14T16:02:24.987Z</time></trkpt><trkpt lat="44.074835" lon="8.0966583"><ele>231.0</ele><time>2026-04-14T16:02:25.987Z</time></trkpt><trkpt lat="44.0748783" lon="8.0967433"><ele>231.0</ele><time>2026-04-14T16:02:26.986Z</time></trkpt><trkpt lat="44.0749267" lon="8.09683"><ele>231.0</ele><time>2026-04-14T16:02:27.986Z</time></trkpt><trkpt lat="44.07497" lon="8.0969"><ele>231.0</ele><time>2026-04-14T16:02:28.986Z</time></trkpt><trkpt lat="44.0750267" lon="8.0969617"><ele>231.0</ele><time>2026-04-14T16:02:29.986Z</time></trkpt><trkpt lat="44.075095" lon="8.0969967"><ele>231.0</ele><time>2026-04-14T16:02:30.987Z</time></trkpt><trkpt lat="44.0751667" lon="8.0970167"><ele>230.0</ele><time>2026-04-14T16:02:31.986Z</time></trkpt><trkpt lat="44.0752417" lon="8.0970267"><ele>229.0</ele><time>2026-04-14T16:02:32.986Z</time></trkpt><trkpt lat="44.0753483" lon="8.096995"><ele>228.0</ele><time>2026-04-14T16:02:34.986Z</time></trkpt><trkpt lat="44.07542" lon="8.0969717"><ele>227.0</ele><time>2026-04-14T16:02:35.986Z</time></trkpt><trkpt lat="44.0754867" lon="8.096965"><ele>226.0</ele><time>2026-04-14T16:02:36.987Z</time></trkpt><trkpt lat="44.0755567" lon="8.096965"><ele>225.0</ele><time>2026-04-14T16:02:37.986Z</time></trkpt><trkpt lat="44.07563" lon="8.0969667"><ele>225.0</ele><time>2026-04-14T16:02:38.986Z</time></trkpt><trkpt lat="44.0756967" lon="8.096975"><ele>225.0</ele><time>2026-04-14T16:02:39.987Z</time></trkpt><trkpt lat="44.0757867" lon="8.09695"><ele>225.0</ele><time>2026-04-14T16:02:41.987Z</time></trkpt><trkpt lat="44.07574" lon="8.0968317"><ele>225.0</ele><time>2026-04-14T16:02:44.986Z</time></trkpt><trkpt lat="44.0756433" lon="8.0967733"><ele>225.0</ele><time>2026-04-14T16:02:45.987Z</time></trkpt><trkpt lat="44.0755417" lon="8.09672"><ele>225.0</ele><time>2026-04-14T16:02:46.987Z</time></trkpt><trkpt lat="44.07545" lon="8.096665"><ele>225.0</ele><time>2026-04-14T16:02:47.986Z</time></trkpt><trkpt lat="44.0753567" lon="8.09664"><ele>225.0</ele><time>2026-04-14T16:02:48.986Z</time></trkpt><trkpt lat="44.0752983" lon="8.096605"><ele>225.0</ele><time>2026-04-14T16:02:49.986Z</time></trkpt><trkpt lat="44.0752467" lon="8.0964883"><ele>225.0</ele><time>2026-04-14T16:02:51.987Z</time></trkpt><trkpt lat="44.0752817" lon="8.0963717"><ele>225.0</ele><time>2026-04-14T16:02:53.986Z</time></trkpt><trkpt lat="44.07536" lon="8.0963867"><ele>227.16666666666666</ele><time>2026-04-14T16:02:55.986Z</time></trkpt><trkpt lat="44.0754067" lon="8.0964467"><ele>229.33333333333331</ele><time>2026-04-14T16:02:56.987Z</time></trkpt><trkpt lat="44.0754683" lon="8.0964983"><ele>231.5</ele><time>2026-04-14T16:02:57.987Z</time></trkpt><trkpt lat="44.0755467" lon="8.096535"><ele>233.66666666666666</ele><time>2026-04-14T16:02:58.986Z</time></trkpt><trkpt lat="44.0756317" lon="8.0965567"><ele>235.83333333333331</ele><time>2026-04-14T16:02:59.986Z</time></trkpt><trkpt lat="44.0757133" lon="8.096555"><ele>238.0</ele><time>2026-04-14T16:03:00.987Z</time></trkpt><trkpt lat="44.075795" lon="8.096535"><ele>238.49999999999997</ele><time>2026-04-14T16:03:01.987Z</time></trkpt><trkpt lat="44.07587" lon="8.09653"><ele>239.0</ele><time>2026-04-14T16:03:02.986Z</time></trkpt><trkpt lat="44.07594" lon="8.09655"><ele>239.5</ele><time>2026-04-14T16:03:03.987Z</time></trkpt><trkpt lat="44.0760183" lon="8.0965933"><ele>240.0</ele><time>2026-04-14T16:03:04.986Z</time></trkpt><trkpt lat="44.0760867" lon="8.096645"><ele>240.49999999999997</ele><time>2026-04-14T16:03:05.987Z</time></trkpt><trkpt lat="44.0761533" lon="8.0966633"><ele>241.0</ele><time>2026-04-14T16:03:06.986Z</time></trkpt><trkpt lat="44.0762517" lon="8.0967067"><ele>240.99999999999997</ele><time>2026-04-14T16:03:08.987Z</time></trkpt><trkpt lat="44.0763283" lon="8.0967917"><ele>241.0</ele><time>2026-04-14T16:03:10.987Z</time></trkpt><trkpt lat="44.0763483" lon="8.096885"><ele>241.0</ele><time>2026-04-14T16:03:11.986Z</time></trkpt><trkpt lat="44.0763667" lon="8.0969817"><ele>241.0</ele><time>2026-04-14T16:03:12.987Z</time></trkpt><trkpt lat="44.076375" lon="8.0970817"><ele>240.99999999999997</ele><time>2026-04-14T16:03:13.987Z</time></trkpt><trkpt lat="44.0763833" lon="8.0971767"><ele>241.0</ele><time>2026-04-14T16:03:14.987Z</time></trkpt><trkpt lat="44.0764567" lon="8.097305"><ele>241.0</ele><time>2026-04-14T16:03:16.987Z</time></trkpt><trkpt lat="44.0765167" lon="8.0973483"><ele>241.00000000000003</ele><time>2026-04-14T16:03:17.987Z</time></trkpt><trkpt lat="44.07658" lon="8.0973683"><ele>241.0</ele><time>2026-04-14T16:03:18.987Z</time></trkpt><trkpt lat="44.0766483" lon="8.0973633"><ele>241.0</ele><time>2026-04-14T16:03:19.987Z</time></trkpt><trkpt lat="44.0767133" lon="8.0973467"><ele>241.00000000000003</ele><time>2026-04-14T16:03:20.986Z</time></trkpt><trkpt lat="44.0767833" lon="8.0973133"><ele>241.0</ele><time>2026-04-14T16:03:21.986Z</time></trkpt><trkpt lat="44.07685" lon="8.0972767"><ele>241.0</ele><time>2026-04-14T16:03:22.987Z</time></trkpt><trkpt lat="44.0769033" lon="8.0971867"><ele>243.66666666666666</ele><time>2026-04-14T16:03:24.987Z</time></trkpt><trkpt lat="44.076855" lon="8.097085"><ele>246.33333333333331</ele><time>2026-04-14T16:03:26.986Z</time></trkpt><trkpt lat="44.0768017" lon="8.097025"><ele>249.0</ele><time>2026-04-14T16:03:27.986Z</time></trkpt><trkpt lat="44.0767533" lon="8.0969483"><ele>251.66666666666669</ele><time>2026-04-14T16:03:28.986Z</time></trkpt><trkpt lat="44.0766983" lon="8.0968717"><ele>254.33333333333334</ele><time>2026-04-14T16:03:29.987Z</time></trkpt><trkpt lat="44.0766617" lon="8.09678"><ele>257.0</ele><time>2026-04-14T16:03:30.987Z</time></trkpt><trkpt lat="44.0766317" lon="8.09667"><ele>256.6666666666667</ele><time>2026-04-14T16:03:31.986Z</time></trkpt><trkpt lat="44.076605" lon="8.09656"><ele>256.33333333333337</ele><time>2026-04-14T16:03:32.987Z</time></trkpt><trkpt lat="44.0765783" lon="8.09644"><ele>256.0</ele><time>2026-04-14T16:03:33.987Z</time></trkpt><trkpt lat="44.0765533" lon="8.0963283"><ele>255.66666666666669</ele><time>2026-04-14T16:03:34.987Z</time></trkpt><trkpt lat="44.07653" lon="8.096245"><ele>255.33333333333334</ele><time>2026-04-14T16:03:35.986Z</time></trkpt><trkpt lat="44.0764633" lon="8.096135"><ele>255.0</ele><time>2026-04-14T16:03:37.987Z</time></trkpt><trkpt lat="44.0763433" lon="8.09612"><ele>255.0</ele><time>2026-04-14T16:03:39.987Z</time></trkpt><trkpt lat="44.0762633" lon="8.0961317"><ele>255.0</ele><time>2026-04-14T16:03:40.987Z</time></trkpt><trkpt lat="44.0761783" lon="8.0961383"><ele>255.0</ele><time>2026-04-14T16:03:41.986Z</time></trkpt><trkpt lat="44.0761017" lon="8.0961317"><ele>255.0</ele><time>2026-04-14T16:03:42.986Z</time></trkpt><trkpt lat="44.0760333" lon="8.0961"><ele>255.0</ele><time>2026-04-14T16:03:43.987Z</time></trkpt><trkpt lat="44.075995" lon="8.09598"><ele>255.0</ele><time>2026-04-14T16:03:45.986Z</time></trkpt><trkpt lat="44.0760367" lon="8.0958833"><ele>255.0</ele><time>2026-04-14T16:03:47.986Z</time></trkpt><trkpt lat="44.0760417" lon="8.095785"><ele>255.0</ele><time>2026-04-14T16:04:31.987Z</time></trkpt><trkpt lat="44.0759633" lon="8.095655"><ele>255.0</ele><time>2026-04-14T16:04:33.987Z</time></trkpt><trkpt lat="44.0759117" lon="8.0955567"><ele>255.0</ele><time>2026-04-14T16:04:34.986Z</time></trkpt><trkpt lat="44.0758533" lon="8.0954617"><ele>255.0</ele><time>2026-04-14T16:04:35.987Z</time></trkpt><trkpt lat="44.07578" lon="8.0953717"><ele>255.0</ele><time>2026-04-14T16:04:36.987Z</time></trkpt><trkpt lat="44.0757083" lon="8.0952917"><ele>255.0</ele><time>2026-04-14T16:04:37.986Z</time></trkpt><trkpt lat="44.075635" lon="8.09523"><ele>255.0</ele><time>2026-04-14T16:04:38.987Z</time></trkpt><trkpt lat="44.0755767" lon="8.0951617"><ele>255.0</ele><time>2026-04-14T16:04:39.986Z</time></trkpt><trkpt lat="44.0755267" lon="8.0950683"><ele>255.0</ele><time>2026-04-14T16:04:40.986Z</time></trkpt><trkpt lat="44.075475" lon="8.0949517"><ele>255.0</ele><time>2026-04-14T16:04:41.986Z</time></trkpt><trkpt lat="44.0754067" lon="8.094835"><ele>258.75</ele><time>2026-04-14T16:04:42.987Z</time></trkpt><trkpt lat="44.0753233" lon="8.09469"><ele>262.5</ele><time>2026-04-14T16:04:43.987Z</time></trkpt><trkpt lat="44.0752467" lon="8.0945433"><ele>266.25</ele><time>2026-04-14T16:04:44.986Z</time></trkpt><trkpt lat="44.075175" lon="8.09444"><ele>270.0</ele><time>2026-04-14T16:04:45.987Z</time></trkpt><trkpt lat="44.0751067" lon="8.094365"><ele>270.0</ele><time>2026-04-14T16:04:46.987Z</time></trkpt><trkpt lat="44.07503" lon="8.0943233"><ele>270.0</ele><time>2026-04-14T16:04:47.986Z</time></trkpt><trkpt lat="44.07492" lon="8.0942983"><ele>270.0</ele><time>2026-04-14T16:04:49.987Z</time></trkpt><trkpt lat="44.074835" lon="8.0944183"><ele>270.0</ele><time>2026-04-14T16:04:51.987Z</time></trkpt><trkpt lat="44.0748033" lon="8.094565"><ele>270.0</ele><time>2026-04-14T16:04:52.987Z</time></trkpt><trkpt lat="44.0747467" lon="8.094685"><ele>269.0</ele><time>2026-04-14T16:04:53.986Z</time></trkpt><trkpt lat="44.074695" lon="8.0948067"><ele>268.0</ele><time>2026-04-14T16:04:54.987Z</time></trkpt><trkpt lat="44.0746383" lon="8.0949217"><ele>267.0</ele><time>2026-04-14T16:04:55.987Z</time></trkpt><trkpt lat="44.0745567" lon="8.0950283"><ele>266.0</ele><time>2026-04-14T16:04:56.986Z</time></trkpt><trkpt lat="44.0744583" lon="8.09512"><ele>265.0</ele><time>2026-04-14T16:04:57.987Z</time></trkpt><trkpt lat="44.074365" lon="8.0952083"><ele>265.0</ele><time>2026-04-14T16:04:58.987Z</time></trkpt><trkpt lat="44.0742917" lon="8.095305"><ele>265.0</ele><time>2026-04-14T16:04:59.986Z</time></trkpt><trkpt lat="44.0742167" lon="8.0953783"><ele>265.0</ele><time>2026-04-14T16:05:00.987Z</time></trkpt><trkpt lat="44.0741383" lon="8.0954417"><ele>265.0</ele><time>2026-04-14T16:05:01.986Z</time></trkpt><trkpt lat="44.07405" lon="8.095495"><ele>265.0</ele><time>2026-04-14T16:05:02.987Z</time></trkpt><trkpt lat="44.0739733" lon="8.095565"><ele>261.66666666666663</ele><time>2026-04-14T16:05:03.987Z</time></trkpt><trkpt lat="44.0739183" lon="8.095635"><ele>258.3333333333333</ele><time>2026-04-14T16:05:04.987Z</time></trkpt><trkpt lat="44.07386" lon="8.09577"><ele>255.0</ele><time>2026-04-14T16:05:06.987Z</time></trkpt><trkpt lat="44.0738117" lon="8.0959017"><ele>251.66666666666669</ele><time>2026-04-14T16:05:08.987Z</time></trkpt><trkpt lat="44.0737667" lon="8.0959633"><ele>248.33333333333334</ele><time>2026-04-14T16:05:09.987Z</time></trkpt><trkpt lat="44.0737067" lon="8.0960017"><ele>245.0</ele><time>2026-04-14T16:05:10.987Z</time></trkpt><trkpt lat="44.073625" lon="8.0960133"><ele>245.00000000000003</ele><time>2026-04-14T16:05:11.987Z</time></trkpt><trkpt lat="44.0735567" lon="8.0960033"><ele>245.0</ele><time>2026-04-14T16:05:12.987Z</time></trkpt><trkpt lat="44.073465" lon="8.0959767"><ele>245.0</ele><time>2026-04-14T16:05:14.987Z</time></trkpt><trkpt lat="44.073405" lon="8.096055"><ele>245.0</ele><time>2026-04-14T16:05:16.987Z</time></trkpt><trkpt lat="44.073385" lon="8.0961733"><ele>245.00000000000003</ele><time>2026-04-14T16:05:18.987Z</time></trkpt><trkpt lat="44.0733267" lon="8.09624"><ele>245.0</ele><time>2026-04-14T16:05:21.987Z</time></trkpt><trkpt lat="44.0732667" lon="8.09629"><ele>240.66666666666669</ele><time>2026-04-14T16:05:23.987Z</time></trkpt><trkpt lat="44.0732017" lon="8.0963683"><ele>236.33333333333334</ele><time>2026-04-14T16:05:25.986Z</time></trkpt><trkpt lat="44.0731617" lon="8.0964467"><ele>232.0</ele><time>2026-04-14T16:05:27.986Z</time></trkpt><trkpt lat="44.0731233" lon="8.0965467"><ele>227.66666666666669</ele><time>2026-04-14T16:05:39.987Z</time></trkpt><trkpt lat="44.0730383" lon="8.0966367"><ele>223.33333333333334</ele><time>2026-04-14T16:05:41.987Z</time></trkpt><trkpt lat="44.0729917" lon="8.0965483"><ele>219.0</ele><time>2026-04-14T16:06:37.987Z</time></trkpt><trkpt lat="44.07303" lon="8.0966467"><ele>219.0</ele><time>2026-04-14T16:06:45.987Z</time></trkpt><trkpt lat="44.0731033" lon="8.0966067"><ele>219.0</ele><time>2026-04-14T16:06:47.986Z</time></trkpt><trkpt lat="44.0731517" lon="8.0965167"><ele>219.0</ele><time>2026-04-14T16:06:48.986Z</time></trkpt><trkpt lat="44.073195" lon="8.0964133"><ele>219.0</ele><time>2026-04-14T16:06:49.987Z</time></trkpt><trkpt lat="44.073245" lon="8.09633"><ele>219.0</ele><time>2026-04-14T16:06:50.986Z</time></trkpt><trkpt lat="44.0732933" lon="8.09627"><ele>219.0</ele><time>2026-04-14T16:06:51.987Z</time></trkpt><trkpt lat="44.07335" lon="8.0961933"><ele>222.66666666666666</ele><time>2026-04-14T16:06:54.987Z</time></trkpt><trkpt lat="44.07342" lon="8.0961267"><ele>226.33333333333331</ele><time>2026-04-14T16:06:57.987Z</time></trkpt><trkpt lat="44.07345" lon="8.0960383"><ele>230.0</ele><time>2026-04-14T16:06:59.986Z</time></trkpt><trkpt lat="44.0735017" lon="8.0959533"><ele>233.66666666666666</ele><time>2026-04-14T16:07:01.986Z</time></trkpt><trkpt lat="44.0735833" lon="8.0958717"><ele>237.33333333333331</ele><time>2026-04-14T16:07:03.987Z</time></trkpt><trkpt lat="44.0736617" lon="8.09581"><ele>241.0</ele><time>2026-04-14T16:07:05.986Z</time></trkpt><trkpt lat="44.0737033" lon="8.0957183"><ele>241.0</ele><time>2026-04-14T16:07:07.986Z</time></trkpt><trkpt lat="44.0737133" lon="8.095615"><ele>241.00000000000003</ele><time>2026-04-14T16:07:09.987Z</time></trkpt><trkpt lat="44.0737733" lon="8.0954633"><ele>241.00000000000003</ele><time>2026-04-14T16:07:11.986Z</time></trkpt><trkpt lat="44.0738367" lon="8.0953833"><ele>241.0</ele><time>2026-04-14T16:07:12.986Z</time></trkpt><trkpt lat="44.0739317" lon="8.0953283"><ele>241.0</ele><time>2026-04-14T16:07:13.986Z</time></trkpt><trkpt lat="44.0740233" lon="8.0952783"><ele>240.99999999999997</ele><time>2026-04-14T16:07:14.987Z</time></trkpt><trkpt lat="44.0741" lon="8.0952167"><ele>241.0</ele><time>2026-04-14T16:07:15.986Z</time></trkpt><trkpt lat="44.0741667" lon="8.09516"><ele>241.0</ele><time>2026-04-14T16:07:16.986Z</time></trkpt><trkpt lat="44.0742133" lon="8.0950867"><ele>241.0</ele><time>2026-04-14T16:07:17.987Z</time></trkpt><trkpt lat="44.074255" lon="8.0950017"><ele>240.99999999999997</ele><time>2026-04-14T16:07:18.986Z</time></trkpt><trkpt lat="44.0743033" lon="8.0948983"><ele>241.0</ele><time>2026-04-14T16:07:19.986Z</time></trkpt><trkpt lat="44.0743617" lon="8.0947917"><ele>244.99999999999997</ele><time>2026-04-14T16:07:20.986Z</time></trkpt><trkpt lat="44.0744283" lon="8.0946783"><ele>249.0</ele><time>2026-04-14T16:07:21.987Z</time></trkpt><trkpt lat="44.074485" lon="8.0945867"><ele>253.0</ele><time>2026-04-14T16:07:22.987Z</time></trkpt><trkpt lat="44.0745267" lon="8.0945017"><ele>257.0</ele><time>2026-04-14T16:07:23.986Z</time></trkpt><trkpt lat="44.07456" lon="8.0943933"><ele>261.0</ele><time>2026-04-14T16:07:24.986Z</time></trkpt><trkpt lat="44.0745933" lon="8.0942667"><ele>265.0</ele><time>2026-04-14T16:07:25.987Z</time></trkpt><trkpt lat="44.0746317" lon="8.0941267"><ele>263.0</ele><time>2026-04-14T16:07:26.986Z</time></trkpt><trkpt lat="44.074665" lon="8.0939817"><ele>261.0</ele><time>2026-04-14T16:07:27.987Z</time></trkpt><trkpt lat="44.0746967" lon="8.09383"><ele>259.0</ele><time>2026-04-14T16:07:28.986Z</time></trkpt><trkpt lat="44.074725" lon="8.093705"><ele>257.0</ele><time>2026-04-14T16:07:29.986Z</time></trkpt><trkpt lat="44.07476" lon="8.0935733"><ele>255.0</ele><time>2026-04-14T16:07:30.987Z</time></trkpt><trkpt lat="44.0747833" lon="8.09346"><ele>255.0</ele><time>2026-04-14T16:07:31.987Z</time></trkpt><trkpt lat="44.0748133" lon="8.0933467"><ele>255.0</ele><time>2026-04-14T16:07:32.987Z</time></trkpt><trkpt lat="44.074855" lon="8.0932383"><ele>255.0</ele><time>2026-04-14T16:07:33.986Z</time></trkpt><trkpt lat="44.074915" lon="8.0931317"><ele>255.0</ele><time>2026-04-14T16:07:34.986Z</time></trkpt><trkpt lat="44.0749867" lon="8.0930417"><ele>255.0</ele><time>2026-04-14T16:07:35.987Z</time></trkpt><trkpt lat="44.0750667" lon="8.0929517"><ele>258.8</ele><time>2026-04-14T16:07:36.987Z</time></trkpt><trkpt lat="44.0751433" lon="8.0928583"><ele>262.6</ele><time>2026-04-14T16:07:37.987Z</time></trkpt><trkpt lat="44.0752133" lon="8.092755"><ele>266.4</ele><time>2026-04-14T16:07:38.987Z</time></trkpt><trkpt lat="44.075275" lon="8.0926533"><ele>270.2</ele><time>2026-04-14T16:07:39.987Z</time></trkpt><trkpt lat="44.075335" lon="8.0925383"><ele>274.0</ele><time>2026-04-14T16:07:40.986Z</time></trkpt><trkpt lat="44.075385" lon="8.092415"><ele>274.0</ele><time>2026-04-14T16:07:41.987Z</time></trkpt><trkpt lat="44.0754383" lon="8.0922983"><ele>274.0</ele><time>2026-04-14T16:07:42.987Z</time></trkpt><trkpt lat="44.075485" lon="8.0921933"><ele>274.0</ele><time>2026-04-14T16:07:43.986Z</time></trkpt><trkpt lat="44.0755317" lon="8.092125"><ele>274.0</ele><time>2026-04-14T16:07:44.986Z</time></trkpt><trkpt lat="44.07559" lon="8.09207"><ele>274.0</ele><time>2026-04-14T16:07:45.987Z</time></trkpt><trkpt lat="44.0756533" lon="8.09203"><ele>274.0</ele><time>2026-04-14T16:07:46.986Z</time></trkpt><trkpt lat="44.0757117" lon="8.0919767"><ele>274.0</ele><time>2026-04-14T16:07:47.986Z</time></trkpt><trkpt lat="44.07576" lon="8.09188"><ele>274.0</ele><time>2026-04-14T16:07:49.986Z</time></trkpt><trkpt lat="44.0757817" lon="8.0917833"><ele>274.0</ele><time>2026-04-14T16:07:51.986Z</time></trkpt><trkpt lat="44.075705" lon="8.0916833"><ele>274.0</ele><time>2026-04-14T16:07:53.987Z</time></trkpt><trkpt lat="44.075645" lon="8.0916"><ele>274.0</ele><time>2026-04-14T16:07:54.987Z</time></trkpt><trkpt lat="44.0756017" lon="8.0914933"><ele>274.0</ele><time>2026-04-14T16:07:55.986Z</time></trkpt><trkpt lat="44.0755633" lon="8.0913583"><ele>272.4</ele><time>2026-04-14T16:07:56.986Z</time></trkpt><trkpt lat="44.0755633" lon="8.0912033"><ele>270.79999999999995</ele><time>2026-04-14T16:07:57.986Z</time></trkpt><trkpt lat="44.075595" lon="8.09105"><ele>269.20000000000005</ele><time>2026-04-14T16:07:58.987Z</time></trkpt><trkpt lat="44.0756367" lon="8.0908983"><ele>267.6</ele><time>2026-04-14T16:07:59.986Z</time></trkpt><trkpt lat="44.07567" lon="8.0907667"><ele>266.0</ele><time>2026-04-14T16:08:00.987Z</time></trkpt><trkpt lat="44.0756867" lon="8.09063"><ele>265.75</ele><time>2026-04-14T16:08:01.987Z</time></trkpt><trkpt lat="44.075685" lon="8.0904883"><ele>265.5</ele><time>2026-04-14T16:08:02.986Z</time></trkpt><trkpt lat="44.07565" lon="8.0903567"><ele>265.25</ele><time>2026-04-14T16:08:03.986Z</time></trkpt><trkpt lat="44.0755817" lon="8.0901983"><ele>265.0</ele><time>2026-04-14T16:08:04.986Z</time></trkpt><trkpt lat="44.0755167" lon="8.0900567"><ele>265.25</ele><time>2026-04-14T16:08:05.986Z</time></trkpt><trkpt lat="44.0754583" lon="8.0899117"><ele>265.5</ele><time>2026-04-14T16:08:06.987Z</time></trkpt><trkpt lat="44.0754033" lon="8.0897617"><ele>265.75</ele><time>2026-04-14T16:08:07.987Z</time></trkpt><trkpt lat="44.075345" lon="8.0896183"><ele>266.0</ele><time>2026-04-14T16:08:08.986Z</time></trkpt><trkpt lat="44.07532" lon="8.089465"><ele>266.0</ele><time>2026-04-14T16:08:09.987Z</time></trkpt><trkpt lat="44.0753367" lon="8.0893183"><ele>266.0</ele><time>2026-04-14T16:08:10.987Z</time></trkpt><trkpt lat="44.0753833" lon="8.0891683"><ele>266.0</ele><time>2026-04-14T16:08:11.987Z</time></trkpt><trkpt lat="44.0754317" lon="8.089015"><ele>266.0</ele><time>2026-04-14T16:08:12.986Z</time></trkpt><trkpt lat="44.0754833" lon="8.088855"><ele>264.0</ele><time>2026-04-14T16:08:13.986Z</time></trkpt><trkpt lat="44.0755283" lon="8.088725"><ele>262.0</ele><time>2026-04-14T16:08:14.986Z</time></trkpt><trkpt lat="44.0755583" lon="8.088595"><ele>260.0</ele><time>2026-04-14T16:08:15.986Z</time></trkpt><trkpt lat="44.0755767" lon="8.0884667"><ele>258.0</ele><time>2026-04-14T16:08:16.986Z</time></trkpt><trkpt lat="44.07558" lon="8.0883467"><ele>256.0</ele><time>2026-04-14T16:08:17.986Z</time></trkpt><trkpt lat="44.0755683" lon="8.0882417"><ele>254.66666666666666</ele><time>2026-04-14T16:08:18.987Z</time></trkpt><trkpt lat="44.07556" lon="8.0881517"><ele>253.33333333333331</ele><time>2026-04-14T16:08:19.986Z</time></trkpt><trkpt lat="44.0755417" lon="8.08804"><ele>252.0</ele><time>2026-04-14T16:08:20.986Z</time></trkpt><trkpt lat="44.0755367" lon="8.0879417"><ele>250.66666666666669</ele><time>2026-04-14T16:08:21.987Z</time></trkpt><trkpt lat="44.07553" lon="8.087815"><ele>249.33333333333334</ele><time>2026-04-14T16:08:22.986Z</time></trkpt><trkpt lat="44.0755317" lon="8.0876967"><ele>248.0</ele><time>2026-04-14T16:08:23.986Z</time></trkpt><trkpt lat="44.0755667" lon="8.0875783"><ele>248.00000000000003</ele><time>2026-04-14T16:08:24.986Z</time></trkpt><trkpt lat="44.0756267" lon="8.0874967"><ele>248.0</ele><time>2026-04-14T16:08:25.986Z</time></trkpt><trkpt lat="44.0757067" lon="8.08742"><ele>248.0</ele><time>2026-04-14T16:08:26.987Z</time></trkpt><trkpt lat="44.0757783" lon="8.0873617"><ele>248.0</ele><time>2026-04-14T16:08:27.987Z</time></trkpt><trkpt lat="44.0758467" lon="8.0872983"><ele>248.00000000000003</ele><time>2026-04-14T16:08:28.986Z</time></trkpt><trkpt lat="44.0759133" lon="8.0872367"><ele>248.0</ele><time>2026-04-14T16:08:29.987Z</time></trkpt><trkpt lat="44.0759817" lon="8.087175"><ele>250.16666666666669</ele><time>2026-04-14T16:08:30.986Z</time></trkpt><trkpt lat="44.07605" lon="8.0871033"><ele>252.33333333333334</ele><time>2026-04-14T16:08:31.987Z</time></trkpt><trkpt lat="44.0761183" lon="8.0870333"><ele>254.5</ele><time>2026-04-14T16:08:32.987Z</time></trkpt><trkpt lat="44.0761883" lon="8.08697"><ele>256.6666666666667</ele><time>2026-04-14T16:08:33.987Z</time></trkpt><trkpt lat="44.07627" lon="8.0869183"><ele>258.8333333333333</ele><time>2026-04-14T16:08:34.986Z</time></trkpt><trkpt lat="44.0763583" lon="8.0868767"><ele>261.0</ele><time>2026-04-14T16:08:35.986Z</time></trkpt><trkpt lat="44.0764517" lon="8.086845"><ele>261.0</ele><time>2026-04-14T16:08:36.986Z</time></trkpt><trkpt lat="44.0765433" lon="8.0868133"><ele>261.0</ele><time>2026-04-14T16:08:37.986Z</time></trkpt><trkpt lat="44.0766333" lon="8.0867833"><ele>261.0</ele><time>2026-04-14T16:08:38.986Z</time></trkpt><trkpt lat="44.076735" lon="8.0867533"><ele>261.0</ele><time>2026-04-14T16:08:39.986Z</time></trkpt><trkpt lat="44.07683" lon="8.0867117"><ele>261.0</ele><time>2026-04-14T16:08:40.986Z</time></trkpt><trkpt lat="44.0769183" lon="8.08665"><ele>265.0</ele><time>2026-04-14T16:08:41.986Z</time></trkpt><trkpt lat="44.0770067" lon="8.0865733"><ele>269.0</ele><time>2026-04-14T16:08:42.986Z</time></trkpt><trkpt lat="44.0770933" lon="8.0864817"><ele>273.0</ele><time>2026-04-14T16:08:43.987Z</time></trkpt><trkpt lat="44.0771833" lon="8.0864017"><ele>277.0</ele><time>2026-04-14T16:08:44.986Z</time></trkpt><trkpt lat="44.0772517" lon="8.0863183"><ele>281.0</ele><time>2026-04-14T16:08:45.987Z</time></trkpt><trkpt lat="44.0773033" lon="8.0862233"><ele>281.0</ele><time>2026-04-14T16:08:46.986Z</time></trkpt><trkpt lat="44.0773333" lon="8.0861167"><ele>281.0</ele><time>2026-04-14T16:08:47.986Z</time></trkpt><trkpt lat="44.0773167" lon="8.0859483"><ele>281.0</ele><time>2026-04-14T16:08:49.986Z</time></trkpt><trkpt lat="44.0771683" lon="8.0858"><ele>281.0</ele><time>2026-04-14T16:08:51.986Z</time></trkpt><trkpt lat="44.0770517" lon="8.085725"><ele>284.0</ele><time>2026-04-14T16:08:52.986Z</time></trkpt><trkpt lat="44.0769433" lon="8.0856733"><ele>287.0</ele><time>2026-04-14T16:08:53.987Z</time></trkpt><trkpt lat="44.0768417" lon="8.0856383"><ele>290.0</ele><time>2026-04-14T16:08:54.986Z</time></trkpt><trkpt lat="44.07675" lon="8.085615"><ele>293.0</ele><time>2026-04-14T16:08:55.986Z</time></trkpt><trkpt lat="44.07663" lon="8.0856383"><ele>296.0</ele><time>2026-04-14T16:08:57.987Z</time></trkpt><trkpt lat="44.0765133" lon="8.085625"><ele>296.0</ele><time>2026-04-14T16:08:58.986Z</time></trkpt><trkpt lat="44.0763983" lon="8.085605"><ele>296.0</ele><time>2026-04-14T16:08:59.986Z</time></trkpt><trkpt lat="44.076275" lon="8.0855917"><ele>296.0</ele><time>2026-04-14T16:09:00.987Z</time></trkpt><trkpt lat="44.07615" lon="8.0855733"><ele>296.0</ele><time>2026-04-14T16:09:01.986Z</time></trkpt><trkpt lat="44.0760233" lon="8.0855433"><ele>296.0</ele><time>2026-04-14T16:09:02.987Z</time></trkpt><trkpt lat="44.07592" lon="8.0855167"><ele>296.0</ele><time>2026-04-14T16:09:03.987Z</time></trkpt><trkpt lat="44.0758083" lon="8.0854567"><ele>296.0</ele><time>2026-04-14T16:09:04.987Z</time></trkpt><trkpt lat="44.0757217" lon="8.0853983"><ele>296.0</ele><time>2026-04-14T16:09:05.986Z</time></trkpt><trkpt lat="44.0756483" lon="8.0853467"><ele>296.0</ele><time>2026-04-14T16:09:06.987Z</time></trkpt><trkpt lat="44.0755867" lon="8.0853067"><ele>294.2</ele><time>2026-04-14T16:09:07.986Z</time></trkpt><trkpt lat="44.0755167" lon="8.0852467"><ele>292.40000000000003</ele><time>2026-04-14T16:09:09.987Z</time></trkpt><trkpt lat="44.0755083" lon="8.085145"><ele>290.6</ele><time>2026-04-14T16:09:24.987Z</time></trkpt><trkpt lat="44.0755033" lon="8.0850183"><ele>288.8</ele><time>2026-04-14T16:09:27.986Z</time></trkpt><trkpt lat="44.0753883" lon="8.084915"><ele>287.0</ele><time>2026-04-14T16:10:26.987Z</time></trkpt><trkpt lat="44.07532" lon="8.0849033"><ele>287.0</ele><time>2026-04-14T16:10:42.986Z</time></trkpt><trkpt lat="44.075235" lon="8.0849033"><ele>287.0</ele><time>2026-04-14T16:10:46.986Z</time></trkpt><trkpt lat="44.0751317" lon="8.0849117"><ele>287.0</ele><time>2026-04-14T16:10:48.986Z</time></trkpt><trkpt lat="44.07504" lon="8.08494"><ele>287.0</ele><time>2026-04-14T16:10:50.986Z</time></trkpt><trkpt lat="44.0749667" lon="8.0849683"><ele>287.0</ele><time>2026-04-14T16:10:53.986Z</time></trkpt><trkpt lat="44.0748967" lon="8.084925"><ele>287.0</ele><time>2026-04-14T16:10:57.986Z</time></trkpt><trkpt lat="44.0748217" lon="8.0848633"><ele>292.4</ele><time>2026-04-14T16:11:03.986Z</time></trkpt><trkpt lat="44.0747483" lon="8.0848317"><ele>297.79999999999995</ele><time>2026-04-14T16:11:05.986Z</time></trkpt><trkpt lat="44.074675" lon="8.0848233"><ele>303.2</ele><time>2026-04-14T16:11:07.987Z</time></trkpt><trkpt lat="44.0745783" lon="8.0848417"><ele>308.59999999999997</ele><time>2026-04-14T16:11:09.986Z</time></trkpt><trkpt lat="44.074465" lon="8.0848833"><ele>314.0</ele><time>2026-04-14T16:11:11.987Z</time></trkpt><trkpt lat="44.074375" lon="8.0848567"><ele>314.0</ele><time>2026-04-14T16:11:13.986Z</time></trkpt><trkpt lat="44.074325" lon="8.0847733"><ele>314.0</ele><time>2026-04-14T16:11:15.987Z</time></trkpt><trkpt lat="44.0743017" lon="8.084675"><ele>314.0</ele><time>2026-04-14T16:11:17.986Z</time></trkpt><trkpt lat="44.0742717" lon="8.08457"><ele>314.0</ele><time>2026-04-14T16:11:19.987Z</time></trkpt><trkpt lat="44.0742183" lon="8.0845067"><ele>314.0</ele><time>2026-04-14T16:11:20.986Z</time></trkpt><trkpt lat="44.07412" lon="8.084405"><ele>314.0</ele><time>2026-04-14T16:11:22.987Z</time></trkpt><trkpt lat="44.0739983" lon="8.084315"><ele>313.1666666666667</ele><time>2026-04-14T16:11:24.986Z</time></trkpt><trkpt lat="44.073935" lon="8.0842633"><ele>312.33333333333337</ele><time>2026-04-14T16:11:25.987Z</time></trkpt><trkpt lat="44.0738783" lon="8.0842167"><ele>311.5</ele><time>2026-04-14T16:11:26.986Z</time></trkpt><trkpt lat="44.07381" lon="8.0841267"><ele>310.6666666666667</ele><time>2026-04-14T16:11:28.986Z</time></trkpt><trkpt lat="44.07386" lon="8.0840617"><ele>309.8333333333333</ele><time>2026-04-14T16:11:57.986Z</time></trkpt><trkpt lat="44.074" lon="8.0840683"><ele>309.0</ele><time>2026-04-14T16:11:59.986Z</time></trkpt><trkpt lat="44.0741017" lon="8.0840583"><ele>309.8</ele><time>2026-04-14T16:12:00.986Z</time></trkpt><trkpt lat="44.0742033" lon="8.0840417"><ele>310.59999999999997</ele><time>2026-04-14T16:12:01.987Z</time></trkpt><trkpt lat="44.0743083" lon="8.0840067"><ele>311.4</ele><time>2026-04-14T16:12:02.986Z</time></trkpt><trkpt lat="44.0743983" lon="8.0839767"><ele>312.2</ele><time>2026-04-14T16:12:03.986Z</time></trkpt><trkpt lat="44.07448" lon="8.08397"><ele>313.0</ele><time>2026-04-14T16:12:04.986Z</time></trkpt><trkpt lat="44.0745667" lon="8.08398"><ele>313.0</ele><time>2026-04-14T16:12:05.986Z</time></trkpt><trkpt lat="44.0746633" lon="8.0839867"><ele>313.0</ele><time>2026-04-14T16:12:06.987Z</time></trkpt><trkpt lat="44.0747617" lon="8.08399"><ele>313.0</ele><time>2026-04-14T16:12:07.987Z</time></trkpt><trkpt lat="44.0748533" lon="8.08398"><ele>313.0</ele><time>2026-04-14T16:12:08.986Z</time></trkpt><trkpt lat="44.0749383" lon="8.0839683"><ele>313.0</ele><time>2026-04-14T16:12:09.986Z</time></trkpt><trkpt lat="44.0750033" lon="8.0839367"><ele>313.0</ele><time>2026-04-14T16:12:10.986Z</time></trkpt><trkpt lat="44.0750767" lon="8.0838933"><ele>315.4</ele><time>2026-04-14T16:12:11.987Z</time></trkpt><trkpt lat="44.0751583" lon="8.0838533"><ele>317.8</ele><time>2026-04-14T16:12:12.987Z</time></trkpt><trkpt lat="44.0752483" lon="8.0838083"><ele>320.2</ele><time>2026-04-14T16:12:13.987Z</time></trkpt><trkpt lat="44.07536" lon="8.08376"><ele>322.6</ele><time>2026-04-14T16:12:14.986Z</time></trkpt><trkpt lat="44.0754683" lon="8.083705"><ele>325.0</ele><time>2026-04-14T16:12:15.986Z</time></trkpt><trkpt lat="44.0755483" lon="8.0836567"><ele>325.0</ele><time>2026-04-14T16:12:16.986Z</time></trkpt><trkpt lat="44.075615" lon="8.0836117"><ele>325.0</ele><time>2026-04-14T16:12:17.987Z</time></trkpt><trkpt lat="44.0756733" lon="8.08357"><ele>325.0</ele><time>2026-04-14T16:12:18.986Z</time></trkpt><trkpt lat="44.075775" lon="8.08349"><ele>325.0</ele><time>2026-04-14T16:12:20.987Z</time></trkpt><trkpt lat="44.075835" lon="8.08346"><ele>325.0</ele><time>2026-04-14T16:12:21.987Z</time></trkpt><trkpt lat="44.0759017" lon="8.0834417"><ele>325.0</ele><time>2026-04-14T16:12:22.986Z</time></trkpt><trkpt lat="44.07604" lon="8.08343"><ele>325.0</ele><time>2026-04-14T16:12:24.986Z</time></trkpt><trkpt lat="44.0761183" lon="8.083435"><ele>325.0</ele><time>2026-04-14T16:12:25.987Z</time></trkpt><trkpt lat="44.0762083" lon="8.08343"><ele>325.0</ele><time>2026-04-14T16:12:26.987Z</time></trkpt><trkpt lat="44.076295" lon="8.083435"><ele>325.0</ele><time>2026-04-14T16:12:27.986Z</time></trkpt><trkpt lat="44.076375" lon="8.083465"><ele>325.0</ele><time>2026-04-14T16:12:28.986Z</time></trkpt><trkpt lat="44.0764367" lon="8.08353"><ele>325.0</ele><time>2026-04-14T16:12:29.986Z</time></trkpt><trkpt lat="44.0764867" lon="8.08363"><ele>325.0</ele><time>2026-04-14T16:12:30.987Z</time></trkpt><trkpt lat="44.07654" lon="8.0837517"><ele>325.0</ele><time>2026-04-14T16:12:31.986Z</time></trkpt><trkpt lat="44.0765883" lon="8.0838783"><ele>325.0</ele><time>2026-04-14T16:12:32.987Z</time></trkpt><trkpt lat="44.0766283" lon="8.0840083"><ele>325.0</ele><time>2026-04-14T16:12:33.987Z</time></trkpt><trkpt lat="44.0766717" lon="8.0841167"><ele>325.0</ele><time>2026-04-14T16:12:34.987Z</time></trkpt><trkpt lat="44.0767117" lon="8.0841883"><ele>328.4</ele><time>2026-04-14T16:12:35.986Z</time></trkpt><trkpt lat="44.0767883" lon="8.0842133"><ele>331.8</ele><time>2026-04-14T16:12:37.986Z</time></trkpt><trkpt lat="44.07689" lon="8.0841467"><ele>335.20000000000005</ele><time>2026-04-14T16:13:51.987Z</time></trkpt><trkpt lat="44.0770183" lon="8.08412"><ele>338.6</ele><time>2026-04-14T16:13:53.987Z</time></trkpt><trkpt lat="44.0771083" lon="8.08414"><ele>342.0</ele><time>2026-04-14T16:13:54.987Z</time></trkpt><trkpt lat="44.0772117" lon="8.08419"><ele>342.0</ele><time>2026-04-14T16:13:55.986Z</time></trkpt><trkpt lat="44.0772983" lon="8.0842567"><ele>342.0</ele><time>2026-04-14T16:13:56.987Z</time></trkpt><trkpt lat="44.07736" lon="8.08434"><ele>342.0</ele><time>2026-04-14T16:13:57.987Z</time></trkpt><trkpt lat="44.0774033" lon="8.08442"><ele>342.0</ele><time>2026-04-14T16:13:58.986Z</time></trkpt><trkpt lat="44.077465" lon="8.0844817"><ele>342.0</ele><time>2026-04-14T16:14:00.987Z</time></trkpt><trkpt lat="44.0774883" lon="8.0843983"><ele>342.0</ele><time>2026-04-14T16:14:02.986Z</time></trkpt><trkpt lat="44.07746" lon="8.0843117"><ele>342.0</ele><time>2026-04-14T16:14:03.987Z</time></trkpt><trkpt lat="44.0774167" lon="8.084225"><ele>342.0</ele><time>2026-04-14T16:14:04.987Z</time></trkpt><trkpt lat="44.0773617" lon="8.0841383"><ele>342.0</ele><time>2026-04-14T16:14:05.987Z</time></trkpt><trkpt lat="44.0773" lon="8.08405"><ele>342.0</ele><time>2026-04-14T16:14:06.986Z</time></trkpt><trkpt lat="44.07724" lon="8.083955"><ele>342.0</ele><time>2026-04-14T16:14:07.987Z</time></trkpt><trkpt lat="44.077175" lon="8.0838717"><ele>342.0</ele><time>2026-04-14T16:14:08.986Z</time></trkpt><trkpt lat="44.0771083" lon="8.0837967"><ele>341.20000000000005</ele><time>2026-04-14T16:14:09.987Z</time></trkpt><trkpt lat="44.0770533" lon="8.0837183"><ele>340.4</ele><time>2026-04-14T16:14:10.986Z</time></trkpt><trkpt lat="44.07698" lon="8.0836083"><ele>339.6</ele><time>2026-04-14T16:14:12.986Z</time></trkpt><trkpt lat="44.0769517" lon="8.0835083"><ele>338.79999999999995</ele><time>2026-04-14T16:14:14.987Z</time></trkpt><trkpt lat="44.076965" lon="8.083355"><ele>338.0</ele><time>2026-04-14T16:14:16.986Z</time></trkpt><trkpt lat="44.0770233" lon="8.083255"><ele>338.0</ele><time>2026-04-14T16:14:18.987Z</time></trkpt><trkpt lat="44.0771333" lon="8.0832133"><ele>338.0</ele><time>2026-04-14T16:14:20.986Z</time></trkpt><trkpt lat="44.0771983" lon="8.0831917"><ele>338.0</ele><time>2026-04-14T16:14:21.986Z</time></trkpt><trkpt lat="44.077285" lon="8.0831533"><ele>338.0</ele><time>2026-04-14T16:14:23.987Z</time></trkpt><trkpt lat="44.0772767" lon="8.0832467"><ele>338.0</ele><time>2026-04-14T16:14:53.986Z</time></trkpt><trkpt lat="44.07726" lon="8.083345"><ele>338.0</ele><time>2026-04-14T16:14:55.987Z</time></trkpt><trkpt lat="44.077275" lon="8.0834717"><ele>340.1666666666667</ele><time>2026-04-14T16:14:58.986Z</time></trkpt><trkpt lat="44.0773433" lon="8.0833933"><ele>342.33333333333337</ele><time>2026-04-14T16:15:31.987Z</time></trkpt><trkpt lat="44.0773917" lon="8.0833267"><ele>344.5</ele><time>2026-04-14T16:15:33.986Z</time></trkpt><trkpt lat="44.077455" lon="8.0833183"><ele>346.6666666666667</ele><time>2026-04-14T16:15:35.986Z</time></trkpt><trkpt lat="44.0775383" lon="8.083305"><ele>348.8333333333333</ele><time>2026-04-14T16:15:37.987Z</time></trkpt><trkpt lat="44.0776083" lon="8.0833"><ele>351.0</ele><time>2026-04-14T16:15:39.987Z</time></trkpt><trkpt lat="44.0777017" lon="8.083305"><ele>353.8333333333333</ele><time>2026-04-14T16:15:42.987Z</time></trkpt><trkpt lat="44.0777867" lon="8.0833167"><ele>356.6666666666667</ele><time>2026-04-14T16:15:45.987Z</time></trkpt><trkpt lat="44.0778517" lon="8.083295"><ele>359.5</ele><time>2026-04-14T16:15:48.987Z</time></trkpt><trkpt lat="44.077895" lon="8.0832167"><ele>362.33333333333337</ele><time>2026-04-14T16:16:29.987Z</time></trkpt><trkpt lat="44.0779417" lon="8.0830983"><ele>365.1666666666667</ele><time>2026-04-14T16:16:31.986Z</time></trkpt><trkpt lat="44.0779717" lon="8.0829767"><ele>368.0</ele><time>2026-04-14T16:16:33.986Z</time></trkpt><trkpt lat="44.077935" lon="8.0830483"><ele>368.0</ele><time>2026-04-14T16:16:45.986Z</time></trkpt><trkpt lat="44.0778933" lon="8.0831917"><ele>368.0</ele><time>2026-04-14T16:16:47.986Z</time></trkpt><trkpt lat="44.0778467" lon="8.0832583"><ele>368.0</ele><time>2026-04-14T16:16:50.986Z</time></trkpt><trkpt lat="44.0778867" lon="8.0833317"><ele>368.0</ele><time>2026-04-14T16:18:21.987Z</time></trkpt><trkpt lat="44.0779533" lon="8.083315"><ele>368.0</ele><time>2026-04-14T16:18:34.986Z</time></trkpt><trkpt lat="44.0779983" lon="8.0831983"><ele>368.0</ele><time>2026-04-14T16:21:11.987Z</time></trkpt><trkpt lat="44.0779367" lon="8.0833383"><ele>369.6666666666667</ele><time>2026-04-14T16:21:27.987Z</time></trkpt><trkpt lat="44.0778617" lon="8.0833517"><ele>371.33333333333337</ele><time>2026-04-14T16:21:32.986Z</time></trkpt><trkpt lat="44.07778" lon="8.0833267"><ele>373.0</ele><time>2026-04-14T16:21:36.986Z</time></trkpt><trkpt lat="44.0776917" lon="8.0833133"><ele>374.6666666666667</ele><time>2026-04-14T16:21:40.987Z</time></trkpt><trkpt lat="44.0776067" lon="8.0833067"><ele>376.3333333333333</ele><time>2026-04-14T16:21:43.986Z</time></trkpt><trkpt lat="44.0775383" lon="8.08329"><ele>378.0</ele><time>2026-04-14T16:21:45.987Z</time></trkpt><trkpt lat="44.0774717" lon="8.08329"><ele>373.5</ele><time>2026-04-14T16:21:47.987Z</time></trkpt><trkpt lat="44.0774033" lon="8.0833033"><ele>369.0</ele><time>2026-04-14T16:21:49.986Z</time></trkpt><trkpt lat="44.07734" lon="8.083335"><ele>364.5</ele><time>2026-04-14T16:21:51.986Z</time></trkpt><trkpt lat="44.0773033" lon="8.0834517"><ele>360.0</ele><time>2026-04-14T16:21:54.986Z</time></trkpt><trkpt lat="44.0772767" lon="8.0833633"><ele>355.5</ele><time>2026-04-14T16:22:04.987Z</time></trkpt><trkpt lat="44.0772633" lon="8.083225"><ele>351.0</ele><time>2026-04-14T16:22:06.987Z</time></trkpt><trkpt lat="44.0773067" lon="8.0831167"><ele>348.4</ele><time>2026-04-14T16:22:08.986Z</time></trkpt><trkpt lat="44.07739" lon="8.08298"><ele>345.8</ele><time>2026-04-14T16:22:10.987Z</time></trkpt><trkpt lat="44.077445" lon="8.0829083"><ele>343.2</ele><time>2026-04-14T16:22:11.986Z</time></trkpt><trkpt lat="44.0775183" lon="8.08283"><ele>340.59999999999997</ele><time>2026-04-14T16:22:12.987Z</time></trkpt><trkpt lat="44.07759" lon="8.0827367"><ele>338.0</ele><time>2026-04-14T16:22:13.986Z</time></trkpt><trkpt lat="44.0776533" lon="8.0826367"><ele>340.0</ele><time>2026-04-14T16:22:14.986Z</time></trkpt><trkpt lat="44.0777167" lon="8.0825233"><ele>342.0</ele><time>2026-04-14T16:22:15.986Z</time></trkpt><trkpt lat="44.07777" lon="8.0824167"><ele>344.0</ele><time>2026-04-14T16:22:16.986Z</time></trkpt><trkpt lat="44.0778167" lon="8.0823233"><ele>346.0</ele><time>2026-04-14T16:22:17.986Z</time></trkpt><trkpt lat="44.077875" lon="8.0822517"><ele>348.0</ele><time>2026-04-14T16:22:18.986Z</time></trkpt><trkpt lat="44.077955" lon="8.0822067"><ele>350.0</ele><time>2026-04-14T16:22:19.986Z</time></trkpt><trkpt lat="44.0780333" lon="8.0821817"><ele>350.0</ele><time>2026-04-14T16:22:20.986Z</time></trkpt><trkpt lat="44.0781283" lon="8.0821683"><ele>350.0</ele><time>2026-04-14T16:22:21.986Z</time></trkpt><trkpt lat="44.07822" lon="8.0821667"><ele>350.0</ele><time>2026-04-14T16:22:22.986Z</time></trkpt><trkpt lat="44.0783267" lon="8.0821733"><ele>350.0</ele><time>2026-04-14T16:22:23.986Z</time></trkpt><trkpt lat="44.0784183" lon="8.0821767"><ele>350.0</ele><time>2026-04-14T16:22:24.987Z</time></trkpt><trkpt lat="44.0785067" lon="8.08219"><ele>353.6</ele><time>2026-04-14T16:22:25.987Z</time></trkpt><trkpt lat="44.0785933" lon="8.0822267"><ele>357.2</ele><time>2026-04-14T16:22:26.987Z</time></trkpt><trkpt lat="44.0786883" lon="8.0822783"><ele>360.79999999999995</ele><time>2026-04-14T16:22:27.986Z</time></trkpt><trkpt lat="44.0787867" lon="8.0823167"><ele>364.4</ele><time>2026-04-14T16:22:28.986Z</time></trkpt><trkpt lat="44.0788717" lon="8.082345"><ele>368.0</ele><time>2026-04-14T16:22:29.987Z</time></trkpt><trkpt lat="44.07895" lon="8.0823467"><ele>368.0</ele><time>2026-04-14T16:22:30.987Z</time></trkpt><trkpt lat="44.079015" lon="8.0823283"><ele>368.0</ele><time>2026-04-14T16:22:31.986Z</time></trkpt><trkpt lat="44.0790783" lon="8.0822917"><ele>368.0</ele><time>2026-04-14T16:22:32.986Z</time></trkpt><trkpt lat="44.0791467" lon="8.0822417"><ele>368.0</ele><time>2026-04-14T16:22:33.986Z</time></trkpt><trkpt lat="44.0792117" lon="8.082195"><ele>368.0</ele><time>2026-04-14T16:22:34.987Z</time></trkpt><trkpt lat="44.0792717" lon="8.0821467"><ele>368.0</ele><time>2026-04-14T16:22:35.986Z</time></trkpt><trkpt lat="44.0793567" lon="8.08207"><ele>369.0</ele><time>2026-04-14T16:22:37.986Z</time></trkpt><trkpt lat="44.0794267" lon="8.0819733"><ele>370.0</ele><time>2026-04-14T16:22:39.987Z</time></trkpt><trkpt lat="44.0794633" lon="8.0818867"><ele>371.0</ele><time>2026-04-14T16:22:40.986Z</time></trkpt><trkpt lat="44.0795033" lon="8.0817867"><ele>372.0</ele><time>2026-04-14T16:22:41.987Z</time></trkpt><trkpt lat="44.079555" lon="8.0817017"><ele>373.0</ele><time>2026-04-14T16:22:42.986Z</time></trkpt><trkpt lat="44.079625" lon="8.0816217"><ele>374.0</ele><time>2026-04-14T16:22:43.986Z</time></trkpt><trkpt lat="44.0797117" lon="8.0815467"><ele>374.0</ele><time>2026-04-14T16:22:44.986Z</time></trkpt><trkpt lat="44.079805" lon="8.0814883"><ele>374.0</ele><time>2026-04-14T16:22:45.986Z</time></trkpt><trkpt lat="44.07991" lon="8.0814467"><ele>374.0</ele><time>2026-04-14T16:22:46.986Z</time></trkpt><trkpt lat="44.0800117" lon="8.081425"><ele>374.0</ele><time>2026-04-14T16:22:47.986Z</time></trkpt><trkpt lat="44.0801033" lon="8.0814083"><ele>374.0</ele><time>2026-04-14T16:22:48.987Z</time></trkpt><trkpt lat="44.08019" lon="8.0813883"><ele>377.33333333333337</ele><time>2026-04-14T16:22:49.986Z</time></trkpt><trkpt lat="44.0802617" lon="8.081385"><ele>380.6666666666667</ele><time>2026-04-14T16:22:51.987Z</time></trkpt><trkpt lat="44.0802183" lon="8.0814617"><ele>384.0</ele><time>2026-04-14T16:22:54.986Z</time></trkpt><trkpt lat="44.0801467" lon="8.0814983"><ele>387.33333333333337</ele><time>2026-04-14T16:22:55.986Z</time></trkpt><trkpt lat="44.0800483" lon="8.08154"><ele>390.6666666666667</ele><time>2026-04-14T16:22:56.986Z</time></trkpt><trkpt lat="44.0799433" lon="8.0815933"><ele>394.0</ele><time>2026-04-14T16:22:57.987Z</time></trkpt><trkpt lat="44.07985" lon="8.0816533"><ele>394.00000000000006</ele><time>2026-04-14T16:22:58.986Z</time></trkpt><trkpt lat="44.07978" lon="8.081715"><ele>394.0</ele><time>2026-04-14T16:22:59.986Z</time></trkpt><trkpt lat="44.0797367" lon="8.081805"><ele>394.0</ele><time>2026-04-14T16:23:00.987Z</time></trkpt><trkpt lat="44.0797117" lon="8.081915"><ele>394.0</ele><time>2026-04-14T16:23:01.987Z</time></trkpt><trkpt lat="44.0796983" lon="8.082035"><ele>394.00000000000006</ele><time>2026-04-14T16:23:02.987Z</time></trkpt><trkpt lat="44.0796967" lon="8.0821433"><ele>394.0</ele><time>2026-04-14T16:23:03.987Z</time></trkpt><trkpt lat="44.079685" lon="8.0822417"><ele>394.00000000000006</ele><time>2026-04-14T16:23:04.987Z</time></trkpt><trkpt lat="44.0796633" lon="8.08234"><ele>394.0</ele><time>2026-04-14T16:23:05.986Z</time></trkpt><trkpt lat="44.0796217" lon="8.08243"><ele>394.0</ele><time>2026-04-14T16:23:06.986Z</time></trkpt><trkpt lat="44.0795583" lon="8.0825233"><ele>394.0</ele><time>2026-04-14T16:23:07.986Z</time></trkpt><trkpt lat="44.0795083" lon="8.082625"><ele>394.00000000000006</ele><time>2026-04-14T16:23:08.986Z</time></trkpt><trkpt lat="44.07947" lon="8.0827417"><ele>394.0</ele><time>2026-04-14T16:23:09.986Z</time></trkpt><trkpt lat="44.07943" lon="8.0828483"><ele>398.33333333333337</ele><time>2026-04-14T16:23:10.987Z</time></trkpt><trkpt lat="44.0793867" lon="8.0829583"><ele>402.6666666666667</ele><time>2026-04-14T16:23:11.986Z</time></trkpt><trkpt lat="44.0793383" lon="8.0830383"><ele>407.0</ele><time>2026-04-14T16:23:12.987Z</time></trkpt><trkpt lat="44.07928" lon="8.0831"><ele>411.33333333333337</ele><time>2026-04-14T16:23:13.986Z</time></trkpt><trkpt lat="44.0792167" lon="8.08315"><ele>415.6666666666667</ele><time>2026-04-14T16:23:14.986Z</time></trkpt><trkpt lat="44.0791483" lon="8.08324"><ele>420.0</ele><time>2026-04-14T16:23:16.986Z</time></trkpt><trkpt lat="44.0791517" lon="8.0833367"><ele>423.0</ele><time>2026-04-14T16:23:18.987Z</time></trkpt><trkpt lat="44.0792383" lon="8.08339"><ele>426.0</ele><time>2026-04-14T16:27:37.986Z</time></trkpt><trkpt lat="44.0793767" lon="8.08343"><ele>429.0</ele><time>2026-04-14T16:27:43.987Z</time></trkpt><trkpt lat="44.07944" lon="8.083435"><ele>432.0</ele><time>2026-04-14T16:27:44.986Z</time></trkpt><trkpt lat="44.0795183" lon="8.0834383"><ele>435.0</ele><time>2026-04-14T16:27:45.986Z</time></trkpt><trkpt lat="44.079595" lon="8.0834317"><ele>435.0</ele><time>2026-04-14T16:27:46.987Z</time></trkpt><trkpt lat="44.0796617" lon="8.08343"><ele>435.0</ele><time>2026-04-14T16:27:47.986Z</time></trkpt><trkpt lat="44.079695" lon="8.0833483"><ele>435.0</ele><time>2026-04-14T16:27:49.986Z</time></trkpt><trkpt lat="44.079705" lon="8.0831867"><ele>435.0</ele><time>2026-04-14T16:27:51.986Z</time></trkpt><trkpt lat="44.07975" lon="8.0830767"><ele>435.0</ele><time>2026-04-14T16:27:53.987Z</time></trkpt><trkpt lat="44.0798667" lon="8.0829917"><ele>438.1666666666667</ele><time>2026-04-14T16:27:55.987Z</time></trkpt><trkpt lat="44.07995" lon="8.08294"><ele>441.33333333333337</ele><time>2026-04-14T16:27:56.986Z</time></trkpt><trkpt lat="44.080035" lon="8.0828783"><ele>444.5</ele><time>2026-04-14T16:27:57.987Z</time></trkpt><trkpt lat="44.0801217" lon="8.08282"><ele>447.6666666666667</ele><time>2026-04-14T16:27:58.987Z</time></trkpt><trkpt lat="44.0801917" lon="8.0827733"><ele>450.83333333333337</ele><time>2026-04-14T16:27:59.986Z</time></trkpt><trkpt lat="44.08025" lon="8.082725"><ele>454.0</ele><time>2026-04-14T16:28:00.986Z</time></trkpt><trkpt lat="44.0802233" lon="8.0828767"><ele>454.0</ele><time>2026-04-14T16:28:05.986Z</time></trkpt><trkpt lat="44.0801933" lon="8.0830233"><ele>454.0</ele><time>2026-04-14T16:28:07.987Z</time></trkpt><trkpt lat="44.0802317" lon="8.0831117"><ele>454.0</ele><time>2026-04-14T16:28:09.986Z</time></trkpt><trkpt lat="44.0803283" lon="8.08316"><ele>454.0</ele><time>2026-04-14T16:28:11.986Z</time></trkpt><trkpt lat="44.0804467" lon="8.0831483"><ele>454.0</ele><time>2026-04-14T16:28:13.986Z</time></trkpt><trkpt lat="44.08051" lon="8.083145"><ele>454.0</ele><time>2026-04-14T16:28:14.986Z</time></trkpt><trkpt lat="44.080615" lon="8.083145"><ele>454.0</ele><time>2026-04-14T16:28:16.986Z</time></trkpt><trkpt lat="44.080735" lon="8.0831283"><ele>454.0</ele><time>2026-04-14T16:28:18.986Z</time></trkpt><trkpt lat="44.0808017" lon="8.0831217"><ele>454.0</ele><time>2026-04-14T16:28:19.986Z</time></trkpt><trkpt lat="44.080865" lon="8.0831167"><ele>454.0</ele><time>2026-04-14T16:28:20.987Z</time></trkpt><trkpt lat="44.0809633" lon="8.0831217"><ele>459.00000000000006</ele><time>2026-04-14T16:28:22.986Z</time></trkpt><trkpt lat="44.0810283" lon="8.08314"><ele>464.0</ele><time>2026-04-14T16:28:24.986Z</time></trkpt><trkpt lat="44.0811083" lon="8.0831867"><ele>469.0</ele><time>2026-04-14T16:28:56.986Z</time></trkpt><trkpt lat="44.0811617" lon="8.0832433"><ele>474.0</ele><time>2026-04-14T16:28:57.986Z</time></trkpt><trkpt lat="44.0812367" lon="8.0833167"><ele>479.00000000000006</ele><time>2026-04-14T16:28:58.986Z</time></trkpt><trkpt lat="44.0813367" lon="8.0833917"><ele>484.0</ele><time>2026-04-14T16:28:59.987Z</time></trkpt><trkpt lat="44.0814533" lon="8.083475"><ele>484.1666666666667</ele><time>2026-04-14T16:29:00.987Z</time></trkpt><trkpt lat="44.08155" lon="8.083565"><ele>484.33333333333337</ele><time>2026-04-14T16:29:01.987Z</time></trkpt><trkpt lat="44.0816117" lon="8.0836417"><ele>484.5</ele><time>2026-04-14T16:29:02.986Z</time></trkpt><trkpt lat="44.0816633" lon="8.0837317"><ele>484.66666666666663</ele><time>2026-04-14T16:29:03.987Z</time></trkpt><trkpt lat="44.081695" lon="8.0838367"><ele>484.8333333333333</ele><time>2026-04-14T16:29:04.986Z</time></trkpt><trkpt lat="44.0817383" lon="8.0839233"><ele>485.0</ele><time>2026-04-14T16:29:05.986Z</time></trkpt><trkpt lat="44.0818333" lon="8.0839917"><ele>489.16666666666663</ele><time>2026-04-14T16:29:07.986Z</time></trkpt><trkpt lat="44.0819133" lon="8.0839733"><ele>493.3333333333333</ele><time>2026-04-14T16:29:08.986Z</time></trkpt><trkpt lat="44.0819983" lon="8.0839567"><ele>497.5</ele><time>2026-04-14T16:29:09.987Z</time></trkpt><trkpt lat="44.0820817" lon="8.08396"><ele>501.66666666666663</ele><time>2026-04-14T16:29:10.987Z</time></trkpt><trkpt lat="44.082175" lon="8.0839867"><ele>505.8333333333333</ele><time>2026-04-14T16:29:11.987Z</time></trkpt><trkpt lat="44.0822617" lon="8.0840267"><ele>510.0</ele><time>2026-04-14T16:29:12.986Z</time></trkpt><trkpt lat="44.0823367" lon="8.084075"><ele>510.0</ele><time>2026-04-14T16:29:13.986Z</time></trkpt><trkpt lat="44.0824" lon="8.08412"><ele>510.00000000000006</ele><time>2026-04-14T16:29:14.986Z</time></trkpt><trkpt lat="44.0824583" lon="8.0840683"><ele>510.0</ele><time>2026-04-14T16:29:18.986Z</time></trkpt><trkpt lat="44.08241" lon="8.0839583"><ele>510.0</ele><time>2026-04-14T16:29:20.986Z</time></trkpt><trkpt lat="44.08238" lon="8.083875"><ele>510.00000000000006</ele><time>2026-04-14T16:29:21.986Z</time></trkpt><trkpt lat="44.0823417" lon="8.0837883"><ele>510.0</ele><time>2026-04-14T16:29:22.987Z</time></trkpt><trkpt lat="44.0823117" lon="8.0837033"><ele>510.0</ele><time>2026-04-14T16:29:23.987Z</time></trkpt><trkpt lat="44.0823017" lon="8.08361"><ele>510.0</ele><time>2026-04-14T16:29:24.986Z</time></trkpt><trkpt lat="44.082305" lon="8.0835"><ele>510.0</ele><time>2026-04-14T16:29:25.986Z</time></trkpt><trkpt lat="44.0823033" lon="8.0834"><ele>510.0</ele><time>2026-04-14T16:29:26.986Z</time></trkpt><trkpt lat="44.0822667" lon="8.0832533"><ele>510.0</ele><time>2026-04-14T16:29:28.987Z</time></trkpt><trkpt lat="44.0822067" lon="8.083155"><ele>510.0</ele><time>2026-04-14T16:29:30.987Z</time></trkpt><trkpt lat="44.0821967" lon="8.0830517"><ele>510.0</ele><time>2026-04-14T16:29:32.987Z</time></trkpt><trkpt lat="44.0822767" lon="8.0830283"><ele>510.2</ele><time>2026-04-14T16:29:34.987Z</time></trkpt><trkpt lat="44.0823917" lon="8.0830867"><ele>510.4</ele><time>2026-04-14T16:29:36.987Z</time></trkpt><trkpt lat="44.082495" lon="8.0831533"><ele>510.6</ele><time>2026-04-14T16:29:38.987Z</time></trkpt><trkpt lat="44.0825817" lon="8.0832183"><ele>510.8</ele><time>2026-04-14T16:29:40.987Z</time></trkpt><trkpt lat="44.082645" lon="8.0833083"><ele>511.0</ele><time>2026-04-14T16:29:42.987Z</time></trkpt><trkpt lat="44.0826867" lon="8.083435"><ele>515.8333333333334</ele><time>2026-04-14T16:29:44.987Z</time></trkpt><trkpt lat="44.082755" lon="8.0835533"><ele>520.6666666666667</ele><time>2026-04-14T16:29:46.986Z</time></trkpt><trkpt lat="44.08281" lon="8.0836117"><ele>525.5</ele><time>2026-04-14T16:29:47.986Z</time></trkpt><trkpt lat="44.0828883" lon="8.083655"><ele>530.3333333333334</ele><time>2026-04-14T16:29:48.987Z</time></trkpt><trkpt lat="44.082965" lon="8.08369"><ele>535.1666666666666</ele><time>2026-04-14T16:29:49.986Z</time></trkpt><trkpt lat="44.08303" lon="8.0837183"><ele>540.0</ele><time>2026-04-14T16:29:50.987Z</time></trkpt><trkpt lat="44.08313" lon="8.0837833"><ele>540.0</ele><time>2026-04-14T16:29:52.987Z</time></trkpt><trkpt lat="44.08324" lon="8.0838617"><ele>540.0</ele><time>2026-04-14T16:29:54.986Z</time></trkpt><trkpt lat="44.083355" lon="8.0838933"><ele>540.0</ele><time>2026-04-14T16:29:56.986Z</time></trkpt><trkpt lat="44.0834767" lon="8.0839083"><ele>540.0</ele><time>2026-04-14T16:29:58.987Z</time></trkpt><trkpt lat="44.0835417" lon="8.0839217"><ele>540.0</ele><time>2026-04-14T16:29:59.986Z</time></trkpt><trkpt lat="44.0836517" lon="8.08398"><ele>544.0</ele><time>2026-04-14T16:30:01.986Z</time></trkpt><trkpt lat="44.083735" lon="8.08398"><ele>548.0</ele><time>2026-04-14T16:30:27.987Z</time></trkpt><trkpt lat="44.0837933" lon="8.0838283"><ele>552.0</ele><time>2026-04-14T16:30:29.986Z</time></trkpt><trkpt lat="44.0838117" lon="8.0837333"><ele>556.0</ele><time>2026-04-14T16:30:30.986Z</time></trkpt><trkpt lat="44.0838283" lon="8.0836167"><ele>560.0</ele><time>2026-04-14T16:30:31.987Z</time></trkpt><trkpt lat="44.083855" lon="8.083515"><ele>564.0</ele><time>2026-04-14T16:30:32.986Z</time></trkpt><trkpt lat="44.08389" lon="8.0833733"><ele>562.0</ele><time>2026-04-14T16:30:34.986Z</time></trkpt><trkpt lat="44.083915" lon="8.0832433"><ele>560.0</ele><time>2026-04-14T16:30:36.986Z</time></trkpt><trkpt lat="44.0839433" lon="8.083135"><ele>558.0</ele><time>2026-04-14T16:30:38.986Z</time></trkpt><trkpt lat="44.0839617" lon="8.0830217"><ele>556.0</ele><time>2026-04-14T16:30:40.986Z</time></trkpt><trkpt lat="44.0839817" lon="8.0828583"><ele>554.0</ele><time>2026-04-14T16:30:42.987Z</time></trkpt><trkpt lat="44.0840333" lon="8.0827417"><ele>558.1666666666666</ele><time>2026-04-14T16:30:44.986Z</time></trkpt><trkpt lat="44.0841167" lon="8.082705"><ele>562.3333333333333</ele><time>2026-04-14T16:30:46.987Z</time></trkpt><trkpt lat="44.0842467" lon="8.0827333"><ele>566.5</ele><time>2026-04-14T16:30:48.986Z</time></trkpt><trkpt lat="44.08432" lon="8.082755"><ele>570.6666666666666</ele><time>2026-04-14T16:30:49.986Z</time></trkpt><trkpt lat="44.0843833" lon="8.082745"><ele>574.8333333333334</ele><time>2026-04-14T16:30:50.987Z</time></trkpt><trkpt lat="44.0844483" lon="8.0827283"><ele>579.0</ele><time>2026-04-14T16:30:51.986Z</time></trkpt><trkpt lat="44.0845083" lon="8.0826833"><ele>579.0</ele><time>2026-04-14T16:30:52.986Z</time></trkpt><trkpt lat="44.0846033" lon="8.082575"><ele>579.0</ele><time>2026-04-14T16:30:54.987Z</time></trkpt><trkpt lat="44.0847067" lon="8.0825317"><ele>579.0</ele><time>2026-04-14T16:30:56.987Z</time></trkpt><trkpt lat="44.0848133" lon="8.0825217"><ele>579.0</ele><time>2026-04-14T16:30:58.986Z</time></trkpt><trkpt lat="44.08493" lon="8.0825483"><ele>581.5</ele><time>2026-04-14T16:31:00.987Z</time></trkpt><trkpt lat="44.0850567" lon="8.0825633"><ele>584.0</ele><time>2026-04-14T16:31:02.987Z</time></trkpt><trkpt lat="44.0851217" lon="8.0825717"><ele>586.5</ele><time>2026-04-14T16:31:03.987Z</time></trkpt><trkpt lat="44.0852433" lon="8.0826"><ele>589.0</ele><time>2026-04-14T16:31:05.987Z</time></trkpt><trkpt lat="44.0853067" lon="8.0826283"><ele>591.5</ele><time>2026-04-14T16:31:06.986Z</time></trkpt><trkpt lat="44.0853667" lon="8.08266"><ele>594.0</ele><time>2026-04-14T16:31:07.987Z</time></trkpt><trkpt lat="44.0854783" lon="8.0827183"><ele>594.0</ele><time>2026-04-14T16:31:09.986Z</time></trkpt><trkpt lat="44.0855683" lon="8.0827567"><ele>594.0</ele><time>2026-04-14T16:31:11.986Z</time></trkpt><trkpt lat="44.0856867" lon="8.0827883"><ele>594.0</ele><time>2026-04-14T16:31:13.987Z</time></trkpt><trkpt lat="44.0857517" lon="8.08281"><ele>594.0</ele><time>2026-04-14T16:31:14.987Z</time></trkpt><trkpt lat="44.0858117" lon="8.082855"><ele>594.0</ele><time>2026-04-14T16:31:15.986Z</time></trkpt><trkpt lat="44.08587" lon="8.08291"><ele>594.0</ele><time>2026-04-14T16:31:16.986Z</time></trkpt><trkpt lat="44.085915" lon="8.0829767"><ele>596.8</ele><time>2026-04-14T16:31:17.987Z</time></trkpt><trkpt lat="44.08599" lon="8.0830917"><ele>599.5999999999999</ele><time>2026-04-14T16:31:19.986Z</time></trkpt><trkpt lat="44.0860383" lon="8.0831517"><ele>602.4</ele><time>2026-04-14T16:31:21.986Z</time></trkpt><trkpt lat="44.0861183" lon="8.0831017"><ele>605.1999999999999</ele><time>2026-04-14T16:31:25.986Z</time></trkpt><trkpt lat="44.0862017" lon="8.082975"><ele>608.0</ele><time>2026-04-14T16:31:27.986Z</time></trkpt><trkpt lat="44.086255" lon="8.082905"><ele>608.0</ele><time>2026-04-14T16:31:28.987Z</time></trkpt><trkpt lat="44.0863283" lon="8.082815"><ele>608.0</ele><time>2026-04-14T16:31:30.986Z</time></trkpt><trkpt lat="44.0864083" lon="8.08275"><ele>608.0</ele><time>2026-04-14T16:31:33.986Z</time></trkpt><trkpt lat="44.0865083" lon="8.082715"><ele>608.0</ele><time>2026-04-14T16:31:35.987Z</time></trkpt><trkpt lat="44.0865933" lon="8.0825833"><ele>608.0</ele><time>2026-04-14T16:31:37.986Z</time></trkpt><trkpt lat="44.0866717" lon="8.0824633"><ele>609.0</ele><time>2026-04-14T16:31:39.986Z</time></trkpt><trkpt lat="44.0867317" lon="8.0823867"><ele>610.0</ele><time>2026-04-14T16:31:41.987Z</time></trkpt><trkpt lat="44.0867767" lon="8.082455"><ele>611.0</ele><time>2026-04-14T16:31:44.986Z</time></trkpt><trkpt lat="44.0867767" lon="8.0826"><ele>612.0</ele><time>2026-04-14T16:31:46.986Z</time></trkpt><trkpt lat="44.0867767" lon="8.0827467"><ele>613.0</ele><time>2026-04-14T16:31:48.986Z</time></trkpt><trkpt lat="44.0867633" lon="8.082835"><ele>614.0</ele><time>2026-04-14T16:31:49.987Z</time></trkpt><trkpt lat="44.0867483" lon="8.0829467"><ele>617.3333333333333</ele><time>2026-04-14T16:31:50.986Z</time></trkpt><trkpt lat="44.08673" lon="8.0830467"><ele>620.6666666666666</ele><time>2026-04-14T16:31:51.986Z</time></trkpt><trkpt lat="44.0867133" lon="8.0831533"><ele>624.0</ele><time>2026-04-14T16:31:52.987Z</time></trkpt><trkpt lat="44.08671" lon="8.0832683"><ele>627.3333333333334</ele><time>2026-04-14T16:31:53.986Z</time></trkpt><trkpt lat="44.0867083" lon="8.0833767"><ele>630.6666666666667</ele><time>2026-04-14T16:31:54.986Z</time></trkpt><trkpt lat="44.086705" lon="8.0834717"><ele>634.0</ele><time>2026-04-14T16:31:55.987Z</time></trkpt><trkpt lat="44.0866533" lon="8.0836333"><ele>633.7142857142858</ele><time>2026-04-14T16:31:57.986Z</time></trkpt><trkpt lat="44.0866" lon="8.0837017"><ele>633.4285714285714</ele><time>2026-04-14T16:31:58.987Z</time></trkpt><trkpt lat="44.086545" lon="8.083765"><ele>633.1428571428571</ele><time>2026-04-14T16:31:59.986Z</time></trkpt><trkpt lat="44.086485" lon="8.0838283"><ele>632.8571428571429</ele><time>2026-04-14T16:32:00.987Z</time></trkpt><trkpt lat="44.0864267" lon="8.0839"><ele>632.5714285714286</ele><time>2026-04-14T16:32:01.986Z</time></trkpt><trkpt lat="44.0863833" lon="8.083965"><ele>632.2857142857143</ele><time>2026-04-14T16:32:02.986Z</time></trkpt><trkpt lat="44.0863367" lon="8.08406"><ele>632.0</ele><time>2026-04-14T16:32:04.987Z</time></trkpt><trkpt lat="44.0863967" lon="8.0841367"><ele>633.8</ele><time>2026-04-14T16:32:09.987Z</time></trkpt><trkpt lat="44.0865117" lon="8.0841017"><ele>635.6</ele><time>2026-04-14T16:32:11.986Z</time></trkpt><trkpt lat="44.0866117" lon="8.0840717"><ele>637.4</ele><time>2026-04-14T16:32:13.987Z</time></trkpt><trkpt lat="44.08671" lon="8.0840583"><ele>639.1999999999999</ele><time>2026-04-14T16:32:16.986Z</time></trkpt><trkpt lat="44.086775" lon="8.0840867"><ele>641.0</ele><time>2026-04-14T16:32:18.986Z</time></trkpt><trkpt lat="44.0868117" lon="8.0842033"><ele>643.8333333333333</ele><time>2026-04-14T16:32:21.987Z</time></trkpt><trkpt lat="44.086845" lon="8.0843583"><ele>646.6666666666666</ele><time>2026-04-14T16:32:23.987Z</time></trkpt><trkpt lat="44.08685" lon="8.0844717"><ele>649.5</ele><time>2026-04-14T16:32:24.987Z</time></trkpt><trkpt lat="44.0868583" lon="8.084585"><ele>652.3333333333334</ele><time>2026-04-14T16:32:25.986Z</time></trkpt><trkpt lat="44.0868483" lon="8.0846917"><ele>655.1666666666667</ele><time>2026-04-14T16:32:26.986Z</time></trkpt><trkpt lat="44.0868367" lon="8.0847833"><ele>658.0</ele><time>2026-04-14T16:32:27.987Z</time></trkpt><trkpt lat="44.086795" lon="8.0849283"><ele>658.2</ele><time>2026-04-14T16:32:29.987Z</time></trkpt><trkpt lat="44.0867767" lon="8.0850417"><ele>658.4</ele><time>2026-04-14T16:32:31.987Z</time></trkpt><trkpt lat="44.0867583" lon="8.0851467"><ele>658.6</ele><time>2026-04-14T16:32:46.986Z</time></trkpt><trkpt lat="44.0867417" lon="8.08528"><ele>658.8000000000001</ele><time>2026-04-14T16:32:48.986Z</time></trkpt><trkpt lat="44.08675" lon="8.0854433"><ele>659.0</ele><time>2026-04-14T16:32:50.986Z</time></trkpt><trkpt lat="44.0867617" lon="8.0855767"><ele>659.0</ele><time>2026-04-14T16:32:52.986Z</time></trkpt><trkpt lat="44.08678" lon="8.0857183"><ele>659.0</ele><time>2026-04-14T16:32:54.986Z</time></trkpt><trkpt lat="44.08678" lon="8.0858983"><ele>659.0</ele><time>2026-04-14T16:32:56.987Z</time></trkpt><trkpt lat="44.0867733" lon="8.0859867"><ele>659.0</ele><time>2026-04-14T16:32:57.987Z</time></trkpt><trkpt lat="44.0867433" lon="8.0861433"><ele>659.0</ele><time>2026-04-14T16:33:09.987Z</time></trkpt><trkpt lat="44.0867333" lon="8.0863283"><ele>660.2</ele><time>2026-04-14T16:33:32.986Z</time></trkpt><trkpt lat="44.0868183" lon="8.086485"><ele>661.4000000000001</ele><time>2026-04-14T16:35:00.986Z</time></trkpt><trkpt lat="44.0868817" lon="8.0864833"><ele>662.6</ele><time>2026-04-14T16:35:05.987Z</time></trkpt><trkpt lat="44.0869417" lon="8.0864533"><ele>663.8</ele><time>2026-04-14T16:35:09.986Z</time></trkpt><trkpt lat="44.0870217" lon="8.0864317"><ele>665.0</ele><time>2026-04-14T16:35:14.987Z</time></trkpt><trkpt lat="44.0871367" lon="8.0863917"><ele>665.0</ele><time>2026-04-14T16:35:49.987Z</time></trkpt><trkpt lat="44.0871917" lon="8.0863467"><ele>665.0</ele><time>2026-04-14T16:35:51.986Z</time></trkpt><trkpt lat="44.0872633" lon="8.0862767"><ele>665.0</ele><time>2026-04-14T16:35:54.987Z</time></trkpt><trkpt lat="44.0873267" lon="8.08622"><ele>665.0</ele><time>2026-04-14T16:35:58.987Z</time></trkpt><trkpt lat="44.0874017" lon="8.0861167"><ele>665.0</ele><time>2026-04-14T16:36:20.986Z</time></trkpt><trkpt lat="44.0874883" lon="8.0860167"><ele>665.0</ele><time>2026-04-14T16:36:42.987Z</time></trkpt><trkpt lat="44.087625" lon="8.08589"><ele>671.6666666666666</ele><time>2026-04-14T16:36:56.987Z</time></trkpt><trkpt lat="44.0877217" lon="8.085775"><ele>678.3333333333333</ele><time>2026-04-14T16:37:04.987Z</time></trkpt><trkpt lat="44.087785" lon="8.0857383"><ele>685.0</ele><time>2026-04-14T16:37:07.987Z</time></trkpt><trkpt lat="44.0878533" lon="8.0856933"><ele>691.6666666666666</ele><time>2026-04-14T16:37:11.987Z</time></trkpt><trkpt lat="44.0879133" lon="8.08564"><ele>698.3333333333334</ele><time>2026-04-14T16:37:15.986Z</time></trkpt><trkpt lat="44.08798" lon="8.085605"><ele>705.0</ele><time>2026-04-14T16:37:18.987Z</time></trkpt><trkpt lat="44.08804" lon="8.085535"><ele>705.0</ele><time>2026-04-14T16:37:21.987Z</time></trkpt><trkpt lat="44.088085" lon="8.0854733"><ele>705.0</ele><time>2026-04-14T16:37:23.986Z</time></trkpt><trkpt lat="44.0881283" lon="8.0854083"><ele>705.0</ele><time>2026-04-14T16:37:25.986Z</time></trkpt><trkpt lat="44.0881567" lon="8.0853"><ele>705.0</ele><time>2026-04-14T16:37:27.986Z</time></trkpt><trkpt lat="44.0881983" lon="8.085165"><ele>705.0</ele><time>2026-04-14T16:37:29.987Z</time></trkpt><trkpt lat="44.0882367" lon="8.085065"><ele>705.0</ele><time>2026-04-14T16:37:31.986Z</time></trkpt><trkpt lat="44.0882733" lon="8.0849633"><ele>710.5</ele><time>2026-04-14T16:37:33.986Z</time></trkpt><trkpt lat="44.08831" lon="8.0848567"><ele>716.0</ele><time>2026-04-14T16:37:36.987Z</time></trkpt><trkpt lat="44.0883617" lon="8.0847983"><ele>721.5</ele><time>2026-04-14T16:37:41.986Z</time></trkpt><trkpt lat="44.0884317" lon="8.0847317"><ele>727.0</ele><time>2026-04-14T16:37:44.987Z</time></trkpt><trkpt lat="44.088505" lon="8.0846417"><ele>732.5</ele><time>2026-04-14T16:37:47.987Z</time></trkpt><trkpt lat="44.0885683" lon="8.0845383"><ele>738.0</ele><time>2026-04-14T16:37:49.986Z</time></trkpt><trkpt lat="44.0886067" lon="8.0844383"><ele>738.0</ele><time>2026-04-14T16:37:51.986Z</time></trkpt><trkpt lat="44.0886633" lon="8.0843917"><ele>738.0</ele><time>2026-04-14T16:37:53.986Z</time></trkpt><trkpt lat="44.088725" lon="8.0843183"><ele>738.0</ele><time>2026-04-14T16:37:55.986Z</time></trkpt><trkpt lat="44.0887717" lon="8.0841833"><ele>738.0</ele><time>2026-04-14T16:37:57.986Z</time></trkpt><trkpt lat="44.0888217" lon="8.08406"><ele>738.0</ele><time>2026-04-14T16:37:59.987Z</time></trkpt><trkpt lat="44.088885" lon="8.0839183"><ele>737.6666666666666</ele><time>2026-04-14T16:38:01.987Z</time></trkpt><trkpt lat="44.088925" lon="8.0838483"><ele>737.3333333333334</ele><time>2026-04-14T16:38:02.987Z</time></trkpt><trkpt lat="44.0889833" lon="8.0837967"><ele>737.0</ele><time>2026-04-14T16:38:04.987Z</time></trkpt><trkpt lat="44.0890833" lon="8.0838217"><ele>736.6666666666667</ele><time>2026-04-14T16:39:13.987Z</time></trkpt><trkpt lat="44.08919" lon="8.0838183"><ele>736.3333333333334</ele><time>2026-04-14T16:39:15.987Z</time></trkpt><trkpt lat="44.0892583" lon="8.0837983"><ele>736.0</ele><time>2026-04-14T16:39:17.986Z</time></trkpt><trkpt lat="44.08934" lon="8.0838033"><ele>741.5999999999999</ele><time>2026-04-14T16:39:19.986Z</time></trkpt><trkpt lat="44.0894233" lon="8.083785"><ele>747.2</ele><time>2026-04-14T16:39:21.986Z</time></trkpt><trkpt lat="44.0895133" lon="8.0837717"><ele>752.8</ele><time>2026-04-14T16:39:23.987Z</time></trkpt><trkpt lat="44.0896033" lon="8.0838583"><ele>758.4000000000001</ele><time>2026-04-14T16:39:25.987Z</time></trkpt><trkpt lat="44.0897" lon="8.0839433"><ele>764.0</ele><time>2026-04-14T16:39:27.986Z</time></trkpt><trkpt lat="44.0898117" lon="8.084"><ele>764.0</ele><time>2026-04-14T16:39:29.987Z</time></trkpt><trkpt lat="44.0899017" lon="8.0840467"><ele>764.0</ele><time>2026-04-14T16:39:31.987Z</time></trkpt><trkpt lat="44.0899917" lon="8.08412"><ele>764.0</ele><time>2026-04-14T16:39:34.986Z</time></trkpt><trkpt lat="44.0900967" lon="8.084165"><ele>764.0</ele><time>2026-04-14T16:39:36.987Z</time></trkpt><trkpt lat="44.0901767" lon="8.0841983"><ele>764.0</ele><time>2026-04-14T16:39:37.986Z</time></trkpt><trkpt lat="44.09026" lon="8.08422"><ele>766.0</ele><time>2026-04-14T16:39:38.986Z</time></trkpt><trkpt lat="44.09033" lon="8.0842383"><ele>768.0</ele><time>2026-04-14T16:39:39.986Z</time></trkpt><trkpt lat="44.0904183" lon="8.0842783"><ele>770.0</ele><time>2026-04-14T16:39:41.986Z</time></trkpt><trkpt lat="44.0904617" lon="8.0843683"><ele>772.0</ele><time>2026-04-14T16:39:43.987Z</time></trkpt><trkpt lat="44.09051" lon="8.084495"><ele>774.0000000000001</ele><time>2026-04-14T16:39:45.986Z</time></trkpt><trkpt lat="44.0905567" lon="8.0845717"><ele>776.0</ele><time>2026-04-14T16:39:47.986Z</time></trkpt><trkpt lat="44.0906217" lon="8.0846417"><ele>776.0000000000001</ele><time>2026-04-14T16:39:50.987Z</time></trkpt><trkpt lat="44.0907067" lon="8.084585"><ele>776.0</ele><time>2026-04-14T16:39:55.986Z</time></trkpt><trkpt lat="44.090775" lon="8.084565"><ele>776.0</ele><time>2026-04-14T16:39:57.987Z</time></trkpt><trkpt lat="44.0908417" lon="8.084585"><ele>776.0</ele><time>2026-04-14T16:39:59.987Z</time></trkpt><trkpt lat="44.090935" lon="8.0845817"><ele>776.0000000000001</ele><time>2026-04-14T16:40:01.987Z</time></trkpt><trkpt lat="44.09104" lon="8.0845567"><ele>776.0</ele><time>2026-04-14T16:40:03.987Z</time></trkpt><trkpt lat="44.0911467" lon="8.0845533"><ele>782.1999999999999</ele><time>2026-04-14T16:40:05.986Z</time></trkpt><trkpt lat="44.0912533" lon="8.084555"><ele>788.4</ele><time>2026-04-14T16:40:07.986Z</time></trkpt><trkpt lat="44.0913483" lon="8.0845383"><ele>794.6</ele><time>2026-04-14T16:40:09.986Z</time></trkpt><trkpt lat="44.0914383" lon="8.0845067"><ele>800.8</ele><time>2026-04-14T16:40:11.986Z</time></trkpt><trkpt lat="44.0915167" lon="8.0844717"><ele>807.0</ele><time>2026-04-14T16:40:13.987Z</time></trkpt><trkpt lat="44.091605" lon="8.0844683"><ele>813.0</ele><time>2026-04-14T16:40:15.986Z</time></trkpt><trkpt lat="44.0917183" lon="8.0845083"><ele>819.0</ele><time>2026-04-14T16:40:17.987Z</time></trkpt><trkpt lat="44.091825" lon="8.0845"><ele>825.0</ele><time>2026-04-14T16:40:19.987Z</time></trkpt><trkpt lat="44.0919" lon="8.0844617"><ele>831.0</ele><time>2026-04-14T16:40:21.986Z</time></trkpt><trkpt lat="44.0919533" lon="8.0845483"><ele>837.0</ele><time>2026-04-14T16:43:33.986Z</time></trkpt><trkpt lat="44.0919767" lon="8.08465"><ele>837.0</ele><time>2026-04-14T16:43:34.987Z</time></trkpt><trkpt lat="44.091995" lon="8.084755"><ele>837.0</ele><time>2026-04-14T16:43:35.987Z</time></trkpt><trkpt lat="44.0920133" lon="8.084845"><ele>837.0</ele><time>2026-04-14T16:43:36.987Z</time></trkpt><trkpt lat="44.0920383" lon="8.0849283"><ele>837.0</ele><time>2026-04-14T16:43:37.987Z</time></trkpt><trkpt lat="44.0920917" lon="8.08505"><ele>837.0</ele><time>2026-04-14T16:43:39.987Z</time></trkpt><trkpt lat="44.0921283" lon="8.0851817"><ele>837.0</ele><time>2026-04-14T16:43:41.986Z</time></trkpt><trkpt lat="44.0921567" lon="8.0852767"><ele>836.0</ele><time>2026-04-14T16:43:42.986Z</time></trkpt><trkpt lat="44.092185" lon="8.0853717"><ele>835.0</ele><time>2026-04-14T16:43:43.986Z</time></trkpt><trkpt lat="44.0922117" lon="8.0854717"><ele>834.0</ele><time>2026-04-14T16:43:44.987Z</time></trkpt><trkpt lat="44.09223" lon="8.0855667"><ele>833.0</ele><time>2026-04-14T16:43:45.987Z</time></trkpt><trkpt lat="44.0922533" lon="8.0856533"><ele>832.0</ele><time>2026-04-14T16:43:46.986Z</time></trkpt><trkpt lat="44.09228" lon="8.085825"><ele>831.0</ele><time>2026-04-14T16:43:48.986Z</time></trkpt><trkpt lat="44.0922733" lon="8.0860067"><ele>829.0</ele><time>2026-04-14T16:43:50.987Z</time></trkpt><trkpt lat="44.0922483" lon="8.08611"><ele>827.0</ele><time>2026-04-14T16:43:51.986Z</time></trkpt><trkpt lat="44.0922333" lon="8.0862117"><ele>825.0</ele><time>2026-04-14T16:43:52.987Z</time></trkpt><trkpt lat="44.09224" lon="8.086305"><ele>823.0</ele><time>2026-04-14T16:43:53.986Z</time></trkpt><trkpt lat="44.0922583" lon="8.0864283"><ele>821.0</ele><time>2026-04-14T16:43:55.986Z</time></trkpt><trkpt lat="44.0922733" lon="8.086535"><ele>819.0</ele><time>2026-04-14T16:43:58.986Z</time></trkpt><trkpt lat="44.0922283" lon="8.08664"><ele>817.0</ele><time>2026-04-14T16:44:01.986Z</time></trkpt><trkpt lat="44.0921817" lon="8.0867483"><ele>815.0</ele><time>2026-04-14T16:44:03.987Z</time></trkpt><trkpt lat="44.0921317" lon="8.0868767"><ele>813.0</ele><time>2026-04-14T16:44:05.986Z</time></trkpt><trkpt lat="44.0921067" lon="8.0870067"><ele>811.0</ele><time>2026-04-14T16:44:07.987Z</time></trkpt><trkpt lat="44.0921117" lon="8.087135"><ele>809.0</ele><time>2026-04-14T16:44:09.986Z</time></trkpt><trkpt lat="44.0921567" lon="8.0872383"><ele>809.0000000000001</ele><time>2026-04-14T16:44:11.987Z</time></trkpt><trkpt lat="44.09219" lon="8.0873483"><ele>809.0</ele><time>2026-04-14T16:44:13.987Z</time></trkpt><trkpt lat="44.0922167" lon="8.08745"><ele>809.0</ele><time>2026-04-14T16:44:15.987Z</time></trkpt><trkpt lat="44.092215" lon="8.0875717"><ele>809.0</ele><time>2026-04-14T16:44:18.987Z</time></trkpt><trkpt lat="44.0921967" lon="8.0876583"><ele>809.0000000000001</ele><time>2026-04-14T16:44:21.986Z</time></trkpt><trkpt lat="44.092185" lon="8.0877583"><ele>809.0</ele><time>2026-04-14T16:44:25.986Z</time></trkpt><trkpt lat="44.092185" lon="8.08786"><ele>806.3333333333334</ele><time>2026-04-14T16:44:27.987Z</time></trkpt><trkpt lat="44.0921767" lon="8.0879833"><ele>803.6666666666667</ele><time>2026-04-14T16:44:29.987Z</time></trkpt><trkpt lat="44.092185" lon="8.08812"><ele>801.0</ele><time>2026-04-14T16:44:31.986Z</time></trkpt><trkpt lat="44.0921967" lon="8.0882317"><ele>798.3333333333333</ele><time>2026-04-14T16:44:33.987Z</time></trkpt><trkpt lat="44.0921733" lon="8.088335"><ele>795.6666666666666</ele><time>2026-04-14T16:44:35.987Z</time></trkpt><trkpt lat="44.0921533" lon="8.088435"><ele>793.0</ele><time>2026-04-14T16:44:37.987Z</time></trkpt><trkpt lat="44.092105" lon="8.0885167"><ele>788.9999999999999</ele><time>2026-04-14T16:44:39.987Z</time></trkpt><trkpt lat="44.09204" lon="8.0886117"><ele>785.0</ele><time>2026-04-14T16:44:42.986Z</time></trkpt><trkpt lat="44.0919933" lon="8.0887083"><ele>781.0</ele><time>2026-04-14T16:44:45.987Z</time></trkpt><trkpt lat="44.0919917" lon="8.0887983"><ele>777.0</ele><time>2026-04-14T16:44:47.987Z</time></trkpt><trkpt lat="44.091995" lon="8.08891"><ele>772.9999999999999</ele><time>2026-04-14T16:44:49.987Z</time></trkpt><trkpt lat="44.091995" lon="8.0890183"><ele>769.0</ele><time>2026-04-14T16:44:51.987Z</time></trkpt><trkpt lat="44.091995" lon="8.08915"><ele>765.4999999999999</ele><time>2026-04-14T16:44:53.986Z</time></trkpt><trkpt lat="44.0919767" lon="8.0893017"><ele>762.0</ele><time>2026-04-14T16:44:55.987Z</time></trkpt><trkpt lat="44.091965" lon="8.0894283"><ele>758.5</ele><time>2026-04-14T16:44:57.986Z</time></trkpt><trkpt lat="44.0919333" lon="8.08953"><ele>755.0</ele><time>2026-04-14T16:44:59.987Z</time></trkpt><trkpt lat="44.0918767" lon="8.0896033"><ele>751.5</ele><time>2026-04-14T16:45:02.986Z</time></trkpt><trkpt lat="44.0918283" lon="8.0896633"><ele>748.0</ele><time>2026-04-14T16:45:04.987Z</time></trkpt><trkpt lat="44.0917833" lon="8.0897467"><ele>748.0</ele><time>2026-04-14T16:45:06.986Z</time></trkpt><trkpt lat="44.0917467" lon="8.0898567"><ele>748.0</ele><time>2026-04-14T16:45:08.987Z</time></trkpt><trkpt lat="44.091715" lon="8.0899483"><ele>748.0</ele><time>2026-04-14T16:45:10.987Z</time></trkpt><trkpt lat="44.09167" lon="8.0900217"><ele>748.0</ele><time>2026-04-14T16:45:16.987Z</time></trkpt><trkpt lat="44.091625" lon="8.0901117"><ele>748.0</ele><time>2026-04-14T16:45:42.986Z</time></trkpt><trkpt lat="44.0915517" lon="8.090185"><ele>748.0</ele><time>2026-04-14T16:45:45.986Z</time></trkpt><trkpt lat="44.0915133" lon="8.09026"><ele>740.4</ele><time>2026-04-14T16:45:47.986Z</time></trkpt><trkpt lat="44.0915117" lon="8.090375"><ele>732.8</ele><time>2026-04-14T16:45:50.987Z</time></trkpt><trkpt lat="44.0914883" lon="8.090485"><ele>725.2</ele><time>2026-04-14T16:45:52.986Z</time></trkpt><trkpt lat="44.0914717" lon="8.090635"><ele>717.6</ele><time>2026-04-14T16:45:54.986Z</time></trkpt><trkpt lat="44.0914917" lon="8.090805"><ele>710.0</ele><time>2026-04-14T16:45:56.987Z</time></trkpt><trkpt lat="44.0915033" lon="8.090925"><ele>708.5</ele><time>2026-04-14T16:45:58.987Z</time></trkpt><trkpt lat="44.0915" lon="8.09105"><ele>707.0</ele><time>2026-04-14T16:46:00.986Z</time></trkpt><trkpt lat="44.09148" lon="8.091205"><ele>705.5</ele><time>2026-04-14T16:46:02.987Z</time></trkpt><trkpt lat="44.0914667" lon="8.0913033"><ele>704.0</ele><time>2026-04-14T16:46:03.986Z</time></trkpt><trkpt lat="44.0914533" lon="8.0914133"><ele>702.5</ele><time>2026-04-14T16:46:04.986Z</time></trkpt><trkpt lat="44.0914383" lon="8.0915117"><ele>701.0</ele><time>2026-04-14T16:46:05.986Z</time></trkpt><trkpt lat="44.09142" lon="8.0916083"><ele>698.8333333333333</ele><time>2026-04-14T16:46:06.986Z</time></trkpt><trkpt lat="44.091395" lon="8.0917533"><ele>696.6666666666666</ele><time>2026-04-14T16:46:08.987Z</time></trkpt><trkpt lat="44.09139" lon="8.0918533"><ele>694.5</ele><time>2026-04-14T16:46:10.987Z</time></trkpt><trkpt lat="44.0913833" lon="8.0919467"><ele>692.3333333333334</ele><time>2026-04-14T16:46:14.986Z</time></trkpt><trkpt lat="44.091345" lon="8.092035"><ele>690.1666666666667</ele><time>2026-04-14T16:46:16.986Z</time></trkpt><trkpt lat="44.09128" lon="8.0920917"><ele>688.0</ele><time>2026-04-14T16:46:19.987Z</time></trkpt><trkpt lat="44.0912217" lon="8.0921833"><ele>688.0000000000001</ele><time>2026-04-14T16:46:22.987Z</time></trkpt><trkpt lat="44.0911667" lon="8.0922367"><ele>688.0</ele><time>2026-04-14T16:46:24.986Z</time></trkpt><trkpt lat="44.0911017" lon="8.0922733"><ele>688.0</ele><time>2026-04-14T16:46:26.986Z</time></trkpt><trkpt lat="44.091035" lon="8.092315"><ele>688.0</ele><time>2026-04-14T16:46:28.986Z</time></trkpt><trkpt lat="44.0909883" lon="8.09242"><ele>688.0</ele><time>2026-04-14T16:46:32.987Z</time></trkpt><trkpt lat="44.0909633" lon="8.092505"><ele>688.0000000000001</ele><time>2026-04-14T16:46:36.986Z</time></trkpt><trkpt lat="44.090925" lon="8.0925833"><ele>688.0</ele><time>2026-04-14T16:46:40.987Z</time></trkpt><trkpt lat="44.0908683" lon="8.092675"><ele>686.4285714285714</ele><time>2026-04-14T16:46:43.987Z</time></trkpt><trkpt lat="44.0908217" lon="8.09274"><ele>684.8571428571429</ele><time>2026-04-14T16:46:45.987Z</time></trkpt><trkpt lat="44.090775" lon="8.09282"><ele>683.2857142857142</ele><time>2026-04-14T16:46:48.986Z</time></trkpt><trkpt lat="44.0907417" lon="8.0928983"><ele>681.7142857142858</ele><time>2026-04-14T16:46:50.987Z</time></trkpt><trkpt lat="44.0906917" lon="8.092965"><ele>680.1428571428571</ele><time>2026-04-14T16:46:52.986Z</time></trkpt><trkpt lat="44.0906383" lon="8.09302"><ele>678.5714285714286</ele><time>2026-04-14T16:46:54.987Z</time></trkpt><trkpt lat="44.0905583" lon="8.0930633"><ele>677.0</ele><time>2026-04-14T16:46:56.986Z</time></trkpt><trkpt lat="44.0904733" lon="8.0931117"><ele>673.2</ele><time>2026-04-14T16:46:58.987Z</time></trkpt><trkpt lat="44.090385" lon="8.093205"><ele>669.4000000000001</ele><time>2026-04-14T16:47:00.986Z</time></trkpt><trkpt lat="44.0903083" lon="8.09331"><ele>665.5999999999999</ele><time>2026-04-14T16:47:02.986Z</time></trkpt><trkpt lat="44.0902367" lon="8.0934167"><ele>661.8</ele><time>2026-04-14T16:47:04.987Z</time></trkpt><trkpt lat="44.0901617" lon="8.0935233"><ele>658.0</ele><time>2026-04-14T16:47:06.986Z</time></trkpt><trkpt lat="44.0900833" lon="8.093615"><ele>656.0</ele><time>2026-04-14T16:47:08.986Z</time></trkpt><trkpt lat="44.090055" lon="8.0937133"><ele>654.0</ele><time>2026-04-14T16:47:10.986Z</time></trkpt><trkpt lat="44.090025" lon="8.09385"><ele>652.0</ele><time>2026-04-14T16:47:13.986Z</time></trkpt><trkpt lat="44.0900033" lon="8.0939483"><ele>650.0</ele><time>2026-04-14T16:47:15.986Z</time></trkpt><trkpt lat="44.0899917" lon="8.0940383"><ele>648.0</ele><time>2026-04-14T16:47:17.987Z</time></trkpt><trkpt lat="44.0899867" lon="8.0941533"><ele>646.0</ele><time>2026-04-14T16:47:19.987Z</time></trkpt><trkpt lat="44.0899633" lon="8.0942583"><ele>644.5</ele><time>2026-04-14T16:47:21.987Z</time></trkpt><trkpt lat="44.0899317" lon="8.0943483"><ele>643.0</ele><time>2026-04-14T16:47:23.987Z</time></trkpt><trkpt lat="44.0899017" lon="8.0944433"><ele>641.5</ele><time>2026-04-14T16:47:25.986Z</time></trkpt><trkpt lat="44.0898433" lon="8.0945433"><ele>640.0</ele><time>2026-04-14T16:47:27.986Z</time></trkpt><trkpt lat="44.08981" lon="8.0946217"><ele>638.5</ele><time>2026-04-14T16:47:28.987Z</time></trkpt><trkpt lat="44.08977" lon="8.0947"><ele>637.0</ele><time>2026-04-14T16:47:29.987Z</time></trkpt><trkpt lat="44.089685" lon="8.0948167"><ele>634.0</ele><time>2026-04-14T16:47:31.986Z</time></trkpt><trkpt lat="44.08962" lon="8.0948917"><ele>631.0</ele><time>2026-04-14T16:47:32.986Z</time></trkpt><trkpt lat="44.0895617" lon="8.094975"><ele>628.0</ele><time>2026-04-14T16:47:33.986Z</time></trkpt><trkpt lat="44.0895083" lon="8.09505"><ele>625.0</ele><time>2026-04-14T16:47:34.987Z</time></trkpt><trkpt lat="44.0894633" lon="8.0951267"><ele>622.0</ele><time>2026-04-14T16:47:35.987Z</time></trkpt><trkpt lat="44.0894233" lon="8.0952083"><ele>619.0</ele><time>2026-04-14T16:47:36.987Z</time></trkpt><trkpt lat="44.0893883" lon="8.09532"><ele>619.0</ele><time>2026-04-14T16:47:38.986Z</time></trkpt><trkpt lat="44.089365" lon="8.0954417"><ele>619.0</ele><time>2026-04-14T16:47:41.987Z</time></trkpt><trkpt lat="44.089365" lon="8.0956017"><ele>619.0</ele><time>2026-04-14T16:47:43.987Z</time></trkpt><trkpt lat="44.0893683" lon="8.0957017"><ele>619.0</ele><time>2026-04-14T16:47:44.986Z</time></trkpt><trkpt lat="44.089365" lon="8.0957933"><ele>619.0</ele><time>2026-04-14T16:47:45.986Z</time></trkpt><trkpt lat="44.089385" lon="8.0959367"><ele>619.0</ele><time>2026-04-14T16:47:47.987Z</time></trkpt><trkpt lat="44.089395" lon="8.09605"><ele>619.8</ele><time>2026-04-14T16:47:50.987Z</time></trkpt><trkpt lat="44.0893783" lon="8.096135"><ele>620.5999999999999</ele><time>2026-04-14T16:47:52.986Z</time></trkpt><trkpt lat="44.0893717" lon="8.0962733"><ele>621.4</ele><time>2026-04-14T16:47:55.986Z</time></trkpt><trkpt lat="44.0893517" lon="8.0963933"><ele>622.1999999999999</ele><time>2026-04-14T16:47:57.987Z</time></trkpt><trkpt lat="44.0893433" lon="8.0965317"><ele>623.0</ele><time>2026-04-14T16:47:59.986Z</time></trkpt><trkpt lat="44.0893233" lon="8.09669"><ele>623.0</ele><time>2026-04-14T16:48:01.986Z</time></trkpt><trkpt lat="44.0893133" lon="8.09681"><ele>623.0</ele><time>2026-04-14T16:48:03.987Z</time></trkpt><trkpt lat="44.0893117" lon="8.0969"><ele>623.0</ele><time>2026-04-14T16:48:05.986Z</time></trkpt><trkpt lat="44.089315" lon="8.0969883"><ele>623.0</ele><time>2026-04-14T16:48:08.986Z</time></trkpt><trkpt lat="44.0892733" lon="8.097075"><ele>623.0</ele><time>2026-04-14T16:48:12.986Z</time></trkpt><trkpt lat="44.089275" lon="8.09718"><ele>623.0</ele><time>2026-04-14T16:48:14.987Z</time></trkpt><trkpt lat="44.08927" lon="8.0972683"><ele>623.0</ele><time>2026-04-14T16:48:16.986Z</time></trkpt><trkpt lat="44.08923" lon="8.09735"><ele>622.1666666666666</ele><time>2026-04-14T16:48:44.986Z</time></trkpt><trkpt lat="44.0892283" lon="8.0974483"><ele>621.3333333333333</ele><time>2026-04-14T16:48:47.987Z</time></trkpt><trkpt lat="44.0892567" lon="8.0975517"><ele>620.5</ele><time>2026-04-14T16:48:51.987Z</time></trkpt><trkpt lat="44.0892417" lon="8.0976583"><ele>619.6666666666666</ele><time>2026-04-14T16:48:53.986Z</time></trkpt><trkpt lat="44.0892483" lon="8.0977683"><ele>618.8333333333334</ele><time>2026-04-14T16:48:55.986Z</time></trkpt><trkpt lat="44.089245" lon="8.0978767"><ele>618.0</ele><time>2026-04-14T16:48:57.987Z</time></trkpt><trkpt lat="44.08924" lon="8.0979683"><ele>618.0</ele><time>2026-04-14T16:49:00.987Z</time></trkpt><trkpt lat="44.0891767" lon="8.0980817"><ele>618.0</ele><time>2026-04-14T16:49:36.986Z</time></trkpt><trkpt lat="44.0891217" lon="8.0981617"><ele>618.0</ele><time>2026-04-14T16:49:39.987Z</time></trkpt><trkpt lat="44.0890933" lon="8.0982417"><ele>618.0</ele><time>2026-04-14T16:49:42.986Z</time></trkpt><trkpt lat="44.08902" lon="8.0982683"><ele>618.0</ele><time>2026-04-14T16:49:46.986Z</time></trkpt><trkpt lat="44.0889583" lon="8.0983"><ele>618.0</ele><time>2026-04-14T16:49:50.986Z</time></trkpt><trkpt lat="44.0889083" lon="8.09836"><ele>613.5714285714287</ele><time>2026-04-14T16:49:53.987Z</time></trkpt><trkpt lat="44.08884" lon="8.0984283"><ele>609.1428571428571</ele><time>2026-04-14T16:49:56.986Z</time></trkpt><trkpt lat="44.0887767" lon="8.098475"><ele>604.7142857142858</ele><time>2026-04-14T16:49:59.987Z</time></trkpt><trkpt lat="44.0887083" lon="8.098525"><ele>600.2857142857143</ele><time>2026-04-14T16:50:02.987Z</time></trkpt><trkpt lat="44.0886383" lon="8.0985233"><ele>595.8571428571429</ele><time>2026-04-14T16:50:05.986Z</time></trkpt><trkpt lat="44.0885967" lon="8.0984467"><ele>591.4285714285714</ele><time>2026-04-14T16:50:08.987Z</time></trkpt><trkpt lat="44.08856" lon="8.0983733"><ele>587.0</ele><time>2026-04-14T16:50:10.987Z</time></trkpt><trkpt lat="44.0885" lon="8.098325"><ele>587.0</ele><time>2026-04-14T16:50:13.987Z</time></trkpt><trkpt lat="44.0884917" lon="8.0984233"><ele>587.0</ele><time>2026-04-14T16:50:16.986Z</time></trkpt><trkpt lat="44.0885367" lon="8.0985483"><ele>587.0</ele><time>2026-04-14T16:50:18.986Z</time></trkpt><trkpt lat="44.088565" lon="8.09864"><ele>587.0</ele><time>2026-04-14T16:50:21.986Z</time></trkpt><trkpt lat="44.0884783" lon="8.0986667"><ele>587.0</ele><time>2026-04-14T16:50:26.987Z</time></trkpt><trkpt lat="44.0883583" lon="8.0986567"><ele>583.5</ele><time>2026-04-14T16:50:28.986Z</time></trkpt><trkpt lat="44.0882317" lon="8.0986483"><ele>580.0</ele><time>2026-04-14T16:50:30.986Z</time></trkpt><trkpt lat="44.088165" lon="8.0986483"><ele>576.5</ele><time>2026-04-14T16:50:31.986Z</time></trkpt><trkpt lat="44.0880983" lon="8.09864"><ele>573.0</ele><time>2026-04-14T16:50:32.986Z</time></trkpt><trkpt lat="44.0880333" lon="8.0986233"><ele>569.5</ele><time>2026-04-14T16:50:33.987Z</time></trkpt><trkpt lat="44.0879683" lon="8.0986117"><ele>566.0</ele><time>2026-04-14T16:50:34.986Z</time></trkpt><trkpt lat="44.0878433" lon="8.098585"><ele>566.0</ele><time>2026-04-14T16:50:36.986Z</time></trkpt><trkpt lat="44.08774" lon="8.0985483"><ele>566.0</ele><time>2026-04-14T16:50:38.986Z</time></trkpt><trkpt lat="44.0876567" lon="8.09854"><ele>566.0</ele><time>2026-04-14T16:50:40.986Z</time></trkpt><trkpt lat="44.08766" lon="8.09866"><ele>566.0</ele><time>2026-04-14T16:50:43.986Z</time></trkpt><trkpt lat="44.08775" lon="8.0987917"><ele>566.0</ele><time>2026-04-14T16:50:45.986Z</time></trkpt><trkpt lat="44.0877917" lon="8.0988667"><ele>566.0</ele><time>2026-04-14T16:50:46.987Z</time></trkpt><trkpt lat="44.0878617" lon="8.0990267"><ele>566.0</ele><time>2026-04-14T16:50:48.986Z</time></trkpt><trkpt lat="44.0878933" lon="8.0991317"><ele>566.0</ele><time>2026-04-14T16:50:49.986Z</time></trkpt><trkpt lat="44.0879267" lon="8.0992333"><ele>566.0</ele><time>2026-04-14T16:50:50.986Z</time></trkpt><trkpt lat="44.08796" lon="8.0993367"><ele>566.0</ele><time>2026-04-14T16:50:51.986Z</time></trkpt><trkpt lat="44.087995" lon="8.0994217"><ele>566.0</ele><time>2026-04-14T16:50:52.987Z</time></trkpt><trkpt lat="44.0880233" lon="8.0995183"><ele>563.0</ele><time>2026-04-14T16:50:53.986Z</time></trkpt><trkpt lat="44.0880417" lon="8.09962"><ele>560.0</ele><time>2026-04-14T16:50:54.986Z</time></trkpt><trkpt lat="44.0880633" lon="8.099735"><ele>557.0</ele><time>2026-04-14T16:50:55.986Z</time></trkpt><trkpt lat="44.0880717" lon="8.0998383"><ele>554.0</ele><time>2026-04-14T16:50:56.987Z</time></trkpt><trkpt lat="44.0880817" lon="8.0999317"><ele>551.0</ele><time>2026-04-14T16:50:57.986Z</time></trkpt><trkpt lat="44.0880867" lon="8.1000267"><ele>548.0</ele><time>2026-04-14T16:50:58.986Z</time></trkpt><trkpt lat="44.08807" lon="8.1001917"><ele>543.6</ele><time>2026-04-14T16:51:00.987Z</time></trkpt><trkpt lat="44.08804" lon="8.1002883"><ele>539.1999999999999</ele><time>2026-04-14T16:51:01.987Z</time></trkpt><trkpt lat="44.0879833" lon="8.1003967"><ele>534.8</ele><time>2026-04-14T16:51:02.986Z</time></trkpt><trkpt lat="44.0879267" lon="8.100515"><ele>530.4</ele><time>2026-04-14T16:51:03.986Z</time></trkpt><trkpt lat="44.08788" lon="8.1006333"><ele>526.0</ele><time>2026-04-14T16:51:04.986Z</time></trkpt><trkpt lat="44.0878183" lon="8.1007317"><ele>525.3333333333334</ele><time>2026-04-14T16:51:05.987Z</time></trkpt><trkpt lat="44.0877483" lon="8.10081"><ele>524.6666666666667</ele><time>2026-04-14T16:51:06.986Z</time></trkpt><trkpt lat="44.0876767" lon="8.1008833"><ele>524.0</ele><time>2026-04-14T16:51:07.987Z</time></trkpt><trkpt lat="44.08762" lon="8.1009667"><ele>523.3333333333334</ele><time>2026-04-14T16:51:08.987Z</time></trkpt><trkpt lat="44.0875683" lon="8.10106"><ele>522.6666666666666</ele><time>2026-04-14T16:51:09.986Z</time></trkpt><trkpt lat="44.08752" lon="8.10116"><ele>522.0</ele><time>2026-04-14T16:51:10.986Z</time></trkpt><trkpt lat="44.0874733" lon="8.1012567"><ele>517.1666666666666</ele><time>2026-04-14T16:51:11.987Z</time></trkpt><trkpt lat="44.087425" lon="8.101335"><ele>512.3333333333334</ele><time>2026-04-14T16:51:12.986Z</time></trkpt><trkpt lat="44.0873833" lon="8.1014033"><ele>507.5</ele><time>2026-04-14T16:51:13.986Z</time></trkpt><trkpt lat="44.087285" lon="8.1014933"><ele>502.6666666666667</ele><time>2026-04-14T16:51:15.986Z</time></trkpt><trkpt lat="44.087225" lon="8.101535"><ele>497.83333333333337</ele><time>2026-04-14T16:51:17.986Z</time></trkpt><trkpt lat="44.0871583" lon="8.1015233"><ele>493.0</ele><time>2026-04-14T16:51:46.986Z</time></trkpt><trkpt lat="44.0870967" lon="8.1015567"><ele>496.2</ele><time>2026-04-14T16:51:47.987Z</time></trkpt><trkpt lat="44.08702" lon="8.1016067"><ele>499.4</ele><time>2026-04-14T16:51:48.986Z</time></trkpt><trkpt lat="44.0869333" lon="8.1016817"><ele>502.59999999999997</ele><time>2026-04-14T16:51:49.987Z</time></trkpt><trkpt lat="44.0868533" lon="8.1017767"><ele>505.79999999999995</ele><time>2026-04-14T16:51:50.987Z</time></trkpt><trkpt lat="44.086775" lon="8.10188"><ele>509.0</ele><time>2026-04-14T16:51:51.987Z</time></trkpt><trkpt lat="44.0867083" lon="8.1019783"><ele>509.0</ele><time>2026-04-14T16:51:52.986Z</time></trkpt><trkpt lat="44.0866267" lon="8.1020767"><ele>509.0</ele><time>2026-04-14T16:51:53.987Z</time></trkpt><trkpt lat="44.0865567" lon="8.1021667"><ele>509.0</ele><time>2026-04-14T16:51:54.986Z</time></trkpt><trkpt lat="44.0864733" lon="8.1022567"><ele>509.0</ele><time>2026-04-14T16:51:55.987Z</time></trkpt><trkpt lat="44.0863917" lon="8.1023467"><ele>509.0</ele><time>2026-04-14T16:51:56.987Z</time></trkpt><trkpt lat="44.0863183" lon="8.10241"><ele>510.16666666666663</ele><time>2026-04-14T16:51:57.986Z</time></trkpt><trkpt lat="44.086245" lon="8.1024867"><ele>511.3333333333333</ele><time>2026-04-14T16:51:58.986Z</time></trkpt><trkpt lat="44.08617" lon="8.1025367"><ele>512.5</ele><time>2026-04-14T16:51:59.987Z</time></trkpt><trkpt lat="44.086085" lon="8.102575"><ele>513.6666666666666</ele><time>2026-04-14T16:52:00.987Z</time></trkpt><trkpt lat="44.0860083" lon="8.102585"><ele>514.8333333333334</ele><time>2026-04-14T16:52:01.987Z</time></trkpt><trkpt lat="44.0859233" lon="8.1025833"><ele>516.0</ele><time>2026-04-14T16:52:02.986Z</time></trkpt><trkpt lat="44.0858233" lon="8.1025783"><ele>512.2</ele><time>2026-04-14T16:52:03.986Z</time></trkpt><trkpt lat="44.0857217" lon="8.1025733"><ele>508.40000000000003</ele><time>2026-04-14T16:52:04.986Z</time></trkpt><trkpt lat="44.08561" lon="8.1025633"><ele>504.6</ele><time>2026-04-14T16:52:05.987Z</time></trkpt><trkpt lat="44.085515" lon="8.1025667"><ele>500.8</ele><time>2026-04-14T16:52:06.986Z</time></trkpt><trkpt lat="44.0854183" lon="8.1025617"><ele>497.0</ele><time>2026-04-14T16:52:07.987Z</time></trkpt><trkpt lat="44.08533" lon="8.1025817"><ele>497.0</ele><time>2026-04-14T16:52:08.987Z</time></trkpt><trkpt lat="44.08525" lon="8.1026233"><ele>497.00000000000006</ele><time>2026-04-14T16:52:09.986Z</time></trkpt><trkpt lat="44.08517" lon="8.10268"><ele>497.00000000000006</ele><time>2026-04-14T16:52:10.987Z</time></trkpt><trkpt lat="44.0850933" lon="8.1027317"><ele>497.0</ele><time>2026-04-14T16:52:11.986Z</time></trkpt><trkpt lat="44.0850117" lon="8.10279"><ele>497.0</ele><time>2026-04-14T16:52:12.986Z</time></trkpt><trkpt lat="44.084925" lon="8.1028567"><ele>491.40000000000003</ele><time>2026-04-14T16:52:13.987Z</time></trkpt><trkpt lat="44.0848317" lon="8.1029167"><ele>485.80000000000007</ele><time>2026-04-14T16:52:14.987Z</time></trkpt><trkpt lat="44.0847433" lon="8.1029933"><ele>480.2</ele><time>2026-04-14T16:52:15.986Z</time></trkpt><trkpt lat="44.08466" lon="8.1030767"><ele>474.6</ele><time>2026-04-14T16:52:16.987Z</time></trkpt><trkpt lat="44.0845817" lon="8.103125"><ele>469.0</ele><time>2026-04-14T16:52:17.987Z</time></trkpt><trkpt lat="44.0845167" lon="8.1031733"><ele>469.00000000000006</ele><time>2026-04-14T16:52:18.987Z</time></trkpt><trkpt lat="44.0844633" lon="8.103225"><ele>469.0</ele><time>2026-04-14T16:52:19.986Z</time></trkpt><trkpt lat="44.08445" lon="8.1033267"><ele>469.0</ele><time>2026-04-14T16:52:21.986Z</time></trkpt><trkpt lat="44.0845117" lon="8.1034633"><ele>469.0</ele><time>2026-04-14T16:52:23.986Z</time></trkpt><trkpt lat="44.084585" lon="8.103555"><ele>469.00000000000006</ele><time>2026-04-14T16:52:24.986Z</time></trkpt><trkpt lat="44.0846517" lon="8.10365"><ele>469.0</ele><time>2026-04-14T16:52:25.986Z</time></trkpt><trkpt lat="44.084725" lon="8.1037583"><ele>473.0</ele><time>2026-04-14T16:52:26.986Z</time></trkpt><trkpt lat="44.084805" lon="8.1038667"><ele>477.0</ele><time>2026-04-14T16:52:27.986Z</time></trkpt><trkpt lat="44.08487" lon="8.1039733"><ele>481.0</ele><time>2026-04-14T16:52:28.986Z</time></trkpt><trkpt lat="44.0849383" lon="8.1040783"><ele>485.0</ele><time>2026-04-14T16:52:29.987Z</time></trkpt><trkpt lat="44.0849967" lon="8.1041817"><ele>489.0</ele><time>2026-04-14T16:52:30.986Z</time></trkpt><trkpt lat="44.0850517" lon="8.1042733"><ele>490.2</ele><time>2026-04-14T16:52:31.987Z</time></trkpt><trkpt lat="44.0850933" lon="8.10435"><ele>491.4</ele><time>2026-04-14T16:52:32.987Z</time></trkpt><trkpt lat="44.085145" lon="8.10442"><ele>492.6</ele><time>2026-04-14T16:52:33.986Z</time></trkpt><trkpt lat="44.0851983" lon="8.1044767"><ele>493.8</ele><time>2026-04-14T16:52:34.987Z</time></trkpt><trkpt lat="44.085285" lon="8.1046"><ele>495.0</ele><time>2026-04-14T16:52:36.987Z</time></trkpt><trkpt lat="44.08533" lon="8.10478"><ele>492.1666666666667</ele><time>2026-04-14T16:52:38.987Z</time></trkpt><trkpt lat="44.0853817" lon="8.1049333"><ele>489.33333333333337</ele><time>2026-04-14T16:52:40.986Z</time></trkpt><trkpt lat="44.08538" lon="8.10505"><ele>486.5</ele><time>2026-04-14T16:53:44.986Z</time></trkpt><trkpt lat="44.0853083" lon="8.105165"><ele>483.6666666666667</ele><time>2026-04-14T16:53:51.987Z</time></trkpt><trkpt lat="44.085255" lon="8.1052167"><ele>480.83333333333337</ele><time>2026-04-14T16:53:54.986Z</time></trkpt><trkpt lat="44.0851917" lon="8.105215"><ele>478.0</ele><time>2026-04-14T16:54:02.987Z</time></trkpt><trkpt lat="44.08515" lon="8.1051483"><ele>478.00000000000006</ele><time>2026-04-14T16:54:04.987Z</time></trkpt><trkpt lat="44.0850933" lon="8.105055"><ele>478.0</ele><time>2026-04-14T16:54:06.987Z</time></trkpt><trkpt lat="44.08508" lon="8.10496"><ele>478.0</ele><time>2026-04-14T16:54:08.987Z</time></trkpt><trkpt lat="44.0850533" lon="8.1048383"><ele>478.0</ele><time>2026-04-14T16:54:18.986Z</time></trkpt><trkpt lat="44.08502" lon="8.1049167"><ele>478.00000000000006</ele><time>2026-04-14T16:54:20.987Z</time></trkpt><trkpt lat="44.0849717" lon="8.1050117"><ele>478.0</ele><time>2026-04-14T16:54:24.986Z</time></trkpt><trkpt lat="44.0849117" lon="8.1050817"><ele>472.6666666666667</ele><time>2026-04-14T16:54:29.987Z</time></trkpt><trkpt lat="44.0848617" lon="8.10515"><ele>467.33333333333337</ele><time>2026-04-14T16:54:31.987Z</time></trkpt><trkpt lat="44.08481" lon="8.10522"><ele>462.0</ele><time>2026-04-14T16:54:34.986Z</time></trkpt><trkpt lat="44.0847017" lon="8.10518"><ele>456.66666666666663</ele><time>2026-04-14T16:54:47.986Z</time></trkpt><trkpt lat="44.08463" lon="8.10521"><ele>451.3333333333333</ele><time>2026-04-14T16:54:49.986Z</time></trkpt><trkpt lat="44.0845567" lon="8.1052317"><ele>446.0</ele><time>2026-04-14T16:54:51.987Z</time></trkpt><trkpt lat="44.084485" lon="8.1052167"><ele>445.99999999999994</ele><time>2026-04-14T16:54:55.986Z</time></trkpt><trkpt lat="44.0844017" lon="8.1052067"><ele>446.0</ele><time>2026-04-14T16:54:58.987Z</time></trkpt><trkpt lat="44.0843217" lon="8.1052417"><ele>446.0</ele><time>2026-04-14T16:55:00.986Z</time></trkpt><trkpt lat="44.08426" lon="8.1053033"><ele>446.0</ele><time>2026-04-14T16:55:02.987Z</time></trkpt><trkpt lat="44.0841683" lon="8.1053267"><ele>445.99999999999994</ele><time>2026-04-14T16:55:05.986Z</time></trkpt><trkpt lat="44.0840933" lon="8.10536"><ele>446.0</ele><time>2026-04-14T16:55:07.987Z</time></trkpt><trkpt lat="44.0840017" lon="8.10541"><ele>440.4</ele><time>2026-04-14T16:55:10.986Z</time></trkpt><trkpt lat="44.0839133" lon="8.10548"><ele>434.8</ele><time>2026-04-14T16:55:12.986Z</time></trkpt><trkpt lat="44.0838233" lon="8.1055883"><ele>429.2</ele><time>2026-04-14T16:55:14.986Z</time></trkpt><trkpt lat="44.0837567" lon="8.1056833"><ele>423.59999999999997</ele><time>2026-04-14T16:55:16.986Z</time></trkpt><trkpt lat="44.0836617" lon="8.1057433"><ele>418.0</ele><time>2026-04-14T16:55:24.986Z</time></trkpt><trkpt lat="44.0836183" lon="8.1058283"><ele>418.0</ele><time>2026-04-14T16:55:26.986Z</time></trkpt><trkpt lat="44.0836267" lon="8.10593"><ele>418.0</ele><time>2026-04-14T16:55:28.986Z</time></trkpt><trkpt lat="44.0836083" lon="8.10608"><ele>418.0</ele><time>2026-04-14T16:55:34.986Z</time></trkpt><trkpt lat="44.0835967" lon="8.106205"><ele>418.0</ele><time>2026-04-14T16:55:36.986Z</time></trkpt><trkpt lat="44.0835883" lon="8.10636"><ele>418.0</ele><time>2026-04-14T16:55:38.987Z</time></trkpt><trkpt lat="44.083615" lon="8.1065117"><ele>418.59999999999997</ele><time>2026-04-14T16:55:40.987Z</time></trkpt><trkpt lat="44.083655" lon="8.106655"><ele>419.2</ele><time>2026-04-14T16:55:42.987Z</time></trkpt><trkpt lat="44.0836867" lon="8.1067867"><ele>419.8</ele><time>2026-04-14T16:55:44.986Z</time></trkpt><trkpt lat="44.0836967" lon="8.106915"><ele>420.4</ele><time>2026-04-14T16:55:46.986Z</time></trkpt><trkpt lat="44.0836783" lon="8.1070017"><ele>421.0</ele><time>2026-04-14T16:55:48.986Z</time></trkpt><trkpt lat="44.0835983" lon="8.1070283"><ele>421.0</ele><time>2026-04-14T16:55:51.987Z</time></trkpt><trkpt lat="44.0835133" lon="8.1070017"><ele>421.0</ele><time>2026-04-14T16:55:53.987Z</time></trkpt><trkpt lat="44.083405" lon="8.1069767"><ele>421.0</ele><time>2026-04-14T16:55:55.987Z</time></trkpt><trkpt lat="44.0832933" lon="8.1069167"><ele>421.0</ele><time>2026-04-14T16:55:57.987Z</time></trkpt><trkpt lat="44.08323" lon="8.1069"><ele>421.0</ele><time>2026-04-14T16:55:58.987Z</time></trkpt><trkpt lat="44.0831133" lon="8.1068617"><ele>415.83333333333337</ele><time>2026-04-14T16:56:00.987Z</time></trkpt><trkpt lat="44.083" lon="8.106845"><ele>410.6666666666667</ele><time>2026-04-14T16:56:02.986Z</time></trkpt><trkpt lat="44.0829217" lon="8.1068517"><ele>405.5</ele><time>2026-04-14T16:56:04.986Z</time></trkpt><trkpt lat="44.0829817" lon="8.106775"><ele>400.33333333333337</ele><time>2026-04-14T16:56:22.987Z</time></trkpt><trkpt lat="44.082945" lon="8.106685"><ele>395.1666666666667</ele><time>2026-04-14T16:56:35.987Z</time></trkpt><trkpt lat="44.082875" lon="8.10664"><ele>390.0</ele><time>2026-04-14T16:56:37.986Z</time></trkpt><trkpt lat="44.0827917" lon="8.1065983"><ele>390.0</ele><time>2026-04-14T16:56:39.986Z</time></trkpt><trkpt lat="44.0826883" lon="8.106605"><ele>390.0</ele><time>2026-04-14T16:56:41.987Z</time></trkpt><trkpt lat="44.0826117" lon="8.1066433"><ele>390.0</ele><time>2026-04-14T16:56:43.986Z</time></trkpt><trkpt lat="44.0825433" lon="8.1067433"><ele>390.0</ele><time>2026-04-14T16:56:46.986Z</time></trkpt><trkpt lat="44.0825183" lon="8.10685"><ele>390.0</ele><time>2026-04-14T16:56:48.987Z</time></trkpt><trkpt lat="44.0824633" lon="8.1068967"><ele>390.0</ele><time>2026-04-14T16:56:52.987Z</time></trkpt><trkpt lat="44.0824183" lon="8.106825"><ele>385.8</ele><time>2026-04-14T16:56:54.987Z</time></trkpt><trkpt lat="44.0823483" lon="8.10672"><ele>381.6</ele><time>2026-04-14T16:56:56.987Z</time></trkpt><trkpt lat="44.0822633" lon="8.1066283"><ele>377.4</ele><time>2026-04-14T16:56:58.987Z</time></trkpt><trkpt lat="44.08217" lon="8.1065483"><ele>373.2</ele><time>2026-04-14T16:57:00.987Z</time></trkpt><trkpt lat="44.0820917" lon="8.1064883"><ele>369.0</ele><time>2026-04-14T16:57:02.987Z</time></trkpt><trkpt lat="44.0820167" lon="8.106465"><ele>369.0</ele><time>2026-04-14T16:57:04.986Z</time></trkpt><trkpt lat="44.0819167" lon="8.1064583"><ele>369.0</ele><time>2026-04-14T16:57:06.987Z</time></trkpt><trkpt lat="44.08183" lon="8.10652"><ele>369.0</ele><time>2026-04-14T16:57:08.986Z</time></trkpt><trkpt lat="44.0817517" lon="8.106635"><ele>369.0</ele><time>2026-04-14T16:57:10.986Z</time></trkpt><trkpt lat="44.081665" lon="8.1067367"><ele>369.0</ele><time>2026-04-14T16:57:12.987Z</time></trkpt><trkpt lat="44.0815667" lon="8.1068467"><ele>365.79999999999995</ele><time>2026-04-14T16:57:14.986Z</time></trkpt><trkpt lat="44.0814883" lon="8.106965"><ele>362.59999999999997</ele><time>2026-04-14T16:57:16.986Z</time></trkpt><trkpt lat="44.081435" lon="8.107065"><ele>359.4</ele><time>2026-04-14T16:57:18.987Z</time></trkpt><trkpt lat="44.0813967" lon="8.1071517"><ele>356.2</ele><time>2026-04-14T16:57:20.987Z</time></trkpt><trkpt lat="44.0813633" lon="8.1072767"><ele>353.0</ele><time>2026-04-14T16:57:22.987Z</time></trkpt><trkpt lat="44.0813467" lon="8.1074417"><ele>353.0</ele><time>2026-04-14T16:57:24.986Z</time></trkpt><trkpt lat="44.0812883" lon="8.1075583"><ele>353.0</ele><time>2026-04-14T16:57:26.987Z</time></trkpt><trkpt lat="44.0812283" lon="8.1076133"><ele>353.0</ele><time>2026-04-14T16:57:28.986Z</time></trkpt><trkpt lat="44.0811467" lon="8.1076817"><ele>353.0</ele><time>2026-04-14T16:57:30.986Z</time></trkpt><trkpt lat="44.08104" lon="8.10771"><ele>353.0</ele><time>2026-04-14T16:57:32.987Z</time></trkpt><trkpt lat="44.0809433" lon="8.1077133"><ele>353.0</ele><time>2026-04-14T16:57:34.987Z</time></trkpt><trkpt lat="44.08086" lon="8.1077167"><ele>353.0</ele><time>2026-04-14T16:57:36.986Z</time></trkpt><trkpt lat="44.08077" lon="8.1077467"><ele>353.0</ele><time>2026-04-14T16:57:38.986Z</time></trkpt><trkpt lat="44.0807" lon="8.1077367"><ele>353.0</ele><time>2026-04-14T16:57:40.987Z</time></trkpt><trkpt lat="44.0806367" lon="8.1077567"><ele>353.0</ele><time>2026-04-14T16:57:42.986Z</time></trkpt><trkpt lat="44.08057" lon="8.1078067"><ele>353.0</ele><time>2026-04-14T16:57:44.987Z</time></trkpt><trkpt lat="44.0804983" lon="8.1078983"><ele>348.4</ele><time>2026-04-14T16:57:46.986Z</time></trkpt><trkpt lat="44.0804083" lon="8.1079817"><ele>343.79999999999995</ele><time>2026-04-14T16:57:48.986Z</time></trkpt><trkpt lat="44.0803183" lon="8.10801"><ele>339.2</ele><time>2026-04-14T16:57:50.987Z</time></trkpt><trkpt lat="44.0802717" lon="8.107945"><ele>334.6</ele><time>2026-04-14T16:57:53.986Z</time></trkpt><trkpt lat="44.0801983" lon="8.10788"><ele>330.0</ele><time>2026-04-14T16:57:55.986Z</time></trkpt><trkpt lat="44.0801183" lon="8.1077733"><ele>330.0</ele><time>2026-04-14T16:57:57.987Z</time></trkpt><trkpt lat="44.0800683" lon="8.1076633"><ele>330.0</ele><time>2026-04-14T16:57:59.986Z</time></trkpt><trkpt lat="44.080005" lon="8.1076867"><ele>330.0</ele><time>2026-04-14T16:58:04.986Z</time></trkpt><trkpt lat="44.0800233" lon="8.1077817"><ele>330.0</ele><time>2026-04-14T16:58:07.987Z</time></trkpt><trkpt lat="44.0800317" lon="8.10767"><ele>330.0</ele><time>2026-04-14T16:58:10.987Z</time></trkpt><trkpt lat="44.080015" lon="8.1075683"><ele>330.0</ele><time>2026-04-14T16:58:11.986Z</time></trkpt><trkpt lat="44.079995" lon="8.107465"><ele>326.8</ele><time>2026-04-14T16:58:12.987Z</time></trkpt><trkpt lat="44.0799317" lon="8.1073567"><ele>323.6</ele><time>2026-04-14T16:58:14.986Z</time></trkpt><trkpt lat="44.07985" lon="8.1074417"><ele>320.4</ele><time>2026-04-14T16:58:16.986Z</time></trkpt><trkpt lat="44.0798" lon="8.1074983"><ele>317.2</ele><time>2026-04-14T16:58:17.986Z</time></trkpt><trkpt lat="44.0796667" lon="8.1075133"><ele>314.0</ele><time>2026-04-14T16:58:19.986Z</time></trkpt><trkpt lat="44.079585" lon="8.1074633"><ele>312.2</ele><time>2026-04-14T16:58:20.987Z</time></trkpt><trkpt lat="44.0795017" lon="8.107405"><ele>310.4</ele><time>2026-04-14T16:58:21.987Z</time></trkpt><trkpt lat="44.07942" lon="8.1073567"><ele>308.6</ele><time>2026-04-14T16:58:22.986Z</time></trkpt><trkpt lat="44.0793533" lon="8.1072933"><ele>306.8</ele><time>2026-04-14T16:58:23.986Z</time></trkpt><trkpt lat="44.0793067" lon="8.10721"><ele>305.0</ele><time>2026-04-14T16:58:24.986Z</time></trkpt><trkpt lat="44.079245" lon="8.107055"><ele>305.0</ele><time>2026-04-14T16:58:26.987Z</time></trkpt><trkpt lat="44.0792033" lon="8.1069883"><ele>305.0</ele><time>2026-04-14T16:58:27.987Z</time></trkpt><trkpt lat="44.0791467" lon="8.1069383"><ele>305.0</ele><time>2026-04-14T16:58:28.986Z</time></trkpt><trkpt lat="44.079035" lon="8.1069183"><ele>305.0</ele><time>2026-04-14T16:58:30.986Z</time></trkpt><trkpt lat="44.078915" lon="8.1069217"><ele>305.0</ele><time>2026-04-14T16:58:32.986Z</time></trkpt><trkpt lat="44.0788483" lon="8.1068967"><ele>305.0</ele><time>2026-04-14T16:58:33.986Z</time></trkpt><trkpt lat="44.0787883" lon="8.1068533"><ele>303.5</ele><time>2026-04-14T16:58:34.987Z</time></trkpt><trkpt lat="44.0787217" lon="8.10681"><ele>302.0</ele><time>2026-04-14T16:58:35.987Z</time></trkpt><trkpt lat="44.07865" lon="8.1067817"><ele>300.5</ele><time>2026-04-14T16:58:36.986Z</time></trkpt><trkpt lat="44.0785733" lon="8.106765"><ele>299.0</ele><time>2026-04-14T16:58:37.986Z</time></trkpt><trkpt lat="44.0785017" lon="8.1067467"><ele>297.5</ele><time>2026-04-14T16:58:38.987Z</time></trkpt><trkpt lat="44.0784417" lon="8.1067067"><ele>296.0</ele><time>2026-04-14T16:58:39.986Z</time></trkpt><trkpt lat="44.07837" lon="8.10657"><ele>295.1666666666667</ele><time>2026-04-14T16:58:41.986Z</time></trkpt><trkpt lat="44.0783433" lon="8.1064533"><ele>294.33333333333337</ele><time>2026-04-14T16:58:42.986Z</time></trkpt><trkpt lat="44.07833" lon="8.1063483"><ele>293.5</ele><time>2026-04-14T16:58:43.987Z</time></trkpt><trkpt lat="44.078325" lon="8.1062483"><ele>292.6666666666667</ele><time>2026-04-14T16:58:44.986Z</time></trkpt><trkpt lat="44.0783133" lon="8.1061467"><ele>291.8333333333333</ele><time>2026-04-14T16:58:45.986Z</time></trkpt><trkpt lat="44.0782933" lon="8.106045"><ele>291.0</ele><time>2026-04-14T16:58:46.986Z</time></trkpt><trkpt lat="44.0782683" lon="8.1059633"><ele>289.0</ele><time>2026-04-14T16:58:47.987Z</time></trkpt><trkpt lat="44.0782183" lon="8.1058583"><ele>287.0</ele><time>2026-04-14T16:58:49.986Z</time></trkpt><trkpt lat="44.0781817" lon="8.105775"><ele>285.0</ele><time>2026-04-14T16:58:52.986Z</time></trkpt><trkpt lat="44.0782517" lon="8.10571"><ele>283.0</ele><time>2026-04-14T16:58:54.986Z</time></trkpt><trkpt lat="44.0783183" lon="8.105685"><ele>281.0</ele><time>2026-04-14T16:58:55.986Z</time></trkpt><trkpt lat="44.0783817" lon="8.1056383"><ele>279.0</ele><time>2026-04-14T16:58:56.986Z</time></trkpt><trkpt lat="44.07845" lon="8.1056033"><ele>278.4</ele><time>2026-04-14T16:58:57.986Z</time></trkpt><trkpt lat="44.078515" lon="8.1055767"><ele>277.79999999999995</ele><time>2026-04-14T16:58:58.986Z</time></trkpt><trkpt lat="44.0786367" lon="8.1055683"><ele>277.20000000000005</ele><time>2026-04-14T16:59:00.986Z</time></trkpt><trkpt lat="44.078735" lon="8.1055817"><ele>276.6</ele><time>2026-04-14T16:59:02.987Z</time></trkpt><trkpt lat="44.0788133" lon="8.1055733"><ele>276.0</ele><time>2026-04-14T16:59:05.987Z</time></trkpt><trkpt lat="44.07878" lon="8.10545"><ele>276.0</ele><time>2026-04-14T17:00:48.988Z</time></trkpt><trkpt lat="44.0786917" lon="8.1053833"><ele>276.0</ele><time>2026-04-14T17:00:49.987Z</time></trkpt><trkpt lat="44.0785817" lon="8.1053317"><ele>276.0</ele><time>2026-04-14T17:00:50.988Z</time></trkpt><trkpt lat="44.07847" lon="8.105315"><ele>276.0</ele><time>2026-04-14T17:00:51.987Z</time></trkpt><trkpt lat="44.078365" lon="8.1053183"><ele>276.0</ele><time>2026-04-14T17:00:52.988Z</time></trkpt><trkpt lat="44.0782733" lon="8.105365"><ele>275.40000000000003</ele><time>2026-04-14T17:00:53.987Z</time></trkpt><trkpt lat="44.0782" lon="8.10544"><ele>274.8</ele><time>2026-04-14T17:00:54.988Z</time></trkpt><trkpt lat="44.078135" lon="8.10554"><ele>274.20000000000005</ele><time>2026-04-14T17:00:55.987Z</time></trkpt><trkpt lat="44.0780783" lon="8.1056467"><ele>273.6</ele><time>2026-04-14T17:00:56.988Z</time></trkpt><trkpt lat="44.0780333" lon="8.1057683"><ele>273.0</ele><time>2026-04-14T17:00:57.987Z</time></trkpt><trkpt lat="44.077975" lon="8.1058817"><ele>274.2</ele><time>2026-04-14T17:00:58.987Z</time></trkpt><trkpt lat="44.0779233" lon="8.10601"><ele>275.4</ele><time>2026-04-14T17:00:59.987Z</time></trkpt><trkpt lat="44.0778933" lon="8.1061433"><ele>276.59999999999997</ele><time>2026-04-14T17:01:00.988Z</time></trkpt><trkpt lat="44.077865" lon="8.106275"><ele>277.8</ele><time>2026-04-14T17:01:01.987Z</time></trkpt><trkpt lat="44.0778267" lon="8.106385"><ele>279.0</ele><time>2026-04-14T17:01:02.987Z</time></trkpt><trkpt lat="44.077775" lon="8.1064833"><ele>279.0</ele><time>2026-04-14T17:01:03.987Z</time></trkpt><trkpt lat="44.0777217" lon="8.1065933"><ele>279.0</ele><time>2026-04-14T17:01:04.988Z</time></trkpt><trkpt lat="44.0776667" lon="8.1067017"><ele>279.0</ele><time>2026-04-14T17:01:05.988Z</time></trkpt><trkpt lat="44.0776383" lon="8.10682"><ele>279.0</ele><time>2026-04-14T17:01:06.988Z</time></trkpt><trkpt lat="44.0776283" lon="8.1069383"><ele>279.0</ele><time>2026-04-14T17:01:07.987Z</time></trkpt><trkpt lat="44.0776433" lon="8.1070383"><ele>279.0</ele><time>2026-04-14T17:01:08.987Z</time></trkpt><trkpt lat="44.07767" lon="8.1071533"><ele>279.0</ele><time>2026-04-14T17:01:09.988Z</time></trkpt><trkpt lat="44.0777117" lon="8.1072833"><ele>279.0</ele><time>2026-04-14T17:01:10.988Z</time></trkpt><trkpt lat="44.0777683" lon="8.1074183"><ele>279.0</ele><time>2026-04-14T17:01:11.987Z</time></trkpt><trkpt lat="44.0778233" lon="8.1075517"><ele>279.0</ele><time>2026-04-14T17:01:12.987Z</time></trkpt><trkpt lat="44.0778917" lon="8.10768"><ele>279.0</ele><time>2026-04-14T17:01:13.988Z</time></trkpt><trkpt lat="44.0779683" lon="8.1078217"><ele>278.5</ele><time>2026-04-14T17:01:14.988Z</time></trkpt><trkpt lat="44.0780417" lon="8.1079617"><ele>278.0</ele><time>2026-04-14T17:01:15.987Z</time></trkpt><trkpt lat="44.078115" lon="8.1080917"><ele>277.5</ele><time>2026-04-14T17:01:16.988Z</time></trkpt><trkpt lat="44.0781883" lon="8.1082317"><ele>277.0</ele><time>2026-04-14T17:01:17.988Z</time></trkpt><trkpt lat="44.0782533" lon="8.108375"><ele>278.75</ele><time>2026-04-14T17:01:18.987Z</time></trkpt><trkpt lat="44.07829" lon="8.1085367"><ele>280.5</ele><time>2026-04-14T17:01:19.987Z</time></trkpt><trkpt lat="44.078305" lon="8.1086967"><ele>282.25</ele><time>2026-04-14T17:01:20.988Z</time></trkpt><trkpt lat="44.0783067" lon="8.1088533"><ele>284.0</ele><time>2026-04-14T17:01:21.988Z</time></trkpt><trkpt lat="44.0782933" lon="8.1090183"><ele>280.6666666666667</ele><time>2026-04-14T17:01:22.987Z</time></trkpt><trkpt lat="44.0782667" lon="8.109155"><ele>277.33333333333337</ele><time>2026-04-14T17:01:23.987Z</time></trkpt><trkpt lat="44.0782433" lon="8.1092667"><ele>274.0</ele><time>2026-04-14T17:01:24.988Z</time></trkpt><trkpt lat="44.0782183" lon="8.1094067"><ele>270.6666666666667</ele><time>2026-04-14T17:01:26.988Z</time></trkpt><trkpt lat="44.07818" lon="8.109505"><ele>267.3333333333333</ele><time>2026-04-14T17:01:29.988Z</time></trkpt><trkpt lat="44.0781567" lon="8.109605"><ele>264.0</ele><time>2026-04-14T17:01:32.988Z</time></trkpt><trkpt lat="44.0781183" lon="8.109735"><ele>264.0</ele><time>2026-04-14T17:01:50.988Z</time></trkpt><trkpt lat="44.0780983" lon="8.1098533"><ele>264.0</ele><time>2026-04-14T17:01:51.987Z</time></trkpt><trkpt lat="44.0780867" lon="8.109965"><ele>264.0</ele><time>2026-04-14T17:01:52.987Z</time></trkpt><trkpt lat="44.0780683" lon="8.1100567"><ele>264.0</ele><time>2026-04-14T17:01:54.988Z</time></trkpt><trkpt lat="44.0780117" lon="8.1101367"><ele>264.0</ele><time>2026-04-14T17:04:39.988Z</time></trkpt><trkpt lat="44.0779783" lon="8.1102633"><ele>264.0</ele><time>2026-04-14T17:04:41.988Z</time></trkpt><trkpt lat="44.0779333" lon="8.11041"><ele>264.5</ele><time>2026-04-14T17:04:43.987Z</time></trkpt><trkpt lat="44.0778583" lon="8.110565"><ele>265.0</ele><time>2026-04-14T17:04:45.988Z</time></trkpt><trkpt lat="44.0777967" lon="8.1106783"><ele>265.5</ele><time>2026-04-14T17:04:46.987Z</time></trkpt><trkpt lat="44.0777333" lon="8.1108167"><ele>266.0</ele><time>2026-04-14T17:04:47.988Z</time></trkpt><trkpt lat="44.07766" lon="8.11093"><ele>267.75</ele><time>2026-04-14T17:04:48.987Z</time></trkpt><trkpt lat="44.0775733" lon="8.1110467"><ele>269.5</ele><time>2026-04-14T17:04:49.987Z</time></trkpt><trkpt lat="44.0774733" lon="8.111145"><ele>271.25</ele><time>2026-04-14T17:04:50.987Z</time></trkpt><trkpt lat="44.077375" lon="8.1112517"><ele>273.0</ele><time>2026-04-14T17:04:51.988Z</time></trkpt><trkpt lat="44.0772833" lon="8.1113433"><ele>273.25</ele><time>2026-04-14T17:04:52.988Z</time></trkpt><trkpt lat="44.0771933" lon="8.1114217"><ele>273.5</ele><time>2026-04-14T17:04:53.988Z</time></trkpt><trkpt lat="44.0770933" lon="8.1114917"><ele>273.75</ele><time>2026-04-14T17:04:54.988Z</time></trkpt><trkpt lat="44.076965" lon="8.1115517"><ele>274.0</ele><time>2026-04-14T17:04:55.987Z</time></trkpt><trkpt lat="44.0768133" lon="8.1116167"><ele>274.0</ele><time>2026-04-14T17:04:56.988Z</time></trkpt><trkpt lat="44.076665" lon="8.1116683"><ele>274.0</ele><time>2026-04-14T17:04:57.988Z</time></trkpt><trkpt lat="44.0765417" lon="8.1117183"><ele>274.0</ele><time>2026-04-14T17:04:58.987Z</time></trkpt><trkpt lat="44.07643" lon="8.11176"><ele>274.0</ele><time>2026-04-14T17:04:59.987Z</time></trkpt><trkpt lat="44.0763383" lon="8.1118317"><ele>270.66666666666663</ele><time>2026-04-14T17:05:00.988Z</time></trkpt><trkpt lat="44.0762633" lon="8.111915"><ele>267.3333333333333</ele><time>2026-04-14T17:05:01.987Z</time></trkpt><trkpt lat="44.0762167" lon="8.11202"><ele>264.0</ele><time>2026-04-14T17:05:02.987Z</time></trkpt><trkpt lat="44.0761967" lon="8.1121433"><ele>260.6666666666667</ele><time>2026-04-14T17:05:03.987Z</time></trkpt><trkpt lat="44.0762167" lon="8.1122567"><ele>257.33333333333337</ele><time>2026-04-14T17:05:04.988Z</time></trkpt><trkpt lat="44.0762483" lon="8.1123517"><ele>254.0</ele><time>2026-04-14T17:05:05.987Z</time></trkpt><trkpt lat="44.0763417" lon="8.1124517"><ele>253.75</ele><time>2026-04-14T17:05:06.987Z</time></trkpt><trkpt lat="44.076455" lon="8.1125267"><ele>253.5</ele><time>2026-04-14T17:05:07.988Z</time></trkpt><trkpt lat="44.0765717" lon="8.112585"><ele>253.25</ele><time>2026-04-14T17:05:08.988Z</time></trkpt><trkpt lat="44.0767017" lon="8.1126383"><ele>253.0</ele><time>2026-04-14T17:05:09.987Z</time></trkpt><trkpt lat="44.0768233" lon="8.1126967"><ele>258.5</ele><time>2026-04-14T17:05:10.987Z</time></trkpt><trkpt lat="44.0769567" lon="8.112765"><ele>264.0</ele><time>2026-04-14T17:05:11.988Z</time></trkpt><trkpt lat="44.0770783" lon="8.1128433"><ele>269.5</ele><time>2026-04-14T17:05:12.988Z</time></trkpt><trkpt lat="44.0771967" lon="8.1129183"><ele>275.0</ele><time>2026-04-14T17:05:13.988Z</time></trkpt><trkpt lat="44.0772933" lon="8.1129717"><ele>275.0</ele><time>2026-04-14T17:05:14.988Z</time></trkpt><trkpt lat="44.077395" lon="8.1130083"><ele>275.0</ele><time>2026-04-14T17:05:15.987Z</time></trkpt><trkpt lat="44.0775083" lon="8.11303"><ele>275.0</ele><time>2026-04-14T17:05:16.988Z</time></trkpt><trkpt lat="44.0776267" lon="8.1130033"><ele>275.0</ele><time>2026-04-14T17:05:17.988Z</time></trkpt><trkpt lat="44.077755" lon="8.1129583"><ele>276.2</ele><time>2026-04-14T17:05:18.987Z</time></trkpt><trkpt lat="44.0778833" lon="8.1128883"><ele>277.4</ele><time>2026-04-14T17:05:19.988Z</time></trkpt><trkpt lat="44.0779733" lon="8.1128167"><ele>278.6</ele><time>2026-04-14T17:05:20.987Z</time></trkpt><trkpt lat="44.078055" lon="8.112755"><ele>279.8</ele><time>2026-04-14T17:05:21.987Z</time></trkpt><trkpt lat="44.0781333" lon="8.1127167"><ele>281.0</ele><time>2026-04-14T17:05:22.987Z</time></trkpt><trkpt lat="44.078215" lon="8.112705"><ele>282.40000000000003</ele><time>2026-04-14T17:05:23.988Z</time></trkpt><trkpt lat="44.0783067" lon="8.1127183"><ele>283.8</ele><time>2026-04-14T17:05:24.987Z</time></trkpt><trkpt lat="44.0783983" lon="8.1127983"><ele>285.20000000000005</ele><time>2026-04-14T17:05:25.988Z</time></trkpt><trkpt lat="44.0785067" lon="8.1128667"><ele>286.6</ele><time>2026-04-14T17:05:26.988Z</time></trkpt><trkpt lat="44.0786167" lon="8.11292"><ele>288.0</ele><time>2026-04-14T17:05:27.987Z</time></trkpt><trkpt lat="44.0787267" lon="8.1129367"><ele>288.0</ele><time>2026-04-14T17:05:28.987Z</time></trkpt><trkpt lat="44.0788183" lon="8.1129217"><ele>288.0</ele><time>2026-04-14T17:05:29.987Z</time></trkpt><trkpt lat="44.0788867" lon="8.112925"><ele>288.0</ele><time>2026-04-14T17:05:30.988Z</time></trkpt><trkpt lat="44.0789517" lon="8.1129817"><ele>288.0</ele><time>2026-04-14T17:05:31.987Z</time></trkpt><trkpt lat="44.0789767" lon="8.1130833"><ele>288.0</ele><time>2026-04-14T17:05:32.988Z</time></trkpt><trkpt lat="44.0789633" lon="8.1132"><ele>288.0</ele><time>2026-04-14T17:05:33.988Z</time></trkpt><trkpt lat="44.07892" lon="8.113335"><ele>282.5</ele><time>2026-04-14T17:05:34.987Z</time></trkpt><trkpt lat="44.0788667" lon="8.1134767"><ele>277.0</ele><time>2026-04-14T17:05:35.988Z</time></trkpt><trkpt lat="44.0788083" lon="8.113635"><ele>271.5</ele><time>2026-04-14T17:05:36.987Z</time></trkpt><trkpt lat="44.07876" lon="8.113785"><ele>266.0</ele><time>2026-04-14T17:05:37.987Z</time></trkpt><trkpt lat="44.0787283" lon="8.1139433"><ele>266.0</ele><time>2026-04-14T17:05:38.988Z</time></trkpt><trkpt lat="44.0786883" lon="8.1140933"><ele>266.0</ele><time>2026-04-14T17:05:39.987Z</time></trkpt><trkpt lat="44.0786083" lon="8.1142183"><ele>266.0</ele><time>2026-04-14T17:05:40.988Z</time></trkpt><trkpt lat="44.07852" lon="8.1143117"><ele>266.0</ele><time>2026-04-14T17:05:41.988Z</time></trkpt><trkpt lat="44.078415" lon="8.1143833"><ele>266.0</ele><time>2026-04-14T17:05:42.987Z</time></trkpt><trkpt lat="44.0783" lon="8.1144167"><ele>266.0</ele><time>2026-04-14T17:05:43.988Z</time></trkpt><trkpt lat="44.078195" lon="8.1144733"><ele>266.0</ele><time>2026-04-14T17:05:44.988Z</time></trkpt><trkpt lat="44.0780933" lon="8.1145467"><ele>266.0</ele><time>2026-04-14T17:05:45.988Z</time></trkpt><trkpt lat="44.07801" lon="8.1146517"><ele>263.0</ele><time>2026-04-14T17:05:46.987Z</time></trkpt><trkpt lat="44.07793" lon="8.1148117"><ele>260.0</ele><time>2026-04-14T17:05:47.987Z</time></trkpt><trkpt lat="44.0778433" lon="8.1149767"><ele>257.0</ele><time>2026-04-14T17:05:48.988Z</time></trkpt><trkpt lat="44.0777617" lon="8.1151533"><ele>254.0</ele><time>2026-04-14T17:05:49.988Z</time></trkpt><trkpt lat="44.0776733" lon="8.1153083"><ele>254.0</ele><time>2026-04-14T17:05:50.987Z</time></trkpt><trkpt lat="44.0775717" lon="8.115425"><ele>254.0</ele><time>2026-04-14T17:05:51.987Z</time></trkpt><trkpt lat="44.0774783" lon="8.1155483"><ele>254.0</ele><time>2026-04-14T17:05:52.988Z</time></trkpt><trkpt lat="44.0773833" lon="8.1156733"><ele>254.0</ele><time>2026-04-14T17:05:53.988Z</time></trkpt><trkpt lat="44.07729" lon="8.1158233"><ele>253.0</ele><time>2026-04-14T17:05:54.988Z</time></trkpt><trkpt lat="44.0772067" lon="8.115965"><ele>252.0</ele><time>2026-04-14T17:05:55.987Z</time></trkpt><trkpt lat="44.077105" lon="8.1160733"><ele>251.0</ele><time>2026-04-14T17:05:56.988Z</time></trkpt><trkpt lat="44.0769833" lon="8.1161583"><ele>250.0</ele><time>2026-04-14T17:05:57.988Z</time></trkpt><trkpt lat="44.0768517" lon="8.1162317"><ele>250.0</ele><time>2026-04-14T17:05:58.987Z</time></trkpt><trkpt lat="44.0767283" lon="8.1162867"><ele>250.0</ele><time>2026-04-14T17:05:59.988Z</time></trkpt><trkpt lat="44.0766217" lon="8.1163567"><ele>250.0</ele><time>2026-04-14T17:06:00.987Z</time></trkpt><trkpt lat="44.0765467" lon="8.116445"><ele>250.0</ele><time>2026-04-14T17:06:01.988Z</time></trkpt><trkpt lat="44.0765167" lon="8.1165533"><ele>250.0</ele><time>2026-04-14T17:06:02.987Z</time></trkpt><trkpt lat="44.07652" lon="8.1166767"><ele>249.25</ele><time>2026-04-14T17:06:03.987Z</time></trkpt><trkpt lat="44.0765333" lon="8.116835"><ele>248.5</ele><time>2026-04-14T17:06:04.988Z</time></trkpt><trkpt lat="44.076555" lon="8.1170017"><ele>247.75</ele><time>2026-04-14T17:06:05.987Z</time></trkpt><trkpt lat="44.0765517" lon="8.1171817"><ele>247.0</ele><time>2026-04-14T17:06:06.987Z</time></trkpt><trkpt lat="44.0765533" lon="8.1173567"><ele>246.5</ele><time>2026-04-14T17:06:07.988Z</time></trkpt><trkpt lat="44.076545" lon="8.1175317"><ele>246.0</ele><time>2026-04-14T17:06:08.987Z</time></trkpt><trkpt lat="44.0765483" lon="8.117695"><ele>245.5</ele><time>2026-04-14T17:06:09.987Z</time></trkpt><trkpt lat="44.076565" lon="8.1178533"><ele>245.0</ele><time>2026-04-14T17:06:10.988Z</time></trkpt><trkpt lat="44.076575" lon="8.1180067"><ele>245.0</ele><time>2026-04-14T17:06:11.987Z</time></trkpt><trkpt lat="44.0765867" lon="8.118155"><ele>245.0</ele><time>2026-04-14T17:06:12.988Z</time></trkpt><trkpt lat="44.076625" lon="8.1183033"><ele>245.0</ele><time>2026-04-14T17:06:13.988Z</time></trkpt><trkpt lat="44.0766833" lon="8.118425"><ele>245.0</ele><time>2026-04-14T17:06:14.987Z</time></trkpt><trkpt lat="44.0767533" lon="8.118525"><ele>245.0</ele><time>2026-04-14T17:06:15.987Z</time></trkpt><trkpt lat="44.0767817" lon="8.118625"><ele>245.25</ele><time>2026-04-14T17:06:16.987Z</time></trkpt><trkpt lat="44.0767817" lon="8.1187517"><ele>245.5</ele><time>2026-04-14T17:06:17.987Z</time></trkpt><trkpt lat="44.0767433" lon="8.1188817"><ele>245.75</ele><time>2026-04-14T17:06:18.988Z</time></trkpt><trkpt lat="44.07664" lon="8.1189733"><ele>246.0</ele><time>2026-04-14T17:06:19.987Z</time></trkpt><trkpt lat="44.0765067" lon="8.1190467"><ele>248.0</ele><time>2026-04-14T17:06:20.988Z</time></trkpt><trkpt lat="44.076375" lon="8.119095"><ele>250.0</ele><time>2026-04-14T17:06:21.988Z</time></trkpt><trkpt lat="44.0762517" lon="8.11913"><ele>252.0</ele><time>2026-04-14T17:06:22.987Z</time></trkpt><trkpt lat="44.0761267" lon="8.11917"><ele>254.0</ele><time>2026-04-14T17:06:23.987Z</time></trkpt><trkpt lat="44.075995" lon="8.1192"><ele>254.0</ele><time>2026-04-14T17:06:24.988Z</time></trkpt><trkpt lat="44.0758583" lon="8.1192283"><ele>254.0</ele><time>2026-04-14T17:06:25.987Z</time></trkpt><trkpt lat="44.0757133" lon="8.119255"><ele>254.0</ele><time>2026-04-14T17:06:26.987Z</time></trkpt><trkpt lat="44.0755633" lon="8.1192733"><ele>254.0</ele><time>2026-04-14T17:06:27.988Z</time></trkpt><trkpt lat="44.0753983" lon="8.1192867"><ele>252.0</ele><time>2026-04-14T17:06:28.987Z</time></trkpt><trkpt lat="44.0752367" lon="8.1192833"><ele>250.0</ele><time>2026-04-14T17:06:29.988Z</time></trkpt><trkpt lat="44.07509" lon="8.1192667"><ele>248.0</ele><time>2026-04-14T17:06:30.988Z</time></trkpt><trkpt lat="44.0749567" lon="8.1192633"><ele>246.0</ele><time>2026-04-14T17:06:31.988Z</time></trkpt><trkpt lat="44.0748267" lon="8.119285"><ele>243.60000000000002</ele><time>2026-04-14T17:06:32.987Z</time></trkpt><trkpt lat="44.074705" lon="8.1193283"><ele>241.20000000000002</ele><time>2026-04-14T17:06:33.987Z</time></trkpt><trkpt lat="44.07461" lon="8.11937"><ele>238.79999999999998</ele><time>2026-04-14T17:06:34.987Z</time></trkpt><trkpt lat="44.0745283" lon="8.1193817"><ele>236.39999999999998</ele><time>2026-04-14T17:06:35.987Z</time></trkpt><trkpt lat="44.074475" lon="8.11926"><ele>234.0</ele><time>2026-04-14T17:06:37.987Z</time></trkpt><trkpt lat="44.0745383" lon="8.1191783"><ele>234.0</ele><time>2026-04-14T17:06:38.987Z</time></trkpt><trkpt lat="44.0746183" lon="8.1190933"><ele>234.0</ele><time>2026-04-14T17:06:39.987Z</time></trkpt><trkpt lat="44.0747417" lon="8.1190233"><ele>234.0</ele><time>2026-04-14T17:06:40.987Z</time></trkpt><trkpt lat="44.0748733" lon="8.1189783"><ele>234.0</ele><time>2026-04-14T17:06:41.988Z</time></trkpt><trkpt lat="44.0749933" lon="8.1189533"><ele>233.0</ele><time>2026-04-14T17:06:42.988Z</time></trkpt><trkpt lat="44.07509" lon="8.118925"><ele>231.99999999999997</ele><time>2026-04-14T17:06:43.988Z</time></trkpt><trkpt lat="44.0751633" lon="8.1188883"><ele>230.99999999999997</ele><time>2026-04-14T17:06:44.988Z</time></trkpt><trkpt lat="44.075175" lon="8.1187283"><ele>230.0</ele><time>2026-04-14T17:06:46.987Z</time></trkpt><trkpt lat="44.0751067" lon="8.1186467"><ele>229.0</ele><time>2026-04-14T17:06:47.988Z</time></trkpt><trkpt lat="44.0750033" lon="8.1186"><ele>226.75</ele><time>2026-04-14T17:06:48.987Z</time></trkpt><trkpt lat="44.0748833" lon="8.11859"><ele>224.5</ele><time>2026-04-14T17:06:49.987Z</time></trkpt><trkpt lat="44.0747533" lon="8.118585"><ele>222.25</ele><time>2026-04-14T17:06:50.988Z</time></trkpt><trkpt lat="44.07463" lon="8.118595"><ele>220.0</ele><time>2026-04-14T17:06:51.987Z</time></trkpt><trkpt lat="44.0745117" lon="8.1186367"><ele>220.0</ele><time>2026-04-14T17:06:52.987Z</time></trkpt><trkpt lat="44.074385" lon="8.1187183"><ele>220.0</ele><time>2026-04-14T17:06:53.987Z</time></trkpt><trkpt lat="44.0742433" lon="8.1188133"><ele>220.0</ele><time>2026-04-14T17:06:54.987Z</time></trkpt><trkpt lat="44.0740967" lon="8.1189167"><ele>218.66666666666666</ele><time>2026-04-14T17:06:55.988Z</time></trkpt><trkpt lat="44.073935" lon="8.119025"><ele>217.33333333333331</ele><time>2026-04-14T17:06:56.988Z</time></trkpt><trkpt lat="44.0737867" lon="8.1191233"><ele>216.0</ele><time>2026-04-14T17:06:57.987Z</time></trkpt><trkpt lat="44.0736367" lon="8.1192233"><ele>216.0</ele><time>2026-04-14T17:06:58.987Z</time></trkpt><trkpt lat="44.0734983" lon="8.11933"><ele>216.0</ele><time>2026-04-14T17:06:59.988Z</time></trkpt><trkpt lat="44.0733667" lon="8.11943"><ele>216.0</ele><time>2026-04-14T17:07:00.987Z</time></trkpt><trkpt lat="44.0732433" lon="8.1195333"><ele>213.75</ele><time>2026-04-14T17:07:01.987Z</time></trkpt><trkpt lat="44.073135" lon="8.11967"><ele>211.5</ele><time>2026-04-14T17:07:02.987Z</time></trkpt><trkpt lat="44.0730333" lon="8.1197733"><ele>209.25</ele><time>2026-04-14T17:07:03.988Z</time></trkpt><trkpt lat="44.07294" lon="8.1198717"><ele>207.0</ele><time>2026-04-14T17:07:04.987Z</time></trkpt><trkpt lat="44.0728783" lon="8.1199817"><ele>207.0</ele><time>2026-04-14T17:07:05.988Z</time></trkpt><trkpt lat="44.0728883" lon="8.12013"><ele>207.0</ele><time>2026-04-14T17:07:06.987Z</time></trkpt><trkpt lat="44.07292" lon="8.1202467"><ele>207.0</ele><time>2026-04-14T17:07:07.988Z</time></trkpt><trkpt lat="44.0729783" lon="8.1203433"><ele>207.0</ele><time>2026-04-14T17:07:08.987Z</time></trkpt><trkpt lat="44.0730417" lon="8.120415"><ele>207.0</ele><time>2026-04-14T17:07:09.988Z</time></trkpt><trkpt lat="44.07313" lon="8.1204383"><ele>207.0</ele><time>2026-04-14T17:07:10.988Z</time></trkpt><trkpt lat="44.0732167" lon="8.1204267"><ele>207.0</ele><time>2026-04-14T17:07:11.988Z</time></trkpt><trkpt lat="44.0732917" lon="8.120375"><ele>207.0</ele><time>2026-04-14T17:07:12.987Z</time></trkpt><trkpt lat="44.0734017" lon="8.1203517"><ele>207.0</ele><time>2026-04-14T17:07:14.987Z</time></trkpt><trkpt lat="44.073365" lon="8.1204583"><ele>207.0</ele><time>2026-04-14T17:07:17.988Z</time></trkpt><trkpt lat="44.07329" lon="8.120495"><ele>207.0</ele><time>2026-04-14T17:07:18.987Z</time></trkpt><trkpt lat="44.07319" lon="8.1205167"><ele>207.0</ele><time>2026-04-14T17:07:19.987Z</time></trkpt><trkpt lat="44.07308" lon="8.1205383"><ele>207.0</ele><time>2026-04-14T17:07:20.987Z</time></trkpt><trkpt lat="44.0729533" lon="8.1205667"><ele>207.0</ele><time>2026-04-14T17:07:21.987Z</time></trkpt><trkpt lat="44.07285" lon="8.1205917"><ele>207.0</ele><time>2026-04-14T17:07:22.987Z</time></trkpt><trkpt lat="44.0727567" lon="8.1205967"><ele>207.0</ele><time>2026-04-14T17:07:23.988Z</time></trkpt><trkpt lat="44.072675" lon="8.1205783"><ele>207.0</ele><time>2026-04-14T17:07:24.988Z</time></trkpt><trkpt lat="44.0726033" lon="8.1205367"><ele>207.0</ele><time>2026-04-14T17:07:25.987Z</time></trkpt><trkpt lat="44.0725283" lon="8.1205433"><ele>207.0</ele><time>2026-04-14T17:07:26.988Z</time></trkpt><trkpt lat="44.0724783" lon="8.1206367"><ele>207.0</ele><time>2026-04-14T17:07:28.987Z</time></trkpt><trkpt lat="44.0724883" lon="8.1207383"><ele>207.0</ele><time>2026-04-14T17:07:30.987Z</time></trkpt><trkpt lat="44.0726117" lon="8.12077"><ele>207.0</ele><time>2026-04-14T17:07:31.988Z</time></trkpt><trkpt lat="44.0727083" lon="8.1207967"><ele>207.0</ele><time>2026-04-14T17:07:32.987Z</time></trkpt><trkpt lat="44.0728117" lon="8.1208117"><ele>207.0</ele><time>2026-04-14T17:07:33.987Z</time></trkpt><trkpt lat="44.07295" lon="8.120815"><ele>207.0</ele><time>2026-04-14T17:07:34.987Z</time></trkpt><trkpt lat="44.073105" lon="8.1208117"><ele>207.0</ele><time>2026-04-14T17:07:35.987Z</time></trkpt><trkpt lat="44.073265" lon="8.120785"><ele>206.39999999999998</ele><time>2026-04-14T17:07:36.988Z</time></trkpt><trkpt lat="44.073415" lon="8.1207617"><ele>205.79999999999998</ele><time>2026-04-14T17:07:37.988Z</time></trkpt><trkpt lat="44.0735233" lon="8.1207233"><ele>205.2</ele><time>2026-04-14T17:07:38.988Z</time></trkpt><trkpt lat="44.0736083" lon="8.1206617"><ele>204.6</ele><time>2026-04-14T17:07:39.987Z</time></trkpt><trkpt lat="44.0736767" lon="8.1206483"><ele>204.0</ele><time>2026-04-14T17:07:40.988Z</time></trkpt><trkpt lat="44.0737417" lon="8.1206383"><ele>204.0</ele><time>2026-04-14T17:07:41.987Z</time></trkpt><trkpt lat="44.07372" lon="8.1207617"><ele>204.0</ele><time>2026-04-14T17:07:43.987Z</time></trkpt><trkpt lat="44.0735783" lon="8.1208633"><ele>204.0</ele><time>2026-04-14T17:07:45.987Z</time></trkpt><trkpt lat="44.0734817" lon="8.1209083"><ele>204.0</ele><time>2026-04-14T17:07:46.988Z</time></trkpt><trkpt lat="44.0733683" lon="8.1209617"><ele>204.75</ele><time>2026-04-14T17:07:47.987Z</time></trkpt><trkpt lat="44.0732267" lon="8.1210483"><ele>205.5</ele><time>2026-04-14T17:07:48.987Z</time></trkpt><trkpt lat="44.07309" lon="8.1211217"><ele>206.25</ele><time>2026-04-14T17:07:49.988Z</time></trkpt><trkpt lat="44.0729567" lon="8.121175"><ele>207.0</ele><time>2026-04-14T17:07:50.987Z</time></trkpt><trkpt lat="44.0728383" lon="8.1212483"><ele>207.0</ele><time>2026-04-14T17:07:51.988Z</time></trkpt><trkpt lat="44.0727383" lon="8.1213517"><ele>207.0</ele><time>2026-04-14T17:07:52.988Z</time></trkpt><trkpt lat="44.0726467" lon="8.1214567"><ele>207.0</ele><time>2026-04-14T17:07:53.988Z</time></trkpt><trkpt lat="44.0725183" lon="8.1215433"><ele>207.0</ele><time>2026-04-14T17:07:54.987Z</time></trkpt><trkpt lat="44.0724083" lon="8.1216267"><ele>202.5</ele><time>2026-04-14T17:07:55.987Z</time></trkpt><trkpt lat="44.072285" lon="8.1217117"><ele>198.0</ele><time>2026-04-14T17:07:56.987Z</time></trkpt><trkpt lat="44.0721517" lon="8.1217817"><ele>193.5</ele><time>2026-04-14T17:07:57.987Z</time></trkpt><trkpt lat="44.0720333" lon="8.1218417"><ele>189.0</ele><time>2026-04-14T17:07:58.988Z</time></trkpt><trkpt lat="44.071925" lon="8.1218967"><ele>189.0</ele><time>2026-04-14T17:07:59.988Z</time></trkpt><trkpt lat="44.071815" lon="8.1219717"><ele>189.0</ele><time>2026-04-14T17:08:00.987Z</time></trkpt><trkpt lat="44.0717083" lon="8.1220283"><ele>189.0</ele><time>2026-04-14T17:08:01.987Z</time></trkpt><trkpt lat="44.07161" lon="8.1220817"><ele>189.0</ele><time>2026-04-14T17:08:02.988Z</time></trkpt><trkpt lat="44.071505" lon="8.1220967"><ele>189.0</ele><time>2026-04-14T17:08:03.987Z</time></trkpt><trkpt lat="44.0713867" lon="8.12209"><ele>185.5</ele><time>2026-04-14T17:08:04.988Z</time></trkpt><trkpt lat="44.0712667" lon="8.1220633"><ele>182.0</ele><time>2026-04-14T17:08:05.987Z</time></trkpt><trkpt lat="44.0711517" lon="8.1219667"><ele>178.5</ele><time>2026-04-14T17:08:06.988Z</time></trkpt><trkpt lat="44.0710367" lon="8.1218533"><ele>175.0</ele><time>2026-04-14T17:08:07.988Z</time></trkpt><trkpt lat="44.0709217" lon="8.12173"><ele>175.0</ele><time>2026-04-14T17:08:08.987Z</time></trkpt><trkpt lat="44.0708033" lon="8.1216067"><ele>175.0</ele><time>2026-04-14T17:08:09.988Z</time></trkpt><trkpt lat="44.0706783" lon="8.12151"><ele>175.0</ele><time>2026-04-14T17:08:10.988Z</time></trkpt><trkpt lat="44.0705583" lon="8.1214333"><ele>175.0</ele><time>2026-04-14T17:08:11.988Z</time></trkpt><trkpt lat="44.0704533" lon="8.1213617"><ele>172.8</ele><time>2026-04-14T17:08:12.987Z</time></trkpt><trkpt lat="44.07036" lon="8.1212817"><ele>170.6</ele><time>2026-04-14T17:08:13.988Z</time></trkpt><trkpt lat="44.0702917" lon="8.1211833"><ele>168.39999999999998</ele><time>2026-04-14T17:08:14.988Z</time></trkpt><trkpt lat="44.0702283" lon="8.1210967"><ele>166.2</ele><time>2026-04-14T17:08:15.988Z</time></trkpt><trkpt lat="44.07016" lon="8.1210317"><ele>164.0</ele><time>2026-04-14T17:08:16.987Z</time></trkpt><trkpt lat="44.0700883" lon="8.12099"><ele>164.0</ele><time>2026-04-14T17:08:17.987Z</time></trkpt><trkpt lat="44.0700083" lon="8.1209683"><ele>164.0</ele><time>2026-04-14T17:08:18.987Z</time></trkpt><trkpt lat="44.069925" lon="8.1209817"><ele>164.0</ele><time>2026-04-14T17:08:19.987Z</time></trkpt><trkpt lat="44.0698417" lon="8.1210267"><ele>164.0</ele><time>2026-04-14T17:08:20.987Z</time></trkpt><trkpt lat="44.0697617" lon="8.1211033"><ele>164.0</ele><time>2026-04-14T17:08:21.988Z</time></trkpt><trkpt lat="44.0697033" lon="8.1212"><ele>164.0</ele><time>2026-04-14T17:08:22.987Z</time></trkpt><trkpt lat="44.069645" lon="8.1212933"><ele>162.83333333333331</ele><time>2026-04-14T17:08:23.987Z</time></trkpt><trkpt lat="44.069575" lon="8.1213733"><ele>161.66666666666666</ele><time>2026-04-14T17:08:24.987Z</time></trkpt><trkpt lat="44.0694883" lon="8.1214233"><ele>160.5</ele><time>2026-04-14T17:08:25.988Z</time></trkpt><trkpt lat="44.0694" lon="8.1214633"><ele>159.33333333333334</ele><time>2026-04-14T17:08:26.988Z</time></trkpt><trkpt lat="44.069315" lon="8.1214783"><ele>158.16666666666669</ele><time>2026-04-14T17:08:27.987Z</time></trkpt><trkpt lat="44.0692367" lon="8.1214733"><ele>157.0</ele><time>2026-04-14T17:08:28.988Z</time></trkpt><trkpt lat="44.0691967" lon="8.1213933"><ele>157.0</ele><time>2026-04-14T17:08:31.988Z</time></trkpt><trkpt lat="44.0692167" lon="8.1212417"><ele>157.0</ele><time>2026-04-14T17:08:37.988Z</time></trkpt><trkpt lat="44.0691733" lon="8.1211483"><ele>157.0</ele><time>2026-04-14T17:08:39.988Z</time></trkpt><trkpt lat="44.0692683" lon="8.1211117"><ele>157.0</ele><time>2026-04-14T17:08:45.988Z</time></trkpt><trkpt lat="44.0693783" lon="8.121145"><ele>157.0</ele><time>2026-04-14T17:08:47.987Z</time></trkpt><trkpt lat="44.069475" lon="8.1210833"><ele>157.0</ele><time>2026-04-14T17:08:49.987Z</time></trkpt><trkpt lat="44.0695783" lon="8.1209817"><ele>157.0</ele><time>2026-04-14T17:08:51.988Z</time></trkpt><trkpt lat="44.0696133" lon="8.12085"><ele>157.0</ele><time>2026-04-14T17:08:52.987Z</time></trkpt><trkpt lat="44.0696567" lon="8.1207117"><ele>157.0</ele><time>2026-04-14T17:08:53.988Z</time></trkpt><trkpt lat="44.0696967" lon="8.1205633"><ele>154.4</ele><time>2026-04-14T17:08:54.987Z</time></trkpt><trkpt lat="44.0697383" lon="8.1204467"><ele>151.79999999999998</ele><time>2026-04-14T17:08:55.987Z</time></trkpt><trkpt lat="44.0697633" lon="8.120295"><ele>149.2</ele><time>2026-04-14T17:08:56.987Z</time></trkpt><trkpt lat="44.069795" lon="8.1201817"><ele>146.6</ele><time>2026-04-14T17:08:57.987Z</time></trkpt><trkpt lat="44.0698267" lon="8.1200533"><ele>144.0</ele><time>2026-04-14T17:08:58.988Z</time></trkpt><trkpt lat="44.069885" lon="8.1199633"><ele>145.33333333333334</ele><time>2026-04-14T17:08:59.988Z</time></trkpt><trkpt lat="44.0699517" lon="8.1199033"><ele>146.66666666666666</ele><time>2026-04-14T17:09:00.987Z</time></trkpt><trkpt lat="44.0700433" lon="8.1198833"><ele>148.0</ele><time>2026-04-14T17:09:01.988Z</time></trkpt><trkpt lat="44.0701333" lon="8.119885"><ele>149.33333333333331</ele><time>2026-04-14T17:09:02.988Z</time></trkpt><trkpt lat="44.0702" lon="8.1199167"><ele>150.66666666666666</ele><time>2026-04-14T17:09:03.988Z</time></trkpt><trkpt lat="44.0702633" lon="8.119925"><ele>152.0</ele><time>2026-04-14T17:09:04.988Z</time></trkpt><trkpt lat="44.0702667" lon="8.1198267"><ele>149.0</ele><time>2026-04-14T17:09:07.988Z</time></trkpt><trkpt lat="44.0702267" lon="8.1197317"><ele>146.0</ele><time>2026-04-14T17:09:15.987Z</time></trkpt><trkpt lat="44.0702117" lon="8.11963"><ele>143.0</ele><time>2026-04-14T17:09:18.987Z</time></trkpt><trkpt lat="44.0701983" lon="8.1195117"><ele>140.0</ele><time>2026-04-14T17:09:21.987Z</time></trkpt><trkpt lat="44.0701683" lon="8.1194133"><ele>137.0</ele><time>2026-04-14T17:09:24.988Z</time></trkpt><trkpt lat="44.0702283" lon="8.119315"><ele>134.0</ele><time>2026-04-14T17:09:27.987Z</time></trkpt><trkpt lat="44.0702817" lon="8.1192267"><ele>134.0</ele><time>2026-04-14T17:09:29.988Z</time></trkpt><trkpt lat="44.0703167" lon="8.1191217"><ele>134.0</ele><time>2026-04-14T17:09:31.988Z</time></trkpt><trkpt lat="44.0703" lon="8.118975"><ele>134.0</ele><time>2026-04-14T17:09:33.988Z</time></trkpt><trkpt lat="44.0702633" lon="8.11889"><ele>134.0</ele><time>2026-04-14T17:09:34.988Z</time></trkpt><trkpt lat="44.0702167" lon="8.1188117"><ele>134.0</ele><time>2026-04-14T17:09:35.987Z</time></trkpt><trkpt lat="44.0701467" lon="8.118745"><ele>134.0</ele><time>2026-04-14T17:09:36.988Z</time></trkpt><trkpt lat="44.0700517" lon="8.1186667"><ele>133.8</ele><time>2026-04-14T17:09:37.988Z</time></trkpt><trkpt lat="44.0699617" lon="8.1185683"><ele>133.60000000000002</ele><time>2026-04-14T17:09:38.988Z</time></trkpt><trkpt lat="44.0698933" lon="8.1184817"><ele>133.4</ele><time>2026-04-14T17:09:39.987Z</time></trkpt><trkpt lat="44.0698233" lon="8.1183883"><ele>133.20000000000002</ele><time>2026-04-14T17:09:40.987Z</time></trkpt><trkpt lat="44.069765" lon="8.1183117"><ele>133.0</ele><time>2026-04-14T17:09:41.987Z</time></trkpt><trkpt lat="44.069705" lon="8.118245"><ele>131.0</ele><time>2026-04-14T17:09:42.988Z</time></trkpt><trkpt lat="44.0696517" lon="8.118175"><ele>129.0</ele><time>2026-04-14T17:09:43.988Z</time></trkpt><trkpt lat="44.06959" lon="8.1181067"><ele>127.0</ele><time>2026-04-14T17:09:44.987Z</time></trkpt><trkpt lat="44.0695233" lon="8.1180433"><ele>125.0</ele><time>2026-04-14T17:09:45.987Z</time></trkpt><trkpt lat="44.069455" lon="8.1179833"><ele>123.0</ele><time>2026-04-14T17:09:46.987Z</time></trkpt><trkpt lat="44.06939" lon="8.1179533"><ele>121.0</ele><time>2026-04-14T17:09:47.988Z</time></trkpt><trkpt lat="44.0693383" lon="8.1179017"><ele>119.0</ele><time>2026-04-14T17:09:48.988Z</time></trkpt><trkpt lat="44.0693083" lon="8.117815"><ele>119.0</ele><time>2026-04-14T17:09:49.988Z</time></trkpt><trkpt lat="44.0693167" lon="8.1177"><ele>119.0</ele><time>2026-04-14T17:09:50.987Z</time></trkpt><trkpt lat="44.06935" lon="8.117585"><ele>119.0</ele><time>2026-04-14T17:09:51.987Z</time></trkpt><trkpt lat="44.0693917" lon="8.1174517"><ele>119.0</ele><time>2026-04-14T17:09:52.987Z</time></trkpt><trkpt lat="44.069435" lon="8.1173317"><ele>119.0</ele><time>2026-04-14T17:09:53.988Z</time></trkpt><trkpt lat="44.069475" lon="8.1172267"><ele>117.99999999999999</ele><time>2026-04-14T17:09:54.987Z</time></trkpt><trkpt lat="44.0695117" lon="8.1171233"><ele>117.0</ele><time>2026-04-14T17:09:55.988Z</time></trkpt><trkpt lat="44.0695517" lon="8.1170083"><ele>116.0</ele><time>2026-04-14T17:09:56.987Z</time></trkpt><trkpt lat="44.0695867" lon="8.11689"><ele>115.0</ele><time>2026-04-14T17:09:57.987Z</time></trkpt><trkpt lat="44.0696133" lon="8.11677"><ele>113.99999999999999</ele><time>2026-04-14T17:09:58.987Z</time></trkpt><trkpt lat="44.06963" lon="8.116655"><ele>113.0</ele><time>2026-04-14T17:09:59.988Z</time></trkpt><trkpt lat="44.06963" lon="8.1165483"><ele>111.99999999999999</ele><time>2026-04-14T17:10:00.987Z</time></trkpt><trkpt lat="44.0696133" lon="8.1164533"><ele>111.0</ele><time>2026-04-14T17:10:01.987Z</time></trkpt><trkpt lat="44.0695933" lon="8.1163667"><ele>110.0</ele><time>2026-04-14T17:10:02.988Z</time></trkpt><trkpt lat="44.0695767" lon="8.1162733"><ele>109.0</ele><time>2026-04-14T17:10:03.988Z</time></trkpt><trkpt lat="44.0695833" lon="8.1161517"><ele>107.99999999999999</ele><time>2026-04-14T17:10:04.988Z</time></trkpt><trkpt lat="44.0696033" lon="8.116015"><ele>107.0</ele><time>2026-04-14T17:10:05.987Z</time></trkpt><trkpt lat="44.0696367" lon="8.115865"><ele>106.8</ele><time>2026-04-14T17:10:06.987Z</time></trkpt><trkpt lat="44.06966" lon="8.1157183"><ele>106.6</ele><time>2026-04-14T17:10:07.988Z</time></trkpt><trkpt lat="44.0696833" lon="8.11556"><ele>106.39999999999999</ele><time>2026-04-14T17:10:08.988Z</time></trkpt><trkpt lat="44.0697083" lon="8.115415"><ele>106.19999999999999</ele><time>2026-04-14T17:10:09.987Z</time></trkpt><trkpt lat="44.0697383" lon="8.1152767"><ele>106.0</ele><time>2026-04-14T17:10:10.987Z</time></trkpt><trkpt lat="44.06977" lon="8.11516"><ele>106.00000000000001</ele><time>2026-04-14T17:10:11.988Z</time></trkpt><trkpt lat="44.069805" lon="8.1150733"><ele>106.0</ele><time>2026-04-14T17:10:12.987Z</time></trkpt><trkpt lat="44.0698383" lon="8.1149283"><ele>106.0</ele><time>2026-04-14T17:10:14.987Z</time></trkpt><trkpt lat="44.0697917" lon="8.1148083"><ele>106.0</ele><time>2026-04-14T17:10:16.987Z</time></trkpt><trkpt lat="44.069755" lon="8.1147217"><ele>106.00000000000001</ele><time>2026-04-14T17:10:17.987Z</time></trkpt><trkpt lat="44.06973" lon="8.1146183"><ele>106.0</ele><time>2026-04-14T17:10:18.988Z</time></trkpt><trkpt lat="44.0697317" lon="8.114495"><ele>106.19999999999999</ele><time>2026-04-14T17:10:19.988Z</time></trkpt><trkpt lat="44.0697583" lon="8.1143533"><ele>106.39999999999999</ele><time>2026-04-14T17:10:20.987Z</time></trkpt><trkpt lat="44.06978" lon="8.1142283"><ele>106.6</ele><time>2026-04-14T17:10:21.988Z</time></trkpt><trkpt lat="44.0698" lon="8.114125"><ele>106.8</ele><time>2026-04-14T17:10:22.988Z</time></trkpt><trkpt lat="44.0697667" lon="8.1139983"><ele>107.0</ele><time>2026-04-14T17:10:24.987Z</time></trkpt><trkpt lat="44.0696633" lon="8.1139733"><ele>107.99999999999999</ele><time>2026-04-14T17:10:26.988Z</time></trkpt><trkpt lat="44.0695883" lon="8.1139333"><ele>109.0</ele><time>2026-04-14T17:10:28.987Z</time></trkpt><trkpt lat="44.0695617" lon="8.11383"><ele>110.0</ele><time>2026-04-14T17:10:30.988Z</time></trkpt><trkpt lat="44.06959" lon="8.1136583"><ele>111.0</ele><time>2026-04-14T17:10:32.988Z</time></trkpt><trkpt lat="44.069605" lon="8.1135583"><ele>111.99999999999999</ele><time>2026-04-14T17:10:33.987Z</time></trkpt><trkpt lat="44.0696217" lon="8.11345"><ele>113.0</ele><time>2026-04-14T17:10:34.988Z</time></trkpt><trkpt lat="44.0696283" lon="8.113355"><ele>115.2</ele><time>2026-04-14T17:10:35.988Z</time></trkpt><trkpt lat="44.0696567" lon="8.1132133"><ele>117.4</ele><time>2026-04-14T17:10:37.987Z</time></trkpt><trkpt lat="44.0697083" lon="8.1130867"><ele>119.60000000000001</ele><time>2026-04-14T17:10:39.988Z</time></trkpt><trkpt lat="44.06975" lon="8.1129717"><ele>121.80000000000001</ele><time>2026-04-14T17:10:41.987Z</time></trkpt><trkpt lat="44.0698267" lon="8.1129233"><ele>124.0</ele><time>2026-04-14T17:10:43.987Z</time></trkpt><trkpt lat="44.0698983" lon="8.1129117"><ele>122.83333333333334</ele><time>2026-04-14T17:10:47.988Z</time></trkpt><trkpt lat="44.0699583" lon="8.112885"><ele>121.66666666666667</ele><time>2026-04-14T17:10:50.987Z</time></trkpt><trkpt lat="44.070045" lon="8.1127783"><ele>120.5</ele><time>2026-04-14T17:11:01.988Z</time></trkpt><trkpt lat="44.0701217" lon="8.112735"><ele>119.33333333333334</ele><time>2026-04-14T17:11:03.987Z</time></trkpt><trkpt lat="44.07021" lon="8.112695"><ele>118.16666666666667</ele><time>2026-04-14T17:11:05.987Z</time></trkpt><trkpt lat="44.0702883" lon="8.1126733"><ele>117.0</ele><time>2026-04-14T17:11:07.987Z</time></trkpt><trkpt lat="44.0703567" lon="8.11264"><ele>117.0</ele><time>2026-04-14T17:11:09.988Z</time></trkpt><trkpt lat="44.0704267" lon="8.1125467"><ele>117.0</ele><time>2026-04-14T17:11:12.987Z</time></trkpt><trkpt lat="44.0704717" lon="8.1124567"><ele>117.0</ele><time>2026-04-14T17:11:14.987Z</time></trkpt><trkpt lat="44.070515" lon="8.11236"><ele>117.0</ele><time>2026-04-14T17:11:16.988Z</time></trkpt><trkpt lat="44.0705417" lon="8.1122567"><ele>117.0</ele><time>2026-04-14T17:11:18.988Z</time></trkpt><trkpt lat="44.0705583" lon="8.1121017"><ele>117.0</ele><time>2026-04-14T17:11:20.988Z</time></trkpt><trkpt lat="44.070575" lon="8.11201"><ele>118.39999999999999</ele><time>2026-04-14T17:11:21.988Z</time></trkpt><trkpt lat="44.0705983" lon="8.1118617"><ele>119.79999999999998</ele><time>2026-04-14T17:11:23.988Z</time></trkpt><trkpt lat="44.0705967" lon="8.1117433"><ele>121.2</ele><time>2026-04-14T17:11:25.988Z</time></trkpt><trkpt lat="44.0706067" lon="8.1115933"><ele>122.6</ele><time>2026-04-14T17:11:27.988Z</time></trkpt><trkpt lat="44.07061" lon="8.11145"><ele>124.0</ele><time>2026-04-14T17:11:29.988Z</time></trkpt><trkpt lat="44.070615" lon="8.1113583"><ele>125.83333333333334</ele><time>2026-04-14T17:11:31.988Z</time></trkpt><trkpt lat="44.0706617" lon="8.1112517"><ele>127.66666666666667</ele><time>2026-04-14T17:11:43.988Z</time></trkpt><trkpt lat="44.0707233" lon="8.1111783"><ele>129.5</ele><time>2026-04-14T17:11:46.988Z</time></trkpt><trkpt lat="44.0707233" lon="8.1110667"><ele>131.33333333333334</ele><time>2026-04-14T17:11:50.988Z</time></trkpt><trkpt lat="44.070695" lon="8.1109467"><ele>133.16666666666666</ele><time>2026-04-14T17:11:53.987Z</time></trkpt><trkpt lat="44.070675" lon="8.110835"><ele>135.0</ele><time>2026-04-14T17:11:55.987Z</time></trkpt><trkpt lat="44.0706833" lon="8.1107167"><ele>133.2</ele><time>2026-04-14T17:12:38.987Z</time></trkpt><trkpt lat="44.0707533" lon="8.1107233"><ele>131.4</ele><time>2026-04-14T17:12:44.987Z</time></trkpt><trkpt lat="44.0708283" lon="8.1108033"><ele>129.6</ele><time>2026-04-14T17:12:47.988Z</time></trkpt><trkpt lat="44.0709033" lon="8.110835"><ele>127.8</ele><time>2026-04-14T17:12:49.987Z</time></trkpt><trkpt lat="44.071" lon="8.1108133"><ele>126.0</ele><time>2026-04-14T17:12:51.988Z</time></trkpt><trkpt lat="44.071105" lon="8.110755"><ele>128.2</ele><time>2026-04-14T17:12:53.987Z</time></trkpt><trkpt lat="44.0712233" lon="8.1107117"><ele>130.39999999999998</ele><time>2026-04-14T17:12:55.988Z</time></trkpt><trkpt lat="44.0713267" lon="8.11067"><ele>132.6</ele><time>2026-04-14T17:12:57.988Z</time></trkpt><trkpt lat="44.07139" lon="8.1106183"><ele>134.79999999999998</ele><time>2026-04-14T17:12:59.988Z</time></trkpt><trkpt lat="44.0714367" lon="8.1105333"><ele>137.0</ele><time>2026-04-14T17:13:02.987Z</time></trkpt><trkpt lat="44.0715033" lon="8.1104267"><ele>137.0</ele><time>2026-04-14T17:13:05.988Z</time></trkpt><trkpt lat="44.071595" lon="8.1103567"><ele>137.0</ele><time>2026-04-14T17:13:07.987Z</time></trkpt><trkpt lat="44.0716783" lon="8.1102567"><ele>137.0</ele><time>2026-04-14T17:13:09.988Z</time></trkpt><trkpt lat="44.0717217" lon="8.1101317"><ele>137.0</ele><time>2026-04-14T17:13:11.988Z</time></trkpt><trkpt lat="44.071775" lon="8.11007"><ele>137.0</ele><time>2026-04-14T17:13:13.988Z</time></trkpt><trkpt lat="44.071825" lon="8.109985"><ele>139.0</ele><time>2026-04-14T17:13:15.987Z</time></trkpt><trkpt lat="44.0718867" lon="8.1098317"><ele>141.0</ele><time>2026-04-14T17:13:17.987Z</time></trkpt><trkpt lat="44.071925" lon="8.1097617"><ele>143.0</ele><time>2026-04-14T17:13:18.987Z</time></trkpt><trkpt lat="44.072" lon="8.1096683"><ele>145.0</ele><time>2026-04-14T17:13:20.987Z</time></trkpt><trkpt lat="44.07207" lon="8.109615"><ele>147.0</ele><time>2026-04-14T17:13:22.988Z</time></trkpt><trkpt lat="44.0721417" lon="8.1095233"><ele>147.0</ele><time>2026-04-14T17:13:24.987Z</time></trkpt><trkpt lat="44.07222" lon="8.10939"><ele>147.0</ele><time>2026-04-14T17:13:26.987Z</time></trkpt><trkpt lat="44.07224" lon="8.10925"><ele>147.0</ele><time>2026-04-14T17:13:28.987Z</time></trkpt><trkpt lat="44.072265" lon="8.1091017"><ele>147.0</ele><time>2026-04-14T17:13:45.988Z</time></trkpt><trkpt lat="44.0722817" lon="8.109005"><ele>147.0</ele><time>2026-04-14T17:13:46.988Z</time></trkpt><trkpt lat="44.0722967" lon="8.108865"><ele>146.75</ele><time>2026-04-14T17:13:47.988Z</time></trkpt><trkpt lat="44.0723017" lon="8.108715"><ele>146.5</ele><time>2026-04-14T17:13:48.987Z</time></trkpt><trkpt lat="44.0723017" lon="8.1085333"><ele>146.25</ele><time>2026-04-14T17:13:49.987Z</time></trkpt><trkpt lat="44.0723133" lon="8.10836"><ele>146.0</ele><time>2026-04-14T17:13:50.987Z</time></trkpt><trkpt lat="44.0723383" lon="8.1082083"><ele>146.0</ele><time>2026-04-14T17:13:51.987Z</time></trkpt><trkpt lat="44.072365" lon="8.108065"><ele>146.0</ele><time>2026-04-14T17:13:52.987Z</time></trkpt><trkpt lat="44.0723817" lon="8.10793"><ele>146.0</ele><time>2026-04-14T17:13:53.987Z</time></trkpt><trkpt lat="44.0724083" lon="8.1078233"><ele>146.0</ele><time>2026-04-14T17:13:54.988Z</time></trkpt><trkpt lat="44.0724417" lon="8.10772"><ele>146.0</ele><time>2026-04-14T17:13:55.988Z</time></trkpt><trkpt lat="44.0724817" lon="8.107625"><ele>146.0</ele><time>2026-04-14T17:13:56.987Z</time></trkpt><trkpt lat="44.0725167" lon="8.1075267"><ele>151.0</ele><time>2026-04-14T17:13:57.987Z</time></trkpt><trkpt lat="44.072555" lon="8.10742"><ele>156.0</ele><time>2026-04-14T17:13:58.988Z</time></trkpt><trkpt lat="44.0725967" lon="8.1072983"><ele>161.0</ele><time>2026-04-14T17:13:59.988Z</time></trkpt><trkpt lat="44.0726217" lon="8.107175"><ele>166.0</ele><time>2026-04-14T17:14:00.987Z</time></trkpt><trkpt lat="44.072655" lon="8.107045"><ele>171.0</ele><time>2026-04-14T17:14:01.987Z</time></trkpt><trkpt lat="44.0726817" lon="8.1069033"><ele>171.0</ele><time>2026-04-14T17:14:02.988Z</time></trkpt><trkpt lat="44.0727233" lon="8.1067433"><ele>171.0</ele><time>2026-04-14T17:14:03.987Z</time></trkpt><trkpt lat="44.07276" lon="8.106585"><ele>171.0</ele><time>2026-04-14T17:14:04.987Z</time></trkpt><trkpt lat="44.07279" lon="8.1064267"><ele>171.0</ele><time>2026-04-14T17:14:05.988Z</time></trkpt><trkpt lat="44.07283" lon="8.1062717"><ele>171.0</ele><time>2026-04-14T17:14:06.988Z</time></trkpt><trkpt lat="44.0728733" lon="8.1061233"><ele>171.0</ele><time>2026-04-14T17:14:07.987Z</time></trkpt><trkpt lat="44.072915" lon="8.1059917"><ele>171.0</ele><time>2026-04-14T17:14:08.988Z</time></trkpt><trkpt lat="44.07296" lon="8.1058433"><ele>171.0</ele><time>2026-04-14T17:14:09.988Z</time></trkpt><trkpt lat="44.073015" lon="8.1056933"><ele>170.8</ele><time>2026-04-14T17:14:10.987Z</time></trkpt><trkpt lat="44.0730717" lon="8.1055533"><ele>170.60000000000002</ele><time>2026-04-14T17:14:11.988Z</time></trkpt><trkpt lat="44.0731183" lon="8.1054183"><ele>170.4</ele><time>2026-04-14T17:14:12.987Z</time></trkpt><trkpt lat="44.0731767" lon="8.1053067"><ele>170.2</ele><time>2026-04-14T17:14:13.987Z</time></trkpt><trkpt lat="44.0732117" lon="8.105215"><ele>170.0</ele><time>2026-04-14T17:14:14.988Z</time></trkpt><trkpt lat="44.0732217" lon="8.1051283"><ele>170.0</ele><time>2026-04-14T17:14:15.988Z</time></trkpt><trkpt lat="44.0732017" lon="8.104965"><ele>170.0</ele><time>2026-04-14T17:14:17.988Z</time></trkpt><trkpt lat="44.073185" lon="8.1048083"><ele>170.0</ele><time>2026-04-14T17:14:19.988Z</time></trkpt><trkpt lat="44.0732017" lon="8.10472"><ele>170.0</ele><time>2026-04-14T17:14:20.987Z</time></trkpt><trkpt lat="44.0732383" lon="8.10462"><ele>170.0</ele><time>2026-04-14T17:14:21.987Z</time></trkpt><trkpt lat="44.0732733" lon="8.1045033"><ele>174.2</ele><time>2026-04-14T17:14:22.987Z</time></trkpt><trkpt lat="44.0733067" lon="8.1043917"><ele>178.4</ele><time>2026-04-14T17:14:23.987Z</time></trkpt><trkpt lat="44.0733417" lon="8.1042567"><ele>182.60000000000002</ele><time>2026-04-14T17:14:24.987Z</time></trkpt><trkpt lat="44.07339" lon="8.104105"><ele>186.8</ele><time>2026-04-14T17:14:25.987Z</time></trkpt><trkpt lat="44.0734417" lon="8.1039483"><ele>191.0</ele><time>2026-04-14T17:14:26.987Z</time></trkpt><trkpt lat="44.0734933" lon="8.1037883"><ele>191.0</ele><time>2026-04-14T17:14:27.988Z</time></trkpt><trkpt lat="44.0735367" lon="8.1036533"><ele>191.0</ele><time>2026-04-14T17:14:28.988Z</time></trkpt><trkpt lat="44.0735683" lon="8.10353"><ele>191.0</ele><time>2026-04-14T17:14:29.987Z</time></trkpt><trkpt lat="44.073595" lon="8.10344"><ele>191.0</ele><time>2026-04-14T17:14:30.988Z</time></trkpt><trkpt lat="44.0736233" lon="8.103335"><ele>191.0</ele><time>2026-04-14T17:15:27.987Z</time></trkpt><trkpt lat="44.0736217" lon="8.1031467"><ele>189.0</ele><time>2026-04-14T17:15:29.987Z</time></trkpt><trkpt lat="44.0736283" lon="8.1030133"><ele>187.0</ele><time>2026-04-14T17:15:30.988Z</time></trkpt><trkpt lat="44.0736383" lon="8.102875"><ele>185.0</ele><time>2026-04-14T17:15:31.987Z</time></trkpt><trkpt lat="44.0736583" lon="8.1027267"><ele>183.0</ele><time>2026-04-14T17:15:32.987Z</time></trkpt><trkpt lat="44.07369" lon="8.1025967"><ele>181.0</ele><time>2026-04-14T17:15:33.988Z</time></trkpt><trkpt lat="44.07371" lon="8.102485"><ele>180.66666666666669</ele><time>2026-04-14T17:15:34.988Z</time></trkpt><trkpt lat="44.0737183" lon="8.1023817"><ele>180.33333333333334</ele><time>2026-04-14T17:15:35.987Z</time></trkpt><trkpt lat="44.0736917" lon="8.102285"><ele>180.0</ele><time>2026-04-14T17:15:38.987Z</time></trkpt><trkpt lat="44.0736617" lon="8.102205"><ele>179.66666666666666</ele><time>2026-04-14T17:15:40.988Z</time></trkpt><trkpt lat="44.0736517" lon="8.1020967"><ele>179.33333333333331</ele><time>2026-04-14T17:15:42.988Z</time></trkpt><trkpt lat="44.0736217" lon="8.101955"><ele>179.0</ele><time>2026-04-14T17:15:44.987Z</time></trkpt><trkpt lat="44.07361" lon="8.1018367"><ele>179.0</ele><time>2026-04-14T17:15:46.988Z</time></trkpt><trkpt lat="44.0736233" lon="8.10173"><ele>179.0</ele><time>2026-04-14T17:15:48.987Z</time></trkpt><trkpt lat="44.0735617" lon="8.1017967"><ele>179.0</ele><time>2026-04-14T17:16:33.987Z</time></trkpt><trkpt lat="44.0735233" lon="8.1016933"><ele>179.0</ele><time>2026-04-14T17:16:44.988Z</time></trkpt><trkpt lat="44.0734867" lon="8.1016217"><ele>179.0</ele><time>2026-04-14T17:16:46.987Z</time></trkpt><trkpt lat="44.0734283" lon="8.101545"><ele>179.0</ele><time>2026-04-14T17:16:48.988Z</time></trkpt><trkpt lat="44.0733883" lon="8.1014517"><ele>179.33333333333331</ele><time>2026-04-14T17:16:50.988Z</time></trkpt><trkpt lat="44.07336" lon="8.1013717"><ele>179.66666666666666</ele><time>2026-04-14T17:16:53.988Z</time></trkpt><trkpt lat="44.0732833" lon="8.1013783"><ele>180.0</ele><time>2026-04-14T17:16:57.988Z</time></trkpt><trkpt lat="44.0733033" lon="8.10129"><ele>180.33333333333334</ele><time>2026-04-14T17:17:00.987Z</time></trkpt><trkpt lat="44.07325" lon="8.1011833"><ele>180.66666666666669</ele><time>2026-04-14T17:17:08.987Z</time></trkpt><trkpt lat="44.0731667" lon="8.1011817"><ele>181.0</ele><time>2026-04-14T17:17:11.987Z</time></trkpt><trkpt lat="44.0731033" lon="8.101155"><ele>182.33333333333334</ele><time>2026-04-14T17:17:14.987Z</time></trkpt><trkpt lat="44.0730317" lon="8.1010967"><ele>183.66666666666669</ele><time>2026-04-14T17:17:16.987Z</time></trkpt><trkpt lat="44.0729483" lon="8.10108"><ele>185.0</ele><time>2026-04-14T17:17:18.987Z</time></trkpt><trkpt lat="44.0728667" lon="8.1011067"><ele>186.33333333333334</ele><time>2026-04-14T17:17:20.987Z</time></trkpt><trkpt lat="44.0728083" lon="8.10116"><ele>187.66666666666666</ele><time>2026-04-14T17:17:22.987Z</time></trkpt><trkpt lat="44.0727583" lon="8.101075"><ele>189.0</ele><time>2026-04-14T17:17:28.987Z</time></trkpt><trkpt lat="44.0726883" lon="8.10108"><ele>189.0</ele><time>2026-04-14T17:17:33.988Z</time></trkpt><trkpt lat="44.072615" lon="8.10119"><ele>189.0</ele><time>2026-04-14T17:17:36.987Z</time></trkpt><trkpt lat="44.072545" lon="8.1012467"><ele>189.0</ele><time>2026-04-14T17:17:38.987Z</time></trkpt><trkpt lat="44.0724667" lon="8.1013033"><ele>189.0</ele><time>2026-04-14T17:17:40.987Z</time></trkpt><trkpt lat="44.0724733" lon="8.1011933"><ele>189.0</ele><time>2026-04-14T17:18:14.987Z</time></trkpt><trkpt lat="44.072525" lon="8.1010883"><ele>189.0</ele><time>2026-04-14T17:18:16.987Z</time></trkpt><trkpt lat="44.0725483" lon="8.1009833"><ele>189.0</ele><time>2026-04-14T17:18:18.987Z</time></trkpt><trkpt lat="44.0725567" lon="8.1008783"><ele>189.0</ele><time>2026-04-14T17:18:20.987Z</time></trkpt><trkpt lat="44.0725633" lon="8.1007617"><ele>189.0</ele><time>2026-04-14T17:18:22.988Z</time></trkpt><trkpt lat="44.0726017" lon="8.100575"><ele>189.0</ele><time>2026-04-14T17:18:24.988Z</time></trkpt><trkpt lat="44.0726267" lon="8.1004717"><ele>189.0</ele><time>2026-04-14T17:18:25.987Z</time></trkpt><trkpt lat="44.0726583" lon="8.10038"><ele>191.33333333333334</ele><time>2026-04-14T17:18:26.988Z</time></trkpt><trkpt lat="44.0727267" lon="8.1002617"><ele>193.66666666666669</ele><time>2026-04-14T17:18:28.988Z</time></trkpt><trkpt lat="44.0727867" lon="8.1001783"><ele>196.0</ele><time>2026-04-14T17:18:30.988Z</time></trkpt><trkpt lat="44.0728283" lon="8.1000983"><ele>198.33333333333334</ele><time>2026-04-14T17:18:32.987Z</time></trkpt><trkpt lat="44.07288" lon="8.10003"><ele>200.66666666666669</ele><time>2026-04-14T17:18:34.987Z</time></trkpt><trkpt lat="44.0729233" lon="8.09992"><ele>203.0</ele><time>2026-04-14T17:18:36.987Z</time></trkpt><trkpt lat="44.0729533" lon="8.0997483"><ele>204.83333333333334</ele><time>2026-04-14T17:18:38.988Z</time></trkpt><trkpt lat="44.072965" lon="8.0996567"><ele>206.66666666666669</ele><time>2026-04-14T17:18:39.988Z</time></trkpt><trkpt lat="44.07298" lon="8.0995667"><ele>208.5</ele><time>2026-04-14T17:18:40.987Z</time></trkpt><trkpt lat="44.0729983" lon="8.0994783"><ele>210.33333333333331</ele><time>2026-04-14T17:18:41.988Z</time></trkpt><trkpt lat="44.0730267" lon="8.0993883"><ele>212.16666666666666</ele><time>2026-04-14T17:18:42.987Z</time></trkpt><trkpt lat="44.07307" lon="8.0992383"><ele>214.0</ele><time>2026-04-14T17:18:44.988Z</time></trkpt><trkpt lat="44.0731083" lon="8.0991633"><ele>214.00000000000003</ele><time>2026-04-14T17:18:45.987Z</time></trkpt><trkpt lat="44.07316" lon="8.099095"><ele>214.0</ele><time>2026-04-14T17:18:46.988Z</time></trkpt><trkpt lat="44.0732067" lon="8.0990117"><ele>214.0</ele><time>2026-04-14T17:18:47.987Z</time></trkpt><trkpt lat="44.0732533" lon="8.0989217"><ele>214.0</ele><time>2026-04-14T17:18:48.987Z</time></trkpt><trkpt lat="44.073285" lon="8.0988233"><ele>214.0</ele><time>2026-04-14T17:18:49.987Z</time></trkpt><trkpt lat="44.073305" lon="8.0987233"><ele>214.00000000000003</ele><time>2026-04-14T17:18:50.987Z</time></trkpt><trkpt lat="44.0733267" lon="8.0986383"><ele>214.0</ele><time>2026-04-14T17:18:51.988Z</time></trkpt><trkpt lat="44.0733633" lon="8.098505"><ele>212.6</ele><time>2026-04-14T17:18:53.987Z</time></trkpt><trkpt lat="44.0734167" lon="8.0983783"><ele>211.2</ele><time>2026-04-14T17:18:55.988Z</time></trkpt><trkpt lat="44.073455" lon="8.0982417"><ele>209.79999999999998</ele><time>2026-04-14T17:18:57.987Z</time></trkpt><trkpt lat="44.073495" lon="8.0980683"><ele>208.39999999999998</ele><time>2026-04-14T17:18:59.987Z</time></trkpt><trkpt lat="44.0735283" lon="8.0979833"><ele>207.0</ele><time>2026-04-14T17:19:00.987Z</time></trkpt><trkpt lat="44.0735817" lon="8.0978433"><ele>209.83333333333334</ele><time>2026-04-14T17:19:02.988Z</time></trkpt><trkpt lat="44.073625" lon="8.0977467"><ele>212.66666666666669</ele><time>2026-04-14T17:19:04.987Z</time></trkpt><trkpt lat="44.0736517" lon="8.0976617"><ele>215.5</ele><time>2026-04-14T17:19:07.988Z</time></trkpt><trkpt lat="44.0735917" lon="8.0977117"><ele>218.33333333333334</ele><time>2026-04-14T17:19:10.988Z</time></trkpt><trkpt lat="44.0735017" lon="8.097835"><ele>221.16666666666669</ele><time>2026-04-14T17:19:12.987Z</time></trkpt><trkpt lat="44.0734367" lon="8.0979383"><ele>224.0</ele><time>2026-04-14T17:19:13.987Z</time></trkpt><trkpt lat="44.0733767" lon="8.09805"><ele>224.00000000000003</ele><time>2026-04-14T17:19:14.987Z</time></trkpt><trkpt lat="44.0733033" lon="8.098145"><ele>224.0</ele><time>2026-04-14T17:19:15.987Z</time></trkpt><trkpt lat="44.0732383" lon="8.0982367"><ele>224.0</ele><time>2026-04-14T17:19:16.988Z</time></trkpt><trkpt lat="44.0731933" lon="8.0983317"><ele>224.0</ele><time>2026-04-14T17:19:17.987Z</time></trkpt><trkpt lat="44.07316" lon="8.0984333"><ele>224.00000000000003</ele><time>2026-04-14T17:19:18.987Z</time></trkpt><trkpt lat="44.0731433" lon="8.0985317"><ele>224.0</ele><time>2026-04-14T17:19:19.988Z</time></trkpt><trkpt lat="44.073085" lon="8.0986567"><ele>224.16666666666669</ele><time>2026-04-14T17:19:21.987Z</time></trkpt><trkpt lat="44.07301" lon="8.0986717"><ele>224.33333333333334</ele><time>2026-04-14T17:19:22.987Z</time></trkpt><trkpt lat="44.0729317" lon="8.0986833"><ele>224.5</ele><time>2026-04-14T17:19:23.988Z</time></trkpt><trkpt lat="44.072855" lon="8.09872"><ele>224.66666666666669</ele><time>2026-04-14T17:19:24.987Z</time></trkpt><trkpt lat="44.0727933" lon="8.0987817"><ele>224.83333333333334</ele><time>2026-04-14T17:19:25.987Z</time></trkpt><trkpt lat="44.0727533" lon="8.098875"><ele>225.0</ele><time>2026-04-14T17:19:26.987Z</time></trkpt><trkpt lat="44.0727217" lon="8.0989933"><ele>226.33333333333334</ele><time>2026-04-14T17:19:27.987Z</time></trkpt><trkpt lat="44.0726917" lon="8.099085"><ele>227.66666666666669</ele><time>2026-04-14T17:19:28.988Z</time></trkpt><trkpt lat="44.0726483" lon="8.09915"><ele>229.0</ele><time>2026-04-14T17:19:29.988Z</time></trkpt><trkpt lat="44.0725267" lon="8.099205"><ele>230.33333333333334</ele><time>2026-04-14T17:19:31.988Z</time></trkpt><trkpt lat="44.072455" lon="8.099215"><ele>231.66666666666669</ele><time>2026-04-14T17:19:32.988Z</time></trkpt><trkpt lat="44.0723683" lon="8.0992467"><ele>233.0</ele><time>2026-04-14T17:19:34.987Z</time></trkpt><trkpt lat="44.0723283" lon="8.0993567"><ele>233.00000000000003</ele><time>2026-04-14T17:19:36.988Z</time></trkpt><trkpt lat="44.072315" lon="8.0995117"><ele>233.0</ele><time>2026-04-14T17:19:38.987Z</time></trkpt><trkpt lat="44.07232" lon="8.0996"><ele>233.0</ele><time>2026-04-14T17:19:39.987Z</time></trkpt><trkpt lat="44.0723117" lon="8.0996967"><ele>233.0</ele><time>2026-04-14T17:19:40.987Z</time></trkpt><trkpt lat="44.0722917" lon="8.0997833"><ele>233.00000000000003</ele><time>2026-04-14T17:19:41.988Z</time></trkpt><trkpt lat="44.0722583" lon="8.09987"><ele>233.0</ele><time>2026-04-14T17:19:42.987Z</time></trkpt><trkpt lat="44.0722117" lon="8.0999533"><ele>230.60000000000002</ele><time>2026-04-14T17:19:43.988Z</time></trkpt><trkpt lat="44.0721633" lon="8.100025"><ele>228.20000000000002</ele><time>2026-04-14T17:19:44.987Z</time></trkpt><trkpt lat="44.0721167" lon="8.1000933"><ele>225.8</ele><time>2026-04-14T17:19:45.987Z</time></trkpt><trkpt lat="44.071975" lon="8.10012"><ele>223.4</ele><time>2026-04-14T17:19:47.988Z</time></trkpt><trkpt lat="44.0718833" lon="8.1001133"><ele>221.0</ele><time>2026-04-14T17:19:48.987Z</time></trkpt><trkpt lat="44.07178" lon="8.1001083"><ele>221.00000000000003</ele><time>2026-04-14T17:19:49.987Z</time></trkpt><trkpt lat="44.0716817" lon="8.1000983"><ele>221.0</ele><time>2026-04-14T17:19:50.988Z</time></trkpt><trkpt lat="44.071585" lon="8.10009"><ele>221.0</ele><time>2026-04-14T17:19:51.987Z</time></trkpt><trkpt lat="44.0714967" lon="8.1000717"><ele>221.0</ele><time>2026-04-14T17:19:52.987Z</time></trkpt><trkpt lat="44.0714117" lon="8.100075"><ele>221.00000000000003</ele><time>2026-04-14T17:19:53.987Z</time></trkpt><trkpt lat="44.0713333" lon="8.100055"><ele>221.0</ele><time>2026-04-14T17:19:54.987Z</time></trkpt><trkpt lat="44.071245" lon="8.100035"><ele>221.83333333333334</ele><time>2026-04-14T17:19:55.987Z</time></trkpt><trkpt lat="44.0711683" lon="8.1000117"><ele>222.66666666666669</ele><time>2026-04-14T17:19:56.987Z</time></trkpt><trkpt lat="44.071095" lon="8.0999783"><ele>223.5</ele><time>2026-04-14T17:19:57.987Z</time></trkpt><trkpt lat="44.0709867" lon="8.0999517"><ele>224.33333333333331</ele><time>2026-04-14T17:19:59.988Z</time></trkpt><trkpt lat="44.0709267" lon="8.09991"><ele>225.16666666666666</ele><time>2026-04-14T17:20:01.987Z</time></trkpt><trkpt lat="44.0708733" lon="8.09985"><ele>226.0</ele><time>2026-04-14T17:20:03.987Z</time></trkpt><trkpt lat="44.070825" lon="8.0997767"><ele>220.83333333333331</ele><time>2026-04-14T17:20:05.987Z</time></trkpt><trkpt lat="44.0707467" lon="8.0997117"><ele>215.66666666666666</ele><time>2026-04-14T17:20:07.987Z</time></trkpt><trkpt lat="44.07068" lon="8.0996483"><ele>210.5</ele><time>2026-04-14T17:20:09.987Z</time></trkpt><trkpt lat="44.0706" lon="8.0996983"><ele>205.33333333333331</ele><time>2026-04-14T17:20:13.987Z</time></trkpt><trkpt lat="44.0705417" lon="8.0997583"><ele>200.16666666666666</ele><time>2026-04-14T17:20:16.987Z</time></trkpt><trkpt lat="44.0704767" lon="8.0997883"><ele>195.0</ele><time>2026-04-14T17:20:19.988Z</time></trkpt><trkpt lat="44.070405" lon="8.0998433"><ele>195.0</ele><time>2026-04-14T17:20:22.987Z</time></trkpt><trkpt lat="44.0703233" lon="8.09984"><ele>195.0</ele><time>2026-04-14T17:20:25.988Z</time></trkpt><trkpt lat="44.0702483" lon="8.0997883"><ele>195.0</ele><time>2026-04-14T17:20:27.987Z</time></trkpt><trkpt lat="44.0701967" lon="8.0996883"><ele>195.0</ele><time>2026-04-14T17:20:30.987Z</time></trkpt><trkpt lat="44.0701833" lon="8.09958"><ele>195.0</ele><time>2026-04-14T17:20:33.987Z</time></trkpt><trkpt lat="44.0701067" lon="8.0994667"><ele>195.0</ele><time>2026-04-14T17:21:39.988Z</time></trkpt><trkpt lat="44.07004" lon="8.09935"><ele>195.0</ele><time>2026-04-14T17:22:15.987Z</time></trkpt><trkpt lat="44.069985" lon="8.0992767"><ele>195.0</ele><time>2026-04-14T17:22:18.987Z</time></trkpt><trkpt lat="44.0699283" lon="8.0991783"><ele>195.0</ele><time>2026-04-14T17:22:21.988Z</time></trkpt><trkpt lat="44.06986" lon="8.0991333"><ele>195.0</ele><time>2026-04-14T17:22:23.987Z</time></trkpt><trkpt lat="44.069735" lon="8.09906"><ele>195.0</ele><time>2026-04-14T17:22:38.988Z</time></trkpt><trkpt lat="44.069675" lon="8.0990333"><ele>195.0</ele><time>2026-04-14T17:22:40.988Z</time></trkpt><trkpt lat="44.0695917" lon="8.0990317"><ele>192.66666666666666</ele><time>2026-04-14T17:22:42.987Z</time></trkpt><trkpt lat="44.06949" lon="8.099065"><ele>190.33333333333334</ele><time>2026-04-14T17:22:44.988Z</time></trkpt><trkpt lat="44.0694217" lon="8.0990867"><ele>188.0</ele><time>2026-04-14T17:22:45.988Z</time></trkpt><trkpt lat="44.0693583" lon="8.099115"><ele>185.66666666666669</ele><time>2026-04-14T17:22:46.988Z</time></trkpt><trkpt lat="44.069295" lon="8.099145"><ele>183.33333333333334</ele><time>2026-04-14T17:22:47.988Z</time></trkpt><trkpt lat="44.0691783" lon="8.099195"><ele>181.0</ele><time>2026-04-14T17:22:49.987Z</time></trkpt><trkpt lat="44.0690883" lon="8.0992567"><ele>177.0</ele><time>2026-04-14T17:22:51.988Z</time></trkpt><trkpt lat="44.0689967" lon="8.0992933"><ele>173.0</ele><time>2026-04-14T17:22:53.987Z</time></trkpt><trkpt lat="44.0688967" lon="8.0992983"><ele>169.0</ele><time>2026-04-14T17:22:55.987Z</time></trkpt><trkpt lat="44.06879" lon="8.099315"><ele>165.0</ele><time>2026-04-14T17:22:57.988Z</time></trkpt><trkpt lat="44.068685" lon="8.0993767"><ele>161.0</ele><time>2026-04-14T17:22:59.988Z</time></trkpt><trkpt lat="44.0685567" lon="8.0994133"><ele>161.0</ele><time>2026-04-14T17:23:01.988Z</time></trkpt><trkpt lat="44.0684867" lon="8.099425"><ele>161.0</ele><time>2026-04-14T17:23:02.987Z</time></trkpt><trkpt lat="44.068425" lon="8.0994467"><ele>161.0</ele><time>2026-04-14T17:23:03.988Z</time></trkpt><trkpt lat="44.06836" lon="8.0994483"><ele>161.0</ele><time>2026-04-14T17:23:04.987Z</time></trkpt><trkpt lat="44.0682967" lon="8.09944"><ele>161.0</ele><time>2026-04-14T17:23:05.987Z</time></trkpt><trkpt lat="44.0681767" lon="8.0994217"><ele>161.0</ele><time>2026-04-14T17:23:07.988Z</time></trkpt><trkpt lat="44.0680617" lon="8.0994133"><ele>157.16666666666666</ele><time>2026-04-14T17:23:09.988Z</time></trkpt><trkpt lat="44.067985" lon="8.0994283"><ele>153.33333333333331</ele><time>2026-04-14T17:23:11.987Z</time></trkpt><trkpt lat="44.06802" lon="8.09932"><ele>149.5</ele><time>2026-04-14T17:23:14.987Z</time></trkpt><trkpt lat="44.06807" lon="8.099215"><ele>145.66666666666666</ele><time>2026-04-14T17:23:15.987Z</time></trkpt><trkpt lat="44.06811" lon="8.0990933"><ele>141.83333333333334</ele><time>2026-04-14T17:23:16.988Z</time></trkpt><trkpt lat="44.06815" lon="8.098975"><ele>138.0</ele><time>2026-04-14T17:23:17.987Z</time></trkpt><trkpt lat="44.06819" lon="8.098855"><ele>136.33333333333334</ele><time>2026-04-14T17:23:18.987Z</time></trkpt><trkpt lat="44.0682117" lon="8.09873"><ele>134.66666666666666</ele><time>2026-04-14T17:23:19.988Z</time></trkpt><trkpt lat="44.0682283" lon="8.09862"><ele>133.0</ele><time>2026-04-14T17:23:20.988Z</time></trkpt><trkpt lat="44.0682433" lon="8.09852"><ele>131.33333333333331</ele><time>2026-04-14T17:23:21.987Z</time></trkpt><trkpt lat="44.06827" lon="8.09843"><ele>129.66666666666666</ele><time>2026-04-14T17:23:22.988Z</time></trkpt><trkpt lat="44.0683083" lon="8.0983467"><ele>128.0</ele><time>2026-04-14T17:23:23.988Z</time></trkpt><trkpt lat="44.0683483" lon="8.098265"><ele>127.99999999999999</ele><time>2026-04-14T17:23:24.988Z</time></trkpt><trkpt lat="44.0684033" lon="8.098185"><ele>128.0</ele><time>2026-04-14T17:23:25.987Z</time></trkpt><trkpt lat="44.0684617" lon="8.0980967"><ele>128.0</ele><time>2026-04-14T17:23:26.988Z</time></trkpt><trkpt lat="44.0685083" lon="8.0980067"><ele>128.0</ele><time>2026-04-14T17:23:27.988Z</time></trkpt><trkpt lat="44.068565" lon="8.09793"><ele>127.99999999999999</ele><time>2026-04-14T17:23:28.987Z</time></trkpt><trkpt lat="44.0686283" lon="8.0978683"><ele>128.0</ele><time>2026-04-14T17:23:29.987Z</time></trkpt><trkpt lat="44.0686883" lon="8.0978383"><ele>128.0</ele><time>2026-04-14T17:23:30.987Z</time></trkpt><trkpt lat="44.06878" lon="8.0978167"><ele>128.0</ele><time>2026-04-14T17:23:32.987Z</time></trkpt><trkpt lat="44.0688617" lon="8.097675"><ele>128.0</ele><time>2026-04-14T17:23:34.988Z</time></trkpt><trkpt lat="44.0688933" lon="8.0975717"><ele>128.0</ele><time>2026-04-14T17:23:35.987Z</time></trkpt><trkpt lat="44.0689317" lon="8.0974667"><ele>128.0</ele><time>2026-04-14T17:23:36.988Z</time></trkpt><trkpt lat="44.068965" lon="8.0973833"><ele>127.99999999999999</ele><time>2026-04-14T17:23:37.988Z</time></trkpt><trkpt lat="44.06897" lon="8.0972867"><ele>128.0</ele><time>2026-04-14T17:23:39.987Z</time></trkpt><trkpt lat="44.0688783" lon="8.0973467"><ele>128.0</ele><time>2026-04-14T17:23:42.987Z</time></trkpt><trkpt lat="44.068835" lon="8.09743"><ele>128.0</ele><time>2026-04-14T17:23:43.988Z</time></trkpt><trkpt lat="44.06876" lon="8.0975317"><ele>127.99999999999999</ele><time>2026-04-14T17:23:45.988Z</time></trkpt><trkpt lat="44.068665" lon="8.0975633"><ele>128.0</ele><time>2026-04-14T17:23:47.988Z</time></trkpt><trkpt lat="44.0685983" lon="8.0975767"><ele>127.99999999999999</ele><time>2026-04-14T17:23:48.987Z</time></trkpt><trkpt lat="44.06853" lon="8.0975933"><ele>128.0</ele><time>2026-04-14T17:23:49.988Z</time></trkpt><trkpt lat="44.0684533" lon="8.0976117"><ele>128.0</ele><time>2026-04-14T17:23:50.988Z</time></trkpt><trkpt lat="44.0683733" lon="8.0976083"><ele>128.0</ele><time>2026-04-14T17:23:51.988Z</time></trkpt><trkpt lat="44.0683067" lon="8.0975967"><ele>127.99999999999999</ele><time>2026-04-14T17:23:52.988Z</time></trkpt><trkpt lat="44.0682217" lon="8.097575"><ele>128.0</ele><time>2026-04-14T17:23:53.988Z</time></trkpt><trkpt lat="44.06814" lon="8.0975533"><ele>126.71428571428571</ele><time>2026-04-14T17:23:54.988Z</time></trkpt><trkpt lat="44.0680583" lon="8.097545"><ele>125.42857142857142</ele><time>2026-04-14T17:23:55.988Z</time></trkpt><trkpt lat="44.0679867" lon="8.0975633"><ele>124.14285714285714</ele><time>2026-04-14T17:23:56.988Z</time></trkpt><trkpt lat="44.0679217" lon="8.097575"><ele>122.85714285714286</ele><time>2026-04-14T17:23:57.988Z</time></trkpt><trkpt lat="44.067855" lon="8.097565"><ele>121.57142857142857</ele><time>2026-04-14T17:23:58.987Z</time></trkpt><trkpt lat="44.0677917" lon="8.0975333"><ele>120.28571428571428</ele><time>2026-04-14T17:23:59.987Z</time></trkpt><trkpt lat="44.0677283" lon="8.09752"><ele>119.0</ele><time>2026-04-14T17:24:00.987Z</time></trkpt><trkpt lat="44.06766" lon="8.0975083"><ele>118.99999999999999</ele><time>2026-04-14T17:24:01.988Z</time></trkpt><trkpt lat="44.06759" lon="8.0975133"><ele>119.0</ele><time>2026-04-14T17:24:02.987Z</time></trkpt><trkpt lat="44.0675233" lon="8.09755"><ele>119.0</ele><time>2026-04-14T17:24:03.987Z</time></trkpt><trkpt lat="44.0674467" lon="8.0976133"><ele>119.0</ele><time>2026-04-14T17:24:04.988Z</time></trkpt><trkpt lat="44.0673667" lon="8.0976817"><ele>118.99999999999999</ele><time>2026-04-14T17:24:05.987Z</time></trkpt><trkpt lat="44.067275" lon="8.0977483"><ele>119.0</ele><time>2026-04-14T17:24:06.988Z</time></trkpt><trkpt lat="44.0671817" lon="8.0978033"><ele>118.0</ele><time>2026-04-14T17:24:07.988Z</time></trkpt><trkpt lat="44.0670867" lon="8.0978717"><ele>117.0</ele><time>2026-04-14T17:24:08.988Z</time></trkpt><trkpt lat="44.0669983" lon="8.0979683"><ele>116.0</ele><time>2026-04-14T17:24:09.988Z</time></trkpt><trkpt lat="44.0669267" lon="8.098075"><ele>115.0</ele><time>2026-04-14T17:24:10.987Z</time></trkpt><trkpt lat="44.0668783" lon="8.0981867"><ele>114.0</ele><time>2026-04-14T17:24:11.988Z</time></trkpt><trkpt lat="44.066845" lon="8.0983017"><ele>114.0</ele><time>2026-04-14T17:24:12.987Z</time></trkpt><trkpt lat="44.06683" lon="8.0984133"><ele>113.99999999999999</ele><time>2026-04-14T17:24:13.988Z</time></trkpt><trkpt lat="44.0668267" lon="8.098515"><ele>114.0</ele><time>2026-04-14T17:24:14.988Z</time></trkpt><trkpt lat="44.0668083" lon="8.09862"><ele>114.0</ele><time>2026-04-14T17:24:15.988Z</time></trkpt><trkpt lat="44.06679" lon="8.098705"><ele>113.99999999999999</ele><time>2026-04-14T17:24:16.988Z</time></trkpt><trkpt lat="44.06675" lon="8.0987833"><ele>114.0</ele><time>2026-04-14T17:24:17.987Z</time></trkpt><trkpt lat="44.0667" lon="8.0988633"><ele>114.0</ele><time>2026-04-14T17:24:18.988Z</time></trkpt><trkpt lat="44.066655" lon="8.0989567"><ele>114.0</ele><time>2026-04-14T17:24:19.988Z</time></trkpt><trkpt lat="44.0666117" lon="8.0990767"><ele>114.0</ele><time>2026-04-14T17:24:20.987Z</time></trkpt><trkpt lat="44.0665767" lon="8.0991783"><ele>114.0</ele><time>2026-04-14T17:24:21.988Z</time></trkpt><trkpt lat="44.06653" lon="8.0992833"><ele>114.0</ele><time>2026-04-14T17:24:22.988Z</time></trkpt><trkpt lat="44.06646" lon="8.099405"><ele>114.0</ele><time>2026-04-14T17:24:23.987Z</time></trkpt><trkpt lat="44.0663767" lon="8.0994883"><ele>114.4</ele><time>2026-04-14T17:24:24.987Z</time></trkpt><trkpt lat="44.06629" lon="8.0995517"><ele>114.80000000000001</ele><time>2026-04-14T17:24:25.987Z</time></trkpt><trkpt lat="44.0662133" lon="8.0996317"><ele>115.19999999999999</ele><time>2026-04-14T17:24:26.988Z</time></trkpt><trkpt lat="44.06616" lon="8.0997417"><ele>115.6</ele><time>2026-04-14T17:24:27.988Z</time></trkpt><trkpt lat="44.066125" lon="8.0998833"><ele>116.0</ele><time>2026-04-14T17:24:28.988Z</time></trkpt><trkpt lat="44.0661083" lon="8.1000283"><ele>115.0</ele><time>2026-04-14T17:24:29.987Z</time></trkpt><trkpt lat="44.0660733" lon="8.10015"><ele>114.0</ele><time>2026-04-14T17:24:30.988Z</time></trkpt><trkpt lat="44.06603" lon="8.10025"><ele>113.0</ele><time>2026-04-14T17:24:31.988Z</time></trkpt><trkpt lat="44.0659567" lon="8.1003167"><ele>112.0</ele><time>2026-04-14T17:24:32.987Z</time></trkpt><trkpt lat="44.0658633" lon="8.1003883"><ele>111.0</ele><time>2026-04-14T17:24:33.987Z</time></trkpt><trkpt lat="44.0657667" lon="8.100475"><ele>111.0</ele><time>2026-04-14T17:24:34.988Z</time></trkpt><trkpt lat="44.0656917" lon="8.100575"><ele>111.0</ele><time>2026-04-14T17:24:35.988Z</time></trkpt><trkpt lat="44.0656233" lon="8.1006917"><ele>111.0</ele><time>2026-04-14T17:24:36.987Z</time></trkpt><trkpt lat="44.0655667" lon="8.1008267"><ele>111.0</ele><time>2026-04-14T17:24:37.987Z</time></trkpt><trkpt lat="44.0655217" lon="8.1009533"><ele>111.0</ele><time>2026-04-14T17:24:38.987Z</time></trkpt><trkpt lat="44.065475" lon="8.1010733"><ele>109.16666666666667</ele><time>2026-04-14T17:24:39.987Z</time></trkpt><trkpt lat="44.0654433" lon="8.10119"><ele>107.33333333333334</ele><time>2026-04-14T17:24:40.987Z</time></trkpt><trkpt lat="44.0654" lon="8.1012933"><ele>105.5</ele><time>2026-04-14T17:24:41.987Z</time></trkpt><trkpt lat="44.06536" lon="8.1013817"><ele>103.66666666666667</ele><time>2026-04-14T17:24:42.988Z</time></trkpt><trkpt lat="44.0653033" lon="8.10143"><ele>101.83333333333334</ele><time>2026-04-14T17:24:43.987Z</time></trkpt><trkpt lat="44.0652433" lon="8.1014783"><ele>100.0</ele><time>2026-04-14T17:24:44.987Z</time></trkpt><trkpt lat="44.06518" lon="8.1015017"><ele>100.00000000000001</ele><time>2026-04-14T17:24:45.987Z</time></trkpt><trkpt lat="44.065115" lon="8.1015317"><ele>100.0</ele><time>2026-04-14T17:24:46.988Z</time></trkpt><trkpt lat="44.0650483" lon="8.1015617"><ele>100.0</ele><time>2026-04-14T17:24:47.987Z</time></trkpt><trkpt lat="44.0649817" lon="8.1016017"><ele>100.0</ele><time>2026-04-14T17:24:48.988Z</time></trkpt><trkpt lat="44.0648983" lon="8.1016433"><ele>100.00000000000001</ele><time>2026-04-14T17:24:49.987Z</time></trkpt><trkpt lat="44.0648117" lon="8.1017017"><ele>100.0</ele><time>2026-04-14T17:24:50.988Z</time></trkpt><trkpt lat="44.064725" lon="8.1017767"><ele>98.4</ele><time>2026-04-14T17:24:51.988Z</time></trkpt><trkpt lat="44.06465" lon="8.1018633"><ele>96.8</ele><time>2026-04-14T17:24:52.988Z</time></trkpt><trkpt lat="44.0645683" lon="8.1019467"><ele>95.19999999999999</ele><time>2026-04-14T17:24:53.987Z</time></trkpt><trkpt lat="44.064515" lon="8.1020217"><ele>93.6</ele><time>2026-04-14T17:24:54.987Z</time></trkpt><trkpt lat="44.06447" lon="8.1020967"><ele>92.0</ele><time>2026-04-14T17:24:55.987Z</time></trkpt><trkpt lat="44.06441" lon="8.10225"><ele>92.0</ele><time>2026-04-14T17:24:57.988Z</time></trkpt><trkpt lat="44.064375" lon="8.1023283"><ele>92.0</ele><time>2026-04-14T17:24:58.987Z</time></trkpt><trkpt lat="44.06431" lon="8.1023717"><ele>92.0</ele><time>2026-04-14T17:25:00.988Z</time></trkpt><trkpt lat="44.0642983" lon="8.1022583"><ele>92.0</ele><time>2026-04-14T17:25:02.988Z</time></trkpt><trkpt lat="44.0643267" lon="8.10214"><ele>92.0</ele><time>2026-04-14T17:25:03.987Z</time></trkpt><trkpt lat="44.0643433" lon="8.1020483"><ele>92.0</ele><time>2026-04-14T17:25:04.987Z</time></trkpt><trkpt lat="44.064285" lon="8.1019067"><ele>92.0</ele><time>2026-04-14T17:25:06.987Z</time></trkpt><trkpt lat="44.0642167" lon="8.1018383"><ele>92.0</ele><time>2026-04-14T17:25:07.987Z</time></trkpt><trkpt lat="44.0641333" lon="8.1017683"><ele>92.0</ele><time>2026-04-14T17:25:08.987Z</time></trkpt><trkpt lat="44.0640733" lon="8.1016817"><ele>92.0</ele><time>2026-04-14T17:25:09.987Z</time></trkpt><trkpt lat="44.0640167" lon="8.10159"><ele>92.0</ele><time>2026-04-14T17:25:10.987Z</time></trkpt><trkpt lat="44.063965" lon="8.1014933"><ele>92.0</ele><time>2026-04-14T17:25:11.988Z</time></trkpt><trkpt lat="44.0639283" lon="8.101395"><ele>93.83333333333334</ele><time>2026-04-14T17:25:12.987Z</time></trkpt><trkpt lat="44.0638967" lon="8.1013083"><ele>95.66666666666667</ele><time>2026-04-14T17:25:13.987Z</time></trkpt><trkpt lat="44.0638533" lon="8.10124"><ele>97.5</ele><time>2026-04-14T17:25:14.988Z</time></trkpt><trkpt lat="44.06375" lon="8.101175"><ele>99.33333333333334</ele><time>2026-04-14T17:25:16.987Z</time></trkpt><trkpt lat="44.06365" lon="8.1011267"><ele>101.16666666666667</ele><time>2026-04-14T17:25:18.988Z</time></trkpt><trkpt lat="44.0635767" lon="8.101055"><ele>103.0</ele><time>2026-04-14T17:25:20.987Z</time></trkpt><trkpt lat="44.063565" lon="8.100915"><ele>103.00000000000001</ele><time>2026-04-14T17:25:22.988Z</time></trkpt><trkpt lat="44.063575" lon="8.1008283"><ele>103.0</ele><time>2026-04-14T17:25:23.987Z</time></trkpt><trkpt lat="44.0635833" lon="8.100725"><ele>103.0</ele><time>2026-04-14T17:25:24.987Z</time></trkpt><trkpt lat="44.0635933" lon="8.1006033"><ele>103.0</ele><time>2026-04-14T17:25:25.987Z</time></trkpt><trkpt lat="44.0636017" lon="8.10047"><ele>103.00000000000001</ele><time>2026-04-14T17:25:26.988Z</time></trkpt><trkpt lat="44.0635917" lon="8.1003217"><ele>103.0</ele><time>2026-04-14T17:25:27.988Z</time></trkpt><trkpt lat="44.0635667" lon="8.1001917"><ele>104.33333333333334</ele><time>2026-04-14T17:25:28.987Z</time></trkpt><trkpt lat="44.0635383" lon="8.1000883"><ele>105.66666666666667</ele><time>2026-04-14T17:25:29.987Z</time></trkpt><trkpt lat="44.0634867" lon="8.09998"><ele>107.0</ele><time>2026-04-14T17:25:30.987Z</time></trkpt><trkpt lat="44.0634483" lon="8.0998867"><ele>108.33333333333334</ele><time>2026-04-14T17:25:31.988Z</time></trkpt><trkpt lat="44.0634133" lon="8.099795"><ele>109.66666666666667</ele><time>2026-04-14T17:25:32.987Z</time></trkpt><trkpt lat="44.0633917" lon="8.0996867"><ele>111.0</ele><time>2026-04-14T17:25:33.987Z</time></trkpt><trkpt lat="44.063365" lon="8.0995683"><ele>111.83333333333333</ele><time>2026-04-14T17:25:34.988Z</time></trkpt><trkpt lat="44.0633483" lon="8.0994517"><ele>112.66666666666666</ele><time>2026-04-14T17:25:35.988Z</time></trkpt><trkpt lat="44.0633483" lon="8.0993467"><ele>113.5</ele><time>2026-04-14T17:25:36.987Z</time></trkpt><trkpt lat="44.0633667" lon="8.099175"><ele>114.33333333333333</ele><time>2026-04-14T17:25:38.987Z</time></trkpt><trkpt lat="44.0633583" lon="8.0990667"><ele>115.16666666666666</ele><time>2026-04-14T17:25:39.987Z</time></trkpt><trkpt lat="44.0633417" lon="8.098955"><ele>116.0</ele><time>2026-04-14T17:25:40.987Z</time></trkpt><trkpt lat="44.06331" lon="8.0988367"><ele>119.66666666666666</ele><time>2026-04-14T17:25:41.988Z</time></trkpt><trkpt lat="44.063275" lon="8.0987333"><ele>123.33333333333333</ele><time>2026-04-14T17:25:42.987Z</time></trkpt><trkpt lat="44.0632433" lon="8.0986333"><ele>127.0</ele><time>2026-04-14T17:25:43.988Z</time></trkpt><trkpt lat="44.0632067" lon="8.0985367"><ele>130.66666666666666</ele><time>2026-04-14T17:25:44.988Z</time></trkpt><trkpt lat="44.0631533" lon="8.0983733"><ele>134.33333333333334</ele><time>2026-04-14T17:25:46.987Z</time></trkpt><trkpt lat="44.063115" lon="8.0982867"><ele>138.0</ele><time>2026-04-14T17:25:47.988Z</time></trkpt><trkpt lat="44.0630733" lon="8.0981817"><ele>138.0</ele><time>2026-04-14T17:25:48.987Z</time></trkpt><trkpt lat="44.0630333" lon="8.09808"><ele>138.0</ele><time>2026-04-14T17:25:49.987Z</time></trkpt><trkpt lat="44.0630067" lon="8.09798"><ele>138.0</ele><time>2026-04-14T17:25:50.987Z</time></trkpt><trkpt lat="44.06299" lon="8.0978683"><ele>138.0</ele><time>2026-04-14T17:25:51.987Z</time></trkpt><trkpt lat="44.0629783" lon="8.0977483"><ele>138.0</ele><time>2026-04-14T17:25:52.987Z</time></trkpt><trkpt lat="44.0629717" lon="8.0976417"><ele>138.0</ele><time>2026-04-14T17:25:53.987Z</time></trkpt><trkpt lat="44.0629583" lon="8.0975333"><ele>137.0</ele><time>2026-04-14T17:25:54.987Z</time></trkpt><trkpt lat="44.062925" lon="8.0974"><ele>136.0</ele><time>2026-04-14T17:25:55.987Z</time></trkpt><trkpt lat="44.06288" lon="8.0972817"><ele>135.0</ele><time>2026-04-14T17:25:56.988Z</time></trkpt><trkpt lat="44.06282" lon="8.09715"><ele>134.0</ele><time>2026-04-14T17:25:57.987Z</time></trkpt><trkpt lat="44.06275" lon="8.097015"><ele>133.0</ele><time>2026-04-14T17:25:58.987Z</time></trkpt><trkpt lat="44.0626917" lon="8.0969017"><ele>133.0</ele><time>2026-04-14T17:25:59.988Z</time></trkpt><trkpt lat="44.0626317" lon="8.0968117"><ele>133.0</ele><time>2026-04-14T17:26:00.988Z</time></trkpt><trkpt lat="44.0625667" lon="8.09674"><ele>133.0</ele><time>2026-04-14T17:26:01.988Z</time></trkpt><trkpt lat="44.0625" lon="8.096675"><ele>133.0</ele><time>2026-04-14T17:26:02.987Z</time></trkpt><trkpt lat="44.0624467" lon="8.0966117"><ele>133.0</ele><time>2026-04-14T17:26:03.987Z</time></trkpt><trkpt lat="44.0624033" lon="8.0965417"><ele>133.0</ele><time>2026-04-14T17:26:04.988Z</time></trkpt><trkpt lat="44.0623633" lon="8.0964567"><ele>135.0</ele><time>2026-04-14T17:26:05.987Z</time></trkpt><trkpt lat="44.0623533" lon="8.0963583"><ele>137.0</ele><time>2026-04-14T17:26:06.987Z</time></trkpt><trkpt lat="44.0623483" lon="8.0962283"><ele>139.0</ele><time>2026-04-14T17:26:07.988Z</time></trkpt><trkpt lat="44.062345" lon="8.0960967"><ele>141.0</ele><time>2026-04-14T17:26:08.988Z</time></trkpt><trkpt lat="44.062325" lon="8.0959717"><ele>143.0</ele><time>2026-04-14T17:26:09.987Z</time></trkpt><trkpt lat="44.0622917" lon="8.095855"><ele>145.0</ele><time>2026-04-14T17:26:10.988Z</time></trkpt><trkpt lat="44.0622517" lon="8.0957417"><ele>145.0</ele><time>2026-04-14T17:26:11.987Z</time></trkpt><trkpt lat="44.062195" lon="8.09564"><ele>145.0</ele><time>2026-04-14T17:26:12.988Z</time></trkpt><trkpt lat="44.0621333" lon="8.0955533"><ele>145.0</ele><time>2026-04-14T17:26:13.988Z</time></trkpt><trkpt lat="44.0620617" lon="8.09548"><ele>145.0</ele><time>2026-04-14T17:26:14.987Z</time></trkpt><trkpt lat="44.0619733" lon="8.095425"><ele>145.0</ele><time>2026-04-14T17:26:15.987Z</time></trkpt><trkpt lat="44.0618867" lon="8.09537"><ele>145.0</ele><time>2026-04-14T17:26:16.988Z</time></trkpt><trkpt lat="44.061805" lon="8.0953133"><ele>145.0</ele><time>2026-04-14T17:26:17.987Z</time></trkpt><trkpt lat="44.06173" lon="8.0952667"><ele>145.0</ele><time>2026-04-14T17:26:18.988Z</time></trkpt><trkpt lat="44.0616783" lon="8.0951883"><ele>145.0</ele><time>2026-04-14T17:26:20.988Z</time></trkpt><trkpt lat="44.0617767" lon="8.0951233"><ele>145.0</ele><time>2026-04-14T17:28:10.989Z</time></trkpt><trkpt lat="44.0618483" lon="8.0950367"><ele>145.0</ele><time>2026-04-14T17:28:13.988Z</time></trkpt><trkpt lat="44.0619" lon="8.0949833"><ele>145.0</ele><time>2026-04-14T17:28:14.989Z</time></trkpt><trkpt lat="44.061965" lon="8.09493"><ele>145.0</ele><time>2026-04-14T17:28:15.988Z</time></trkpt><trkpt lat="44.062015" lon="8.0948767"><ele>145.0</ele><time>2026-04-14T17:28:16.989Z</time></trkpt><trkpt lat="44.062085" lon="8.0947833"><ele>145.0</ele><time>2026-04-14T17:28:18.989Z</time></trkpt><trkpt lat="44.0621417" lon="8.0947"><ele>145.0</ele><time>2026-04-14T17:28:47.988Z</time></trkpt><trkpt lat="44.0621833" lon="8.094575"><ele>147.2</ele><time>2026-04-14T17:28:49.988Z</time></trkpt><trkpt lat="44.0622267" lon="8.0944383"><ele>149.4</ele><time>2026-04-14T17:28:51.988Z</time></trkpt><trkpt lat="44.0622883" lon="8.0943417"><ele>151.6</ele><time>2026-04-14T17:28:53.988Z</time></trkpt><trkpt lat="44.062335" lon="8.0942317"><ele>153.8</ele><time>2026-04-14T17:28:55.988Z</time></trkpt><trkpt lat="44.06238" lon="8.0941133"><ele>156.0</ele><time>2026-04-14T17:28:57.989Z</time></trkpt><trkpt lat="44.062455" lon="8.094025"><ele>157.66666666666666</ele><time>2026-04-14T17:28:59.989Z</time></trkpt><trkpt lat="44.0625517" lon="8.093965"><ele>159.33333333333334</ele><time>2026-04-14T17:29:01.989Z</time></trkpt><trkpt lat="44.062625" lon="8.0939367"><ele>161.0</ele><time>2026-04-14T17:29:03.989Z</time></trkpt><trkpt lat="44.0627283" lon="8.093885"><ele>162.66666666666669</ele><time>2026-04-14T17:29:29.988Z</time></trkpt><trkpt lat="44.0627817" lon="8.093825"><ele>164.33333333333334</ele><time>2026-04-14T17:31:44.988Z</time></trkpt><trkpt lat="44.06274" lon="8.09372"><ele>166.0</ele><time>2026-04-14T17:31:47.988Z</time></trkpt><trkpt lat="44.062695" lon="8.09364"><ele>166.0</ele><time>2026-04-14T17:31:49.988Z</time></trkpt><trkpt lat="44.062645" lon="8.0935733"><ele>166.0</ele><time>2026-04-14T17:31:51.989Z</time></trkpt><trkpt lat="44.0626667" lon="8.093485"><ele>166.0</ele><time>2026-04-14T17:31:54.989Z</time></trkpt><trkpt lat="44.06267" lon="8.0933717"><ele>166.0</ele><time>2026-04-14T17:32:03.989Z</time></trkpt><trkpt lat="44.0625983" lon="8.093335"><ele>166.0</ele><time>2026-04-14T17:32:08.988Z</time></trkpt><trkpt lat="44.06257" lon="8.0932517"><ele>166.0</ele><time>2026-04-14T17:32:12.989Z</time></trkpt><trkpt lat="44.062515" lon="8.0931617"><ele>166.0</ele><time>2026-04-14T17:32:19.988Z</time></trkpt><trkpt lat="44.06249" lon="8.0930367"><ele>169.28571428571428</ele><time>2026-04-14T17:32:23.988Z</time></trkpt><trkpt lat="44.0624467" lon="8.092965"><ele>172.57142857142858</ele><time>2026-04-14T17:32:27.988Z</time></trkpt><trkpt lat="44.062405" lon="8.0928783"><ele>175.85714285714286</ele><time>2026-04-14T17:32:30.989Z</time></trkpt><trkpt lat="44.0623733" lon="8.092795"><ele>179.14285714285714</ele><time>2026-04-14T17:32:32.989Z</time></trkpt><trkpt lat="44.062375" lon="8.0927067"><ele>182.42857142857144</ele><time>2026-04-14T17:32:34.988Z</time></trkpt><trkpt lat="44.0623833" lon="8.0926017"><ele>185.71428571428572</ele><time>2026-04-14T17:32:58.988Z</time></trkpt><trkpt lat="44.062345" lon="8.0925067"><ele>189.0</ele><time>2026-04-14T17:33:01.989Z</time></trkpt><trkpt lat="44.0623483" lon="8.0923683"><ele>189.33333333333334</ele><time>2026-04-14T17:33:08.989Z</time></trkpt><trkpt lat="44.0623733" lon="8.0922717"><ele>189.66666666666666</ele><time>2026-04-14T17:33:10.988Z</time></trkpt><trkpt lat="44.0624033" lon="8.0921683"><ele>190.0</ele><time>2026-04-14T17:33:12.988Z</time></trkpt><trkpt lat="44.062445" lon="8.09206"><ele>190.33333333333331</ele><time>2026-04-14T17:33:14.989Z</time></trkpt><trkpt lat="44.0624617" lon="8.0919717"><ele>190.66666666666666</ele><time>2026-04-14T17:33:16.988Z</time></trkpt><trkpt lat="44.062455" lon="8.0918517"><ele>191.0</ele><time>2026-04-14T17:33:18.989Z</time></trkpt><trkpt lat="44.062415" lon="8.0917633"><ele>191.0</ele><time>2026-04-14T17:33:22.989Z</time></trkpt><trkpt lat="44.0624683" lon="8.0916867"><ele>191.0</ele><time>2026-04-14T17:33:39.988Z</time></trkpt><trkpt lat="44.0625217" lon="8.0916017"><ele>191.0</ele><time>2026-04-14T17:33:41.989Z</time></trkpt><trkpt lat="44.062535" lon="8.0915117"><ele>191.0</ele><time>2026-04-14T17:33:43.989Z</time></trkpt><trkpt lat="44.0625283" lon="8.0914083"><ele>191.0</ele><time>2026-04-14T17:33:46.988Z</time></trkpt><trkpt lat="44.0625683" lon="8.0913133"><ele>191.0</ele><time>2026-04-14T17:33:50.988Z</time></trkpt><trkpt lat="44.0625633" lon="8.09119"><ele>193.0</ele><time>2026-04-14T17:33:53.989Z</time></trkpt><trkpt lat="44.0625533" lon="8.0910667"><ele>195.0</ele><time>2026-04-14T17:33:55.988Z</time></trkpt><trkpt lat="44.062545" lon="8.09094"><ele>197.0</ele><time>2026-04-14T17:33:57.989Z</time></trkpt><trkpt lat="44.0625533" lon="8.0908267"><ele>199.0</ele><time>2026-04-14T17:33:59.988Z</time></trkpt><trkpt lat="44.06255" lon="8.09073"><ele>201.00000000000003</ele><time>2026-04-14T17:34:01.988Z</time></trkpt><trkpt lat="44.062475" lon="8.0906433"><ele>203.0</ele><time>2026-04-14T17:34:06.988Z</time></trkpt><trkpt lat="44.062425" lon="8.0905767"><ele>204.14285714285714</ele><time>2026-04-14T17:34:09.989Z</time></trkpt><trkpt lat="44.0624267" lon="8.0904717"><ele>205.28571428571428</ele><time>2026-04-14T17:34:12.989Z</time></trkpt><trkpt lat="44.0624617" lon="8.090375"><ele>206.42857142857144</ele><time>2026-04-14T17:34:14.989Z</time></trkpt><trkpt lat="44.062475" lon="8.0902833"><ele>207.57142857142856</ele><time>2026-04-14T17:34:16.989Z</time></trkpt><trkpt lat="44.0624583" lon="8.09016"><ele>208.71428571428572</ele><time>2026-04-14T17:34:19.989Z</time></trkpt><trkpt lat="44.0624233" lon="8.0900767"><ele>209.85714285714286</ele><time>2026-04-14T17:34:22.989Z</time></trkpt><trkpt lat="44.06239" lon="8.0899983"><ele>211.0</ele><time>2026-04-14T17:34:27.989Z</time></trkpt><trkpt lat="44.0623617" lon="8.0898983"><ele>215.28571428571428</ele><time>2026-04-14T17:34:30.988Z</time></trkpt><trkpt lat="44.0623117" lon="8.0898183"><ele>219.57142857142858</ele><time>2026-04-14T17:34:33.988Z</time></trkpt><trkpt lat="44.0622483" lon="8.0898283"><ele>223.85714285714286</ele><time>2026-04-14T17:36:58.988Z</time></trkpt><trkpt lat="44.062205" lon="8.0897517"><ele>228.14285714285717</ele><time>2026-04-14T17:38:06.989Z</time></trkpt><trkpt lat="44.0621383" lon="8.0896783"><ele>232.42857142857144</ele><time>2026-04-14T17:38:11.988Z</time></trkpt><trkpt lat="44.06207" lon="8.089665"><ele>236.71428571428572</ele><time>2026-04-14T17:38:13.989Z</time></trkpt><trkpt lat="44.0620017" lon="8.0896833"><ele>241.0</ele><time>2026-04-14T17:38:16.989Z</time></trkpt><trkpt lat="44.0619267" lon="8.08973"><ele>240.99999999999997</ele><time>2026-04-14T17:38:20.989Z</time></trkpt><trkpt lat="44.061855" lon="8.0897733"><ele>241.0</ele><time>2026-04-14T17:38:23.988Z</time></trkpt><trkpt lat="44.061725" lon="8.08968"><ele>241.0</ele><time>2026-04-14T17:38:43.988Z</time></trkpt><trkpt lat="44.06175" lon="8.0895833"><ele>241.0</ele><time>2026-04-14T17:38:48.988Z</time></trkpt><trkpt lat="44.0617533" lon="8.089495"><ele>240.99999999999997</ele><time>2026-04-14T17:38:54.988Z</time></trkpt><trkpt lat="44.0617483" lon="8.0893933"><ele>241.0</ele><time>2026-04-14T17:39:02.988Z</time></trkpt><trkpt lat="44.0617917" lon="8.0892917"><ele>240.99999999999997</ele><time>2026-04-14T17:39:06.989Z</time></trkpt><trkpt lat="44.061735" lon="8.0892133"><ele>241.0</ele><time>2026-04-14T17:39:14.989Z</time></trkpt><trkpt lat="44.0617333" lon="8.0891217"><ele>241.0</ele><time>2026-04-14T17:39:18.989Z</time></trkpt><trkpt lat="44.0617467" lon="8.089025"><ele>241.0</ele><time>2026-04-14T17:39:22.988Z</time></trkpt><trkpt lat="44.0617433" lon="8.0888883"><ele>240.99999999999997</ele><time>2026-04-14T17:39:30.988Z</time></trkpt><trkpt lat="44.0617767" lon="8.0888033"><ele>241.0</ele><time>2026-04-14T17:39:37.988Z</time></trkpt><trkpt lat="44.061805" lon="8.0886833"><ele>243.33333333333331</ele><time>2026-04-14T17:40:02.989Z</time></trkpt><trkpt lat="44.06183" lon="8.0885683"><ele>245.66666666666666</ele><time>2026-04-14T17:40:06.989Z</time></trkpt><trkpt lat="44.06184" lon="8.0884433"><ele>248.0</ele><time>2026-04-14T17:40:09.989Z</time></trkpt><trkpt lat="44.06184" lon="8.0883517"><ele>250.33333333333331</ele><time>2026-04-14T17:40:11.988Z</time></trkpt><trkpt lat="44.0618267" lon="8.0882467"><ele>252.66666666666666</ele><time>2026-04-14T17:40:14.989Z</time></trkpt><trkpt lat="44.0618267" lon="8.0881217"><ele>255.0</ele><time>2026-04-14T17:40:17.989Z</time></trkpt><trkpt lat="44.0618067" lon="8.08803"><ele>255.33333333333334</ele><time>2026-04-14T17:40:20.988Z</time></trkpt><trkpt lat="44.061785" lon="8.0879283"><ele>255.66666666666669</ele><time>2026-04-14T17:40:24.988Z</time></trkpt><trkpt lat="44.0617233" lon="8.08797"><ele>256.0</ele><time>2026-04-14T17:40:29.989Z</time></trkpt><trkpt lat="44.0616633" lon="8.0880217"><ele>256.33333333333337</ele><time>2026-04-14T17:40:32.989Z</time></trkpt><trkpt lat="44.0616833" lon="8.0879367"><ele>256.6666666666667</ele><time>2026-04-14T17:41:00.989Z</time></trkpt><trkpt lat="44.0616767" lon="8.0878067"><ele>257.0</ele><time>2026-04-14T17:41:03.989Z</time></trkpt><trkpt lat="44.0616667" lon="8.0876967"><ele>257.0</ele><time>2026-04-14T17:41:05.989Z</time></trkpt><trkpt lat="44.06165" lon="8.08759"><ele>257.0</ele><time>2026-04-14T17:41:07.988Z</time></trkpt><trkpt lat="44.0616783" lon="8.0874867"><ele>257.0</ele><time>2026-04-14T17:41:09.988Z</time></trkpt><trkpt lat="44.061685" lon="8.0873817"><ele>257.0</ele><time>2026-04-14T17:41:12.988Z</time></trkpt><trkpt lat="44.0616617" lon="8.0872617"><ele>257.0</ele><time>2026-04-14T17:41:15.988Z</time></trkpt><trkpt lat="44.0616267" lon="8.0871533"><ele>257.0</ele><time>2026-04-14T17:41:18.988Z</time></trkpt><trkpt lat="44.0615983" lon="8.0870733"><ele>257.2857142857143</ele><time>2026-04-14T17:41:20.988Z</time></trkpt><trkpt lat="44.06159" lon="8.08698"><ele>257.57142857142856</ele><time>2026-04-14T17:41:22.989Z</time></trkpt><trkpt lat="44.061615" lon="8.0868783"><ele>257.8571428571429</ele><time>2026-04-14T17:41:25.988Z</time></trkpt><trkpt lat="44.0616233" lon="8.0867767"><ele>258.1428571428571</ele><time>2026-04-14T17:41:28.989Z</time></trkpt><trkpt lat="44.06163" lon="8.0866717"><ele>258.42857142857144</ele><time>2026-04-14T17:41:31.989Z</time></trkpt><trkpt lat="44.06161" lon="8.0865883"><ele>258.7142857142857</ele><time>2026-04-14T17:41:34.989Z</time></trkpt><trkpt lat="44.0615933" lon="8.0864883"><ele>259.0</ele><time>2026-04-14T17:41:36.988Z</time></trkpt><trkpt lat="44.0615767" lon="8.0863717"><ele>259.16666666666663</ele><time>2026-04-14T17:41:38.988Z</time></trkpt><trkpt lat="44.0615783" lon="8.08628"><ele>259.3333333333333</ele><time>2026-04-14T17:43:48.989Z</time></trkpt><trkpt lat="44.0614883" lon="8.0861867"><ele>259.5</ele><time>2026-04-14T17:44:25.988Z</time></trkpt><trkpt lat="44.061465" lon="8.086095"><ele>259.6666666666667</ele><time>2026-04-14T17:44:28.988Z</time></trkpt><trkpt lat="44.061435" lon="8.0859867"><ele>259.83333333333337</ele><time>2026-04-14T17:44:32.988Z</time></trkpt><trkpt lat="44.0615133" lon="8.08594"><ele>260.0</ele><time>2026-04-14T17:44:37.988Z</time></trkpt><trkpt lat="44.0615867" lon="8.085845"><ele>261.5</ele><time>2026-04-14T17:44:45.989Z</time></trkpt><trkpt lat="44.0615717" lon="8.08569"><ele>263.0</ele><time>2026-04-14T17:44:47.988Z</time></trkpt><trkpt lat="44.06156" lon="8.0855633"><ele>264.5</ele><time>2026-04-14T17:44:49.989Z</time></trkpt><trkpt lat="44.06156" lon="8.08547"><ele>266.0</ele><time>2026-04-14T17:44:51.989Z</time></trkpt><trkpt lat="44.0615667" lon="8.08535"><ele>267.5</ele><time>2026-04-14T17:44:54.988Z</time></trkpt><trkpt lat="44.0615883" lon="8.0852583"><ele>269.0</ele><time>2026-04-14T17:44:57.989Z</time></trkpt><trkpt lat="44.0615833" lon="8.0851317"><ele>269.0</ele><time>2026-04-14T17:45:01.989Z</time></trkpt><trkpt lat="44.0615833" lon="8.085015"><ele>269.0</ele><time>2026-04-14T17:45:04.989Z</time></trkpt><trkpt lat="44.061575" lon="8.08492"><ele>269.0</ele><time>2026-04-14T17:45:07.988Z</time></trkpt><trkpt lat="44.0615667" lon="8.0848267"><ele>269.0</ele><time>2026-04-14T17:45:10.989Z</time></trkpt><trkpt lat="44.06157" lon="8.0847233"><ele>269.0</ele><time>2026-04-14T17:45:13.989Z</time></trkpt><trkpt lat="44.0615617" lon="8.084615"><ele>269.0</ele><time>2026-04-14T17:45:16.989Z</time></trkpt><trkpt lat="44.0615567" lon="8.0845117"><ele>269.0</ele><time>2026-04-14T17:45:20.988Z</time></trkpt><trkpt lat="44.0615383" lon="8.0844017"><ele>270.0</ele><time>2026-04-14T17:45:24.988Z</time></trkpt><trkpt lat="44.0615317" lon="8.0842783"><ele>271.0</ele><time>2026-04-14T17:45:37.989Z</time></trkpt><trkpt lat="44.0615117" lon="8.0841783"><ele>272.0</ele><time>2026-04-14T17:45:39.989Z</time></trkpt><trkpt lat="44.0614667" lon="8.0840783"><ele>273.0</ele><time>2026-04-14T17:45:41.989Z</time></trkpt><trkpt lat="44.0614383" lon="8.0839933"><ele>274.0</ele><time>2026-04-14T17:45:43.988Z</time></trkpt><trkpt lat="44.0613567" lon="8.0839617"><ele>275.0</ele><time>2026-04-14T17:45:54.988Z</time></trkpt><trkpt lat="44.0612683" lon="8.0839567"><ele>275.0</ele><time>2026-04-14T17:45:57.989Z</time></trkpt><trkpt lat="44.0611933" lon="8.0839583"><ele>275.0</ele><time>2026-04-14T17:45:59.989Z</time></trkpt><trkpt lat="44.061115" lon="8.08398"><ele>275.0</ele><time>2026-04-14T17:46:01.989Z</time></trkpt><trkpt lat="44.061055" lon="8.0840267"><ele>275.0</ele><time>2026-04-14T17:46:03.988Z</time></trkpt><trkpt lat="44.0609883" lon="8.0840783"><ele>275.0</ele><time>2026-04-14T17:46:05.988Z</time></trkpt><trkpt lat="44.0609567" lon="8.084175"><ele>275.0</ele><time>2026-04-14T17:46:08.988Z</time></trkpt><trkpt lat="44.0609233" lon="8.0842983"><ele>275.14285714285717</ele><time>2026-04-14T17:46:11.988Z</time></trkpt><trkpt lat="44.0608433" lon="8.0843383"><ele>275.2857142857143</ele><time>2026-04-14T17:46:14.988Z</time></trkpt><trkpt lat="44.0607717" lon="8.084355"><ele>275.42857142857144</ele><time>2026-04-14T17:46:17.988Z</time></trkpt><trkpt lat="44.0607167" lon="8.0844133"><ele>275.57142857142856</ele><time>2026-04-14T17:46:19.988Z</time></trkpt><trkpt lat="44.0606733" lon="8.08448"><ele>275.7142857142857</ele><time>2026-04-14T17:46:21.988Z</time></trkpt><trkpt lat="44.060635" lon="8.0845733"><ele>275.8571428571429</ele><time>2026-04-14T17:46:23.988Z</time></trkpt><trkpt lat="44.0606" lon="8.0846517"><ele>276.0</ele><time>2026-04-14T17:46:26.988Z</time></trkpt><trkpt lat="44.0605783" lon="8.0847817"><ele>269.2</ele><time>2026-04-14T17:46:30.988Z</time></trkpt><trkpt lat="44.0605183" lon="8.084895"><ele>262.40000000000003</ele><time>2026-04-14T17:46:32.989Z</time></trkpt><trkpt lat="44.0604517" lon="8.0850217"><ele>255.6</ele><time>2026-04-14T17:46:34.989Z</time></trkpt><trkpt lat="44.0604117" lon="8.08516"><ele>248.8</ele><time>2026-04-14T17:46:36.989Z</time></trkpt><trkpt lat="44.0603833" lon="8.0852383"><ele>242.0</ele><time>2026-04-14T17:46:37.988Z</time></trkpt><trkpt lat="44.0603567" lon="8.085335"><ele>242.00000000000003</ele><time>2026-04-14T17:46:38.988Z</time></trkpt><trkpt lat="44.0603333" lon="8.0854367"><ele>242.0</ele><time>2026-04-14T17:46:39.988Z</time></trkpt><trkpt lat="44.0602967" lon="8.0855167"><ele>242.0</ele><time>2026-04-14T17:46:40.989Z</time></trkpt><trkpt lat="44.0602367" lon="8.085655"><ele>242.0</ele><time>2026-04-14T17:46:42.988Z</time></trkpt><trkpt lat="44.0602017" lon="8.0858133"><ele>242.00000000000003</ele><time>2026-04-14T17:46:44.988Z</time></trkpt><trkpt lat="44.0601833" lon="8.0859017"><ele>242.0</ele><time>2026-04-14T17:46:45.988Z</time></trkpt><trkpt lat="44.0601583" lon="8.086005"><ele>243.66666666666669</ele><time>2026-04-14T17:46:46.989Z</time></trkpt><trkpt lat="44.060135" lon="8.0860917"><ele>245.33333333333334</ele><time>2026-04-14T17:46:47.988Z</time></trkpt><trkpt lat="44.0601083" lon="8.0862033"><ele>247.0</ele><time>2026-04-14T17:46:49.989Z</time></trkpt><trkpt lat="44.0600883" lon="8.08633"><ele>248.66666666666669</ele><time>2026-04-14T17:46:51.988Z</time></trkpt><trkpt lat="44.060085" lon="8.086425"><ele>250.33333333333334</ele><time>2026-04-14T17:46:53.988Z</time></trkpt><trkpt lat="44.0600633" lon="8.08651"><ele>252.0</ele><time>2026-04-14T17:47:19.988Z</time></trkpt><trkpt lat="44.06002" lon="8.0866367"><ele>252.0</ele><time>2026-04-14T17:47:21.988Z</time></trkpt><trkpt lat="44.0599983" lon="8.0867267"><ele>252.0</ele><time>2026-04-14T17:47:22.989Z</time></trkpt><trkpt lat="44.0599933" lon="8.08686"><ele>252.0</ele><time>2026-04-14T17:47:23.988Z</time></trkpt><trkpt lat="44.0599817" lon="8.0869733"><ele>252.0</ele><time>2026-04-14T17:47:24.988Z</time></trkpt><trkpt lat="44.059985" lon="8.0871233"><ele>252.0</ele><time>2026-04-14T17:47:26.989Z</time></trkpt><trkpt lat="44.060005" lon="8.0872933"><ele>252.0</ele><time>2026-04-14T17:47:28.988Z</time></trkpt><trkpt lat="44.0600217" lon="8.0874233"><ele>252.0</ele><time>2026-04-14T17:47:30.988Z</time></trkpt><trkpt lat="44.0599817" lon="8.0875383"><ele>252.0</ele><time>2026-04-14T17:47:33.989Z</time></trkpt><trkpt lat="44.0599533" lon="8.0876267"><ele>252.0</ele><time>2026-04-14T17:47:35.988Z</time></trkpt><trkpt lat="44.0599283" lon="8.0877467"><ele>252.0</ele><time>2026-04-14T17:47:37.988Z</time></trkpt><trkpt lat="44.0598783" lon="8.0878483"><ele>252.0</ele><time>2026-04-14T17:47:39.989Z</time></trkpt><trkpt lat="44.0598367" lon="8.0879533"><ele>245.33333333333334</ele><time>2026-04-14T17:47:41.989Z</time></trkpt><trkpt lat="44.059795" lon="8.08803"><ele>238.66666666666669</ele><time>2026-04-14T17:47:43.988Z</time></trkpt><trkpt lat="44.059765" lon="8.0881183"><ele>232.0</ele><time>2026-04-14T17:47:45.988Z</time></trkpt><trkpt lat="44.0597383" lon="8.0882"><ele>225.33333333333334</ele><time>2026-04-14T17:47:47.989Z</time></trkpt><trkpt lat="44.059735" lon="8.0883233"><ele>218.66666666666669</ele><time>2026-04-14T17:47:50.988Z</time></trkpt><trkpt lat="44.0596967" lon="8.08845"><ele>212.0</ele><time>2026-04-14T17:47:53.989Z</time></trkpt><trkpt lat="44.05966" lon="8.0885633"><ele>212.00000000000003</ele><time>2026-04-14T17:47:55.988Z</time></trkpt><trkpt lat="44.05962" lon="8.0886683"><ele>212.0</ele><time>2026-04-14T17:47:58.989Z</time></trkpt><trkpt lat="44.0595767" lon="8.0887433"><ele>212.0</ele><time>2026-04-14T17:48:01.989Z</time></trkpt><trkpt lat="44.0595133" lon="8.0887583"><ele>212.0</ele><time>2026-04-14T17:48:04.989Z</time></trkpt><trkpt lat="44.059505" lon="8.088875"><ele>212.00000000000003</ele><time>2026-04-14T17:48:08.989Z</time></trkpt><trkpt lat="44.0594717" lon="8.0889567"><ele>212.0</ele><time>2026-04-14T17:48:10.989Z</time></trkpt><trkpt lat="44.05945" lon="8.0890883"><ele>211.0</ele><time>2026-04-14T17:48:13.988Z</time></trkpt><trkpt lat="44.05946" lon="8.0891967"><ele>210.0</ele><time>2026-04-14T17:48:16.989Z</time></trkpt><trkpt lat="44.0594883" lon="8.0893"><ele>209.0</ele><time>2026-04-14T17:48:20.989Z</time></trkpt><trkpt lat="44.0594917" lon="8.0893917"><ele>208.0</ele><time>2026-04-14T17:48:22.988Z</time></trkpt><trkpt lat="44.059475" lon="8.0895167"><ele>207.0</ele><time>2026-04-14T17:48:25.989Z</time></trkpt><trkpt lat="44.05946" lon="8.089605"><ele>206.0</ele><time>2026-04-14T17:48:27.988Z</time></trkpt><trkpt lat="44.0594567" lon="8.0896967"><ele>205.0</ele><time>2026-04-14T17:48:29.989Z</time></trkpt><trkpt lat="44.0594283" lon="8.0898083"><ele>204.99999999999997</ele><time>2026-04-14T17:48:32.989Z</time></trkpt><trkpt lat="44.059395" lon="8.0898983"><ele>205.0</ele><time>2026-04-14T17:48:35.989Z</time></trkpt><trkpt lat="44.0594533" lon="8.0899683"><ele>205.0</ele><time>2026-04-14T17:48:42.989Z</time></trkpt><trkpt lat="44.05951" lon="8.0900533"><ele>205.0</ele><time>2026-04-14T17:48:48.988Z</time></trkpt><trkpt lat="44.05955" lon="8.0901533"><ele>204.99999999999997</ele><time>2026-04-14T17:48:51.988Z</time></trkpt><trkpt lat="44.0596183" lon="8.090215"><ele>205.0</ele><time>2026-04-14T17:48:54.989Z</time></trkpt><trkpt lat="44.05968" lon="8.0903133"><ele>205.2857142857143</ele><time>2026-04-14T17:49:03.989Z</time></trkpt><trkpt lat="44.0596617" lon="8.0904"><ele>205.57142857142856</ele><time>2026-04-14T17:49:07.988Z</time></trkpt><trkpt lat="44.0597233" lon="8.090455"><ele>205.85714285714286</ele><time>2026-04-14T17:49:10.988Z</time></trkpt><trkpt lat="44.0598117" lon="8.090475"><ele>206.14285714285717</ele><time>2026-04-14T17:49:13.988Z</time></trkpt><trkpt lat="44.0598767" lon="8.0904883"><ele>206.42857142857144</ele><time>2026-04-14T17:49:16.989Z</time></trkpt><trkpt lat="44.0598783" lon="8.0905983"><ele>206.71428571428572</ele><time>2026-04-14T17:49:27.988Z</time></trkpt><trkpt lat="44.0598883" lon="8.0906917"><ele>207.0</ele><time>2026-04-14T17:49:30.989Z</time></trkpt><trkpt lat="44.0599533" lon="8.0906917"><ele>207.0</ele><time>2026-04-14T17:49:36.988Z</time></trkpt><trkpt lat="44.06005" lon="8.0907017"><ele>207.0</ele><time>2026-04-14T17:49:39.989Z</time></trkpt><trkpt lat="44.0601317" lon="8.0906983"><ele>207.0</ele><time>2026-04-14T17:49:41.988Z</time></trkpt><trkpt lat="44.060195" lon="8.090685"><ele>207.0</ele><time>2026-04-14T17:49:43.988Z</time></trkpt><trkpt lat="44.06026" lon="8.090685"><ele>207.0</ele><time>2026-04-14T17:49:45.988Z</time></trkpt><trkpt lat="44.0603333" lon="8.090735"><ele>207.0</ele><time>2026-04-14T17:49:48.988Z</time></trkpt><trkpt lat="44.06041" lon="8.09073"><ele>207.0</ele><time>2026-04-14T17:49:52.988Z</time></trkpt><trkpt lat="44.0604917" lon="8.0906817"><ele>207.0</ele><time>2026-04-14T17:49:55.988Z</time></trkpt><trkpt lat="44.0605633" lon="8.0906283"><ele>207.0</ele><time>2026-04-14T17:49:57.989Z</time></trkpt><trkpt lat="44.0606167" lon="8.090685"><ele>207.0</ele><time>2026-04-14T17:50:02.988Z</time></trkpt><trkpt lat="44.060655" lon="8.090795"><ele>207.0</ele><time>2026-04-14T17:50:17.988Z</time></trkpt><trkpt lat="44.0606983" lon="8.0908933"><ele>207.0</ele><time>2026-04-14T17:50:19.988Z</time></trkpt><trkpt lat="44.0607167" lon="8.0909967"><ele>202.83333333333334</ele><time>2026-04-14T17:50:21.988Z</time></trkpt><trkpt lat="44.0606967" lon="8.0911467"><ele>198.66666666666666</ele><time>2026-04-14T17:50:23.988Z</time></trkpt><trkpt lat="44.06069" lon="8.091235"><ele>194.5</ele><time>2026-04-14T17:50:24.988Z</time></trkpt><trkpt lat="44.0606933" lon="8.0913983"><ele>190.33333333333331</ele><time>2026-04-14T17:50:26.988Z</time></trkpt><trkpt lat="44.060705" lon="8.0914983"><ele>186.16666666666666</ele><time>2026-04-14T17:50:27.988Z</time></trkpt><trkpt lat="44.0607267" lon="8.0915933"><ele>182.0</ele><time>2026-04-14T17:50:28.989Z</time></trkpt><trkpt lat="44.06076" lon="8.0917633"><ele>183.6</ele><time>2026-04-14T17:50:30.988Z</time></trkpt><trkpt lat="44.060785" lon="8.0919067"><ele>185.2</ele><time>2026-04-14T17:50:32.989Z</time></trkpt><trkpt lat="44.0608183" lon="8.0920483"><ele>186.8</ele><time>2026-04-14T17:50:34.988Z</time></trkpt><trkpt lat="44.06084" lon="8.0921317"><ele>188.4</ele><time>2026-04-14T17:50:35.988Z</time></trkpt><trkpt lat="44.0608733" lon="8.0922767"><ele>190.0</ele><time>2026-04-14T17:50:37.988Z</time></trkpt><trkpt lat="44.0609233" lon="8.092425"><ele>186.2</ele><time>2026-04-14T17:50:39.989Z</time></trkpt><trkpt lat="44.0609933" lon="8.0925683"><ele>182.4</ele><time>2026-04-14T17:50:41.989Z</time></trkpt><trkpt lat="44.0610417" lon="8.0926333"><ele>178.60000000000002</ele><time>2026-04-14T17:50:42.988Z</time></trkpt><trkpt lat="44.0610917" lon="8.0926967"><ele>174.8</ele><time>2026-04-14T17:50:43.988Z</time></trkpt><trkpt lat="44.06114" lon="8.0927567"><ele>171.0</ele><time>2026-04-14T17:50:44.989Z</time></trkpt><trkpt lat="44.0612417" lon="8.0928767"><ele>171.0</ele><time>2026-04-14T17:50:46.989Z</time></trkpt><trkpt lat="44.061315" lon="8.092975"><ele>171.0</ele><time>2026-04-14T17:50:48.989Z</time></trkpt><trkpt lat="44.06135" lon="8.0931117"><ele>171.0</ele><time>2026-04-14T17:50:50.989Z</time></trkpt><trkpt lat="44.0613767" lon="8.0932883"><ele>171.0</ele><time>2026-04-14T17:50:52.989Z</time></trkpt><trkpt lat="44.0614233" lon="8.0933933"><ele>171.0</ele><time>2026-04-14T17:50:54.989Z</time></trkpt><trkpt lat="44.0614883" lon="8.0935183"><ele>171.5</ele><time>2026-04-14T17:50:56.989Z</time></trkpt><trkpt lat="44.0615217" lon="8.0935983"><ele>172.0</ele><time>2026-04-14T17:50:57.988Z</time></trkpt><trkpt lat="44.0615533" lon="8.0937067"><ele>172.5</ele><time>2026-04-14T17:50:58.988Z</time></trkpt><trkpt lat="44.06158" lon="8.0938117"><ele>173.0</ele><time>2026-04-14T17:50:59.988Z</time></trkpt><trkpt lat="44.0616" lon="8.0939183"><ele>173.5</ele><time>2026-04-14T17:51:00.989Z</time></trkpt><trkpt lat="44.0616517" lon="8.0940717"><ele>174.0</ele><time>2026-04-14T17:51:02.988Z</time></trkpt><trkpt lat="44.0617267" lon="8.0941933"><ele>171.0</ele><time>2026-04-14T17:51:04.988Z</time></trkpt><trkpt lat="44.061805" lon="8.0942617"><ele>168.0</ele><time>2026-04-14T17:51:06.988Z</time></trkpt><trkpt lat="44.061895" lon="8.094275"><ele>165.0</ele><time>2026-04-14T17:51:08.989Z</time></trkpt><trkpt lat="44.0619783" lon="8.094265"><ele>162.0</ele><time>2026-04-14T17:51:10.989Z</time></trkpt><trkpt lat="44.062025" lon="8.0943667"><ele>159.0</ele><time>2026-04-14T17:51:13.988Z</time></trkpt><trkpt lat="44.062045" lon="8.0944617"><ele>156.0</ele><time>2026-04-14T17:51:15.989Z</time></trkpt><trkpt lat="44.0620783" lon="8.0945917"><ele>156.0</ele><time>2026-04-14T17:51:17.988Z</time></trkpt><trkpt lat="44.0620783" lon="8.0947017"><ele>156.0</ele><time>2026-04-14T17:51:19.989Z</time></trkpt><trkpt lat="44.0620183" lon="8.0947983"><ele>156.0</ele><time>2026-04-14T17:51:21.988Z</time></trkpt><trkpt lat="44.06194" lon="8.0949017"><ele>156.0</ele><time>2026-04-14T17:51:23.988Z</time></trkpt><trkpt lat="44.061895" lon="8.0949633"><ele>156.0</ele><time>2026-04-14T17:51:24.989Z</time></trkpt><trkpt lat="44.061815" lon="8.0950583"><ele>156.0</ele><time>2026-04-14T17:51:26.989Z</time></trkpt><trkpt lat="44.0617783" lon="8.0951867"><ele>153.8</ele><time>2026-04-14T17:53:40.99Z</time></trkpt><trkpt lat="44.0618183" lon="8.0952683"><ele>151.6</ele><time>2026-04-14T17:53:43.99Z</time></trkpt><trkpt lat="44.06195" lon="8.0953567"><ele>149.4</ele><time>2026-04-14T17:53:45.989Z</time></trkpt><trkpt lat="44.0620317" lon="8.0953983"><ele>147.2</ele><time>2026-04-14T17:53:46.989Z</time></trkpt><trkpt lat="44.0621083" lon="8.0954517"><ele>145.0</ele><time>2026-04-14T17:53:47.99Z</time></trkpt><trkpt lat="44.06218" lon="8.0955083"><ele>145.0</ele><time>2026-04-14T17:53:48.99Z</time></trkpt><trkpt lat="44.0622367" lon="8.0955767"><ele>145.0</ele><time>2026-04-14T17:53:49.989Z</time></trkpt><trkpt lat="44.06229" lon="8.0956583"><ele>145.0</ele><time>2026-04-14T17:53:50.989Z</time></trkpt><trkpt lat="44.0623183" lon="8.0957533"><ele>145.0</ele><time>2026-04-14T17:53:51.989Z</time></trkpt><trkpt lat="44.0623633" lon="8.0958417"><ele>145.0</ele><time>2026-04-14T17:53:52.989Z</time></trkpt><trkpt lat="44.0624" lon="8.0959333"><ele>145.0</ele><time>2026-04-14T17:53:53.989Z</time></trkpt><trkpt lat="44.0624167" lon="8.0960617"><ele>146.66666666666669</ele><time>2026-04-14T17:53:54.989Z</time></trkpt><trkpt lat="44.06243" lon="8.0961967"><ele>148.33333333333334</ele><time>2026-04-14T17:53:55.99Z</time></trkpt><trkpt lat="44.0624333" lon="8.0963283"><ele>150.0</ele><time>2026-04-14T17:53:56.99Z</time></trkpt><trkpt lat="44.0624383" lon="8.096445"><ele>151.66666666666666</ele><time>2026-04-14T17:53:57.99Z</time></trkpt><trkpt lat="44.062455" lon="8.096545"><ele>153.33333333333331</ele><time>2026-04-14T17:53:58.99Z</time></trkpt><trkpt lat="44.0624833" lon="8.0966383"><ele>155.0</ele><time>2026-04-14T17:53:59.99Z</time></trkpt><trkpt lat="44.0625517" lon="8.0967117"><ele>150.6</ele><time>2026-04-14T17:54:00.989Z</time></trkpt><trkpt lat="44.0626117" lon="8.0967767"><ele>146.2</ele><time>2026-04-14T17:54:01.99Z</time></trkpt><trkpt lat="44.062695" lon="8.0968467"><ele>141.8</ele><time>2026-04-14T17:54:02.989Z</time></trkpt><trkpt lat="44.0627867" lon="8.096945"><ele>137.4</ele><time>2026-04-14T17:54:03.99Z</time></trkpt><trkpt lat="44.0628583" lon="8.09708"><ele>133.0</ele><time>2026-04-14T17:54:04.99Z</time></trkpt><trkpt lat="44.0629283" lon="8.0972117"><ele>133.0</ele><time>2026-04-14T17:54:05.99Z</time></trkpt><trkpt lat="44.062985" lon="8.097335"><ele>133.0</ele><time>2026-04-14T17:54:06.99Z</time></trkpt><trkpt lat="44.0630283" lon="8.097465"><ele>133.0</ele><time>2026-04-14T17:54:07.99Z</time></trkpt><trkpt lat="44.0630617" lon="8.09758"><ele>133.0</ele><time>2026-04-14T17:54:08.99Z</time></trkpt><trkpt lat="44.0630833" lon="8.0976883"><ele>133.0</ele><time>2026-04-14T17:54:09.99Z</time></trkpt><trkpt lat="44.0630783" lon="8.0977933"><ele>133.71428571428572</ele><time>2026-04-14T17:54:10.989Z</time></trkpt><trkpt lat="44.063085" lon="8.0978933"><ele>134.42857142857144</ele><time>2026-04-14T17:54:11.989Z</time></trkpt><trkpt lat="44.0630967" lon="8.0979833"><ele>135.14285714285714</ele><time>2026-04-14T17:54:12.989Z</time></trkpt><trkpt lat="44.063115" lon="8.09807"><ele>135.85714285714286</ele><time>2026-04-14T17:54:13.99Z</time></trkpt><trkpt lat="44.063145" lon="8.09815"><ele>136.57142857142858</ele><time>2026-04-14T17:54:14.989Z</time></trkpt><trkpt lat="44.06318" lon="8.0982333"><ele>137.28571428571428</ele><time>2026-04-14T17:54:15.99Z</time></trkpt><trkpt lat="44.0632117" lon="8.0983283"><ele>138.0</ele><time>2026-04-14T17:54:16.989Z</time></trkpt><trkpt lat="44.0632467" lon="8.0984267"><ele>138.5</ele><time>2026-04-14T17:54:17.989Z</time></trkpt><trkpt lat="44.06328" lon="8.0985217"><ele>139.0</ele><time>2026-04-14T17:54:18.99Z</time></trkpt><trkpt lat="44.0633133" lon="8.09861"><ele>139.5</ele><time>2026-04-14T17:54:19.99Z</time></trkpt><trkpt lat="44.0633483" lon="8.0986867"><ele>140.0</ele><time>2026-04-14T17:54:20.99Z</time></trkpt><trkpt lat="44.0633783" lon="8.0987917"><ele>140.5</ele><time>2026-04-14T17:54:21.99Z</time></trkpt><trkpt lat="44.06342" lon="8.0989067"><ele>141.0</ele><time>2026-04-14T17:54:22.99Z</time></trkpt><trkpt lat="44.0634483" lon="8.0990233"><ele>136.83333333333334</ele><time>2026-04-14T17:54:23.99Z</time></trkpt><trkpt lat="44.0634783" lon="8.0991333"><ele>132.66666666666666</ele><time>2026-04-14T17:54:24.989Z</time></trkpt><trkpt lat="44.063495" lon="8.09924"><ele>128.5</ele><time>2026-04-14T17:54:25.989Z</time></trkpt><trkpt lat="44.0634867" lon="8.0993517"><ele>124.33333333333333</ele><time>2026-04-14T17:54:26.99Z</time></trkpt><trkpt lat="44.06348" lon="8.09946"><ele>120.16666666666666</ele><time>2026-04-14T17:54:27.99Z</time></trkpt><trkpt lat="44.06348" lon="8.0995533"><ele>116.0</ele><time>2026-04-14T17:54:28.989Z</time></trkpt><trkpt lat="44.0634817" lon="8.0996583"><ele>116.00000000000001</ele><time>2026-04-14T17:54:29.989Z</time></trkpt><trkpt lat="44.0634883" lon="8.0997567"><ele>116.0</ele><time>2026-04-14T17:54:30.989Z</time></trkpt><trkpt lat="44.0634883" lon="8.0998467"><ele>116.00000000000001</ele><time>2026-04-14T17:54:31.99Z</time></trkpt><trkpt lat="44.06351" lon="8.0999333"><ele>116.00000000000001</ele><time>2026-04-14T17:54:32.99Z</time></trkpt><trkpt lat="44.0635417" lon="8.1000167"><ele>116.0</ele><time>2026-04-14T17:54:33.99Z</time></trkpt><trkpt lat="44.0635667" lon="8.1001167"><ele>116.00000000000001</ele><time>2026-04-14T17:54:34.99Z</time></trkpt><trkpt lat="44.063605" lon="8.1002067"><ele>116.00000000000001</ele><time>2026-04-14T17:54:35.99Z</time></trkpt><trkpt lat="44.06363" lon="8.100335"><ele>115.16666666666666</ele><time>2026-04-14T17:54:36.989Z</time></trkpt><trkpt lat="44.0636233" lon="8.10049"><ele>114.33333333333333</ele><time>2026-04-14T17:54:37.989Z</time></trkpt><trkpt lat="44.06361" lon="8.10063"><ele>113.5</ele><time>2026-04-14T17:54:38.99Z</time></trkpt><trkpt lat="44.0635967" lon="8.10074"><ele>112.66666666666666</ele><time>2026-04-14T17:54:39.989Z</time></trkpt><trkpt lat="44.06358" lon="8.1008383"><ele>111.83333333333333</ele><time>2026-04-14T17:54:40.99Z</time></trkpt><trkpt lat="44.0635767" lon="8.1009333"><ele>111.0</ele><time>2026-04-14T17:54:41.989Z</time></trkpt><trkpt lat="44.0635733" lon="8.101025"><ele>109.66666666666667</ele><time>2026-04-14T17:54:42.99Z</time></trkpt><trkpt lat="44.0636483" lon="8.101105"><ele>108.33333333333334</ele><time>2026-04-14T17:54:44.989Z</time></trkpt><trkpt lat="44.0637383" lon="8.1011417"><ele>107.0</ele><time>2026-04-14T17:54:46.99Z</time></trkpt><trkpt lat="44.0638533" lon="8.1012083"><ele>105.66666666666667</ele><time>2026-04-14T17:54:48.99Z</time></trkpt><trkpt lat="44.0639067" lon="8.1012633"><ele>104.33333333333334</ele><time>2026-04-14T17:54:49.989Z</time></trkpt><trkpt lat="44.06395" lon="8.1013317"><ele>103.0</ele><time>2026-04-14T17:54:50.99Z</time></trkpt><trkpt lat="44.0639933" lon="8.1014167"><ele>103.0</ele><time>2026-04-14T17:54:51.989Z</time></trkpt><trkpt lat="44.0640317" lon="8.101515"><ele>103.0</ele><time>2026-04-14T17:54:52.99Z</time></trkpt><trkpt lat="44.0640733" lon="8.101635"><ele>103.0</ele><time>2026-04-14T17:54:53.989Z</time></trkpt><trkpt lat="44.06413" lon="8.1017333"><ele>103.0</ele><time>2026-04-14T17:54:54.989Z</time></trkpt><trkpt lat="44.0642" lon="8.1018167"><ele>103.0</ele><time>2026-04-14T17:54:55.99Z</time></trkpt><trkpt lat="44.06427" lon="8.1018983"><ele>101.80000000000001</ele><time>2026-04-14T17:54:56.99Z</time></trkpt><trkpt lat="44.0643267" lon="8.1019833"><ele>100.6</ele><time>2026-04-14T17:54:57.989Z</time></trkpt><trkpt lat="44.06439" lon="8.1021017"><ele>99.4</ele><time>2026-04-14T17:54:59.99Z</time></trkpt><trkpt lat="44.0643917" lon="8.1022317"><ele>98.19999999999999</ele><time>2026-04-14T17:55:01.989Z</time></trkpt><trkpt lat="44.0643533" lon="8.102375"><ele>97.0</ele><time>2026-04-14T17:55:03.99Z</time></trkpt><trkpt lat="44.0643217" lon="8.1024767"><ele>97.0</ele><time>2026-04-14T17:55:04.99Z</time></trkpt><trkpt lat="44.06427" lon="8.1026083"><ele>97.0</ele><time>2026-04-14T17:55:05.989Z</time></trkpt><trkpt lat="44.0641917" lon="8.102785"><ele>97.0</ele><time>2026-04-14T17:55:06.99Z</time></trkpt><trkpt lat="44.0641" lon="8.10297"><ele>97.0</ele><time>2026-04-14T17:55:07.99Z</time></trkpt><trkpt lat="44.064015" lon="8.1031667"><ele>93.33333333333334</ele><time>2026-04-14T17:55:08.99Z</time></trkpt><trkpt lat="44.0639367" lon="8.1033767"><ele>89.66666666666667</ele><time>2026-04-14T17:55:09.989Z</time></trkpt><trkpt lat="44.06388" lon="8.1035983"><ele>86.0</ele><time>2026-04-14T17:55:10.99Z</time></trkpt><trkpt lat="44.063825" lon="8.1038267"><ele>86.0</ele><time>2026-04-14T17:55:11.989Z</time></trkpt><trkpt lat="44.0637767" lon="8.1040417"><ele>86.0</ele><time>2026-04-14T17:55:12.99Z</time></trkpt><trkpt lat="44.063715" lon="8.1042317"><ele>86.0</ele><time>2026-04-14T17:55:13.99Z</time></trkpt><trkpt lat="44.063665" lon="8.104415"><ele>87.0</ele><time>2026-04-14T17:55:14.989Z</time></trkpt><trkpt lat="44.063585" lon="8.10459"><ele>88.0</ele><time>2026-04-14T17:55:15.989Z</time></trkpt><trkpt lat="44.063495" lon="8.1047917"><ele>89.0</ele><time>2026-04-14T17:55:16.99Z</time></trkpt><trkpt lat="44.0634217" lon="8.10502"><ele>89.66666666666667</ele><time>2026-04-14T17:55:17.989Z</time></trkpt><trkpt lat="44.0633417" lon="8.1052517"><ele>90.33333333333333</ele><time>2026-04-14T17:55:18.99Z</time></trkpt><trkpt lat="44.0632617" lon="8.1054933"><ele>91.0</ele><time>2026-04-14T17:55:19.989Z</time></trkpt><trkpt lat="44.0631967" lon="8.10572"><ele>89.33333333333333</ele><time>2026-04-14T17:55:20.99Z</time></trkpt><trkpt lat="44.0631283" lon="8.10593"><ele>87.66666666666667</ele><time>2026-04-14T17:55:21.989Z</time></trkpt><trkpt lat="44.0630467" lon="8.1061217"><ele>86.0</ele><time>2026-04-14T17:55:22.99Z</time></trkpt><trkpt lat="44.062955" lon="8.1063017"><ele>86.0</ele><time>2026-04-14T17:55:23.989Z</time></trkpt><trkpt lat="44.06285" lon="8.1064767"><ele>86.0</ele><time>2026-04-14T17:55:24.99Z</time></trkpt><trkpt lat="44.06274" lon="8.1066483"><ele>86.0</ele><time>2026-04-14T17:55:25.99Z</time></trkpt><trkpt lat="44.0626283" lon="8.106825"><ele>85.0</ele><time>2026-04-14T17:55:26.989Z</time></trkpt><trkpt lat="44.0625267" lon="8.1069983"><ele>84.0</ele><time>2026-04-14T17:55:27.989Z</time></trkpt><trkpt lat="44.062435" lon="8.1071967"><ele>83.0</ele><time>2026-04-14T17:55:28.99Z</time></trkpt><trkpt lat="44.06238" lon="8.1074417"><ele>82.66666666666667</ele><time>2026-04-14T17:55:29.99Z</time></trkpt><trkpt lat="44.0623433" lon="8.1076867"><ele>82.33333333333333</ele><time>2026-04-14T17:55:30.989Z</time></trkpt><trkpt lat="44.0623217" lon="8.1079333"><ele>82.0</ele><time>2026-04-14T17:55:31.99Z</time></trkpt><trkpt lat="44.0623" lon="8.108165"><ele>80.33333333333333</ele><time>2026-04-14T17:55:32.989Z</time></trkpt><trkpt lat="44.0622483" lon="8.1084133"><ele>78.66666666666667</ele><time>2026-04-14T17:55:33.989Z</time></trkpt><trkpt lat="44.0621867" lon="8.1086367"><ele>77.0</ele><time>2026-04-14T17:55:34.989Z</time></trkpt><trkpt lat="44.0621083" lon="8.1088117"><ele>77.0</ele><time>2026-04-14T17:55:35.99Z</time></trkpt><trkpt lat="44.0620183" lon="8.1089717"><ele>77.0</ele><time>2026-04-14T17:55:36.989Z</time></trkpt><trkpt lat="44.061945" lon="8.1090483"><ele>77.0</ele><time>2026-04-14T17:55:37.989Z</time></trkpt><trkpt lat="44.0618233" lon="8.1090267"><ele>77.0</ele><time>2026-04-14T17:55:39.989Z</time></trkpt><trkpt lat="44.0617533" lon="8.1089433"><ele>77.0</ele><time>2026-04-14T17:55:40.989Z</time></trkpt><trkpt lat="44.0616533" lon="8.1088417"><ele>77.0</ele><time>2026-04-14T17:55:41.99Z</time></trkpt><trkpt lat="44.06154" lon="8.1087633"><ele>77.0</ele><time>2026-04-14T17:55:42.989Z</time></trkpt><trkpt lat="44.06142" lon="8.1087183"><ele>77.0</ele><time>2026-04-14T17:55:43.99Z</time></trkpt><trkpt lat="44.06129" lon="8.1087133"><ele>80.25</ele><time>2026-04-14T17:55:44.989Z</time></trkpt><trkpt lat="44.06115" lon="8.108725"><ele>83.5</ele><time>2026-04-14T17:55:45.99Z</time></trkpt><trkpt lat="44.0610183" lon="8.1087717"><ele>86.75</ele><time>2026-04-14T17:55:46.989Z</time></trkpt><trkpt lat="44.060875" lon="8.1088433"><ele>90.0</ele><time>2026-04-14T17:55:47.989Z</time></trkpt><trkpt lat="44.0607517" lon="8.108935"><ele>95.5</ele><time>2026-04-14T17:55:48.989Z</time></trkpt><trkpt lat="44.06062" lon="8.1090367"><ele>101.0</ele><time>2026-04-14T17:55:49.989Z</time></trkpt><trkpt lat="44.0605167" lon="8.10917"><ele>106.5</ele><time>2026-04-14T17:55:50.99Z</time></trkpt><trkpt lat="44.0604283" lon="8.1093367"><ele>112.0</ele><time>2026-04-14T17:55:51.989Z</time></trkpt><trkpt lat="44.0603517" lon="8.1095133"><ele>112.0</ele><time>2026-04-14T17:55:52.989Z</time></trkpt><trkpt lat="44.06028" lon="8.1097233"><ele>112.0</ele><time>2026-04-14T17:55:53.99Z</time></trkpt><trkpt lat="44.0602033" lon="8.1099383"><ele>112.0</ele><time>2026-04-14T17:55:54.99Z</time></trkpt><trkpt lat="44.0601217" lon="8.1101667"><ele>112.0</ele><time>2026-04-14T17:55:55.99Z</time></trkpt><trkpt lat="44.0600333" lon="8.1104117"><ele>112.0</ele><time>2026-04-14T17:55:56.99Z</time></trkpt><trkpt lat="44.059935" lon="8.1106617"><ele>112.0</ele><time>2026-04-14T17:55:57.989Z</time></trkpt><trkpt lat="44.0598333" lon="8.110895"><ele>112.0</ele><time>2026-04-14T17:55:58.989Z</time></trkpt><trkpt lat="44.0597383" lon="8.1111267"><ele>112.0</ele><time>2026-04-14T17:55:59.989Z</time></trkpt><trkpt lat="44.0596467" lon="8.11136"><ele>112.0</ele><time>2026-04-14T17:56:00.989Z</time></trkpt><trkpt lat="44.0595583" lon="8.111595"><ele>104.66666666666667</ele><time>2026-04-14T17:56:01.989Z</time></trkpt><trkpt lat="44.0594767" lon="8.111825"><ele>97.33333333333334</ele><time>2026-04-14T17:56:02.989Z</time></trkpt><trkpt lat="44.0593967" lon="8.1120217"><ele>90.0</ele><time>2026-04-14T17:56:03.989Z</time></trkpt><trkpt lat="44.0592967" lon="8.11218"><ele>90.0</ele><time>2026-04-14T17:56:04.99Z</time></trkpt><trkpt lat="44.0591817" lon="8.1123083"><ele>90.0</ele><time>2026-04-14T17:56:05.99Z</time></trkpt><trkpt lat="44.0590383" lon="8.1124133"><ele>90.0</ele><time>2026-04-14T17:56:06.989Z</time></trkpt><trkpt lat="44.0588833" lon="8.1125"><ele>90.0</ele><time>2026-04-14T17:56:07.989Z</time></trkpt><trkpt lat="44.0587117" lon="8.1126067"><ele>90.0</ele><time>2026-04-14T17:56:08.99Z</time></trkpt><trkpt lat="44.058555" lon="8.1127083"><ele>90.0</ele><time>2026-04-14T17:56:09.99Z</time></trkpt><trkpt lat="44.05839" lon="8.11288"><ele>92.66666666666666</ele><time>2026-04-14T17:56:10.989Z</time></trkpt><trkpt lat="44.0582217" lon="8.1130683"><ele>95.33333333333333</ele><time>2026-04-14T17:56:11.99Z</time></trkpt><trkpt lat="44.0580617" lon="8.11328"><ele>98.0</ele><time>2026-04-14T17:56:12.989Z</time></trkpt><trkpt lat="44.0578983" lon="8.1134783"><ele>92.66666666666666</ele><time>2026-04-14T17:56:13.99Z</time></trkpt><trkpt lat="44.0577483" lon="8.1136717"><ele>87.33333333333333</ele><time>2026-04-14T17:56:14.99Z</time></trkpt><trkpt lat="44.0575983" lon="8.1138733"><ele>82.0</ele><time>2026-04-14T17:56:15.989Z</time></trkpt><trkpt lat="44.05745" lon="8.1140883"><ele>79.0</ele><time>2026-04-14T17:56:16.99Z</time></trkpt><trkpt lat="44.0573033" lon="8.11431"><ele>76.0</ele><time>2026-04-14T17:56:17.989Z</time></trkpt><trkpt lat="44.057155" lon="8.1145317"><ele>73.0</ele><time>2026-04-14T17:56:18.989Z</time></trkpt><trkpt lat="44.0570067" lon="8.1147483"><ele>70.33333333333333</ele><time>2026-04-14T17:56:19.989Z</time></trkpt><trkpt lat="44.056885" lon="8.1149517"><ele>67.66666666666667</ele><time>2026-04-14T17:56:20.989Z</time></trkpt><trkpt lat="44.0567683" lon="8.1151367"><ele>65.0</ele><time>2026-04-14T17:56:21.989Z</time></trkpt><trkpt lat="44.0566683" lon="8.115315"><ele>62.333333333333336</ele><time>2026-04-14T17:56:22.989Z</time></trkpt><trkpt lat="44.056555" lon="8.1154967"><ele>59.66666666666667</ele><time>2026-04-14T17:56:23.989Z</time></trkpt><trkpt lat="44.0564233" lon="8.1156633"><ele>57.0</ele><time>2026-04-14T17:56:24.989Z</time></trkpt><trkpt lat="44.056295" lon="8.1157967"><ele>55.66666666666667</ele><time>2026-04-14T17:56:25.99Z</time></trkpt><trkpt lat="44.0561433" lon="8.11593"><ele>54.333333333333336</ele><time>2026-04-14T17:56:26.99Z</time></trkpt><trkpt lat="44.055975" lon="8.1161083"><ele>53.0</ele><time>2026-04-14T17:56:27.99Z</time></trkpt><trkpt lat="44.055835" lon="8.1162133"><ele>51.5</ele><time>2026-04-14T17:56:28.989Z</time></trkpt><trkpt lat="44.0557117" lon="8.116275"><ele>50.0</ele><time>2026-04-14T17:56:29.99Z</time></trkpt><trkpt lat="44.05559" lon="8.11635"><ele>48.5</ele><time>2026-04-14T17:56:30.989Z</time></trkpt><trkpt lat="44.0554717" lon="8.116405"><ele>47.0</ele><time>2026-04-14T17:56:31.989Z</time></trkpt><trkpt lat="44.05535" lon="8.1164817"><ele>47.0</ele><time>2026-04-14T17:56:32.99Z</time></trkpt><trkpt lat="44.0552633" lon="8.11653"><ele>47.0</ele><time>2026-04-14T17:56:33.99Z</time></trkpt><trkpt lat="44.0551967" lon="8.1165733"><ele>47.0</ele><time>2026-04-14T17:56:34.989Z</time></trkpt><trkpt lat="44.055125" lon="8.1166333"><ele>47.0</ele><time>2026-04-14T17:56:36.989Z</time></trkpt><trkpt lat="44.0551017" lon="8.1167183"><ele>47.0</ele><time>2026-04-14T17:58:16.989Z</time></trkpt><trkpt lat="44.0551083" lon="8.1168883"><ele>47.0</ele><time>2026-04-14T17:58:18.989Z</time></trkpt><trkpt lat="44.0551533" lon="8.1169983"><ele>46.25</ele><time>2026-04-14T17:58:19.99Z</time></trkpt><trkpt lat="44.0552317" lon="8.1171183"><ele>45.5</ele><time>2026-04-14T17:58:20.989Z</time></trkpt><trkpt lat="44.0553217" lon="8.1172583"><ele>44.75</ele><time>2026-04-14T17:58:21.989Z</time></trkpt><trkpt lat="44.0554167" lon="8.1174067"><ele>44.0</ele><time>2026-04-14T17:58:22.99Z</time></trkpt><trkpt lat="44.0555217" lon="8.1175617"><ele>43.33333333333333</ele><time>2026-04-14T17:58:23.99Z</time></trkpt><trkpt lat="44.0556233" lon="8.1177133"><ele>42.666666666666664</ele><time>2026-04-14T17:58:24.99Z</time></trkpt><trkpt lat="44.0557267" lon="8.1178833"><ele>42.0</ele><time>2026-04-14T17:58:25.989Z</time></trkpt><trkpt lat="44.0558267" lon="8.118055"><ele>42.0</ele><time>2026-04-14T17:58:26.989Z</time></trkpt><trkpt lat="44.0559183" lon="8.11822"><ele>42.0</ele><time>2026-04-14T17:58:27.99Z</time></trkpt><trkpt lat="44.0559833" lon="8.1184083"><ele>42.0</ele><time>2026-04-14T17:58:28.99Z</time></trkpt><trkpt lat="44.05602" lon="8.118605"><ele>42.0</ele><time>2026-04-14T17:58:29.989Z</time></trkpt><trkpt lat="44.0560367" lon="8.1188083"><ele>42.666666666666664</ele><time>2026-04-14T17:58:30.99Z</time></trkpt><trkpt lat="44.0560433" lon="8.11903"><ele>43.33333333333333</ele><time>2026-04-14T17:58:31.99Z</time></trkpt><trkpt lat="44.0560283" lon="8.119255"><ele>44.0</ele><time>2026-04-14T17:58:32.99Z</time></trkpt><trkpt lat="44.0559883" lon="8.11949"><ele>45.666666666666664</ele><time>2026-04-14T17:58:33.989Z</time></trkpt><trkpt lat="44.055935" lon="8.1197033"><ele>47.33333333333333</ele><time>2026-04-14T17:58:34.99Z</time></trkpt><trkpt lat="44.055875" lon="8.119945"><ele>49.0</ele><time>2026-04-14T17:58:35.989Z</time></trkpt><trkpt lat="44.05583" lon="8.1201767"><ele>45.33333333333333</ele><time>2026-04-14T17:58:36.989Z</time></trkpt><trkpt lat="44.055765" lon="8.120415"><ele>41.666666666666664</ele><time>2026-04-14T17:58:37.99Z</time></trkpt><trkpt lat="44.0557133" lon="8.1206517"><ele>38.0</ele><time>2026-04-14T17:58:38.99Z</time></trkpt><trkpt lat="44.05565" lon="8.1208883"><ele>38.0</ele><time>2026-04-14T17:58:39.989Z</time></trkpt><trkpt lat="44.0555883" lon="8.121125"><ele>38.0</ele><time>2026-04-14T17:58:40.99Z</time></trkpt><trkpt lat="44.0555067" lon="8.12135"><ele>38.0</ele><time>2026-04-14T17:58:41.989Z</time></trkpt><trkpt lat="44.0554483" lon="8.1215783"><ele>38.666666666666664</ele><time>2026-04-14T17:58:42.989Z</time></trkpt><trkpt lat="44.055385" lon="8.12182"><ele>39.333333333333336</ele><time>2026-04-14T17:58:43.99Z</time></trkpt><trkpt lat="44.0553433" lon="8.1220417"><ele>40.0</ele><time>2026-04-14T17:58:44.989Z</time></trkpt><trkpt lat="44.0553017" lon="8.12229"><ele>40.0</ele><time>2026-04-14T17:58:45.989Z</time></trkpt><trkpt lat="44.0552817" lon="8.1225333"><ele>40.0</ele><time>2026-04-14T17:58:46.99Z</time></trkpt><trkpt lat="44.05527" lon="8.122775"><ele>40.0</ele><time>2026-04-14T17:58:47.989Z</time></trkpt><trkpt lat="44.0552667" lon="8.123025"><ele>41.0</ele><time>2026-04-14T17:58:48.99Z</time></trkpt><trkpt lat="44.055265" lon="8.1232933"><ele>42.0</ele><time>2026-04-14T17:58:49.989Z</time></trkpt><trkpt lat="44.0552567" lon="8.1235433"><ele>43.0</ele><time>2026-04-14T17:58:50.989Z</time></trkpt><trkpt lat="44.0552567" lon="8.1237883"><ele>43.0</ele><time>2026-04-14T17:58:51.99Z</time></trkpt><trkpt lat="44.0552467" lon="8.1240333"><ele>43.0</ele><time>2026-04-14T17:58:52.99Z</time></trkpt><trkpt lat="44.05522" lon="8.1242783"><ele>43.0</ele><time>2026-04-14T17:58:53.989Z</time></trkpt><trkpt lat="44.0551867" lon="8.1245233"><ele>43.66666666666667</ele><time>2026-04-14T17:58:54.99Z</time></trkpt><trkpt lat="44.0551417" lon="8.1247733"><ele>44.333333333333336</ele><time>2026-04-14T17:58:55.99Z</time></trkpt><trkpt lat="44.0551117" lon="8.1250133"><ele>45.0</ele><time>2026-04-14T17:58:56.989Z</time></trkpt><trkpt lat="44.055075" lon="8.1252533"><ele>45.0</ele><time>2026-04-14T17:58:57.99Z</time></trkpt><trkpt lat="44.055035" lon="8.1254833"><ele>45.0</ele><time>2026-04-14T17:58:58.99Z</time></trkpt><trkpt lat="44.0549967" lon="8.12572"><ele>45.0</ele><time>2026-04-14T17:58:59.989Z</time></trkpt><trkpt lat="44.0549617" lon="8.125935"><ele>42.0</ele><time>2026-04-14T17:59:00.989Z</time></trkpt><trkpt lat="44.0549317" lon="8.126155"><ele>39.0</ele><time>2026-04-14T17:59:01.989Z</time></trkpt><trkpt lat="44.0549017" lon="8.1263783"><ele>36.0</ele><time>2026-04-14T17:59:02.99Z</time></trkpt><trkpt lat="44.054865" lon="8.1266033"><ele>36.0</ele><time>2026-04-14T17:59:03.989Z</time></trkpt><trkpt lat="44.0548333" lon="8.1268267"><ele>36.0</ele><time>2026-04-14T17:59:04.99Z</time></trkpt><trkpt lat="44.0548" lon="8.1270467"><ele>36.0</ele><time>2026-04-14T17:59:05.989Z</time></trkpt><trkpt lat="44.0547767" lon="8.1272833"><ele>35.666666666666664</ele><time>2026-04-14T17:59:06.99Z</time></trkpt><trkpt lat="44.0547517" lon="8.1275233"><ele>35.33333333333333</ele><time>2026-04-14T17:59:07.989Z</time></trkpt><trkpt lat="44.05473" lon="8.1277583"><ele>35.0</ele><time>2026-04-14T17:59:08.99Z</time></trkpt><trkpt lat="44.0547033" lon="8.127995"><ele>35.0</ele><time>2026-04-14T17:59:09.989Z</time></trkpt><trkpt lat="44.0546817" lon="8.128225"><ele>35.0</ele><time>2026-04-14T17:59:10.989Z</time></trkpt><trkpt lat="44.054645" lon="8.1284483"><ele>35.0</ele><time>2026-04-14T17:59:11.99Z</time></trkpt><trkpt lat="44.054605" lon="8.1286683"><ele>35.0</ele><time>2026-04-14T17:59:12.989Z</time></trkpt><trkpt lat="44.0545467" lon="8.1289433"><ele>35.0</ele><time>2026-04-14T17:59:13.99Z</time></trkpt><trkpt lat="44.05449" lon="8.1292083"><ele>35.0</ele><time>2026-04-14T17:59:14.989Z</time></trkpt><trkpt lat="44.0544467" lon="8.1294667"><ele>36.0</ele><time>2026-04-14T17:59:15.99Z</time></trkpt><trkpt lat="44.0544267" lon="8.1297083"><ele>37.0</ele><time>2026-04-14T17:59:16.99Z</time></trkpt><trkpt lat="44.0544033" lon="8.1299583"><ele>38.0</ele><time>2026-04-14T17:59:17.989Z</time></trkpt><trkpt lat="44.054365" lon="8.1302117"><ele>39.0</ele><time>2026-04-14T17:59:18.99Z</time></trkpt><trkpt lat="44.05433" lon="8.1304767"><ele>40.0</ele><time>2026-04-14T17:59:19.989Z</time></trkpt><trkpt lat="44.054295" lon="8.1307183"><ele>41.0</ele><time>2026-04-14T17:59:20.99Z</time></trkpt><trkpt lat="44.05425" lon="8.130975"><ele>43.0</ele><time>2026-04-14T17:59:21.989Z</time></trkpt><trkpt lat="44.05419" lon="8.1311983"><ele>45.0</ele><time>2026-04-14T17:59:22.989Z</time></trkpt><trkpt lat="44.0541183" lon="8.131415"><ele>47.0</ele><time>2026-04-14T17:59:23.989Z</time></trkpt><trkpt lat="44.0540167" lon="8.1316383"><ele>42.0</ele><time>2026-04-14T17:59:24.99Z</time></trkpt><trkpt lat="44.0539283" lon="8.13184"><ele>37.0</ele><time>2026-04-14T17:59:25.99Z</time></trkpt><trkpt lat="44.053855" lon="8.1320383"><ele>32.0</ele><time>2026-04-14T17:59:26.989Z</time></trkpt><trkpt lat="44.0537867" lon="8.1322883"><ele>33.0</ele><time>2026-04-14T17:59:27.99Z</time></trkpt><trkpt lat="44.05373" lon="8.132525"><ele>34.0</ele><time>2026-04-14T17:59:28.989Z</time></trkpt><trkpt lat="44.05368" lon="8.1327767"><ele>35.0</ele><time>2026-04-14T17:59:29.989Z</time></trkpt><trkpt lat="44.0536033" lon="8.1330517"><ele>36.0</ele><time>2026-04-14T17:59:30.99Z</time></trkpt><trkpt lat="44.05356" lon="8.1333117"><ele>37.0</ele><time>2026-04-14T17:59:31.989Z</time></trkpt><trkpt lat="44.053545" lon="8.133585"><ele>38.0</ele><time>2026-04-14T17:59:32.99Z</time></trkpt><trkpt lat="44.0535267" lon="8.1338667"><ele>38.0</ele><time>2026-04-14T17:59:33.99Z</time></trkpt><trkpt lat="44.0535033" lon="8.1341383"><ele>38.0</ele><time>2026-04-14T17:59:34.989Z</time></trkpt><trkpt lat="44.0534933" lon="8.1343933"><ele>38.0</ele><time>2026-04-14T17:59:35.989Z</time></trkpt><trkpt lat="44.0534617" lon="8.1346683"><ele>39.33333333333333</ele><time>2026-04-14T17:59:36.99Z</time></trkpt><trkpt lat="44.0534417" lon="8.1349267"><ele>40.666666666666664</ele><time>2026-04-14T17:59:37.99Z</time></trkpt><trkpt lat="44.053435" lon="8.13521"><ele>42.0</ele><time>2026-04-14T17:59:38.99Z</time></trkpt><trkpt lat="44.0534517" lon="8.135465"><ele>41.666666666666664</ele><time>2026-04-14T17:59:39.989Z</time></trkpt><trkpt lat="44.053445" lon="8.1357233"><ele>41.33333333333333</ele><time>2026-04-14T17:59:40.989Z</time></trkpt><trkpt lat="44.053435" lon="8.136005"><ele>41.0</ele><time>2026-04-14T17:59:41.99Z</time></trkpt><trkpt lat="44.0534283" lon="8.1362667"><ele>41.0</ele><time>2026-04-14T17:59:42.989Z</time></trkpt><trkpt lat="44.05342" lon="8.1365433"><ele>41.0</ele><time>2026-04-14T17:59:43.99Z</time></trkpt><trkpt lat="44.0533983" lon="8.1368067"><ele>41.0</ele><time>2026-04-14T17:59:44.99Z</time></trkpt><trkpt lat="44.05335" lon="8.13709"><ele>41.666666666666664</ele><time>2026-04-14T17:59:45.99Z</time></trkpt><trkpt lat="44.0532933" lon="8.13734"><ele>42.333333333333336</ele><time>2026-04-14T17:59:46.99Z</time></trkpt><trkpt lat="44.0532183" lon="8.1376067"><ele>43.0</ele><time>2026-04-14T17:59:47.99Z</time></trkpt><trkpt lat="44.0531417" lon="8.1378517"><ele>39.66666666666667</ele><time>2026-04-14T17:59:48.989Z</time></trkpt><trkpt lat="44.0530667" lon="8.1380883"><ele>36.333333333333336</ele><time>2026-04-14T17:59:49.99Z</time></trkpt><trkpt lat="44.0529917" lon="8.1383417"><ele>33.0</ele><time>2026-04-14T17:59:50.99Z</time></trkpt><trkpt lat="44.05292" lon="8.1385933"><ele>33.0</ele><time>2026-04-14T17:59:51.989Z</time></trkpt><trkpt lat="44.0528533" lon="8.1388533"><ele>33.0</ele><time>2026-04-14T17:59:52.99Z</time></trkpt><trkpt lat="44.052785" lon="8.139115"><ele>33.0</ele><time>2026-04-14T17:59:53.989Z</time></trkpt><trkpt lat="44.05272" lon="8.139375"><ele>34.0</ele><time>2026-04-14T17:59:54.99Z</time></trkpt><trkpt lat="44.0526567" lon="8.1396333"><ele>35.0</ele><time>2026-04-14T17:59:55.989Z</time></trkpt><trkpt lat="44.0525833" lon="8.139885"><ele>36.0</ele><time>2026-04-14T17:59:56.989Z</time></trkpt><trkpt lat="44.0525133" lon="8.1401317"><ele>34.0</ele><time>2026-04-14T17:59:57.989Z</time></trkpt><trkpt lat="44.05243" lon="8.1403833"><ele>32.0</ele><time>2026-04-14T17:59:58.989Z</time></trkpt><trkpt lat="44.0523333" lon="8.1406317"><ele>30.0</ele><time>2026-04-14T17:59:59.99Z</time></trkpt><trkpt lat="44.0522483" lon="8.1408883"><ele>30.0</ele><time>2026-04-14T18:00:00.989Z</time></trkpt><trkpt lat="44.0521733" lon="8.141135"><ele>30.0</ele><time>2026-04-14T18:00:01.99Z</time></trkpt><trkpt lat="44.0520817" lon="8.141335"><ele>30.0</ele><time>2026-04-14T18:00:02.99Z</time></trkpt><trkpt lat="44.05203" lon="8.14155"><ele>30.0</ele><time>2026-04-14T18:00:03.99Z</time></trkpt><trkpt lat="44.0519983" lon="8.1417717"><ele>30.0</ele><time>2026-04-14T18:00:04.989Z</time></trkpt><trkpt lat="44.0519833" lon="8.1420267"><ele>30.0</ele><time>2026-04-14T18:00:05.99Z</time></trkpt><trkpt lat="44.0519817" lon="8.14228"><ele>31.0</ele><time>2026-04-14T18:00:06.989Z</time></trkpt><trkpt lat="44.051965" lon="8.1424933"><ele>32.0</ele><time>2026-04-14T18:00:07.989Z</time></trkpt><trkpt lat="44.0519233" lon="8.1426733"><ele>33.0</ele><time>2026-04-14T18:00:08.989Z</time></trkpt><trkpt lat="44.05182" lon="8.1428683"><ele>33.0</ele><time>2026-04-14T18:00:09.989Z</time></trkpt><trkpt lat="44.0517117" lon="8.1430733"><ele>33.0</ele><time>2026-04-14T18:00:10.989Z</time></trkpt><trkpt lat="44.05159" lon="8.1432733"><ele>33.0</ele><time>2026-04-14T18:00:11.99Z</time></trkpt><trkpt lat="44.051465" lon="8.14348"><ele>32.0</ele><time>2026-04-14T18:00:12.99Z</time></trkpt><trkpt lat="44.0513367" lon="8.143705"><ele>31.0</ele><time>2026-04-14T18:00:13.99Z</time></trkpt><trkpt lat="44.051215" lon="8.1439217"><ele>30.0</ele><time>2026-04-14T18:00:14.989Z</time></trkpt><trkpt lat="44.0511" lon="8.1441333"><ele>30.0</ele><time>2026-04-14T18:00:15.989Z</time></trkpt><trkpt lat="44.0509767" lon="8.144355"><ele>30.0</ele><time>2026-04-14T18:00:16.989Z</time></trkpt><trkpt lat="44.05088" lon="8.1445417"><ele>30.0</ele><time>2026-04-14T18:00:17.989Z</time></trkpt><trkpt lat="44.0507717" lon="8.144725"><ele>29.5</ele><time>2026-04-14T18:00:18.989Z</time></trkpt><trkpt lat="44.0506783" lon="8.1449"><ele>29.0</ele><time>2026-04-14T18:00:19.99Z</time></trkpt><trkpt lat="44.050605" lon="8.145065"><ele>28.5</ele><time>2026-04-14T18:00:20.99Z</time></trkpt><trkpt lat="44.0505767" lon="8.1452433"><ele>28.0</ele><time>2026-04-14T18:00:21.989Z</time></trkpt><trkpt lat="44.0505883" lon="8.1454333"><ele>28.0</ele><time>2026-04-14T18:00:22.989Z</time></trkpt><trkpt lat="44.0505933" lon="8.1456417"><ele>28.0</ele><time>2026-04-14T18:00:23.99Z</time></trkpt><trkpt lat="44.050615" lon="8.1458833"><ele>28.0</ele><time>2026-04-14T18:00:24.99Z</time></trkpt><trkpt lat="44.0506317" lon="8.1461167"><ele>29.333333333333336</ele><time>2026-04-14T18:00:25.989Z</time></trkpt><trkpt lat="44.0506483" lon="8.1463433"><ele>30.666666666666664</ele><time>2026-04-14T18:00:26.99Z</time></trkpt><trkpt lat="44.050675" lon="8.1465683"><ele>32.0</ele><time>2026-04-14T18:00:27.989Z</time></trkpt><trkpt lat="44.050705" lon="8.14679"><ele>32.0</ele><time>2026-04-14T18:00:28.989Z</time></trkpt><trkpt lat="44.050735" lon="8.1469833"><ele>32.0</ele><time>2026-04-14T18:00:29.989Z</time></trkpt><trkpt lat="44.0507867" lon="8.1471467"><ele>32.0</ele><time>2026-04-14T18:00:30.99Z</time></trkpt><trkpt lat="44.0508317" lon="8.147305"><ele>32.0</ele><time>2026-04-14T18:00:31.989Z</time></trkpt><trkpt lat="44.05088" lon="8.1474967"><ele>31.333333333333332</ele><time>2026-04-14T18:00:32.989Z</time></trkpt><trkpt lat="44.05094" lon="8.1476983"><ele>30.666666666666664</ele><time>2026-04-14T18:00:33.99Z</time></trkpt><trkpt lat="44.0509867" lon="8.147905"><ele>30.0</ele><time>2026-04-14T18:00:34.99Z</time></trkpt><trkpt lat="44.0510467" lon="8.1481117"><ele>29.5</ele><time>2026-04-14T18:00:35.989Z</time></trkpt><trkpt lat="44.0510883" lon="8.1483117"><ele>29.0</ele><time>2026-04-14T18:00:36.989Z</time></trkpt><trkpt lat="44.0511283" lon="8.1484967"><ele>28.5</ele><time>2026-04-14T18:00:37.989Z</time></trkpt><trkpt lat="44.05117" lon="8.148695"><ele>28.0</ele><time>2026-04-14T18:00:38.989Z</time></trkpt><trkpt lat="44.0511933" lon="8.14889"><ele>27.25</ele><time>2026-04-14T18:00:39.989Z</time></trkpt><trkpt lat="44.0512133" lon="8.1490883"><ele>26.5</ele><time>2026-04-14T18:00:40.989Z</time></trkpt><trkpt lat="44.0512433" lon="8.1492933"><ele>25.75</ele><time>2026-04-14T18:00:41.99Z</time></trkpt><trkpt lat="44.0512817" lon="8.14949"><ele>25.0</ele><time>2026-04-14T18:00:42.989Z</time></trkpt><trkpt lat="44.0513367" lon="8.14967"><ele>25.0</ele><time>2026-04-14T18:00:43.99Z</time></trkpt><trkpt lat="44.0513967" lon="8.1498233"><ele>25.0</ele><time>2026-04-14T18:00:44.99Z</time></trkpt><trkpt lat="44.051455" lon="8.1499567"><ele>25.0</ele><time>2026-04-14T18:00:45.989Z</time></trkpt><trkpt lat="44.0515267" lon="8.1500767"><ele>25.0</ele><time>2026-04-14T18:00:46.989Z</time></trkpt><trkpt lat="44.051605" lon="8.1501967"><ele>24.8</ele><time>2026-04-14T18:00:47.99Z</time></trkpt><trkpt lat="44.05168" lon="8.1503"><ele>24.6</ele><time>2026-04-14T18:00:48.989Z</time></trkpt><trkpt lat="44.0517617" lon="8.150405"><ele>24.4</ele><time>2026-04-14T18:00:49.989Z</time></trkpt><trkpt lat="44.0518467" lon="8.15051"><ele>24.2</ele><time>2026-04-14T18:00:50.989Z</time></trkpt><trkpt lat="44.0519267" lon="8.1506217"><ele>24.0</ele><time>2026-04-14T18:00:51.989Z</time></trkpt><trkpt lat="44.0520033" lon="8.1507367"><ele>23.75</ele><time>2026-04-14T18:00:52.989Z</time></trkpt><trkpt lat="44.0520867" lon="8.1508483"><ele>23.5</ele><time>2026-04-14T18:00:53.989Z</time></trkpt><trkpt lat="44.05218" lon="8.1509683"><ele>23.25</ele><time>2026-04-14T18:00:54.989Z</time></trkpt><trkpt lat="44.0522717" lon="8.1510933"><ele>23.0</ele><time>2026-04-14T18:00:55.99Z</time></trkpt><trkpt lat="44.052375" lon="8.1512133"><ele>23.0</ele><time>2026-04-14T18:00:56.989Z</time></trkpt><trkpt lat="44.0524717" lon="8.1513433"><ele>23.0</ele><time>2026-04-14T18:00:57.989Z</time></trkpt><trkpt lat="44.0525683" lon="8.1514683"><ele>23.0</ele><time>2026-04-14T18:00:58.99Z</time></trkpt><trkpt lat="44.0526517" lon="8.1515933"><ele>23.0</ele><time>2026-04-14T18:00:59.989Z</time></trkpt><trkpt lat="44.0527183" lon="8.151715"><ele>23.0</ele><time>2026-04-14T18:01:00.99Z</time></trkpt><trkpt lat="44.0527917" lon="8.1518217"><ele>23.0</ele><time>2026-04-14T18:01:01.989Z</time></trkpt><trkpt lat="44.0528583" lon="8.15193"><ele>23.0</ele><time>2026-04-14T18:01:02.99Z</time></trkpt><trkpt lat="44.0529233" lon="8.152035"><ele>23.0</ele><time>2026-04-14T18:01:03.99Z</time></trkpt><trkpt lat="44.0529917" lon="8.1521417"><ele>23.0</ele><time>2026-04-14T18:01:04.989Z</time></trkpt><trkpt lat="44.0530617" lon="8.152245"><ele>23.0</ele><time>2026-04-14T18:01:05.99Z</time></trkpt><trkpt lat="44.05313" lon="8.1523417"><ele>23.0</ele><time>2026-04-14T18:01:06.99Z</time></trkpt><trkpt lat="44.0531967" lon="8.1524267"><ele>23.0</ele><time>2026-04-14T18:01:07.989Z</time></trkpt><trkpt lat="44.0532567" lon="8.1524917"><ele>23.0</ele><time>2026-04-14T18:01:08.989Z</time></trkpt><trkpt lat="44.05331" lon="8.1525517"><ele>23.0</ele><time>2026-04-14T18:01:09.989Z</time></trkpt><trkpt lat="44.0533617" lon="8.1526033"><ele>23.0</ele><time>2026-04-14T18:01:10.99Z</time></trkpt><trkpt lat="44.05344" lon="8.152715"><ele>22.833333333333336</ele><time>2026-04-14T18:01:12.99Z</time></trkpt><trkpt lat="44.0535217" lon="8.1528217"><ele>22.666666666666668</ele><time>2026-04-14T18:01:14.989Z</time></trkpt><trkpt lat="44.0535667" lon="8.1528867"><ele>22.5</ele><time>2026-04-14T18:01:15.989Z</time></trkpt><trkpt lat="44.0536133" lon="8.1529633"><ele>22.333333333333332</ele><time>2026-04-14T18:01:16.989Z</time></trkpt><trkpt lat="44.0536583" lon="8.1530483"><ele>22.166666666666664</ele><time>2026-04-14T18:01:17.99Z</time></trkpt><trkpt lat="44.0537117" lon="8.1531417"><ele>22.0</ele><time>2026-04-14T18:01:18.99Z</time></trkpt><trkpt lat="44.053775" lon="8.1532433"><ele>22.0</ele><time>2026-04-14T18:01:19.99Z</time></trkpt><trkpt lat="44.0538283" lon="8.153365"><ele>22.0</ele><time>2026-04-14T18:01:20.99Z</time></trkpt><trkpt lat="44.0538783" lon="8.15348"><ele>22.0</ele><time>2026-04-14T18:01:21.99Z</time></trkpt><trkpt lat="44.053925" lon="8.15359"><ele>22.0</ele><time>2026-04-14T18:01:22.989Z</time></trkpt><trkpt lat="44.0539567" lon="8.15368"><ele>22.0</ele><time>2026-04-14T18:01:23.989Z</time></trkpt><trkpt lat="44.0539967" lon="8.153755"><ele>22.0</ele><time>2026-04-14T18:01:24.989Z</time></trkpt><trkpt lat="44.0540417" lon="8.153835"><ele>22.0</ele><time>2026-04-14T18:01:25.99Z</time></trkpt><trkpt lat="44.0540783" lon="8.1539167"><ele>22.0</ele><time>2026-04-14T18:01:26.99Z</time></trkpt><trkpt lat="44.0541117" lon="8.1539917"><ele>22.0</ele><time>2026-04-14T18:01:27.99Z</time></trkpt><trkpt lat="44.0541867" lon="8.1541267"><ele>22.0</ele><time>2026-04-14T18:01:29.989Z</time></trkpt><trkpt lat="44.05422" lon="8.154205"><ele>22.0</ele><time>2026-04-14T18:01:30.989Z</time></trkpt><trkpt lat="44.054265" lon="8.1542833"><ele>22.0</ele><time>2026-04-14T18:01:31.989Z</time></trkpt><trkpt lat="44.0543067" lon="8.1543733"><ele>22.333333333333332</ele><time>2026-04-14T18:01:32.989Z</time></trkpt><trkpt lat="44.05435" lon="8.1544617"><ele>22.666666666666664</ele><time>2026-04-14T18:01:33.989Z</time></trkpt><trkpt lat="44.0543883" lon="8.1545617"><ele>23.0</ele><time>2026-04-14T18:01:34.99Z</time></trkpt><trkpt lat="44.0544233" lon="8.1546583"><ele>23.333333333333332</ele><time>2026-04-14T18:01:35.99Z</time></trkpt><trkpt lat="44.0544667" lon="8.15476"><ele>23.666666666666668</ele><time>2026-04-14T18:01:36.989Z</time></trkpt><trkpt lat="44.0545167" lon="8.1548517"><ele>24.0</ele><time>2026-04-14T18:01:37.989Z</time></trkpt><trkpt lat="44.0545817" lon="8.1549283"><ele>24.0</ele><time>2026-04-14T18:01:38.99Z</time></trkpt><trkpt lat="44.0546317" lon="8.1550367"><ele>24.0</ele><time>2026-04-14T18:01:39.989Z</time></trkpt><trkpt lat="44.0546883" lon="8.1551367"><ele>24.0</ele><time>2026-04-14T18:01:40.989Z</time></trkpt><trkpt lat="44.054735" lon="8.1552433"><ele>24.0</ele><time>2026-04-14T18:01:41.99Z</time></trkpt><trkpt lat="44.0547767" lon="8.1553517"><ele>24.0</ele><time>2026-04-14T18:01:42.99Z</time></trkpt><trkpt lat="44.0548267" lon="8.1554633"><ele>23.999999999999996</ele><time>2026-04-14T18:01:43.99Z</time></trkpt><trkpt lat="44.054865" lon="8.1555667"><ele>24.0</ele><time>2026-04-14T18:01:44.99Z</time></trkpt><trkpt lat="44.0548967" lon="8.155645"><ele>24.0</ele><time>2026-04-14T18:01:45.989Z</time></trkpt><trkpt lat="44.0549317" lon="8.155725"><ele>24.0</ele><time>2026-04-14T18:01:46.989Z</time></trkpt><trkpt lat="44.0549683" lon="8.1558033"><ele>24.0</ele><time>2026-04-14T18:01:47.99Z</time></trkpt><trkpt lat="44.0550117" lon="8.1558817"><ele>23.999999999999996</ele><time>2026-04-14T18:01:48.99Z</time></trkpt><trkpt lat="44.055055" lon="8.1559617"><ele>24.0</ele><time>2026-04-14T18:01:49.989Z</time></trkpt><trkpt lat="44.0551" lon="8.15604"><ele>23.6</ele><time>2026-04-14T18:01:50.989Z</time></trkpt><trkpt lat="44.0551967" lon="8.1561467"><ele>23.2</ele><time>2026-04-14T18:01:52.99Z</time></trkpt><trkpt lat="44.05526" lon="8.1561767"><ele>22.8</ele><time>2026-04-14T18:01:53.989Z</time></trkpt><trkpt lat="44.0553633" lon="8.1562233"><ele>22.400000000000002</ele><time>2026-04-14T18:01:55.989Z</time></trkpt><trkpt lat="44.05546" lon="8.1562767"><ele>22.0</ele><time>2026-04-14T18:01:57.989Z</time></trkpt><trkpt lat="44.0555617" lon="8.1563567"><ele>22.0</ele><time>2026-04-14T18:01:59.989Z</time></trkpt><trkpt lat="44.0556683" lon="8.156415"><ele>22.0</ele><time>2026-04-14T18:02:01.989Z</time></trkpt><trkpt lat="44.0557767" lon="8.1565183"><ele>22.0</ele><time>2026-04-14T18:02:03.989Z</time></trkpt><trkpt lat="44.0558333" lon="8.1565783"><ele>22.0</ele><time>2026-04-14T18:02:04.989Z</time></trkpt><trkpt lat="44.0558867" lon="8.1566567"><ele>22.0</ele><time>2026-04-14T18:02:05.989Z</time></trkpt><trkpt lat="44.0559467" lon="8.1567433"><ele>22.0</ele><time>2026-04-14T18:02:06.989Z</time></trkpt><trkpt lat="44.056005" lon="8.156845"><ele>22.0</ele><time>2026-04-14T18:02:07.989Z</time></trkpt><trkpt lat="44.05606" lon="8.1569417"><ele>22.0</ele><time>2026-04-14T18:02:08.99Z</time></trkpt><trkpt lat="44.0561117" lon="8.15705"><ele>22.0</ele><time>2026-04-14T18:02:09.989Z</time></trkpt><trkpt lat="44.056155" lon="8.1571783"><ele>22.0</ele><time>2026-04-14T18:02:10.989Z</time></trkpt><trkpt lat="44.0562" lon="8.15731"><ele>21.5</ele><time>2026-04-14T18:02:11.989Z</time></trkpt><trkpt lat="44.05623" lon="8.1574583"><ele>21.0</ele><time>2026-04-14T18:02:12.989Z</time></trkpt><trkpt lat="44.0562583" lon="8.1576183"><ele>20.5</ele><time>2026-04-14T18:02:13.99Z</time></trkpt><trkpt lat="44.0562833" lon="8.15779"><ele>20.0</ele><time>2026-04-14T18:02:14.989Z</time></trkpt><trkpt lat="44.0563067" lon="8.1579583"><ele>20.0</ele><time>2026-04-14T18:02:15.989Z</time></trkpt><trkpt lat="44.0563267" lon="8.1581183"><ele>20.0</ele><time>2026-04-14T18:02:16.989Z</time></trkpt><trkpt lat="44.056345" lon="8.1582567"><ele>20.0</ele><time>2026-04-14T18:02:17.989Z</time></trkpt><trkpt lat="44.0563667" lon="8.1583683"><ele>20.0</ele><time>2026-04-14T18:02:18.99Z</time></trkpt><trkpt lat="44.0563817" lon="8.1584767"><ele>20.0</ele><time>2026-04-14T18:02:19.99Z</time></trkpt><trkpt lat="44.056395" lon="8.1585633"><ele>20.0</ele><time>2026-04-14T18:02:20.99Z</time></trkpt><trkpt lat="44.0564083" lon="8.15865"><ele>19.833333333333336</ele><time>2026-04-14T18:02:21.989Z</time></trkpt><trkpt lat="44.0564233" lon="8.1587433"><ele>19.666666666666668</ele><time>2026-04-14T18:02:22.989Z</time></trkpt><trkpt lat="44.056435" lon="8.1588483"><ele>19.5</ele><time>2026-04-14T18:02:23.989Z</time></trkpt><trkpt lat="44.0564517" lon="8.1589733"><ele>19.333333333333332</ele><time>2026-04-14T18:02:24.989Z</time></trkpt><trkpt lat="44.0564783" lon="8.1590983"><ele>19.166666666666664</ele><time>2026-04-14T18:02:25.99Z</time></trkpt><trkpt lat="44.0564967" lon="8.159235"><ele>19.0</ele><time>2026-04-14T18:02:26.989Z</time></trkpt><trkpt lat="44.0565217" lon="8.1593567"><ele>19.0</ele><time>2026-04-14T18:02:27.99Z</time></trkpt><trkpt lat="44.05654" lon="8.1594767"><ele>19.0</ele><time>2026-04-14T18:02:28.99Z</time></trkpt><trkpt lat="44.05655" lon="8.1595867"><ele>19.0</ele><time>2026-04-14T18:02:29.989Z</time></trkpt><trkpt lat="44.05656" lon="8.1596817"><ele>19.0</ele><time>2026-04-14T18:02:30.99Z</time></trkpt><trkpt lat="44.056575" lon="8.1597683"><ele>19.0</ele><time>2026-04-14T18:02:31.99Z</time></trkpt><trkpt lat="44.0565917" lon="8.1599567"><ele>19.0</ele><time>2026-04-14T18:02:33.99Z</time></trkpt><trkpt lat="44.0565967" lon="8.1600583"><ele>18.599999999999998</ele><time>2026-04-14T18:02:34.989Z</time></trkpt><trkpt lat="44.0566033" lon="8.160175"><ele>18.2</ele><time>2026-04-14T18:02:35.989Z</time></trkpt><trkpt lat="44.0566017" lon="8.1603033"><ele>17.799999999999997</ele><time>2026-04-14T18:02:36.989Z</time></trkpt><trkpt lat="44.0565983" lon="8.1604383"><ele>17.4</ele><time>2026-04-14T18:02:37.99Z</time></trkpt><trkpt lat="44.056605" lon="8.1605667"><ele>17.0</ele><time>2026-04-14T18:02:38.989Z</time></trkpt><trkpt lat="44.0566083" lon="8.1606933"><ele>17.166666666666668</ele><time>2026-04-14T18:02:39.989Z</time></trkpt><trkpt lat="44.0566183" lon="8.1608283"><ele>17.333333333333336</ele><time>2026-04-14T18:02:40.99Z</time></trkpt><trkpt lat="44.056625" lon="8.1609533"><ele>17.5</ele><time>2026-04-14T18:02:41.989Z</time></trkpt><trkpt lat="44.0566067" lon="8.1610717"><ele>17.666666666666668</ele><time>2026-04-14T18:02:42.989Z</time></trkpt><trkpt lat="44.0566167" lon="8.1611833"><ele>17.833333333333332</ele><time>2026-04-14T18:02:43.989Z</time></trkpt><trkpt lat="44.056625" lon="8.1612833"><ele>18.0</ele><time>2026-04-14T18:02:44.989Z</time></trkpt><trkpt lat="44.0566083" lon="8.16138"><ele>18.0</ele><time>2026-04-14T18:02:45.989Z</time></trkpt><trkpt lat="44.0565667" lon="8.1614717"><ele>18.0</ele><time>2026-04-14T18:02:46.989Z</time></trkpt><trkpt lat="44.0565117" lon="8.1615617"><ele>18.0</ele><time>2026-04-14T18:02:47.989Z</time></trkpt><trkpt lat="44.0564417" lon="8.1616283"><ele>18.0</ele><time>2026-04-14T18:02:48.99Z</time></trkpt><trkpt lat="44.0563667" lon="8.1616817"><ele>18.0</ele><time>2026-04-14T18:02:49.989Z</time></trkpt><trkpt lat="44.0562917" lon="8.161725"><ele>18.0</ele><time>2026-04-14T18:02:50.989Z</time></trkpt><trkpt lat="44.0562133" lon="8.16177"><ele>18.0</ele><time>2026-04-14T18:02:51.99Z</time></trkpt><trkpt lat="44.0561367" lon="8.161825"><ele>18.0</ele><time>2026-04-14T18:02:52.99Z</time></trkpt><trkpt lat="44.05606" lon="8.1618933"><ele>18.0</ele><time>2026-04-14T18:02:53.99Z</time></trkpt><trkpt lat="44.055995" lon="8.1619767"><ele>18.0</ele><time>2026-04-14T18:02:54.99Z</time></trkpt><trkpt lat="44.0559467" lon="8.1620583"><ele>18.0</ele><time>2026-04-14T18:02:55.99Z</time></trkpt><trkpt lat="44.0559083" lon="8.1621567"><ele>18.0</ele><time>2026-04-14T18:02:56.989Z</time></trkpt><trkpt lat="44.0558767" lon="8.1622733"><ele>18.0</ele><time>2026-04-14T18:02:57.989Z</time></trkpt><trkpt lat="44.0558767" lon="8.16238"><ele>18.0</ele><time>2026-04-14T18:02:58.989Z</time></trkpt><trkpt lat="44.0559033" lon="8.162495"><ele>18.0</ele><time>2026-04-14T18:02:59.99Z</time></trkpt><trkpt lat="44.0559417" lon="8.1626167"><ele>18.0</ele><time>2026-04-14T18:03:00.99Z</time></trkpt><trkpt lat="44.0559983" lon="8.16273"><ele>18.0</ele><time>2026-04-14T18:03:01.989Z</time></trkpt><trkpt lat="44.0560733" lon="8.1628333"><ele>18.0</ele><time>2026-04-14T18:03:02.989Z</time></trkpt><trkpt lat="44.0561717" lon="8.1629017"><ele>18.0</ele><time>2026-04-14T18:03:03.989Z</time></trkpt><trkpt lat="44.05627" lon="8.1629817"><ele>18.0</ele><time>2026-04-14T18:03:04.989Z</time></trkpt><trkpt lat="44.0563517" lon="8.1630967"><ele>18.0</ele><time>2026-04-14T18:03:05.989Z</time></trkpt><trkpt lat="44.0564" lon="8.1632"><ele>18.0</ele><time>2026-04-14T18:03:06.989Z</time></trkpt><trkpt lat="44.0564283" lon="8.1633017"><ele>17.8</ele><time>2026-04-14T18:03:07.99Z</time></trkpt><trkpt lat="44.0564033" lon="8.163425"><ele>17.6</ele><time>2026-04-14T18:03:08.989Z</time></trkpt><trkpt lat="44.056365" lon="8.163545"><ele>17.4</ele><time>2026-04-14T18:03:09.989Z</time></trkpt><trkpt lat="44.05631" lon="8.1636417"><ele>17.2</ele><time>2026-04-14T18:03:10.989Z</time></trkpt><trkpt lat="44.0562417" lon="8.1637183"><ele>17.0</ele><time>2026-04-14T18:03:11.99Z</time></trkpt><trkpt lat="44.0561467" lon="8.16375"><ele>17.0</ele><time>2026-04-14T18:03:12.989Z</time></trkpt><trkpt lat="44.056045" lon="8.163755"><ele>17.0</ele><time>2026-04-14T18:03:13.99Z</time></trkpt><trkpt lat="44.0559533" lon="8.1637333"><ele>17.0</ele><time>2026-04-14T18:03:14.989Z</time></trkpt><trkpt lat="44.0558667" lon="8.1636717"><ele>17.0</ele><time>2026-04-14T18:03:15.989Z</time></trkpt><trkpt lat="44.055805" lon="8.1635583"><ele>17.0</ele><time>2026-04-14T18:03:16.989Z</time></trkpt><trkpt lat="44.0557667" lon="8.16345"><ele>17.0</ele><time>2026-04-14T18:03:17.99Z</time></trkpt><trkpt lat="44.05575" lon="8.1633217"><ele>17.0</ele><time>2026-04-14T18:03:18.989Z</time></trkpt><trkpt lat="44.0557533" lon="8.1631883"><ele>17.0</ele><time>2026-04-14T18:03:19.989Z</time></trkpt><trkpt lat="44.0557883" lon="8.1630633"><ele>17.0</ele><time>2026-04-14T18:03:20.99Z</time></trkpt><trkpt lat="44.0558417" lon="8.1629667"><ele>17.0</ele><time>2026-04-14T18:03:21.989Z</time></trkpt><trkpt lat="44.0559167" lon="8.1629"><ele>17.2</ele><time>2026-04-14T18:03:22.989Z</time></trkpt><trkpt lat="44.056005" lon="8.1628633"><ele>17.4</ele><time>2026-04-14T18:03:23.99Z</time></trkpt><trkpt lat="44.0560883" lon="8.1628483"><ele>17.6</ele><time>2026-04-14T18:03:24.99Z</time></trkpt><trkpt lat="44.0561867" lon="8.1628483"><ele>17.8</ele><time>2026-04-14T18:03:25.989Z</time></trkpt><trkpt lat="44.0562967" lon="8.1628717"><ele>18.0</ele><time>2026-04-14T18:03:26.989Z</time></trkpt><trkpt lat="44.0564133" lon="8.1628933"><ele>18.0</ele><time>2026-04-14T18:03:27.989Z</time></trkpt><trkpt lat="44.0565417" lon="8.1629067"><ele>18.0</ele><time>2026-04-14T18:03:28.989Z</time></trkpt><trkpt lat="44.05668" lon="8.1629183"><ele>18.0</ele><time>2026-04-14T18:03:29.99Z</time></trkpt><trkpt lat="44.05682" lon="8.16293"><ele>18.0</ele><time>2026-04-14T18:03:30.99Z</time></trkpt><trkpt lat="44.0569633" lon="8.1629433"><ele>19.75</ele><time>2026-04-14T18:03:31.99Z</time></trkpt><trkpt lat="44.0571183" lon="8.16296"><ele>21.5</ele><time>2026-04-14T18:03:32.989Z</time></trkpt><trkpt lat="44.0572567" lon="8.16297"><ele>23.25</ele><time>2026-04-14T18:03:33.989Z</time></trkpt><trkpt lat="44.0574083" lon="8.1629733"><ele>25.0</ele><time>2026-04-14T18:03:34.99Z</time></trkpt><trkpt lat="44.0575583" lon="8.1629683"><ele>34.5</ele><time>2026-04-14T18:03:35.989Z</time></trkpt><trkpt lat="44.0577083" lon="8.1629517"><ele>44.0</ele><time>2026-04-14T18:03:36.989Z</time></trkpt><trkpt lat="44.0603467" lon="8.1634"><ele>44.0</ele><time>2026-04-14T18:03:50.999Z</time></trkpt><trkpt lat="44.0605483" lon="8.1634183"><ele>44.0</ele><time>2026-04-14T18:03:51.999Z</time></trkpt><trkpt lat="44.0607433" lon="8.1634367"><ele>44.0</ele><time>2026-04-14T18:03:52.998Z</time></trkpt><trkpt lat="44.060945" lon="8.163455"><ele>44.0</ele><time>2026-04-14T18:03:53.999Z</time></trkpt><trkpt lat="44.0611533" lon="8.1634717"><ele>44.0</ele><time>2026-04-14T18:03:54.998Z</time></trkpt><trkpt lat="44.0613583" lon="8.1634933"><ele>44.0</ele><time>2026-04-14T18:03:55.999Z</time></trkpt><trkpt lat="44.0615617" lon="8.163515"><ele>38.5</ele><time>2026-04-14T18:03:56.998Z</time></trkpt><trkpt lat="44.0617633" lon="8.1635383"><ele>33.0</ele><time>2026-04-14T18:03:57.999Z</time></trkpt><trkpt lat="44.0657817" lon="8.164805"><ele>31.333333333333336</ele><time>2026-04-14T18:04:15.998Z</time></trkpt><trkpt lat="44.06594" lon="8.1650167"><ele>29.666666666666668</ele><time>2026-04-14T18:04:16.998Z</time></trkpt><trkpt lat="44.0660867" lon="8.165235"><ele>28.0</ele><time>2026-04-14T18:04:17.998Z</time></trkpt><trkpt lat="44.0662133" lon="8.16548"><ele>27.0</ele><time>2026-04-14T18:04:18.998Z</time></trkpt><trkpt lat="44.0663217" lon="8.1657217"><ele>26.0</ele><time>2026-04-14T18:04:19.998Z</time></trkpt><trkpt lat="44.0664183" lon="8.1659483"><ele>25.0</ele><time>2026-04-14T18:04:20.999Z</time></trkpt><trkpt lat="44.0665017" lon="8.16616"><ele>25.0</ele><time>2026-04-14T18:04:21.999Z</time></trkpt><trkpt lat="44.06659" lon="8.1663783"><ele>25.0</ele><time>2026-04-14T18:04:22.999Z</time></trkpt><trkpt lat="44.0666817" lon="8.1666"><ele>25.0</ele><time>2026-04-14T18:04:23.999Z</time></trkpt><trkpt lat="44.066775" lon="8.1668267"><ele>24.666666666666668</ele><time>2026-04-14T18:04:24.998Z</time></trkpt><trkpt lat="44.06687" lon="8.1670517"><ele>24.333333333333336</ele><time>2026-04-14T18:04:25.998Z</time></trkpt><trkpt lat="44.0669617" lon="8.1672767"><ele>24.0</ele><time>2026-04-14T18:04:26.998Z</time></trkpt><trkpt lat="44.0670583" lon="8.1674917"><ele>23.0</ele><time>2026-04-14T18:04:27.998Z</time></trkpt><trkpt lat="44.067155" lon="8.1677317"><ele>22.0</ele><time>2026-04-14T18:04:28.998Z</time></trkpt><trkpt lat="44.0672533" lon="8.1679617"><ele>21.0</ele><time>2026-04-14T18:04:29.998Z</time></trkpt><trkpt lat="44.0673533" lon="8.1681583"><ele>20.333333333333332</ele><time>2026-04-14T18:04:30.999Z</time></trkpt><trkpt lat="44.067435" lon="8.16835"><ele>19.666666666666664</ele><time>2026-04-14T18:04:31.998Z</time></trkpt><trkpt lat="44.06751" lon="8.16853"><ele>19.0</ele><time>2026-04-14T18:04:32.999Z</time></trkpt><trkpt lat="44.0675883" lon="8.1687017"><ele>19.0</ele><time>2026-04-14T18:04:33.998Z</time></trkpt><trkpt lat="44.0676667" lon="8.16888"><ele>19.0</ele><time>2026-04-14T18:04:34.998Z</time></trkpt><trkpt lat="44.067745" lon="8.1690583"><ele>19.0</ele><time>2026-04-14T18:04:35.998Z</time></trkpt><trkpt lat="44.0678233" lon="8.1692383"><ele>19.5</ele><time>2026-04-14T18:04:36.998Z</time></trkpt><trkpt lat="44.0678983" lon="8.1694083"><ele>20.0</ele><time>2026-04-14T18:04:37.999Z</time></trkpt><trkpt lat="44.0679717" lon="8.169565"><ele>20.5</ele><time>2026-04-14T18:04:38.999Z</time></trkpt><trkpt lat="44.0680367" lon="8.1697033"><ele>21.0</ele><time>2026-04-14T18:04:39.998Z</time></trkpt><trkpt lat="44.0681033" lon="8.16983"><ele>21.0</ele><time>2026-04-14T18:04:40.998Z</time></trkpt><trkpt lat="44.06817" lon="8.169945"><ele>21.0</ele><time>2026-04-14T18:04:41.998Z</time></trkpt><trkpt lat="44.0682283" lon="8.1700483"><ele>21.0</ele><time>2026-04-14T18:04:42.998Z</time></trkpt><trkpt lat="44.0682717" lon="8.1701567"><ele>21.0</ele><time>2026-04-14T18:04:43.999Z</time></trkpt><trkpt lat="44.068305" lon="8.170275"><ele>21.0</ele><time>2026-04-14T18:04:44.999Z</time></trkpt><trkpt lat="44.068325" lon="8.1703767"><ele>21.0</ele><time>2026-04-14T18:04:45.998Z</time></trkpt><trkpt lat="44.0683317" lon="8.170475"><ele>21.0</ele><time>2026-04-14T18:04:46.998Z</time></trkpt><trkpt lat="44.0683483" lon="8.1705667"><ele>21.0</ele><time>2026-04-14T18:04:47.999Z</time></trkpt><trkpt lat="44.0684333" lon="8.1707317"><ele>21.0</ele><time>2026-04-14T18:04:49.999Z</time></trkpt><trkpt lat="44.0685483" lon="8.1708383"><ele>21.0</ele><time>2026-04-14T18:04:50.999Z</time></trkpt><trkpt lat="44.0686867" lon="8.170955"><ele>21.0</ele><time>2026-04-14T18:04:51.998Z</time></trkpt><trkpt lat="44.0688333" lon="8.17108"><ele>21.0</ele><time>2026-04-14T18:04:52.999Z</time></trkpt><trkpt lat="44.0689967" lon="8.17119"><ele>21.0</ele><time>2026-04-14T18:04:53.999Z</time></trkpt><trkpt lat="44.0691617" lon="8.1712933"><ele>21.333333333333332</ele><time>2026-04-14T18:04:54.999Z</time></trkpt><trkpt lat="44.069325" lon="8.171395"><ele>21.666666666666664</ele><time>2026-04-14T18:04:55.999Z</time></trkpt><trkpt lat="44.0694817" lon="8.1715117"><ele>22.0</ele><time>2026-04-14T18:04:56.998Z</time></trkpt><trkpt lat="44.0696383" lon="8.1716333"><ele>22.0</ele><time>2026-04-14T18:04:57.999Z</time></trkpt><trkpt lat="44.0697967" lon="8.17174"><ele>22.0</ele><time>2026-04-14T18:04:58.999Z</time></trkpt><trkpt lat="44.0699517" lon="8.17185"><ele>22.0</ele><time>2026-04-14T18:04:59.998Z</time></trkpt><trkpt lat="44.0701083" lon="8.1719667"><ele>23.0</ele><time>2026-04-14T18:05:00.999Z</time></trkpt><trkpt lat="44.07026" lon="8.172095"><ele>24.0</ele><time>2026-04-14T18:05:01.999Z</time></trkpt><trkpt lat="44.0704367" lon="8.1722133"><ele>25.0</ele><time>2026-04-14T18:05:02.998Z</time></trkpt><trkpt lat="44.0705783" lon="8.17235"><ele>25.0</ele><time>2026-04-14T18:05:03.998Z</time></trkpt><trkpt lat="44.0706767" lon="8.1725"><ele>25.0</ele><time>2026-04-14T18:05:04.998Z</time></trkpt><trkpt lat="44.0707317" lon="8.17268"><ele>25.0</ele><time>2026-04-14T18:05:05.999Z</time></trkpt><trkpt lat="44.07076" lon="8.17287"><ele>25.0</ele><time>2026-04-14T18:05:06.998Z</time></trkpt><trkpt lat="44.07081" lon="8.173045"><ele>28.333333333333336</ele><time>2026-04-14T18:05:07.998Z</time></trkpt><trkpt lat="44.070885" lon="8.17323"><ele>31.666666666666664</ele><time>2026-04-14T18:05:08.999Z</time></trkpt><trkpt lat="44.0709667" lon="8.17341"><ele>35.0</ele><time>2026-04-14T18:05:09.998Z</time></trkpt><trkpt lat="44.0710617" lon="8.1735883"><ele>35.0</ele><time>2026-04-14T18:05:10.999Z</time></trkpt><trkpt lat="44.07114" lon="8.17377"><ele>35.0</ele><time>2026-04-14T18:05:11.998Z</time></trkpt><trkpt lat="44.0712067" lon="8.1739433"><ele>35.0</ele><time>2026-04-14T18:05:12.999Z</time></trkpt><trkpt lat="44.071235" lon="8.1741083"><ele>35.0</ele><time>2026-04-14T18:05:13.998Z</time></trkpt><trkpt lat="44.0712583" lon="8.1742933"><ele>34.8</ele><time>2026-04-14T18:05:14.999Z</time></trkpt><trkpt lat="44.0712733" lon="8.1744667"><ele>34.6</ele><time>2026-04-14T18:05:15.999Z</time></trkpt><trkpt lat="44.0712967" lon="8.17464"><ele>34.4</ele><time>2026-04-14T18:05:16.998Z</time></trkpt><trkpt lat="44.0713117" lon="8.1747867"><ele>34.2</ele><time>2026-04-14T18:05:17.998Z</time></trkpt><trkpt lat="44.0713417" lon="8.174905"><ele>34.0</ele><time>2026-04-14T18:05:18.998Z</time></trkpt><trkpt lat="44.07138" lon="8.17501"><ele>34.0</ele><time>2026-04-14T18:05:19.999Z</time></trkpt><trkpt lat="44.0714183" lon="8.1751217"><ele>34.0</ele><time>2026-04-14T18:05:20.999Z</time></trkpt><trkpt lat="44.0714533" lon="8.1752267"><ele>34.0</ele><time>2026-04-14T18:05:21.999Z</time></trkpt><trkpt lat="44.0714933" lon="8.17533"><ele>34.0</ele><time>2026-04-14T18:05:22.999Z</time></trkpt><trkpt lat="44.07154" lon="8.17542"><ele>34.0</ele><time>2026-04-14T18:05:23.998Z</time></trkpt><trkpt lat="44.07159" lon="8.175505"><ele>34.0</ele><time>2026-04-14T18:05:24.999Z</time></trkpt><trkpt lat="44.0716483" lon="8.1755733"><ele>34.833333333333336</ele><time>2026-04-14T18:05:25.999Z</time></trkpt><trkpt lat="44.071695" lon="8.1756367"><ele>35.66666666666667</ele><time>2026-04-14T18:05:26.998Z</time></trkpt><trkpt lat="44.0717533" lon="8.1756867"><ele>36.5</ele><time>2026-04-14T18:05:27.999Z</time></trkpt><trkpt lat="44.071825" lon="8.1757283"><ele>37.333333333333336</ele><time>2026-04-14T18:05:28.998Z</time></trkpt><trkpt lat="44.0719167" lon="8.1757733"><ele>38.166666666666664</ele><time>2026-04-14T18:05:29.998Z</time></trkpt><trkpt lat="44.0720117" lon="8.1758283"><ele>39.0</ele><time>2026-04-14T18:05:30.999Z</time></trkpt><trkpt lat="44.0721067" lon="8.175885"><ele>39.0</ele><time>2026-04-14T18:05:31.998Z</time></trkpt><trkpt lat="44.0722033" lon="8.1759533"><ele>39.0</ele><time>2026-04-14T18:05:32.999Z</time></trkpt><trkpt lat="44.0722933" lon="8.1760083"><ele>39.0</ele><time>2026-04-14T18:05:33.999Z</time></trkpt><trkpt lat="44.0723883" lon="8.1760483"><ele>39.0</ele><time>2026-04-14T18:05:34.998Z</time></trkpt><trkpt lat="44.0724767" lon="8.176085"><ele>39.0</ele><time>2026-04-14T18:05:35.998Z</time></trkpt><trkpt lat="44.0725633" lon="8.1761217"><ele>39.0</ele><time>2026-04-14T18:05:36.998Z</time></trkpt><trkpt lat="44.0726467" lon="8.1761717"><ele>39.0</ele><time>2026-04-14T18:05:37.998Z</time></trkpt><trkpt lat="44.0727433" lon="8.1762067"><ele>39.0</ele><time>2026-04-14T18:05:38.999Z</time></trkpt><trkpt lat="44.07285" lon="8.1762133"><ele>39.0</ele><time>2026-04-14T18:05:39.999Z</time></trkpt><trkpt lat="44.07297" lon="8.17619"><ele>39.0</ele><time>2026-04-14T18:05:40.999Z</time></trkpt><trkpt lat="44.0731017" lon="8.1761517"><ele>39.0</ele><time>2026-04-14T18:05:41.998Z</time></trkpt><trkpt lat="44.0732583" lon="8.17612"><ele>39.0</ele><time>2026-04-14T18:05:42.998Z</time></trkpt><trkpt lat="44.0734333" lon="8.1761167"><ele>39.0</ele><time>2026-04-14T18:05:43.998Z</time></trkpt><trkpt lat="44.073625" lon="8.1761183"><ele>39.0</ele><time>2026-04-14T18:05:44.998Z</time></trkpt><trkpt lat="44.0738233" lon="8.1761283"><ele>39.0</ele><time>2026-04-14T18:05:45.998Z</time></trkpt><trkpt lat="44.0740083" lon="8.1761317"><ele>39.0</ele><time>2026-04-14T18:05:46.999Z</time></trkpt><trkpt lat="44.0741983" lon="8.1761233"><ele>39.666666666666664</ele><time>2026-04-14T18:05:47.998Z</time></trkpt><trkpt lat="44.0744017" lon="8.1761"><ele>40.33333333333333</ele><time>2026-04-14T18:05:48.998Z</time></trkpt><trkpt lat="44.0745883" lon="8.1760717"><ele>41.0</ele><time>2026-04-14T18:05:49.999Z</time></trkpt><trkpt lat="44.0747733" lon="8.1760483"><ele>41.0</ele><time>2026-04-14T18:05:50.998Z</time></trkpt><trkpt lat="44.0749583" lon="8.1760267"><ele>41.0</ele><time>2026-04-14T18:05:51.999Z</time></trkpt><trkpt lat="44.075145" lon="8.1759667"><ele>41.0</ele><time>2026-04-14T18:05:52.999Z</time></trkpt><trkpt lat="44.0753367" lon="8.1759033"><ele>41.0</ele><time>2026-04-14T18:05:53.998Z</time></trkpt><trkpt lat="44.0755133" lon="8.17585"><ele>41.0</ele><time>2026-04-14T18:05:54.999Z</time></trkpt><trkpt lat="44.075675" lon="8.175785"><ele>41.0</ele><time>2026-04-14T18:05:55.998Z</time></trkpt><trkpt lat="44.0758283" lon="8.175745"><ele>41.666666666666664</ele><time>2026-04-14T18:05:56.999Z</time></trkpt><trkpt lat="44.07597" lon="8.1757117"><ele>42.333333333333336</ele><time>2026-04-14T18:05:57.999Z</time></trkpt><trkpt lat="44.0761233" lon="8.1756317"><ele>43.0</ele><time>2026-04-14T18:05:58.998Z</time></trkpt><trkpt lat="44.0762767" lon="8.1755033"><ele>43.66666666666667</ele><time>2026-04-14T18:05:59.998Z</time></trkpt><trkpt lat="44.0764267" lon="8.17536"><ele>44.333333333333336</ele><time>2026-04-14T18:06:00.998Z</time></trkpt><trkpt lat="44.0765767" lon="8.175195"><ele>45.0</ele><time>2026-04-14T18:06:01.998Z</time></trkpt><trkpt lat="44.0767117" lon="8.1750167"><ele>46.33333333333333</ele><time>2026-04-14T18:06:02.999Z</time></trkpt><trkpt lat="44.076835" lon="8.1748517"><ele>47.666666666666664</ele><time>2026-04-14T18:06:03.998Z</time></trkpt><trkpt lat="44.0769367" lon="8.1747083"><ele>49.0</ele><time>2026-04-14T18:06:04.998Z</time></trkpt><trkpt lat="44.0770667" lon="8.1745817"><ele>49.0</ele><time>2026-04-14T18:06:05.998Z</time></trkpt><trkpt lat="44.077205" lon="8.1744767"><ele>49.0</ele><time>2026-04-14T18:06:06.999Z</time></trkpt><trkpt lat="44.0773467" lon="8.1743467"><ele>49.0</ele><time>2026-04-14T18:06:07.998Z</time></trkpt><trkpt lat="44.0774883" lon="8.1741567"><ele>50.0</ele><time>2026-04-14T18:06:08.999Z</time></trkpt><trkpt lat="44.0776083" lon="8.1739633"><ele>51.0</ele><time>2026-04-14T18:06:09.998Z</time></trkpt><trkpt lat="44.077725" lon="8.1737383"><ele>52.0</ele><time>2026-04-14T18:06:10.998Z</time></trkpt><trkpt lat="44.0778317" lon="8.1735167"><ele>52.0</ele><time>2026-04-14T18:06:11.999Z</time></trkpt><trkpt lat="44.0779283" lon="8.173265"><ele>52.0</ele><time>2026-04-14T18:06:12.998Z</time></trkpt><trkpt lat="44.078025" lon="8.1730333"><ele>52.0</ele><time>2026-04-14T18:06:13.999Z</time></trkpt><trkpt lat="44.078115" lon="8.1728167"><ele>52.25</ele><time>2026-04-14T18:06:14.998Z</time></trkpt><trkpt lat="44.0781917" lon="8.1726267"><ele>52.5</ele><time>2026-04-14T18:06:15.998Z</time></trkpt><trkpt lat="44.0782533" lon="8.1724683"><ele>52.75</ele><time>2026-04-14T18:06:16.998Z</time></trkpt><trkpt lat="44.0783083" lon="8.1723717"><ele>53.0</ele><time>2026-04-14T18:06:17.998Z</time></trkpt><trkpt lat="44.0783833" lon="8.1723417"><ele>53.16666666666667</ele><time>2026-04-14T18:06:18.999Z</time></trkpt><trkpt lat="44.0784583" lon="8.172355"><ele>53.333333333333336</ele><time>2026-04-14T18:06:19.999Z</time></trkpt><trkpt lat="44.0785267" lon="8.1723867"><ele>53.5</ele><time>2026-04-14T18:06:20.999Z</time></trkpt><trkpt lat="44.0786033" lon="8.1724733"><ele>53.66666666666667</ele><time>2026-04-14T18:06:22.998Z</time></trkpt><trkpt lat="44.078635" lon="8.1726083"><ele>53.833333333333336</ele><time>2026-04-14T18:06:24.999Z</time></trkpt><trkpt lat="44.0786383" lon="8.17272"><ele>54.0</ele><time>2026-04-14T18:06:25.999Z</time></trkpt><trkpt lat="44.078625" lon="8.1728633"><ele>54.0</ele><time>2026-04-14T18:06:26.999Z</time></trkpt><trkpt lat="44.07861" lon="8.173045"><ele>54.0</ele><time>2026-04-14T18:06:27.998Z</time></trkpt><trkpt lat="44.078595" lon="8.1732533"><ele>54.0</ele><time>2026-04-14T18:06:28.999Z</time></trkpt><trkpt lat="44.0785917" lon="8.1734683"><ele>54.0</ele><time>2026-04-14T18:06:29.999Z</time></trkpt><trkpt lat="44.078585" lon="8.1736867"><ele>53.25</ele><time>2026-04-14T18:06:30.998Z</time></trkpt><trkpt lat="44.0785733" lon="8.17389"><ele>52.5</ele><time>2026-04-14T18:06:31.998Z</time></trkpt><trkpt lat="44.078575" lon="8.174095"><ele>51.75</ele><time>2026-04-14T18:06:32.998Z</time></trkpt><trkpt lat="44.07857" lon="8.1743033"><ele>51.0</ele><time>2026-04-14T18:06:33.998Z</time></trkpt><trkpt lat="44.0785717" lon="8.1745167"><ele>50.0</ele><time>2026-04-14T18:06:34.998Z</time></trkpt><trkpt lat="44.0785683" lon="8.1747483"><ele>49.0</ele><time>2026-04-14T18:06:35.999Z</time></trkpt><trkpt lat="44.07859" lon="8.1749767"><ele>48.0</ele><time>2026-04-14T18:06:36.998Z</time></trkpt><trkpt lat="44.078625" lon="8.1752167"><ele>48.0</ele><time>2026-04-14T18:06:37.998Z</time></trkpt><trkpt lat="44.07867" lon="8.175465"><ele>48.0</ele><time>2026-04-14T18:06:38.999Z</time></trkpt><trkpt lat="44.0787417" lon="8.1757083"><ele>48.0</ele><time>2026-04-14T18:06:39.998Z</time></trkpt><trkpt lat="44.0788017" lon="8.1759483"><ele>48.0</ele><time>2026-04-14T18:06:40.998Z</time></trkpt><trkpt lat="44.0788683" lon="8.1761867"><ele>48.0</ele><time>2026-04-14T18:06:41.998Z</time></trkpt><trkpt lat="44.07893" lon="8.176425"><ele>48.0</ele><time>2026-04-14T18:06:42.999Z</time></trkpt><trkpt lat="44.0789983" lon="8.176655"><ele>48.33333333333333</ele><time>2026-04-14T18:06:43.999Z</time></trkpt><trkpt lat="44.0790433" lon="8.1768983"><ele>48.666666666666664</ele><time>2026-04-14T18:06:44.998Z</time></trkpt><trkpt lat="44.0790967" lon="8.1771383"><ele>49.0</ele><time>2026-04-14T18:06:45.998Z</time></trkpt><trkpt lat="44.0791417" lon="8.1773833"><ele>50.33333333333333</ele><time>2026-04-14T18:06:46.998Z</time></trkpt><trkpt lat="44.079185" lon="8.177625"><ele>51.66666666666667</ele><time>2026-04-14T18:06:47.998Z</time></trkpt><trkpt lat="44.0791933" lon="8.1778617"><ele>53.0</ele><time>2026-04-14T18:06:48.999Z</time></trkpt><trkpt lat="44.0791967" lon="8.1781083"><ele>52.0</ele><time>2026-04-14T18:06:49.999Z</time></trkpt><trkpt lat="44.0791733" lon="8.1783533"><ele>51.0</ele><time>2026-04-14T18:06:50.999Z</time></trkpt><trkpt lat="44.0791333" lon="8.17858"><ele>50.0</ele><time>2026-04-14T18:06:51.999Z</time></trkpt><trkpt lat="44.0790867" lon="8.178805"><ele>48.66666666666667</ele><time>2026-04-14T18:06:52.999Z</time></trkpt><trkpt lat="44.079025" lon="8.1790267"><ele>47.333333333333336</ele><time>2026-04-14T18:06:53.998Z</time></trkpt><trkpt lat="44.0789617" lon="8.1792283"><ele>46.0</ele><time>2026-04-14T18:06:54.999Z</time></trkpt><trkpt lat="44.0788983" lon="8.1794183"><ele>46.0</ele><time>2026-04-14T18:06:55.998Z</time></trkpt><trkpt lat="44.0788383" lon="8.1796017"><ele>46.0</ele><time>2026-04-14T18:06:56.999Z</time></trkpt><trkpt lat="44.0787867" lon="8.1797833"><ele>46.0</ele><time>2026-04-14T18:06:57.999Z</time></trkpt><trkpt lat="44.078755" lon="8.1799717"><ele>46.0</ele><time>2026-04-14T18:06:58.998Z</time></trkpt><trkpt lat="44.0787267" lon="8.18017"><ele>45.5</ele><time>2026-04-14T18:06:59.998Z</time></trkpt><trkpt lat="44.0787417" lon="8.1803733"><ele>45.0</ele><time>2026-04-14T18:07:00.998Z</time></trkpt><trkpt lat="44.078765" lon="8.18058"><ele>44.5</ele><time>2026-04-14T18:07:01.998Z</time></trkpt><trkpt lat="44.0787817" lon="8.18078"><ele>44.0</ele><time>2026-04-14T18:07:02.998Z</time></trkpt><trkpt lat="44.078805" lon="8.180965"><ele>42.75</ele><time>2026-04-14T18:07:03.998Z</time></trkpt><trkpt lat="44.0788317" lon="8.181155"><ele>41.5</ele><time>2026-04-14T18:07:04.999Z</time></trkpt><trkpt lat="44.0788483" lon="8.1813233"><ele>40.25</ele><time>2026-04-14T18:07:05.998Z</time></trkpt><trkpt lat="44.0788683" lon="8.1815033"><ele>39.0</ele><time>2026-04-14T18:07:06.998Z</time></trkpt><trkpt lat="44.07888" lon="8.1816783"><ele>38.75</ele><time>2026-04-14T18:07:07.998Z</time></trkpt><trkpt lat="44.0788883" lon="8.1818633"><ele>38.5</ele><time>2026-04-14T18:07:08.999Z</time></trkpt><trkpt lat="44.0788867" lon="8.1820483"><ele>38.25</ele><time>2026-04-14T18:07:09.999Z</time></trkpt><trkpt lat="44.078865" lon="8.1822267"><ele>38.0</ele><time>2026-04-14T18:07:10.999Z</time></trkpt><trkpt lat="44.0788033" lon="8.18239"><ele>38.75</ele><time>2026-04-14T18:07:11.999Z</time></trkpt><trkpt lat="44.0787083" lon="8.1825583"><ele>39.5</ele><time>2026-04-14T18:07:12.999Z</time></trkpt><trkpt lat="44.07861" lon="8.182695"><ele>40.25</ele><time>2026-04-14T18:07:13.999Z</time></trkpt><trkpt lat="44.07851" lon="8.182835"><ele>41.0</ele><time>2026-04-14T18:07:14.999Z</time></trkpt><trkpt lat="44.0784083" lon="8.1829933"><ele>41.33333333333333</ele><time>2026-04-14T18:07:15.999Z</time></trkpt><trkpt lat="44.078275" lon="8.1831967"><ele>41.666666666666664</ele><time>2026-04-14T18:07:16.998Z</time></trkpt><trkpt lat="44.0781417" lon="8.1833967"><ele>42.0</ele><time>2026-04-14T18:07:17.998Z</time></trkpt><trkpt lat="44.07799" lon="8.1835967"><ele>41.0</ele><time>2026-04-14T18:07:18.999Z</time></trkpt><trkpt lat="44.0778333" lon="8.1837867"><ele>40.0</ele><time>2026-04-14T18:07:19.998Z</time></trkpt><trkpt lat="44.077655" lon="8.1839333"><ele>39.0</ele><time>2026-04-14T18:07:20.999Z</time></trkpt><trkpt lat="44.0774683" lon="8.1840833"><ele>37.333333333333336</ele><time>2026-04-14T18:07:21.998Z</time></trkpt><trkpt lat="44.07728" lon="8.1842217"><ele>35.66666666666667</ele><time>2026-04-14T18:07:22.998Z</time></trkpt><trkpt lat="44.07708" lon="8.1843617"><ele>34.0</ele><time>2026-04-14T18:07:23.998Z</time></trkpt><trkpt lat="44.0768717" lon="8.1845"><ele>34.0</ele><time>2026-04-14T18:07:24.998Z</time></trkpt><trkpt lat="44.0766583" lon="8.184615"><ele>34.0</ele><time>2026-04-14T18:07:25.998Z</time></trkpt><trkpt lat="44.0764317" lon="8.1846883"><ele>33.333333333333336</ele><time>2026-04-14T18:07:26.999Z</time></trkpt><trkpt lat="44.0762067" lon="8.1847617"><ele>32.666666666666664</ele><time>2026-04-14T18:07:27.998Z</time></trkpt><trkpt lat="44.0760083" lon="8.1848083"><ele>32.0</ele><time>2026-04-14T18:07:28.998Z</time></trkpt><trkpt lat="44.07582" lon="8.1848783"><ele>30.666666666666664</ele><time>2026-04-14T18:07:29.998Z</time></trkpt><trkpt lat="44.0756433" lon="8.1849783"><ele>29.333333333333336</ele><time>2026-04-14T18:07:30.999Z</time></trkpt><trkpt lat="44.07546" lon="8.1851183"><ele>28.0</ele><time>2026-04-14T18:07:31.999Z</time></trkpt><trkpt lat="44.0752967" lon="8.18525"><ele>28.0</ele><time>2026-04-14T18:07:32.999Z</time></trkpt><trkpt lat="44.0751417" lon="8.1853767"><ele>28.0</ele><time>2026-04-14T18:07:33.999Z</time></trkpt><trkpt lat="44.0749917" lon="8.1855117"><ele>28.0</ele><time>2026-04-14T18:07:34.999Z</time></trkpt><trkpt lat="44.0748633" lon="8.1856783"><ele>27.666666666666668</ele><time>2026-04-14T18:07:35.999Z</time></trkpt><trkpt lat="44.0747517" lon="8.18588"><ele>27.333333333333336</ele><time>2026-04-14T18:07:36.998Z</time></trkpt><trkpt lat="44.07465" lon="8.18611"><ele>27.0</ele><time>2026-04-14T18:07:37.999Z</time></trkpt><trkpt lat="44.0745517" lon="8.1863433"><ele>27.333333333333336</ele><time>2026-04-14T18:07:38.999Z</time></trkpt><trkpt lat="44.0744667" lon="8.1865733"><ele>27.666666666666668</ele><time>2026-04-14T18:07:39.999Z</time></trkpt><trkpt lat="44.0743883" lon="8.186785"><ele>28.0</ele><time>2026-04-14T18:07:40.999Z</time></trkpt><trkpt lat="44.074325" lon="8.187"><ele>28.0</ele><time>2026-04-14T18:07:41.998Z</time></trkpt><trkpt lat="44.07429" lon="8.187265"><ele>28.0</ele><time>2026-04-14T18:07:42.998Z</time></trkpt><trkpt lat="44.07429" lon="8.18753"><ele>28.0</ele><time>2026-04-14T18:07:43.998Z</time></trkpt><trkpt lat="44.0743183" lon="8.1877983"><ele>27.666666666666668</ele><time>2026-04-14T18:07:44.998Z</time></trkpt><trkpt lat="44.0743433" lon="8.1880817"><ele>27.333333333333336</ele><time>2026-04-14T18:07:45.998Z</time></trkpt><trkpt lat="44.0743633" lon="8.1883683"><ele>27.0</ele><time>2026-04-14T18:07:46.999Z</time></trkpt><trkpt lat="44.07438" lon="8.1886483"><ele>27.0</ele><time>2026-04-14T18:07:47.999Z</time></trkpt><trkpt lat="44.0743917" lon="8.188925"><ele>27.0</ele><time>2026-04-14T18:07:48.998Z</time></trkpt><trkpt lat="44.0743867" lon="8.1891983"><ele>27.0</ele><time>2026-04-14T18:07:49.998Z</time></trkpt><trkpt lat="44.0743817" lon="8.1894767"><ele>27.333333333333336</ele><time>2026-04-14T18:07:50.998Z</time></trkpt><trkpt lat="44.0743867" lon="8.1897533"><ele>27.666666666666668</ele><time>2026-04-14T18:07:51.998Z</time></trkpt><trkpt lat="44.0744" lon="8.1900217"><ele>28.0</ele><time>2026-04-14T18:07:52.998Z</time></trkpt><trkpt lat="44.0744117" lon="8.1902933"><ele>28.333333333333336</ele><time>2026-04-14T18:07:53.999Z</time></trkpt><trkpt lat="44.0744067" lon="8.1905567"><ele>28.666666666666664</ele><time>2026-04-14T18:07:54.999Z</time></trkpt><trkpt lat="44.07441" lon="8.1907817"><ele>29.0</ele><time>2026-04-14T18:07:55.998Z</time></trkpt><trkpt lat="44.0744183" lon="8.1910183"><ele>29.0</ele><time>2026-04-14T18:07:56.998Z</time></trkpt><trkpt lat="44.0744333" lon="8.1912367"><ele>29.0</ele><time>2026-04-14T18:07:57.998Z</time></trkpt><trkpt lat="44.0744467" lon="8.191445"><ele>29.0</ele><time>2026-04-14T18:07:58.999Z</time></trkpt><trkpt lat="44.07446" lon="8.1916467"><ele>28.75</ele><time>2026-04-14T18:07:59.999Z</time></trkpt><trkpt lat="44.0744717" lon="8.1918417"><ele>28.5</ele><time>2026-04-14T18:08:00.999Z</time></trkpt><trkpt lat="44.0744817" lon="8.1920533"><ele>28.25</ele><time>2026-04-14T18:08:01.998Z</time></trkpt><trkpt lat="44.0745" lon="8.1922633"><ele>28.0</ele><time>2026-04-14T18:08:02.998Z</time></trkpt><trkpt lat="44.0745283" lon="8.1924583"><ele>27.333333333333336</ele><time>2026-04-14T18:08:03.998Z</time></trkpt><trkpt lat="44.0745617" lon="8.192675"><ele>26.666666666666664</ele><time>2026-04-14T18:08:04.999Z</time></trkpt><trkpt lat="44.0745983" lon="8.19288"><ele>26.0</ele><time>2026-04-14T18:08:05.999Z</time></trkpt><trkpt lat="44.074645" lon="8.1930767"><ele>25.75</ele><time>2026-04-14T18:08:06.998Z</time></trkpt><trkpt lat="44.074705" lon="8.1932683"><ele>25.5</ele><time>2026-04-14T18:08:07.998Z</time></trkpt><trkpt lat="44.074765" lon="8.193445"><ele>25.25</ele><time>2026-04-14T18:08:08.999Z</time></trkpt><trkpt lat="44.0748317" lon="8.1936217"><ele>25.0</ele><time>2026-04-14T18:08:09.998Z</time></trkpt><trkpt lat="44.0748933" lon="8.1938"><ele>25.0</ele><time>2026-04-14T18:08:10.999Z</time></trkpt><trkpt lat="44.074965" lon="8.1939783"><ele>25.0</ele><time>2026-04-14T18:08:11.999Z</time></trkpt><trkpt lat="44.0750333" lon="8.19416"><ele>25.0</ele><time>2026-04-14T18:08:12.998Z</time></trkpt><trkpt lat="44.0751117" lon="8.19432"><ele>25.0</ele><time>2026-04-14T18:08:13.999Z</time></trkpt><trkpt lat="44.07518" lon="8.194485"><ele>25.0</ele><time>2026-04-14T18:08:14.998Z</time></trkpt><trkpt lat="44.0752333" lon="8.1946517"><ele>25.0</ele><time>2026-04-14T18:08:15.999Z</time></trkpt><trkpt lat="44.0753017" lon="8.194815"><ele>25.0</ele><time>2026-04-14T18:08:16.999Z</time></trkpt><trkpt lat="44.07536" lon="8.1949617"><ele>25.0</ele><time>2026-04-14T18:08:17.998Z</time></trkpt><trkpt lat="44.0754117" lon="8.1951117"><ele>24.5</ele><time>2026-04-14T18:08:18.999Z</time></trkpt><trkpt lat="44.0754667" lon="8.1952583"><ele>24.0</ele><time>2026-04-14T18:08:19.999Z</time></trkpt><trkpt lat="44.0755367" lon="8.1953983"><ele>23.5</ele><time>2026-04-14T18:08:20.999Z</time></trkpt><trkpt lat="44.07558" lon="8.1955467"><ele>23.0</ele><time>2026-04-14T18:08:21.999Z</time></trkpt><trkpt lat="44.07563" lon="8.1956833"><ele>22.666666666666668</ele><time>2026-04-14T18:08:22.998Z</time></trkpt><trkpt lat="44.0756667" lon="8.1958017"><ele>22.333333333333336</ele><time>2026-04-14T18:08:23.999Z</time></trkpt><trkpt lat="44.0756917" lon="8.19593"><ele>22.0</ele><time>2026-04-14T18:08:24.999Z</time></trkpt><trkpt lat="44.0756983" lon="8.1960467"><ele>21.666666666666668</ele><time>2026-04-14T18:08:25.998Z</time></trkpt><trkpt lat="44.075695" lon="8.196135"><ele>21.333333333333332</ele><time>2026-04-14T18:08:26.998Z</time></trkpt><trkpt lat="44.0756983" lon="8.1962317"><ele>21.0</ele><time>2026-04-14T18:08:28.998Z</time></trkpt><trkpt lat="44.0757133" lon="8.1963367"><ele>21.0</ele><time>2026-04-14T18:08:48.998Z</time></trkpt><trkpt lat="44.0757133" lon="8.196475"><ele>21.0</ele><time>2026-04-14T18:08:49.999Z</time></trkpt><trkpt lat="44.075735" lon="8.1966533"><ele>21.0</ele><time>2026-04-14T18:08:50.998Z</time></trkpt><trkpt lat="44.075785" lon="8.1968683"><ele>21.0</ele><time>2026-04-14T18:08:51.998Z</time></trkpt><trkpt lat="44.075845" lon="8.1970817"><ele>20.0</ele><time>2026-04-14T18:08:52.999Z</time></trkpt><trkpt lat="44.0759317" lon="8.1972817"><ele>19.0</ele><time>2026-04-14T18:08:53.998Z</time></trkpt><trkpt lat="44.0760233" lon="8.197475"><ele>18.0</ele><time>2026-04-14T18:08:54.999Z</time></trkpt><trkpt lat="44.0761133" lon="8.1976667"><ele>16.333333333333332</ele><time>2026-04-14T18:08:55.998Z</time></trkpt><trkpt lat="44.0762083" lon="8.1978633"><ele>14.666666666666666</ele><time>2026-04-14T18:08:56.998Z</time></trkpt><trkpt lat="44.076305" lon="8.198075"><ele>13.0</ele><time>2026-04-14T18:08:57.999Z</time></trkpt><trkpt lat="44.076395" lon="8.19829"><ele>13.0</ele><time>2026-04-14T18:08:58.999Z</time></trkpt><trkpt lat="44.076485" lon="8.19852"><ele>13.0</ele><time>2026-04-14T18:08:59.998Z</time></trkpt><trkpt lat="44.0765483" lon="8.1987517"><ele>13.0</ele><time>2026-04-14T18:09:00.998Z</time></trkpt><trkpt lat="44.076605" lon="8.19901"><ele>14.333333333333332</ele><time>2026-04-14T18:09:01.998Z</time></trkpt><trkpt lat="44.0766467" lon="8.199275"><ele>15.666666666666668</ele><time>2026-04-14T18:09:02.999Z</time></trkpt><trkpt lat="44.0766767" lon="8.199545"><ele>17.0</ele><time>2026-04-14T18:09:03.999Z</time></trkpt><trkpt lat="44.0767067" lon="8.1998183"><ele>18.0</ele><time>2026-04-14T18:09:04.998Z</time></trkpt><trkpt lat="44.0767233" lon="8.2000933"><ele>19.0</ele><time>2026-04-14T18:09:05.998Z</time></trkpt><trkpt lat="44.0767417" lon="8.2003783"><ele>20.0</ele><time>2026-04-14T18:09:06.999Z</time></trkpt><trkpt lat="44.076765" lon="8.200665"><ele>20.333333333333336</ele><time>2026-04-14T18:09:07.999Z</time></trkpt><trkpt lat="44.0767833" lon="8.2009483"><ele>20.666666666666668</ele><time>2026-04-14T18:09:08.998Z</time></trkpt><trkpt lat="44.0768333" lon="8.201235"><ele>21.0</ele><time>2026-04-14T18:09:09.999Z</time></trkpt><trkpt lat="44.0768467" lon="8.2015367"><ele>19.666666666666668</ele><time>2026-04-14T18:09:10.999Z</time></trkpt><trkpt lat="44.0768783" lon="8.2018467"><ele>18.333333333333336</ele><time>2026-04-14T18:09:11.998Z</time></trkpt><trkpt lat="44.0769033" lon="8.20214"><ele>17.0</ele><time>2026-04-14T18:09:12.999Z</time></trkpt><trkpt lat="44.0769317" lon="8.202405"><ele>16.666666666666668</ele><time>2026-04-14T18:09:13.998Z</time></trkpt><trkpt lat="44.07696" lon="8.202655"><ele>16.333333333333332</ele><time>2026-04-14T18:09:14.999Z</time></trkpt><trkpt lat="44.07699" lon="8.202885"><ele>16.0</ele><time>2026-04-14T18:09:15.998Z</time></trkpt><trkpt lat="44.0770217" lon="8.2030983"><ele>16.333333333333332</ele><time>2026-04-14T18:09:16.999Z</time></trkpt><trkpt lat="44.0770767" lon="8.2033017"><ele>16.666666666666668</ele><time>2026-04-14T18:09:17.999Z</time></trkpt><trkpt lat="44.0771667" lon="8.2035017"><ele>17.0</ele><time>2026-04-14T18:09:18.998Z</time></trkpt><trkpt lat="44.077275" lon="8.2036817"><ele>17.0</ele><time>2026-04-14T18:09:19.998Z</time></trkpt><trkpt lat="44.0774" lon="8.20387"><ele>17.0</ele><time>2026-04-14T18:09:20.999Z</time></trkpt><trkpt lat="44.077525" lon="8.2040483"><ele>17.0</ele><time>2026-04-14T18:09:21.999Z</time></trkpt><trkpt lat="44.0776567" lon="8.2042167"><ele>16.0</ele><time>2026-04-14T18:09:22.998Z</time></trkpt><trkpt lat="44.0777683" lon="8.2043917"><ele>15.0</ele><time>2026-04-14T18:09:23.999Z</time></trkpt><trkpt lat="44.0778367" lon="8.2045717"><ele>14.0</ele><time>2026-04-14T18:09:24.998Z</time></trkpt><trkpt lat="44.077855" lon="8.2047783"><ele>13.333333333333334</ele><time>2026-04-14T18:09:25.998Z</time></trkpt><trkpt lat="44.0778383" lon="8.204995"><ele>12.666666666666668</ele><time>2026-04-14T18:09:26.998Z</time></trkpt><trkpt lat="44.077795" lon="8.20525"><ele>12.0</ele><time>2026-04-14T18:09:27.998Z</time></trkpt><trkpt lat="44.0777583" lon="8.205495"><ele>10.666666666666666</ele><time>2026-04-14T18:09:28.998Z</time></trkpt><trkpt lat="44.0777083" lon="8.2057517"><ele>9.333333333333332</ele><time>2026-04-14T18:09:29.998Z</time></trkpt><trkpt lat="44.0776833" lon="8.2060183"><ele>8.0</ele><time>2026-04-14T18:09:30.999Z</time></trkpt><trkpt lat="44.0776667" lon="8.2062533"><ele>8.0</ele><time>2026-04-14T18:09:31.998Z</time></trkpt><trkpt lat="44.0776717" lon="8.2064867"><ele>8.0</ele><time>2026-04-14T18:09:32.998Z</time></trkpt><trkpt lat="44.07771" lon="8.206725"><ele>8.0</ele><time>2026-04-14T18:09:33.998Z</time></trkpt><trkpt lat="44.0777017" lon="8.206935"><ele>8.0</ele><time>2026-04-14T18:09:34.998Z</time></trkpt><trkpt lat="44.0776883" lon="8.20712"><ele>8.0</ele><time>2026-04-14T18:09:35.998Z</time></trkpt><trkpt lat="44.07762" lon="8.2073067"><ele>8.0</ele><time>2026-04-14T18:09:36.998Z</time></trkpt><trkpt lat="44.07752" lon="8.2074733"><ele>8.0</ele><time>2026-04-14T18:09:37.999Z</time></trkpt><trkpt lat="44.0774" lon="8.2076133"><ele>7.666666666666666</ele><time>2026-04-14T18:09:38.999Z</time></trkpt><trkpt lat="44.077275" lon="8.20776"><ele>7.333333333333334</ele><time>2026-04-14T18:09:39.998Z</time></trkpt><trkpt lat="44.077155" lon="8.207935"><ele>7.0</ele><time>2026-04-14T18:09:40.998Z</time></trkpt><trkpt lat="44.077055" lon="8.2081267"><ele>7.666666666666667</ele><time>2026-04-14T18:09:41.998Z</time></trkpt><trkpt lat="44.0769683" lon="8.2083383"><ele>8.333333333333334</ele><time>2026-04-14T18:09:42.999Z</time></trkpt><trkpt lat="44.0769" lon="8.2085483"><ele>9.0</ele><time>2026-04-14T18:09:43.998Z</time></trkpt><trkpt lat="44.076855" lon="8.2087267"><ele>9.0</ele><time>2026-04-14T18:09:44.998Z</time></trkpt><trkpt lat="44.0767967" lon="8.208935"><ele>9.0</ele><time>2026-04-14T18:09:45.999Z</time></trkpt><trkpt lat="44.0767683" lon="8.2091317"><ele>9.0</ele><time>2026-04-14T18:09:46.998Z</time></trkpt><trkpt lat="44.0767833" lon="8.2093117"><ele>9.0</ele><time>2026-04-14T18:09:47.999Z</time></trkpt><trkpt lat="44.0768217" lon="8.209495"><ele>9.0</ele><time>2026-04-14T18:09:48.998Z</time></trkpt><trkpt lat="44.0769" lon="8.2096333"><ele>9.0</ele><time>2026-04-14T18:09:49.998Z</time></trkpt><trkpt lat="44.0769733" lon="8.2097367"><ele>9.0</ele><time>2026-04-14T18:09:50.998Z</time></trkpt><trkpt lat="44.07704" lon="8.2098567"><ele>9.0</ele><time>2026-04-14T18:09:51.998Z</time></trkpt><trkpt lat="44.07709" lon="8.2099867"><ele>9.0</ele><time>2026-04-14T18:09:52.998Z</time></trkpt><trkpt lat="44.0771167" lon="8.2101683"><ele>8.0</ele><time>2026-04-14T18:09:53.998Z</time></trkpt><trkpt lat="44.0771233" lon="8.2103733"><ele>7.0</ele><time>2026-04-14T18:09:54.998Z</time></trkpt><trkpt lat="44.0771117" lon="8.21061"><ele>6.0</ele><time>2026-04-14T18:09:55.999Z</time></trkpt><trkpt lat="44.0771" lon="8.2108567"><ele>5.333333333333333</ele><time>2026-04-14T18:09:56.999Z</time></trkpt><trkpt lat="44.0771117" lon="8.2110917"><ele>4.666666666666666</ele><time>2026-04-14T18:09:57.998Z</time></trkpt><trkpt lat="44.0771567" lon="8.2113317"><ele>4.0</ele><time>2026-04-14T18:09:58.999Z</time></trkpt><trkpt lat="44.0771933" lon="8.2115683"><ele>4.0</ele><time>2026-04-14T18:09:59.998Z</time></trkpt><trkpt lat="44.0772483" lon="8.2118083"><ele>4.0</ele><time>2026-04-14T18:10:00.999Z</time></trkpt><trkpt lat="44.07734" lon="8.2120517"><ele>4.0</ele><time>2026-04-14T18:10:01.999Z</time></trkpt><trkpt lat="44.0774417" lon="8.212255"><ele>5.0</ele><time>2026-04-14T18:10:02.998Z</time></trkpt><trkpt lat="44.0775467" lon="8.2124683"><ele>6.0</ele><time>2026-04-14T18:10:03.998Z</time></trkpt><trkpt lat="44.0776183" lon="8.212695"><ele>7.0</ele><time>2026-04-14T18:10:04.998Z</time></trkpt><trkpt lat="44.07768" lon="8.212895"><ele>7.0</ele><time>2026-04-14T18:10:05.998Z</time></trkpt><trkpt lat="44.07773" lon="8.2130567"><ele>6.999999999999999</ele><time>2026-04-14T18:10:06.998Z</time></trkpt><trkpt lat="44.0777667" lon="8.2131883"><ele>6.999999999999999</ele><time>2026-04-14T18:10:07.998Z</time></trkpt><trkpt lat="44.0777867" lon="8.213295"><ele>7.0</ele><time>2026-04-14T18:10:08.998Z</time></trkpt><trkpt lat="44.077755" lon="8.2134483"><ele>7.0</ele><time>2026-04-14T18:10:10.999Z</time></trkpt><trkpt lat="44.0776683" lon="8.21351"><ele>6.666666666666667</ele><time>2026-04-14T18:10:11.998Z</time></trkpt><trkpt lat="44.077565" lon="8.2135983"><ele>6.333333333333334</ele><time>2026-04-14T18:10:12.998Z</time></trkpt><trkpt lat="44.07742" lon="8.2137267"><ele>6.0</ele><time>2026-04-14T18:10:13.999Z</time></trkpt><trkpt lat="44.0772733" lon="8.2138567"><ele>5.75</ele><time>2026-04-14T18:10:14.998Z</time></trkpt><trkpt lat="44.0771467" lon="8.2139883"><ele>5.5</ele><time>2026-04-14T18:10:15.999Z</time></trkpt><trkpt lat="44.0770367" lon="8.2141117"><ele>5.25</ele><time>2026-04-14T18:10:16.998Z</time></trkpt><trkpt lat="44.076925" lon="8.214235"><ele>5.0</ele><time>2026-04-14T18:10:17.999Z</time></trkpt><trkpt lat="44.0768483" lon="8.21434"><ele>5.0</ele><time>2026-04-14T18:10:18.999Z</time></trkpt><trkpt lat="44.07679" lon="8.21441"><ele>5.0</ele><time>2026-04-14T18:10:19.998Z</time></trkpt><trkpt lat="44.076705" lon="8.2144467"><ele>5.0</ele><time>2026-04-14T18:10:21.999Z</time></trkpt><trkpt lat="44.0765983" lon="8.2143533"><ele>5.0</ele><time>2026-04-14T18:10:23.998Z</time></trkpt><trkpt lat="44.0765217" lon="8.2143083"><ele>5.0</ele><time>2026-04-14T18:10:24.999Z</time></trkpt><trkpt lat="44.0764467" lon="8.2142583"><ele>4.6</ele><time>2026-04-14T18:10:25.999Z</time></trkpt><trkpt lat="44.0763517" lon="8.214215"><ele>4.2</ele><time>2026-04-14T18:10:26.998Z</time></trkpt><trkpt lat="44.0762483" lon="8.2141767"><ele>3.8</ele><time>2026-04-14T18:10:27.999Z</time></trkpt><trkpt lat="44.076145" lon="8.21412"><ele>3.4</ele><time>2026-04-14T18:10:28.999Z</time></trkpt><trkpt lat="44.076045" lon="8.2140483"><ele>3.0</ele><time>2026-04-14T18:10:29.999Z</time></trkpt><trkpt lat="44.0759517" lon="8.2139667"><ele>3.0</ele><time>2026-04-14T18:10:30.999Z</time></trkpt><trkpt lat="44.0758667" lon="8.2138933"><ele>3.0</ele><time>2026-04-14T18:10:31.998Z</time></trkpt><trkpt lat="44.0757817" lon="8.2138117"><ele>3.0</ele><time>2026-04-14T18:10:32.998Z</time></trkpt><trkpt lat="44.0756933" lon="8.2137183"><ele>3.0</ele><time>2026-04-14T18:10:33.998Z</time></trkpt><trkpt lat="44.0756033" lon="8.2136317"><ele>3.0</ele><time>2026-04-14T18:10:34.999Z</time></trkpt><trkpt lat="44.0755133" lon="8.2135367"><ele>3.25</ele><time>2026-04-14T18:10:35.998Z</time></trkpt><trkpt lat="44.075415" lon="8.2134367"><ele>3.5</ele><time>2026-04-14T18:10:36.999Z</time></trkpt><trkpt lat="44.0753067" lon="8.21335"><ele>3.75</ele><time>2026-04-14T18:10:37.998Z</time></trkpt><trkpt lat="44.0752083" lon="8.213265"><ele>4.0</ele><time>2026-04-14T18:10:38.999Z</time></trkpt><trkpt lat="44.0751333" lon="8.2132033"><ele>4.0</ele><time>2026-04-14T18:10:39.999Z</time></trkpt><trkpt lat="44.075035" lon="8.2131183"><ele>4.0</ele><time>2026-04-14T18:10:40.999Z</time></trkpt><trkpt lat="44.07496" lon="8.2130483"><ele>4.0</ele><time>2026-04-14T18:10:41.998Z</time></trkpt><trkpt lat="44.0748667" lon="8.2129883"><ele>4.0</ele><time>2026-04-14T18:10:42.998Z</time></trkpt><trkpt lat="44.0747667" lon="8.2129417"><ele>4.0</ele><time>2026-04-14T18:10:43.999Z</time></trkpt><trkpt lat="44.0746867" lon="8.2128967"><ele>4.0</ele><time>2026-04-14T18:10:44.999Z</time></trkpt><trkpt lat="44.0746117" lon="8.2128517"><ele>4.0</ele><time>2026-04-14T18:10:45.999Z</time></trkpt><trkpt lat="44.07454" lon="8.2128083"><ele>4.0</ele><time>2026-04-14T18:10:46.998Z</time></trkpt><trkpt lat="44.0744733" lon="8.2127717"><ele>4.0</ele><time>2026-04-14T18:10:47.998Z</time></trkpt><trkpt lat="44.0743867" lon="8.2127883"><ele>4.0</ele><time>2026-04-14T18:10:49.998Z</time></trkpt></trkseg></trk></gpx>